<?xml version="1.0" encoding="UTF-8" standalone="no" ?>
<gpx xmlns="http://www.topografix.com/GPX/1/1" xmlns:xsi="http://www.w3.org/2001/XMLSchema-instance" xsi:schemaLocation="http://www.topografix.com/GPX/1/1 http://www.topografix.com/GPX/1/1/gpx.xsd" version="1.1" creator="VisuGPX - https://www.visugpx.com">
  <metadata>
    <name>Tête de Pibossan en boucle depuis Léouvé</name>
    <desc><![CDATA[Sentier bien balisé sauf entre le collet de Larmelle et le sommet. Pas de chemin sur la carte IGN, mais on voit de temps en temps la trace d'un ancien sentier, il y a même une balise jaune presque effacée et des cairns.
Du sommet vue à 360°sur le Mt St Honorat, le Dôme du Barrot, le Mounier, le Mercantour au loin... jolie balade facile.
]]></desc>
  </metadata>
  <trk>
    <name><![CDATA[Tête de Pibossan en boucle depuis Léouvé_1]]></name>
    <trkseg>
      <trkpt lat="44.00786" lon="6.87074">
        <ele>898</ele>
        <time>2019-04-20T09:27:05Z</time>
      </trkpt>
      <trkpt lat="44.00786" lon="6.87074">
        <ele>898</ele>
        <time>2019-04-20T09:27:05Z</time>
      </trkpt>
      <trkpt lat="44.00787" lon="6.87073">
        <ele>898</ele>
        <time>2019-04-20T09:27:05Z</time>
      </trkpt>
      <trkpt lat="44.00787" lon="6.87071">
        <ele>898</ele>
        <time>2019-04-20T09:27:05Z</time>
      </trkpt>
      <trkpt lat="44.00787" lon="6.87071">
        <ele>898</ele>
        <time>2019-04-20T09:27:05Z</time>
      </trkpt>
      <trkpt lat="44.0079" lon="6.8708">
        <ele>898</ele>
        <time>2019-04-20T09:28:29Z</time>
      </trkpt>
      <trkpt lat="44.0079" lon="6.87084">
        <ele>898</ele>
        <time>2019-04-20T09:28:29Z</time>
      </trkpt>
      <trkpt lat="44.00791" lon="6.87087">
        <ele>898</ele>
        <time>2019-04-20T09:28:29Z</time>
      </trkpt>
      <trkpt lat="44.00791" lon="6.87091">
        <ele>898</ele>
        <time>2019-04-20T09:28:29Z</time>
      </trkpt>
      <trkpt lat="44.00793" lon="6.87096">
        <ele>909</ele>
        <time>2019-04-20T09:28:29Z</time>
      </trkpt>
      <trkpt lat="44.00794" lon="6.87102">
        <ele>909</ele>
        <time>2019-04-20T09:28:45Z</time>
      </trkpt>
      <trkpt lat="44.00797" lon="6.87107">
        <ele>909</ele>
        <time>2019-04-20T09:28:45Z</time>
      </trkpt>
      <trkpt lat="44.008" lon="6.8711">
        <ele>909</ele>
        <time>2019-04-20T09:28:45Z</time>
      </trkpt>
      <trkpt lat="44.00804" lon="6.87115">
        <ele>909</ele>
        <time>2019-04-20T09:28:45Z</time>
      </trkpt>
      <trkpt lat="44.00806" lon="6.8712">
        <ele>909</ele>
        <time>2019-04-20T09:29:05Z</time>
      </trkpt>
      <trkpt lat="44.00808" lon="6.87126">
        <ele>891</ele>
        <time>2019-04-20T09:29:05Z</time>
      </trkpt>
      <trkpt lat="44.0081" lon="6.87128">
        <ele>891</ele>
        <time>2019-04-20T09:29:05Z</time>
      </trkpt>
      <trkpt lat="44.00811" lon="6.87129">
        <ele>891</ele>
        <time>2019-04-20T09:29:05Z</time>
      </trkpt>
      <trkpt lat="44.00813" lon="6.87128">
        <ele>891</ele>
        <time>2019-04-20T09:29:05Z</time>
      </trkpt>
      <trkpt lat="44.00813" lon="6.87128">
        <ele>891</ele>
        <time>2019-04-20T09:29:53Z</time>
      </trkpt>
      <trkpt lat="44.00817" lon="6.87129">
        <ele>891</ele>
        <time>2019-04-20T09:29:53Z</time>
      </trkpt>
      <trkpt lat="44.00821" lon="6.8713">
        <ele>891</ele>
        <time>2019-04-20T09:29:53Z</time>
      </trkpt>
      <trkpt lat="44.00825" lon="6.87129">
        <ele>891</ele>
        <time>2019-04-20T09:29:53Z</time>
      </trkpt>
      <trkpt lat="44.00828" lon="6.87127">
        <ele>891</ele>
        <time>2019-04-20T09:29:53Z</time>
      </trkpt>
      <trkpt lat="44.00832" lon="6.87123">
        <ele>909</ele>
        <time>2019-04-20T09:30:09Z</time>
      </trkpt>
      <trkpt lat="44.00835" lon="6.8712">
        <ele>909</ele>
        <time>2019-04-20T09:30:09Z</time>
      </trkpt>
      <trkpt lat="44.00838" lon="6.87116">
        <ele>909</ele>
        <time>2019-04-20T09:30:09Z</time>
      </trkpt>
      <trkpt lat="44.00841" lon="6.87114">
        <ele>909</ele>
        <time>2019-04-20T09:30:09Z</time>
      </trkpt>
      <trkpt lat="44.00844" lon="6.87113">
        <ele>909</ele>
        <time>2019-04-20T09:30:25Z</time>
      </trkpt>
      <trkpt lat="44.00849" lon="6.87109">
        <ele>909</ele>
        <time>2019-04-20T09:30:25Z</time>
      </trkpt>
      <trkpt lat="44.00853" lon="6.87106">
        <ele>909</ele>
        <time>2019-04-20T09:30:25Z</time>
      </trkpt>
      <trkpt lat="44.00856" lon="6.87104">
        <ele>909</ele>
        <time>2019-04-20T09:30:25Z</time>
      </trkpt>
      <trkpt lat="44.00859" lon="6.87101">
        <ele>909</ele>
        <time>2019-04-20T09:30:45Z</time>
      </trkpt>
      <trkpt lat="44.00861" lon="6.87099">
        <ele>909</ele>
        <time>2019-04-20T09:30:45Z</time>
      </trkpt>
      <trkpt lat="44.00861" lon="6.87098">
        <ele>909</ele>
        <time>2019-04-20T09:30:45Z</time>
      </trkpt>
      <trkpt lat="44.00864" lon="6.87096">
        <ele>909</ele>
        <time>2019-04-20T09:30:45Z</time>
      </trkpt>
      <trkpt lat="44.00866" lon="6.87092">
        <ele>909</ele>
        <time>2019-04-20T09:30:45Z</time>
      </trkpt>
      <trkpt lat="44.0087" lon="6.87086">
        <ele>909</ele>
        <time>2019-04-20T09:31:01Z</time>
      </trkpt>
      <trkpt lat="44.00873" lon="6.87083">
        <ele>909</ele>
        <time>2019-04-20T09:31:02Z</time>
      </trkpt>
      <trkpt lat="44.00875" lon="6.8708">
        <ele>920</ele>
        <time>2019-04-20T09:31:02Z</time>
      </trkpt>
      <trkpt lat="44.0088" lon="6.87078">
        <ele>920</ele>
        <time>2019-04-20T09:31:02Z</time>
      </trkpt>
      <trkpt lat="44.00883" lon="6.87075">
        <ele>920</ele>
        <time>2019-04-20T09:31:17Z</time>
      </trkpt>
      <trkpt lat="44.00885" lon="6.87072">
        <ele>920</ele>
        <time>2019-04-20T09:31:17Z</time>
      </trkpt>
      <trkpt lat="44.00888" lon="6.87072">
        <ele>920</ele>
        <time>2019-04-20T09:31:17Z</time>
      </trkpt>
      <trkpt lat="44.00893" lon="6.87069">
        <ele>920</ele>
        <time>2019-04-20T09:31:17Z</time>
      </trkpt>
      <trkpt lat="44.00898" lon="6.87067">
        <ele>920</ele>
        <time>2019-04-20T09:31:33Z</time>
      </trkpt>
      <trkpt lat="44.00902" lon="6.87066">
        <ele>920</ele>
        <time>2019-04-20T09:31:33Z</time>
      </trkpt>
      <trkpt lat="44.00906" lon="6.87066">
        <ele>920</ele>
        <time>2019-04-20T09:31:33Z</time>
      </trkpt>
      <trkpt lat="44.00913" lon="6.87069">
        <ele>920</ele>
        <time>2019-04-20T09:31:33Z</time>
      </trkpt>
      <trkpt lat="44.00919" lon="6.87071">
        <ele>920</ele>
        <time>2019-04-20T09:31:49Z</time>
      </trkpt>
      <trkpt lat="44.00924" lon="6.87077">
        <ele>920</ele>
        <time>2019-04-20T09:31:49Z</time>
      </trkpt>
      <trkpt lat="44.00927" lon="6.87082">
        <ele>920</ele>
        <time>2019-04-20T09:31:49Z</time>
      </trkpt>
      <trkpt lat="44.00932" lon="6.87086">
        <ele>920</ele>
        <time>2019-04-20T09:31:49Z</time>
      </trkpt>
      <trkpt lat="44.00935" lon="6.87091">
        <ele>920</ele>
        <time>2019-04-20T09:32:05Z</time>
      </trkpt>
      <trkpt lat="44.00938" lon="6.87095">
        <ele>920</ele>
        <time>2019-04-20T09:32:05Z</time>
      </trkpt>
      <trkpt lat="44.00941" lon="6.871">
        <ele>920</ele>
        <time>2019-04-20T09:32:05Z</time>
      </trkpt>
      <trkpt lat="44.00941" lon="6.87104">
        <ele>920</ele>
        <time>2019-04-20T09:32:05Z</time>
      </trkpt>
      <trkpt lat="44.00946" lon="6.87102">
        <ele>920</ele>
        <time>2019-04-20T09:33:09Z</time>
      </trkpt>
      <trkpt lat="44.00942" lon="6.87099">
        <ele>920</ele>
        <time>2019-04-20T09:33:09Z</time>
      </trkpt>
      <trkpt lat="44.0094" lon="6.87097">
        <ele>920</ele>
        <time>2019-04-20T09:33:09Z</time>
      </trkpt>
      <trkpt lat="44.00939" lon="6.87091">
        <ele>920</ele>
        <time>2019-04-20T09:33:09Z</time>
      </trkpt>
      <trkpt lat="44.00937" lon="6.87085">
        <ele>920</ele>
        <time>2019-04-20T09:33:09Z</time>
      </trkpt>
      <trkpt lat="44.00935" lon="6.87078">
        <ele>920</ele>
        <time>2019-04-20T09:33:25Z</time>
      </trkpt>
      <trkpt lat="44.00933" lon="6.87069">
        <ele>920</ele>
        <time>2019-04-20T09:33:25Z</time>
      </trkpt>
      <trkpt lat="44.00935" lon="6.87062">
        <ele>920</ele>
        <time>2019-04-20T09:33:25Z</time>
      </trkpt>
      <trkpt lat="44.00936" lon="6.8706">
        <ele>920</ele>
        <time>2019-04-20T09:33:25Z</time>
      </trkpt>
      <trkpt lat="44.00935" lon="6.87055">
        <ele>920</ele>
        <time>2019-04-20T09:33:49Z</time>
      </trkpt>
      <trkpt lat="44.00934" lon="6.87054">
        <ele>920</ele>
        <time>2019-04-20T09:33:49Z</time>
      </trkpt>
      <trkpt lat="44.00933" lon="6.87051">
        <ele>920</ele>
        <time>2019-04-20T09:33:49Z</time>
      </trkpt>
      <trkpt lat="44.00934" lon="6.87048">
        <ele>920</ele>
        <time>2019-04-20T09:33:49Z</time>
      </trkpt>
      <trkpt lat="44.00934" lon="6.87045">
        <ele>920</ele>
        <time>2019-04-20T09:33:49Z</time>
      </trkpt>
      <trkpt lat="44.0094" lon="6.87043">
        <ele>920</ele>
        <time>2019-04-20T09:34:25Z</time>
      </trkpt>
      <trkpt lat="44.0094" lon="6.87044">
        <ele>920</ele>
        <time>2019-04-20T09:34:25Z</time>
      </trkpt>
      <trkpt lat="44.00943" lon="6.87042">
        <ele>920</ele>
        <time>2019-04-20T09:34:25Z</time>
      </trkpt>
      <trkpt lat="44.00943" lon="6.87043">
        <ele>920</ele>
        <time>2019-04-20T09:34:25Z</time>
      </trkpt>
      <trkpt lat="44.00943" lon="6.87041">
        <ele>940</ele>
        <time>2019-04-20T09:34:25Z</time>
      </trkpt>
      <trkpt lat="44.00946" lon="6.87036">
        <ele>940</ele>
        <time>2019-04-20T09:34:41Z</time>
      </trkpt>
      <trkpt lat="44.00947" lon="6.87041">
        <ele>940</ele>
        <time>2019-04-20T09:34:41Z</time>
      </trkpt>
      <trkpt lat="44.00949" lon="6.87044">
        <ele>920</ele>
        <time>2019-04-20T09:34:41Z</time>
      </trkpt>
      <trkpt lat="44.00951" lon="6.87047">
        <ele>920</ele>
        <time>2019-04-20T09:34:41Z</time>
      </trkpt>
      <trkpt lat="44.00952" lon="6.87048">
        <ele>920</ele>
        <time>2019-04-20T09:34:57Z</time>
      </trkpt>
      <trkpt lat="44.00955" lon="6.87049">
        <ele>920</ele>
        <time>2019-04-20T09:34:57Z</time>
      </trkpt>
      <trkpt lat="44.00957" lon="6.87056">
        <ele>920</ele>
        <time>2019-04-20T09:34:57Z</time>
      </trkpt>
      <trkpt lat="44.00959" lon="6.87057">
        <ele>921</ele>
        <time>2019-04-20T09:34:57Z</time>
      </trkpt>
      <trkpt lat="44.00962" lon="6.87057">
        <ele>921</ele>
        <time>2019-04-20T09:35:21Z</time>
      </trkpt>
      <trkpt lat="44.00965" lon="6.87061">
        <ele>921</ele>
        <time>2019-04-20T09:35:21Z</time>
      </trkpt>
      <trkpt lat="44.00965" lon="6.8706">
        <ele>921</ele>
        <time>2019-04-20T09:35:21Z</time>
      </trkpt>
      <trkpt lat="44.00968" lon="6.87061">
        <ele>921</ele>
        <time>2019-04-20T09:35:21Z</time>
      </trkpt>
      <trkpt lat="44.00971" lon="6.87064">
        <ele>921</ele>
        <time>2019-04-20T09:35:21Z</time>
      </trkpt>
      <trkpt lat="44.00963" lon="6.87062">
        <ele>921</ele>
        <time>2019-04-20T09:35:57Z</time>
      </trkpt>
      <trkpt lat="44.00962" lon="6.8706">
        <ele>921</ele>
        <time>2019-04-20T09:35:57Z</time>
      </trkpt>
      <trkpt lat="44.00962" lon="6.8706">
        <ele>921</ele>
        <time>2019-04-20T09:35:57Z</time>
      </trkpt>
      <trkpt lat="44.0096" lon="6.87063">
        <ele>921</ele>
        <time>2019-04-20T09:35:57Z</time>
      </trkpt>
      <trkpt lat="44.00959" lon="6.87063">
        <ele>921</ele>
        <time>2019-04-20T09:35:57Z</time>
      </trkpt>
      <trkpt lat="44.0096" lon="6.87062">
        <ele>921</ele>
        <time>2019-04-20T09:36:17Z</time>
      </trkpt>
      <trkpt lat="44.00957" lon="6.87058">
        <ele>920</ele>
        <time>2019-04-20T09:36:17Z</time>
      </trkpt>
      <trkpt lat="44.00959" lon="6.87055">
        <ele>921</ele>
        <time>2019-04-20T09:36:17Z</time>
      </trkpt>
      <trkpt lat="44.00958" lon="6.87051">
        <ele>920</ele>
        <time>2019-04-20T09:36:17Z</time>
      </trkpt>
      <trkpt lat="44.00958" lon="6.87047">
        <ele>920</ele>
        <time>2019-04-20T09:36:17Z</time>
      </trkpt>
      <trkpt lat="44.00958" lon="6.87042">
        <ele>921</ele>
        <time>2019-04-20T09:36:33Z</time>
      </trkpt>
      <trkpt lat="44.0096" lon="6.87038">
        <ele>944</ele>
        <time>2019-04-20T09:36:33Z</time>
      </trkpt>
      <trkpt lat="44.00961" lon="6.87033">
        <ele>944</ele>
        <time>2019-04-20T09:36:33Z</time>
      </trkpt>
      <trkpt lat="44.00962" lon="6.8703">
        <ele>944</ele>
        <time>2019-04-20T09:36:33Z</time>
      </trkpt>
      <trkpt lat="44.00961" lon="6.87028">
        <ele>944</ele>
        <time>2019-04-20T09:36:53Z</time>
      </trkpt>
      <trkpt lat="44.00961" lon="6.87025">
        <ele>944</ele>
        <time>2019-04-20T09:36:53Z</time>
      </trkpt>
      <trkpt lat="44.00964" lon="6.87021">
        <ele>944</ele>
        <time>2019-04-20T09:36:53Z</time>
      </trkpt>
      <trkpt lat="44.00963" lon="6.87017">
        <ele>944</ele>
        <time>2019-04-20T09:36:53Z</time>
      </trkpt>
      <trkpt lat="44.00963" lon="6.87013">
        <ele>944</ele>
        <time>2019-04-20T09:36:53Z</time>
      </trkpt>
      <trkpt lat="44.00964" lon="6.87007">
        <ele>944</ele>
        <time>2019-04-20T09:37:17Z</time>
      </trkpt>
      <trkpt lat="44.00964" lon="6.87006">
        <ele>944</ele>
        <time>2019-04-20T09:37:17Z</time>
      </trkpt>
      <trkpt lat="44.00963" lon="6.86998">
        <ele>944</ele>
        <time>2019-04-20T09:37:17Z</time>
      </trkpt>
      <trkpt lat="44.00963" lon="6.86998">
        <ele>944</ele>
        <time>2019-04-20T09:37:17Z</time>
      </trkpt>
      <trkpt lat="44.00964" lon="6.86995">
        <ele>944</ele>
        <time>2019-04-20T09:37:17Z</time>
      </trkpt>
      <trkpt lat="44.00968" lon="6.86994">
        <ele>944</ele>
        <time>2019-04-20T09:37:33Z</time>
      </trkpt>
      <trkpt lat="44.00971" lon="6.86988">
        <ele>944</ele>
        <time>2019-04-20T09:37:33Z</time>
      </trkpt>
      <trkpt lat="44.00972" lon="6.86985">
        <ele>944</ele>
        <time>2019-04-20T09:37:33Z</time>
      </trkpt>
      <trkpt lat="44.00974" lon="6.86984">
        <ele>944</ele>
        <time>2019-04-20T09:37:33Z</time>
      </trkpt>
      <trkpt lat="44.00975" lon="6.8698">
        <ele>944</ele>
        <time>2019-04-20T09:37:53Z</time>
      </trkpt>
      <trkpt lat="44.00977" lon="6.86977">
        <ele>944</ele>
        <time>2019-04-20T09:37:53Z</time>
      </trkpt>
      <trkpt lat="44.00976" lon="6.86973">
        <ele>944</ele>
        <time>2019-04-20T09:37:53Z</time>
      </trkpt>
      <trkpt lat="44.00977" lon="6.86971">
        <ele>944</ele>
        <time>2019-04-20T09:37:53Z</time>
      </trkpt>
      <trkpt lat="44.00979" lon="6.86967">
        <ele>944</ele>
        <time>2019-04-20T09:37:53Z</time>
      </trkpt>
      <trkpt lat="44.00981" lon="6.86962">
        <ele>944</ele>
        <time>2019-04-20T09:38:13Z</time>
      </trkpt>
      <trkpt lat="44.00982" lon="6.86962">
        <ele>944</ele>
        <time>2019-04-20T09:38:13Z</time>
      </trkpt>
      <trkpt lat="44.00984" lon="6.86959">
        <ele>944</ele>
        <time>2019-04-20T09:38:13Z</time>
      </trkpt>
      <trkpt lat="44.00986" lon="6.86954">
        <ele>970</ele>
        <time>2019-04-20T09:38:13Z</time>
      </trkpt>
      <trkpt lat="44.00987" lon="6.86951">
        <ele>970</ele>
        <time>2019-04-20T09:38:13Z</time>
      </trkpt>
      <trkpt lat="44.00989" lon="6.8695">
        <ele>970</ele>
        <time>2019-04-20T09:38:29Z</time>
      </trkpt>
      <trkpt lat="44.00991" lon="6.86947">
        <ele>970</ele>
        <time>2019-04-20T09:38:29Z</time>
      </trkpt>
      <trkpt lat="44.00994" lon="6.86943">
        <ele>970</ele>
        <time>2019-04-20T09:38:29Z</time>
      </trkpt>
      <trkpt lat="44.00996" lon="6.8694">
        <ele>970</ele>
        <time>2019-04-20T09:38:29Z</time>
      </trkpt>
      <trkpt lat="44.00997" lon="6.86938">
        <ele>970</ele>
        <time>2019-04-20T09:38:45Z</time>
      </trkpt>
      <trkpt lat="44.01001" lon="6.86931">
        <ele>970</ele>
        <time>2019-04-20T09:38:45Z</time>
      </trkpt>
      <trkpt lat="44.01004" lon="6.86927">
        <ele>970</ele>
        <time>2019-04-20T09:38:45Z</time>
      </trkpt>
      <trkpt lat="44.01008" lon="6.86923">
        <ele>970</ele>
        <time>2019-04-20T09:38:45Z</time>
      </trkpt>
      <trkpt lat="44.01011" lon="6.8692">
        <ele>970</ele>
        <time>2019-04-20T09:39:01Z</time>
      </trkpt>
      <trkpt lat="44.01016" lon="6.86915">
        <ele>970</ele>
        <time>2019-04-20T09:39:01Z</time>
      </trkpt>
      <trkpt lat="44.01021" lon="6.86913">
        <ele>970</ele>
        <time>2019-04-20T09:39:01Z</time>
      </trkpt>
      <trkpt lat="44.01023" lon="6.86911">
        <ele>970</ele>
        <time>2019-04-20T09:39:01Z</time>
      </trkpt>
      <trkpt lat="44.01028" lon="6.86906">
        <ele>970</ele>
        <time>2019-04-20T09:39:17Z</time>
      </trkpt>
      <trkpt lat="44.01034" lon="6.86903">
        <ele>970</ele>
        <time>2019-04-20T09:39:17Z</time>
      </trkpt>
      <trkpt lat="44.01037" lon="6.86901">
        <ele>970</ele>
        <time>2019-04-20T09:39:17Z</time>
      </trkpt>
      <trkpt lat="44.01042" lon="6.869">
        <ele>971</ele>
        <time>2019-04-20T09:39:17Z</time>
      </trkpt>
      <trkpt lat="44.01048" lon="6.869">
        <ele>971</ele>
        <time>2019-04-20T09:39:33Z</time>
      </trkpt>
      <trkpt lat="44.01053" lon="6.86899">
        <ele>971</ele>
        <time>2019-04-20T09:39:33Z</time>
      </trkpt>
      <trkpt lat="44.01055" lon="6.86895">
        <ele>971</ele>
        <time>2019-04-20T09:39:33Z</time>
      </trkpt>
      <trkpt lat="44.01057" lon="6.86892">
        <ele>971</ele>
        <time>2019-04-20T09:39:33Z</time>
      </trkpt>
      <trkpt lat="44.0106" lon="6.8689">
        <ele>971</ele>
        <time>2019-04-20T09:39:53Z</time>
      </trkpt>
      <trkpt lat="44.0106" lon="6.86887">
        <ele>971</ele>
        <time>2019-04-20T09:39:53Z</time>
      </trkpt>
      <trkpt lat="44.01061" lon="6.86884">
        <ele>971</ele>
        <time>2019-04-20T09:39:53Z</time>
      </trkpt>
      <trkpt lat="44.01061" lon="6.86879">
        <ele>971</ele>
        <time>2019-04-20T09:39:53Z</time>
      </trkpt>
      <trkpt lat="44.01063" lon="6.86876">
        <ele>971</ele>
        <time>2019-04-20T09:39:53Z</time>
      </trkpt>
      <trkpt lat="44.01066" lon="6.86871">
        <ele>1006</ele>
        <time>2019-04-20T09:40:13Z</time>
      </trkpt>
      <trkpt lat="44.01069" lon="6.8687">
        <ele>1006</ele>
        <time>2019-04-20T09:40:13Z</time>
      </trkpt>
      <trkpt lat="44.01073" lon="6.86869">
        <ele>1006</ele>
        <time>2019-04-20T09:40:13Z</time>
      </trkpt>
      <trkpt lat="44.01074" lon="6.86872">
        <ele>1006</ele>
        <time>2019-04-20T09:40:13Z</time>
      </trkpt>
      <trkpt lat="44.01075" lon="6.86879">
        <ele>971</ele>
        <time>2019-04-20T09:40:13Z</time>
      </trkpt>
      <trkpt lat="44.01076" lon="6.86884">
        <ele>971</ele>
        <time>2019-04-20T09:40:29Z</time>
      </trkpt>
      <trkpt lat="44.01081" lon="6.86889">
        <ele>971</ele>
        <time>2019-04-20T09:40:29Z</time>
      </trkpt>
      <trkpt lat="44.01085" lon="6.86895">
        <ele>971</ele>
        <time>2019-04-20T09:40:30Z</time>
      </trkpt>
      <trkpt lat="44.01089" lon="6.86898">
        <ele>971</ele>
        <time>2019-04-20T09:40:30Z</time>
      </trkpt>
      <trkpt lat="44.01091" lon="6.86904">
        <ele>971</ele>
        <time>2019-04-20T09:40:45Z</time>
      </trkpt>
      <trkpt lat="44.01093" lon="6.8691">
        <ele>971</ele>
        <time>2019-04-20T09:40:45Z</time>
      </trkpt>
      <trkpt lat="44.01097" lon="6.86913">
        <ele>971</ele>
        <time>2019-04-20T09:40:45Z</time>
      </trkpt>
      <trkpt lat="44.01101" lon="6.86916">
        <ele>971</ele>
        <time>2019-04-20T09:40:45Z</time>
      </trkpt>
      <trkpt lat="44.01106" lon="6.86922">
        <ele>971</ele>
        <time>2019-04-20T09:41:01Z</time>
      </trkpt>
      <trkpt lat="44.01111" lon="6.86929">
        <ele>971</ele>
        <time>2019-04-20T09:41:01Z</time>
      </trkpt>
      <trkpt lat="44.01114" lon="6.86929">
        <ele>971</ele>
        <time>2019-04-20T09:41:01Z</time>
      </trkpt>
      <trkpt lat="44.01117" lon="6.86931">
        <ele>971</ele>
        <time>2019-04-20T09:41:01Z</time>
      </trkpt>
      <trkpt lat="44.01119" lon="6.86933">
        <ele>971</ele>
        <time>2019-04-20T09:41:17Z</time>
      </trkpt>
      <trkpt lat="44.01125" lon="6.86936">
        <ele>995</ele>
        <time>2019-04-20T09:41:17Z</time>
      </trkpt>
      <trkpt lat="44.01129" lon="6.86939">
        <ele>995</ele>
        <time>2019-04-20T09:41:17Z</time>
      </trkpt>
      <trkpt lat="44.0113" lon="6.86945">
        <ele>995</ele>
        <time>2019-04-20T09:41:17Z</time>
      </trkpt>
      <trkpt lat="44.01133" lon="6.86951">
        <ele>995</ele>
        <time>2019-04-20T09:41:33Z</time>
      </trkpt>
      <trkpt lat="44.01138" lon="6.86954">
        <ele>995</ele>
        <time>2019-04-20T09:41:33Z</time>
      </trkpt>
      <trkpt lat="44.01143" lon="6.86958">
        <ele>972</ele>
        <time>2019-04-20T09:41:33Z</time>
      </trkpt>
      <trkpt lat="44.01146" lon="6.8696">
        <ele>972</ele>
        <time>2019-04-20T09:41:33Z</time>
      </trkpt>
      <trkpt lat="44.01152" lon="6.86962">
        <ele>972</ele>
        <time>2019-04-20T09:41:49Z</time>
      </trkpt>
      <trkpt lat="44.01157" lon="6.86965">
        <ele>972</ele>
        <time>2019-04-20T09:41:49Z</time>
      </trkpt>
      <trkpt lat="44.01161" lon="6.86962">
        <ele>972</ele>
        <time>2019-04-20T09:41:49Z</time>
      </trkpt>
      <trkpt lat="44.01164" lon="6.86961">
        <ele>972</ele>
        <time>2019-04-20T09:41:49Z</time>
      </trkpt>
      <trkpt lat="44.01167" lon="6.86962">
        <ele>972</ele>
        <time>2019-04-20T09:42:09Z</time>
      </trkpt>
      <trkpt lat="44.0117" lon="6.86964">
        <ele>972</ele>
        <time>2019-04-20T09:42:09Z</time>
      </trkpt>
      <trkpt lat="44.01174" lon="6.86964">
        <ele>972</ele>
        <time>2019-04-20T09:42:09Z</time>
      </trkpt>
      <trkpt lat="44.01176" lon="6.86964">
        <ele>972</ele>
        <time>2019-04-20T09:42:09Z</time>
      </trkpt>
      <trkpt lat="44.01177" lon="6.86964">
        <ele>972</ele>
        <time>2019-04-20T09:42:09Z</time>
      </trkpt>
      <trkpt lat="44.01178" lon="6.86966">
        <ele>972</ele>
        <time>2019-04-20T09:42:25Z</time>
      </trkpt>
      <trkpt lat="44.01181" lon="6.86968">
        <ele>972</ele>
        <time>2019-04-20T09:42:25Z</time>
      </trkpt>
      <trkpt lat="44.01188" lon="6.86968">
        <ele>972</ele>
        <time>2019-04-20T09:42:25Z</time>
      </trkpt>
      <trkpt lat="44.01191" lon="6.86967">
        <ele>972</ele>
        <time>2019-04-20T09:42:25Z</time>
      </trkpt>
      <trkpt lat="44.01193" lon="6.86967">
        <ele>972</ele>
        <time>2019-04-20T09:42:41Z</time>
      </trkpt>
      <trkpt lat="44.01197" lon="6.86968">
        <ele>972</ele>
        <time>2019-04-20T09:42:41Z</time>
      </trkpt>
      <trkpt lat="44.012" lon="6.86971">
        <ele>972</ele>
        <time>2019-04-20T09:42:41Z</time>
      </trkpt>
      <trkpt lat="44.01202" lon="6.86973">
        <ele>972</ele>
        <time>2019-04-20T09:42:41Z</time>
      </trkpt>
      <trkpt lat="44.01202" lon="6.86975">
        <ele>972</ele>
        <time>2019-04-20T09:43:01Z</time>
      </trkpt>
      <trkpt lat="44.01205" lon="6.86977">
        <ele>972</ele>
        <time>2019-04-20T09:43:01Z</time>
      </trkpt>
      <trkpt lat="44.01207" lon="6.86978">
        <ele>972</ele>
        <time>2019-04-20T09:43:01Z</time>
      </trkpt>
      <trkpt lat="44.01209" lon="6.86981">
        <ele>1005</ele>
        <time>2019-04-20T09:43:01Z</time>
      </trkpt>
      <trkpt lat="44.0121" lon="6.86982">
        <ele>1005</ele>
        <time>2019-04-20T09:43:01Z</time>
      </trkpt>
      <trkpt lat="44.01211" lon="6.86986">
        <ele>1005</ele>
        <time>2019-04-20T09:43:17Z</time>
      </trkpt>
      <trkpt lat="44.01211" lon="6.86991">
        <ele>1005</ele>
        <time>2019-04-20T09:43:17Z</time>
      </trkpt>
      <trkpt lat="44.01211" lon="6.86998">
        <ele>1005</ele>
        <time>2019-04-20T09:43:17Z</time>
      </trkpt>
      <trkpt lat="44.0121" lon="6.87008">
        <ele>1005</ele>
        <time>2019-04-20T09:43:17Z</time>
      </trkpt>
      <trkpt lat="44.01211" lon="6.87016">
        <ele>1005</ele>
        <time>2019-04-20T09:43:33Z</time>
      </trkpt>
      <trkpt lat="44.01213" lon="6.87021">
        <ele>1005</ele>
        <time>2019-04-20T09:43:33Z</time>
      </trkpt>
      <trkpt lat="44.01213" lon="6.87026">
        <ele>1005</ele>
        <time>2019-04-20T09:43:33Z</time>
      </trkpt>
      <trkpt lat="44.01214" lon="6.8703">
        <ele>1005</ele>
        <time>2019-04-20T09:43:33Z</time>
      </trkpt>
      <trkpt lat="44.01216" lon="6.87036">
        <ele>1005</ele>
        <time>2019-04-20T09:43:49Z</time>
      </trkpt>
      <trkpt lat="44.01215" lon="6.87044">
        <ele>1000</ele>
        <time>2019-04-20T09:43:49Z</time>
      </trkpt>
      <trkpt lat="44.01213" lon="6.87051">
        <ele>1000</ele>
        <time>2019-04-20T09:43:49Z</time>
      </trkpt>
      <trkpt lat="44.01212" lon="6.87058">
        <ele>1000</ele>
        <time>2019-04-20T09:43:49Z</time>
      </trkpt>
      <trkpt lat="44.0121" lon="6.87065">
        <ele>1000</ele>
        <time>2019-04-20T09:44:05Z</time>
      </trkpt>
      <trkpt lat="44.01207" lon="6.87071">
        <ele>964</ele>
        <time>2019-04-20T09:44:05Z</time>
      </trkpt>
      <trkpt lat="44.01204" lon="6.87079">
        <ele>964</ele>
        <time>2019-04-20T09:44:05Z</time>
      </trkpt>
      <trkpt lat="44.01201" lon="6.87084">
        <ele>964</ele>
        <time>2019-04-20T09:44:05Z</time>
      </trkpt>
      <trkpt lat="44.01198" lon="6.87091">
        <ele>964</ele>
        <time>2019-04-20T09:44:21Z</time>
      </trkpt>
      <trkpt lat="44.01198" lon="6.87099">
        <ele>964</ele>
        <time>2019-04-20T09:44:21Z</time>
      </trkpt>
      <trkpt lat="44.012" lon="6.87106">
        <ele>964</ele>
        <time>2019-04-20T09:44:21Z</time>
      </trkpt>
      <trkpt lat="44.01202" lon="6.8711">
        <ele>964</ele>
        <time>2019-04-20T09:44:21Z</time>
      </trkpt>
      <trkpt lat="44.01205" lon="6.87115">
        <ele>964</ele>
        <time>2019-04-20T09:44:37Z</time>
      </trkpt>
      <trkpt lat="44.01208" lon="6.87119">
        <ele>1000</ele>
        <time>2019-04-20T09:44:37Z</time>
      </trkpt>
      <trkpt lat="44.01212" lon="6.87123">
        <ele>1000</ele>
        <time>2019-04-20T09:44:37Z</time>
      </trkpt>
      <trkpt lat="44.01216" lon="6.87127">
        <ele>988</ele>
        <time>2019-04-20T09:44:37Z</time>
      </trkpt>
      <trkpt lat="44.01218" lon="6.87132">
        <ele>988</ele>
        <time>2019-04-20T09:44:53Z</time>
      </trkpt>
      <trkpt lat="44.01222" lon="6.87137">
        <ele>988</ele>
        <time>2019-04-20T09:44:53Z</time>
      </trkpt>
      <trkpt lat="44.01226" lon="6.87142">
        <ele>988</ele>
        <time>2019-04-20T09:44:53Z</time>
      </trkpt>
      <trkpt lat="44.01227" lon="6.87145">
        <ele>988</ele>
        <time>2019-04-20T09:44:53Z</time>
      </trkpt>
      <trkpt lat="44.01229" lon="6.87149">
        <ele>988</ele>
        <time>2019-04-20T09:45:09Z</time>
      </trkpt>
      <trkpt lat="44.01233" lon="6.87153">
        <ele>988</ele>
        <time>2019-04-20T09:45:09Z</time>
      </trkpt>
      <trkpt lat="44.01239" lon="6.87153">
        <ele>988</ele>
        <time>2019-04-20T09:45:09Z</time>
      </trkpt>
      <trkpt lat="44.01242" lon="6.87155">
        <ele>988</ele>
        <time>2019-04-20T09:45:09Z</time>
      </trkpt>
      <trkpt lat="44.01243" lon="6.87158">
        <ele>988</ele>
        <time>2019-04-20T09:45:25Z</time>
      </trkpt>
      <trkpt lat="44.01247" lon="6.87162">
        <ele>988</ele>
        <time>2019-04-20T09:45:25Z</time>
      </trkpt>
      <trkpt lat="44.0125" lon="6.87166">
        <ele>988</ele>
        <time>2019-04-20T09:45:25Z</time>
      </trkpt>
      <trkpt lat="44.01254" lon="6.87169">
        <ele>988</ele>
        <time>2019-04-20T09:45:25Z</time>
      </trkpt>
      <trkpt lat="44.01257" lon="6.87173">
        <ele>988</ele>
        <time>2019-04-20T09:45:41Z</time>
      </trkpt>
      <trkpt lat="44.01259" lon="6.87173">
        <ele>988</ele>
        <time>2019-04-20T09:45:41Z</time>
      </trkpt>
      <trkpt lat="44.01262" lon="6.87178">
        <ele>988</ele>
        <time>2019-04-20T09:45:41Z</time>
      </trkpt>
      <trkpt lat="44.01266" lon="6.87182">
        <ele>988</ele>
        <time>2019-04-20T09:45:41Z</time>
      </trkpt>
      <trkpt lat="44.01268" lon="6.87184">
        <ele>988</ele>
        <time>2019-04-20T09:45:57Z</time>
      </trkpt>
      <trkpt lat="44.01271" lon="6.87187">
        <ele>988</ele>
        <time>2019-04-20T09:45:57Z</time>
      </trkpt>
      <trkpt lat="44.01277" lon="6.87186">
        <ele>988</ele>
        <time>2019-04-20T09:45:57Z</time>
      </trkpt>
      <trkpt lat="44.0128" lon="6.87184">
        <ele>988</ele>
        <time>2019-04-20T09:45:57Z</time>
      </trkpt>
      <trkpt lat="44.01284" lon="6.87183">
        <ele>988</ele>
        <time>2019-04-20T09:46:13Z</time>
      </trkpt>
      <trkpt lat="44.01287" lon="6.87181">
        <ele>988</ele>
        <time>2019-04-20T09:46:13Z</time>
      </trkpt>
      <trkpt lat="44.01292" lon="6.87178">
        <ele>989</ele>
        <time>2019-04-20T09:46:13Z</time>
      </trkpt>
      <trkpt lat="44.01298" lon="6.87174">
        <ele>989</ele>
        <time>2019-04-20T09:46:13Z</time>
      </trkpt>
      <trkpt lat="44.01301" lon="6.87168">
        <ele>989</ele>
        <time>2019-04-20T09:46:33Z</time>
      </trkpt>
      <trkpt lat="44.01303" lon="6.87164">
        <ele>989</ele>
        <time>2019-04-20T09:46:33Z</time>
      </trkpt>
      <trkpt lat="44.01306" lon="6.87162">
        <ele>989</ele>
        <time>2019-04-20T09:46:33Z</time>
      </trkpt>
      <trkpt lat="44.01306" lon="6.8716">
        <ele>989</ele>
        <time>2019-04-20T09:46:33Z</time>
      </trkpt>
      <trkpt lat="44.01309" lon="6.87156">
        <ele>989</ele>
        <time>2019-04-20T09:46:33Z</time>
      </trkpt>
      <trkpt lat="44.01311" lon="6.87153">
        <ele>989</ele>
        <time>2019-04-20T09:46:49Z</time>
      </trkpt>
      <trkpt lat="44.01316" lon="6.87151">
        <ele>989</ele>
        <time>2019-04-20T09:46:49Z</time>
      </trkpt>
      <trkpt lat="44.01318" lon="6.87146">
        <ele>989</ele>
        <time>2019-04-20T09:46:49Z</time>
      </trkpt>
      <trkpt lat="44.01319" lon="6.87143">
        <ele>989</ele>
        <time>2019-04-20T09:46:49Z</time>
      </trkpt>
      <trkpt lat="44.01319" lon="6.87139">
        <ele>989</ele>
        <time>2019-04-20T09:47:09Z</time>
      </trkpt>
      <trkpt lat="44.0132" lon="6.87132">
        <ele>989</ele>
        <time>2019-04-20T09:47:09Z</time>
      </trkpt>
      <trkpt lat="44.01319" lon="6.8713">
        <ele>989</ele>
        <time>2019-04-20T09:47:09Z</time>
      </trkpt>
      <trkpt lat="44.0132" lon="6.87127">
        <ele>989</ele>
        <time>2019-04-20T09:47:09Z</time>
      </trkpt>
      <trkpt lat="44.0132" lon="6.8712">
        <ele>1008</ele>
        <time>2019-04-20T09:47:09Z</time>
      </trkpt>
      <trkpt lat="44.01321" lon="6.87117">
        <ele>1008</ele>
        <time>2019-04-20T09:47:25Z</time>
      </trkpt>
      <trkpt lat="44.01324" lon="6.87111">
        <ele>1008</ele>
        <time>2019-04-20T09:47:25Z</time>
      </trkpt>
      <trkpt lat="44.01325" lon="6.87108">
        <ele>1008</ele>
        <time>2019-04-20T09:47:25Z</time>
      </trkpt>
      <trkpt lat="44.01325" lon="6.87102">
        <ele>1008</ele>
        <time>2019-04-20T09:47:25Z</time>
      </trkpt>
      <trkpt lat="44.01326" lon="6.87096">
        <ele>1008</ele>
        <time>2019-04-20T09:47:41Z</time>
      </trkpt>
      <trkpt lat="44.01328" lon="6.8709">
        <ele>1008</ele>
        <time>2019-04-20T09:47:41Z</time>
      </trkpt>
      <trkpt lat="44.0133" lon="6.87089">
        <ele>1008</ele>
        <time>2019-04-20T09:47:41Z</time>
      </trkpt>
      <trkpt lat="44.01333" lon="6.87087">
        <ele>1008</ele>
        <time>2019-04-20T09:47:41Z</time>
      </trkpt>
      <trkpt lat="44.01336" lon="6.87084">
        <ele>1008</ele>
        <time>2019-04-20T09:47:57Z</time>
      </trkpt>
      <trkpt lat="44.01339" lon="6.87081">
        <ele>1008</ele>
        <time>2019-04-20T09:47:57Z</time>
      </trkpt>
      <trkpt lat="44.01345" lon="6.87076">
        <ele>1008</ele>
        <time>2019-04-20T09:47:57Z</time>
      </trkpt>
      <trkpt lat="44.01346" lon="6.87074">
        <ele>1008</ele>
        <time>2019-04-20T09:47:57Z</time>
      </trkpt>
      <trkpt lat="44.01349" lon="6.87069">
        <ele>1008</ele>
        <time>2019-04-20T09:48:13Z</time>
      </trkpt>
      <trkpt lat="44.01351" lon="6.87066">
        <ele>1008</ele>
        <time>2019-04-20T09:48:13Z</time>
      </trkpt>
      <trkpt lat="44.01354" lon="6.87064">
        <ele>1008</ele>
        <time>2019-04-20T09:48:13Z</time>
      </trkpt>
      <trkpt lat="44.01358" lon="6.87058">
        <ele>1008</ele>
        <time>2019-04-20T09:48:13Z</time>
      </trkpt>
      <trkpt lat="44.01359" lon="6.87056">
        <ele>1008</ele>
        <time>2019-04-20T09:48:33Z</time>
      </trkpt>
      <trkpt lat="44.01361" lon="6.87051">
        <ele>1008</ele>
        <time>2019-04-20T09:48:33Z</time>
      </trkpt>
      <trkpt lat="44.01362" lon="6.87049">
        <ele>1008</ele>
        <time>2019-04-20T09:48:33Z</time>
      </trkpt>
      <trkpt lat="44.01363" lon="6.87047">
        <ele>1008</ele>
        <time>2019-04-20T09:48:33Z</time>
      </trkpt>
      <trkpt lat="44.01362" lon="6.87044">
        <ele>1008</ele>
        <time>2019-04-20T09:48:33Z</time>
      </trkpt>
      <trkpt lat="44.01364" lon="6.87039">
        <ele>1031</ele>
        <time>2019-04-20T09:48:49Z</time>
      </trkpt>
      <trkpt lat="44.01365" lon="6.87037">
        <ele>1031</ele>
        <time>2019-04-20T09:48:49Z</time>
      </trkpt>
      <trkpt lat="44.01367" lon="6.87031">
        <ele>1031</ele>
        <time>2019-04-20T09:48:49Z</time>
      </trkpt>
      <trkpt lat="44.01367" lon="6.87027">
        <ele>1031</ele>
        <time>2019-04-20T09:48:49Z</time>
      </trkpt>
      <trkpt lat="44.01368" lon="6.8702">
        <ele>1031</ele>
        <time>2019-04-20T09:49:05Z</time>
      </trkpt>
      <trkpt lat="44.01374" lon="6.87016">
        <ele>1031</ele>
        <time>2019-04-20T09:49:05Z</time>
      </trkpt>
      <trkpt lat="44.01376" lon="6.87012">
        <ele>1012</ele>
        <time>2019-04-20T09:49:05Z</time>
      </trkpt>
      <trkpt lat="44.01377" lon="6.87007">
        <ele>1012</ele>
        <time>2019-04-20T09:49:05Z</time>
      </trkpt>
      <trkpt lat="44.01378" lon="6.87005">
        <ele>1012</ele>
        <time>2019-04-20T09:49:21Z</time>
      </trkpt>
      <trkpt lat="44.01383" lon="6.87005">
        <ele>1012</ele>
        <time>2019-04-20T09:49:21Z</time>
      </trkpt>
      <trkpt lat="44.01387" lon="6.87001">
        <ele>1012</ele>
        <time>2019-04-20T09:49:21Z</time>
      </trkpt>
      <trkpt lat="44.01389" lon="6.86999">
        <ele>1012</ele>
        <time>2019-04-20T09:49:21Z</time>
      </trkpt>
      <trkpt lat="44.0139" lon="6.86996">
        <ele>1012</ele>
        <time>2019-04-20T09:49:37Z</time>
      </trkpt>
      <trkpt lat="44.01394" lon="6.86991">
        <ele>1012</ele>
        <time>2019-04-20T09:49:37Z</time>
      </trkpt>
      <trkpt lat="44.01395" lon="6.86986">
        <ele>1012</ele>
        <time>2019-04-20T09:49:37Z</time>
      </trkpt>
      <trkpt lat="44.01397" lon="6.86981">
        <ele>1012</ele>
        <time>2019-04-20T09:49:37Z</time>
      </trkpt>
      <trkpt lat="44.01399" lon="6.86978">
        <ele>1012</ele>
        <time>2019-04-20T09:49:53Z</time>
      </trkpt>
      <trkpt lat="44.01402" lon="6.86973">
        <ele>1012</ele>
        <time>2019-04-20T09:49:53Z</time>
      </trkpt>
      <trkpt lat="44.01403" lon="6.86971">
        <ele>1012</ele>
        <time>2019-04-20T09:49:53Z</time>
      </trkpt>
      <trkpt lat="44.01406" lon="6.86969">
        <ele>1012</ele>
        <time>2019-04-20T09:49:53Z</time>
      </trkpt>
      <trkpt lat="44.01408" lon="6.86967">
        <ele>1012</ele>
        <time>2019-04-20T09:50:13Z</time>
      </trkpt>
      <trkpt lat="44.01411" lon="6.86964">
        <ele>1012</ele>
        <time>2019-04-20T09:50:13Z</time>
      </trkpt>
      <trkpt lat="44.01413" lon="6.86965">
        <ele>1012</ele>
        <time>2019-04-20T09:50:13Z</time>
      </trkpt>
      <trkpt lat="44.01415" lon="6.86965">
        <ele>1012</ele>
        <time>2019-04-20T09:50:13Z</time>
      </trkpt>
      <trkpt lat="44.01418" lon="6.86964">
        <ele>1012</ele>
        <time>2019-04-20T09:50:13Z</time>
      </trkpt>
      <trkpt lat="44.0142" lon="6.86964">
        <ele>1012</ele>
        <time>2019-04-20T09:50:29Z</time>
      </trkpt>
      <trkpt lat="44.01422" lon="6.86957">
        <ele>1036</ele>
        <time>2019-04-20T09:50:29Z</time>
      </trkpt>
      <trkpt lat="44.01425" lon="6.86952">
        <ele>1036</ele>
        <time>2019-04-20T09:50:29Z</time>
      </trkpt>
      <trkpt lat="44.01428" lon="6.86947">
        <ele>1036</ele>
        <time>2019-04-20T09:50:29Z</time>
      </trkpt>
      <trkpt lat="44.01427" lon="6.86944">
        <ele>1036</ele>
        <time>2019-04-20T09:50:53Z</time>
      </trkpt>
      <trkpt lat="44.01427" lon="6.8694">
        <ele>1036</ele>
        <time>2019-04-20T09:50:53Z</time>
      </trkpt>
      <trkpt lat="44.01427" lon="6.86938">
        <ele>1036</ele>
        <time>2019-04-20T09:50:53Z</time>
      </trkpt>
      <trkpt lat="44.01428" lon="6.86935">
        <ele>1036</ele>
        <time>2019-04-20T09:50:53Z</time>
      </trkpt>
      <trkpt lat="44.0143" lon="6.86932">
        <ele>1036</ele>
        <time>2019-04-20T09:50:53Z</time>
      </trkpt>
      <trkpt lat="44.01433" lon="6.86929">
        <ele>1036</ele>
        <time>2019-04-20T09:51:09Z</time>
      </trkpt>
      <trkpt lat="44.01431" lon="6.86925">
        <ele>1036</ele>
        <time>2019-04-20T09:51:09Z</time>
      </trkpt>
      <trkpt lat="44.0143" lon="6.8692">
        <ele>1036</ele>
        <time>2019-04-20T09:51:09Z</time>
      </trkpt>
      <trkpt lat="44.0143" lon="6.86914">
        <ele>1036</ele>
        <time>2019-04-20T09:51:09Z</time>
      </trkpt>
      <trkpt lat="44.01428" lon="6.86908">
        <ele>1036</ele>
        <time>2019-04-20T09:51:25Z</time>
      </trkpt>
      <trkpt lat="44.01428" lon="6.869">
        <ele>1036</ele>
        <time>2019-04-20T09:51:25Z</time>
      </trkpt>
      <trkpt lat="44.01429" lon="6.86897">
        <ele>1036</ele>
        <time>2019-04-20T09:51:25Z</time>
      </trkpt>
      <trkpt lat="44.0143" lon="6.86895">
        <ele>1036</ele>
        <time>2019-04-20T09:51:25Z</time>
      </trkpt>
      <trkpt lat="44.01432" lon="6.86889">
        <ele>1036</ele>
        <time>2019-04-20T09:51:41Z</time>
      </trkpt>
      <trkpt lat="44.01432" lon="6.86883">
        <ele>1036</ele>
        <time>2019-04-20T09:51:41Z</time>
      </trkpt>
      <trkpt lat="44.01433" lon="6.86879">
        <ele>1036</ele>
        <time>2019-04-20T09:51:41Z</time>
      </trkpt>
      <trkpt lat="44.01434" lon="6.86872">
        <ele>1065</ele>
        <time>2019-04-20T09:51:41Z</time>
      </trkpt>
      <trkpt lat="44.01436" lon="6.86868">
        <ele>1065</ele>
        <time>2019-04-20T09:51:57Z</time>
      </trkpt>
      <trkpt lat="44.0144" lon="6.86865">
        <ele>1065</ele>
        <time>2019-04-20T09:51:57Z</time>
      </trkpt>
      <trkpt lat="44.01446" lon="6.86859">
        <ele>1065</ele>
        <time>2019-04-20T09:51:57Z</time>
      </trkpt>
      <trkpt lat="44.01447" lon="6.86852">
        <ele>1065</ele>
        <time>2019-04-20T09:51:57Z</time>
      </trkpt>
      <trkpt lat="44.01451" lon="6.8685">
        <ele>1065</ele>
        <time>2019-04-20T09:52:13Z</time>
      </trkpt>
      <trkpt lat="44.01455" lon="6.86848">
        <ele>1065</ele>
        <time>2019-04-20T09:52:13Z</time>
      </trkpt>
      <trkpt lat="44.0146" lon="6.86844">
        <ele>1029</ele>
        <time>2019-04-20T09:52:13Z</time>
      </trkpt>
      <trkpt lat="44.01463" lon="6.86842">
        <ele>1029</ele>
        <time>2019-04-20T09:52:13Z</time>
      </trkpt>
      <trkpt lat="44.01467" lon="6.86837">
        <ele>1029</ele>
        <time>2019-04-20T09:52:29Z</time>
      </trkpt>
      <trkpt lat="44.01469" lon="6.86834">
        <ele>1029</ele>
        <time>2019-04-20T09:52:29Z</time>
      </trkpt>
      <trkpt lat="44.01473" lon="6.8683">
        <ele>1029</ele>
        <time>2019-04-20T09:52:29Z</time>
      </trkpt>
      <trkpt lat="44.01478" lon="6.86827">
        <ele>1029</ele>
        <time>2019-04-20T09:52:29Z</time>
      </trkpt>
      <trkpt lat="44.01479" lon="6.86824">
        <ele>1029</ele>
        <time>2019-04-20T09:52:45Z</time>
      </trkpt>
      <trkpt lat="44.01481" lon="6.86823">
        <ele>1029</ele>
        <time>2019-04-20T09:52:45Z</time>
      </trkpt>
      <trkpt lat="44.01484" lon="6.86816">
        <ele>1029</ele>
        <time>2019-04-20T09:52:45Z</time>
      </trkpt>
      <trkpt lat="44.01486" lon="6.8681">
        <ele>1029</ele>
        <time>2019-04-20T09:52:45Z</time>
      </trkpt>
      <trkpt lat="44.01487" lon="6.86806">
        <ele>1029</ele>
        <time>2019-04-20T09:53:05Z</time>
      </trkpt>
      <trkpt lat="44.01487" lon="6.86802">
        <ele>1029</ele>
        <time>2019-04-20T09:53:05Z</time>
      </trkpt>
      <trkpt lat="44.01489" lon="6.868">
        <ele>1029</ele>
        <time>2019-04-20T09:53:05Z</time>
      </trkpt>
      <trkpt lat="44.01492" lon="6.86797">
        <ele>1029</ele>
        <time>2019-04-20T09:53:05Z</time>
      </trkpt>
      <trkpt lat="44.01493" lon="6.86794">
        <ele>1029</ele>
        <time>2019-04-20T09:53:05Z</time>
      </trkpt>
      <trkpt lat="44.01495" lon="6.86788">
        <ele>1054</ele>
        <time>2019-04-20T09:53:21Z</time>
      </trkpt>
      <trkpt lat="44.01499" lon="6.86779">
        <ele>1054</ele>
        <time>2019-04-20T09:53:21Z</time>
      </trkpt>
      <trkpt lat="44.01503" lon="6.86775">
        <ele>1054</ele>
        <time>2019-04-20T09:53:21Z</time>
      </trkpt>
      <trkpt lat="44.01505" lon="6.86771">
        <ele>1054</ele>
        <time>2019-04-20T09:53:21Z</time>
      </trkpt>
      <trkpt lat="44.01509" lon="6.86765">
        <ele>1054</ele>
        <time>2019-04-20T09:53:37Z</time>
      </trkpt>
      <trkpt lat="44.01513" lon="6.86762">
        <ele>1054</ele>
        <time>2019-04-20T09:53:37Z</time>
      </trkpt>
      <trkpt lat="44.01517" lon="6.86757">
        <ele>1054</ele>
        <time>2019-04-20T09:53:37Z</time>
      </trkpt>
      <trkpt lat="44.0152" lon="6.86752">
        <ele>1054</ele>
        <time>2019-04-20T09:53:37Z</time>
      </trkpt>
      <trkpt lat="44.01521" lon="6.86747">
        <ele>1054</ele>
        <time>2019-04-20T09:53:53Z</time>
      </trkpt>
      <trkpt lat="44.01524" lon="6.86743">
        <ele>1054</ele>
        <time>2019-04-20T09:53:53Z</time>
      </trkpt>
      <trkpt lat="44.01526" lon="6.86738">
        <ele>1054</ele>
        <time>2019-04-20T09:53:53Z</time>
      </trkpt>
      <trkpt lat="44.01529" lon="6.86735">
        <ele>1054</ele>
        <time>2019-04-20T09:53:53Z</time>
      </trkpt>
      <trkpt lat="44.01531" lon="6.86729">
        <ele>1054</ele>
        <time>2019-04-20T09:54:09Z</time>
      </trkpt>
      <trkpt lat="44.01535" lon="6.86725">
        <ele>1054</ele>
        <time>2019-04-20T09:54:09Z</time>
      </trkpt>
      <trkpt lat="44.0154" lon="6.86723">
        <ele>1054</ele>
        <time>2019-04-20T09:54:09Z</time>
      </trkpt>
      <trkpt lat="44.01542" lon="6.8672">
        <ele>1029</ele>
        <time>2019-04-20T09:54:09Z</time>
      </trkpt>
      <trkpt lat="44.01544" lon="6.86717">
        <ele>1029</ele>
        <time>2019-04-20T09:54:25Z</time>
      </trkpt>
      <trkpt lat="44.01546" lon="6.86713">
        <ele>1029</ele>
        <time>2019-04-20T09:54:25Z</time>
      </trkpt>
      <trkpt lat="44.01549" lon="6.86708">
        <ele>1060</ele>
        <time>2019-04-20T09:54:25Z</time>
      </trkpt>
      <trkpt lat="44.01552" lon="6.86708">
        <ele>1060</ele>
        <time>2019-04-20T09:54:25Z</time>
      </trkpt>
      <trkpt lat="44.01555" lon="6.86706">
        <ele>1060</ele>
        <time>2019-04-20T09:54:41Z</time>
      </trkpt>
      <trkpt lat="44.01559" lon="6.86704">
        <ele>1060</ele>
        <time>2019-04-20T09:54:41Z</time>
      </trkpt>
      <trkpt lat="44.01562" lon="6.86701">
        <ele>1060</ele>
        <time>2019-04-20T09:54:41Z</time>
      </trkpt>
      <trkpt lat="44.01565" lon="6.86699">
        <ele>1060</ele>
        <time>2019-04-20T09:54:41Z</time>
      </trkpt>
      <trkpt lat="44.0157" lon="6.86699">
        <ele>1060</ele>
        <time>2019-04-20T09:54:57Z</time>
      </trkpt>
      <trkpt lat="44.01573" lon="6.86697">
        <ele>1060</ele>
        <time>2019-04-20T09:54:57Z</time>
      </trkpt>
      <trkpt lat="44.01576" lon="6.86692">
        <ele>1060</ele>
        <time>2019-04-20T09:54:57Z</time>
      </trkpt>
      <trkpt lat="44.01579" lon="6.86691">
        <ele>1060</ele>
        <time>2019-04-20T09:54:57Z</time>
      </trkpt>
      <trkpt lat="44.01583" lon="6.86691">
        <ele>1060</ele>
        <time>2019-04-20T09:55:13Z</time>
      </trkpt>
      <trkpt lat="44.01586" lon="6.86689">
        <ele>1060</ele>
        <time>2019-04-20T09:55:13Z</time>
      </trkpt>
      <trkpt lat="44.01588" lon="6.86687">
        <ele>1060</ele>
        <time>2019-04-20T09:55:13Z</time>
      </trkpt>
      <trkpt lat="44.01592" lon="6.86684">
        <ele>1060</ele>
        <time>2019-04-20T09:55:13Z</time>
      </trkpt>
      <trkpt lat="44.01596" lon="6.86681">
        <ele>1060</ele>
        <time>2019-04-20T09:55:29Z</time>
      </trkpt>
      <trkpt lat="44.016" lon="6.86678">
        <ele>1060</ele>
        <time>2019-04-20T09:55:29Z</time>
      </trkpt>
      <trkpt lat="44.01602" lon="6.86675">
        <ele>1060</ele>
        <time>2019-04-20T09:55:29Z</time>
      </trkpt>
      <trkpt lat="44.01606" lon="6.86669">
        <ele>1060</ele>
        <time>2019-04-20T09:55:29Z</time>
      </trkpt>
      <trkpt lat="44.01611" lon="6.86667">
        <ele>1060</ele>
        <time>2019-04-20T09:55:45Z</time>
      </trkpt>
      <trkpt lat="44.01615" lon="6.86663">
        <ele>1060</ele>
        <time>2019-04-20T09:55:45Z</time>
      </trkpt>
      <trkpt lat="44.01621" lon="6.86661">
        <ele>1060</ele>
        <time>2019-04-20T09:55:45Z</time>
      </trkpt>
      <trkpt lat="44.01626" lon="6.86655">
        <ele>1050</ele>
        <time>2019-04-20T09:55:45Z</time>
      </trkpt>
      <trkpt lat="44.01628" lon="6.86649">
        <ele>1050</ele>
        <time>2019-04-20T09:56:01Z</time>
      </trkpt>
      <trkpt lat="44.0163" lon="6.86645">
        <ele>1050</ele>
        <time>2019-04-20T09:56:01Z</time>
      </trkpt>
      <trkpt lat="44.01633" lon="6.8664">
        <ele>1050</ele>
        <time>2019-04-20T09:56:01Z</time>
      </trkpt>
      <trkpt lat="44.0164" lon="6.86638">
        <ele>1050</ele>
        <time>2019-04-20T09:56:01Z</time>
      </trkpt>
      <trkpt lat="44.01645" lon="6.8664">
        <ele>1050</ele>
        <time>2019-04-20T09:56:17Z</time>
      </trkpt>
      <trkpt lat="44.01649" lon="6.86643">
        <ele>1050</ele>
        <time>2019-04-20T09:56:17Z</time>
      </trkpt>
      <trkpt lat="44.01652" lon="6.86646">
        <ele>1050</ele>
        <time>2019-04-20T09:56:17Z</time>
      </trkpt>
      <trkpt lat="44.01654" lon="6.86649">
        <ele>1050</ele>
        <time>2019-04-20T09:56:17Z</time>
      </trkpt>
      <trkpt lat="44.01656" lon="6.86651">
        <ele>1050</ele>
        <time>2019-04-20T09:56:33Z</time>
      </trkpt>
      <trkpt lat="44.01658" lon="6.86653">
        <ele>1050</ele>
        <time>2019-04-20T09:56:33Z</time>
      </trkpt>
      <trkpt lat="44.01663" lon="6.86655">
        <ele>1050</ele>
        <time>2019-04-20T09:56:33Z</time>
      </trkpt>
      <trkpt lat="44.01667" lon="6.86657">
        <ele>1050</ele>
        <time>2019-04-20T09:56:33Z</time>
      </trkpt>
      <trkpt lat="44.01673" lon="6.86658">
        <ele>1050</ele>
        <time>2019-04-20T09:56:53Z</time>
      </trkpt>
      <trkpt lat="44.01675" lon="6.86658">
        <ele>1050</ele>
        <time>2019-04-20T09:56:53Z</time>
      </trkpt>
      <trkpt lat="44.01678" lon="6.86656">
        <ele>1050</ele>
        <time>2019-04-20T09:56:53Z</time>
      </trkpt>
      <trkpt lat="44.01681" lon="6.86655">
        <ele>1050</ele>
        <time>2019-04-20T09:56:53Z</time>
      </trkpt>
      <trkpt lat="44.01684" lon="6.86655">
        <ele>1050</ele>
        <time>2019-04-20T09:56:53Z</time>
      </trkpt>
      <trkpt lat="44.01688" lon="6.86656">
        <ele>1050</ele>
        <time>2019-04-20T09:57:09Z</time>
      </trkpt>
      <trkpt lat="44.01691" lon="6.86655">
        <ele>1050</ele>
        <time>2019-04-20T09:57:09Z</time>
      </trkpt>
      <trkpt lat="44.01694" lon="6.86654">
        <ele>1050</ele>
        <time>2019-04-20T09:57:09Z</time>
      </trkpt>
      <trkpt lat="44.01697" lon="6.86653">
        <ele>1050</ele>
        <time>2019-04-20T09:57:09Z</time>
      </trkpt>
      <trkpt lat="44.017" lon="6.86653">
        <ele>1050</ele>
        <time>2019-04-20T09:57:25Z</time>
      </trkpt>
      <trkpt lat="44.01704" lon="6.86655">
        <ele>1050</ele>
        <time>2019-04-20T09:57:25Z</time>
      </trkpt>
      <trkpt lat="44.01706" lon="6.86657">
        <ele>1050</ele>
        <time>2019-04-20T09:57:25Z</time>
      </trkpt>
      <trkpt lat="44.01709" lon="6.8666">
        <ele>1061</ele>
        <time>2019-04-20T09:57:25Z</time>
      </trkpt>
      <trkpt lat="44.01709" lon="6.86662">
        <ele>1061</ele>
        <time>2019-04-20T09:57:45Z</time>
      </trkpt>
      <trkpt lat="44.01708" lon="6.86664">
        <ele>1050</ele>
        <time>2019-04-20T09:57:45Z</time>
      </trkpt>
      <trkpt lat="44.01711" lon="6.86667">
        <ele>1061</ele>
        <time>2019-04-20T09:57:45Z</time>
      </trkpt>
      <trkpt lat="44.01715" lon="6.8667">
        <ele>1061</ele>
        <time>2019-04-20T09:57:45Z</time>
      </trkpt>
      <trkpt lat="44.01719" lon="6.86669">
        <ele>1061</ele>
        <time>2019-04-20T09:57:45Z</time>
      </trkpt>
      <trkpt lat="44.01724" lon="6.86667">
        <ele>1061</ele>
        <time>2019-04-20T09:58:01Z</time>
      </trkpt>
      <trkpt lat="44.01727" lon="6.86667">
        <ele>1061</ele>
        <time>2019-04-20T09:58:01Z</time>
      </trkpt>
      <trkpt lat="44.01732" lon="6.86665">
        <ele>1061</ele>
        <time>2019-04-20T09:58:01Z</time>
      </trkpt>
      <trkpt lat="44.01736" lon="6.86665">
        <ele>1061</ele>
        <time>2019-04-20T09:58:01Z</time>
      </trkpt>
      <trkpt lat="44.0174" lon="6.86665">
        <ele>1061</ele>
        <time>2019-04-20T09:58:21Z</time>
      </trkpt>
      <trkpt lat="44.01742" lon="6.86665">
        <ele>1061</ele>
        <time>2019-04-20T09:58:21Z</time>
      </trkpt>
      <trkpt lat="44.01745" lon="6.86667">
        <ele>1061</ele>
        <time>2019-04-20T09:58:21Z</time>
      </trkpt>
      <trkpt lat="44.01746" lon="6.8667">
        <ele>1061</ele>
        <time>2019-04-20T09:58:21Z</time>
      </trkpt>
      <trkpt lat="44.01748" lon="6.8667">
        <ele>1061</ele>
        <time>2019-04-20T09:58:21Z</time>
      </trkpt>
      <trkpt lat="44.01751" lon="6.86672">
        <ele>1061</ele>
        <time>2019-04-20T09:58:37Z</time>
      </trkpt>
      <trkpt lat="44.01755" lon="6.86672">
        <ele>1061</ele>
        <time>2019-04-20T09:58:37Z</time>
      </trkpt>
      <trkpt lat="44.01758" lon="6.86674">
        <ele>1061</ele>
        <time>2019-04-20T09:58:37Z</time>
      </trkpt>
      <trkpt lat="44.01762" lon="6.86673">
        <ele>1061</ele>
        <time>2019-04-20T09:58:37Z</time>
      </trkpt>
      <trkpt lat="44.01766" lon="6.86673">
        <ele>1061</ele>
        <time>2019-04-20T09:58:53Z</time>
      </trkpt>
      <trkpt lat="44.01771" lon="6.86673">
        <ele>1061</ele>
        <time>2019-04-20T09:58:53Z</time>
      </trkpt>
      <trkpt lat="44.01774" lon="6.86673">
        <ele>1061</ele>
        <time>2019-04-20T09:58:53Z</time>
      </trkpt>
      <trkpt lat="44.01778" lon="6.86672">
        <ele>1061</ele>
        <time>2019-04-20T09:58:53Z</time>
      </trkpt>
      <trkpt lat="44.01783" lon="6.86671">
        <ele>1061</ele>
        <time>2019-04-20T09:59:09Z</time>
      </trkpt>
      <trkpt lat="44.01786" lon="6.86666">
        <ele>1061</ele>
        <time>2019-04-20T09:59:09Z</time>
      </trkpt>
      <trkpt lat="44.01789" lon="6.86661">
        <ele>1061</ele>
        <time>2019-04-20T09:59:09Z</time>
      </trkpt>
      <trkpt lat="44.0179" lon="6.86656">
        <ele>1061</ele>
        <time>2019-04-20T09:59:09Z</time>
      </trkpt>
      <trkpt lat="44.01793" lon="6.86653">
        <ele>1061</ele>
        <time>2019-04-20T09:59:25Z</time>
      </trkpt>
      <trkpt lat="44.01796" lon="6.86648">
        <ele>1061</ele>
        <time>2019-04-20T09:59:25Z</time>
      </trkpt>
      <trkpt lat="44.018" lon="6.86644">
        <ele>1061</ele>
        <time>2019-04-20T09:59:25Z</time>
      </trkpt>
      <trkpt lat="44.01801" lon="6.86641">
        <ele>1061</ele>
        <time>2019-04-20T09:59:25Z</time>
      </trkpt>
      <trkpt lat="44.01803" lon="6.8664">
        <ele>1061</ele>
        <time>2019-04-20T09:59:41Z</time>
      </trkpt>
      <trkpt lat="44.01807" lon="6.86636">
        <ele>1061</ele>
        <time>2019-04-20T09:59:41Z</time>
      </trkpt>
      <trkpt lat="44.01809" lon="6.86633">
        <ele>1061</ele>
        <time>2019-04-20T09:59:41Z</time>
      </trkpt>
      <trkpt lat="44.01816" lon="6.86633">
        <ele>1061</ele>
        <time>2019-04-20T09:59:41Z</time>
      </trkpt>
      <trkpt lat="44.01818" lon="6.8664">
        <ele>1061</ele>
        <time>2019-04-20T09:59:57Z</time>
      </trkpt>
      <trkpt lat="44.01821" lon="6.86643">
        <ele>1061</ele>
        <time>2019-04-20T09:59:57Z</time>
      </trkpt>
      <trkpt lat="44.01824" lon="6.86647">
        <ele>1061</ele>
        <time>2019-04-20T09:59:57Z</time>
      </trkpt>
      <trkpt lat="44.01826" lon="6.86652">
        <ele>1061</ele>
        <time>2019-04-20T09:59:57Z</time>
      </trkpt>
      <trkpt lat="44.0183" lon="6.86655">
        <ele>1061</ele>
        <time>2019-04-20T10:00:17Z</time>
      </trkpt>
      <trkpt lat="44.01834" lon="6.86654">
        <ele>1061</ele>
        <time>2019-04-20T10:00:17Z</time>
      </trkpt>
      <trkpt lat="44.01835" lon="6.86653">
        <ele>1061</ele>
        <time>2019-04-20T10:00:17Z</time>
      </trkpt>
      <trkpt lat="44.01835" lon="6.86651">
        <ele>1061</ele>
        <time>2019-04-20T10:00:17Z</time>
      </trkpt>
      <trkpt lat="44.01839" lon="6.86651">
        <ele>1061</ele>
        <time>2019-04-20T10:00:17Z</time>
      </trkpt>
      <trkpt lat="44.01842" lon="6.86652">
        <ele>1061</ele>
        <time>2019-04-20T10:00:37Z</time>
      </trkpt>
      <trkpt lat="44.01845" lon="6.86654">
        <ele>1061</ele>
        <time>2019-04-20T10:00:37Z</time>
      </trkpt>
      <trkpt lat="44.01849" lon="6.86652">
        <ele>1061</ele>
        <time>2019-04-20T10:00:37Z</time>
      </trkpt>
      <trkpt lat="44.01849" lon="6.86649">
        <ele>1061</ele>
        <time>2019-04-20T10:00:37Z</time>
      </trkpt>
      <trkpt lat="44.01852" lon="6.86647">
        <ele>1061</ele>
        <time>2019-04-20T10:00:37Z</time>
      </trkpt>
      <trkpt lat="44.01855" lon="6.86644">
        <ele>1061</ele>
        <time>2019-04-20T10:00:57Z</time>
      </trkpt>
      <trkpt lat="44.01857" lon="6.86641">
        <ele>1061</ele>
        <time>2019-04-20T10:00:57Z</time>
      </trkpt>
      <trkpt lat="44.0186" lon="6.8664">
        <ele>1061</ele>
        <time>2019-04-20T10:00:57Z</time>
      </trkpt>
      <trkpt lat="44.01863" lon="6.86639">
        <ele>1061</ele>
        <time>2019-04-20T10:00:57Z</time>
      </trkpt>
      <trkpt lat="44.01866" lon="6.86643">
        <ele>1061</ele>
        <time>2019-04-20T10:00:57Z</time>
      </trkpt>
      <trkpt lat="44.01868" lon="6.86644">
        <ele>1061</ele>
        <time>2019-04-20T10:01:17Z</time>
      </trkpt>
      <trkpt lat="44.01871" lon="6.86645">
        <ele>1061</ele>
        <time>2019-04-20T10:01:17Z</time>
      </trkpt>
      <trkpt lat="44.01874" lon="6.86644">
        <ele>1061</ele>
        <time>2019-04-20T10:01:17Z</time>
      </trkpt>
      <trkpt lat="44.01876" lon="6.86641">
        <ele>1066</ele>
        <time>2019-04-20T10:01:17Z</time>
      </trkpt>
      <trkpt lat="44.01877" lon="6.86639">
        <ele>1066</ele>
        <time>2019-04-20T10:01:17Z</time>
      </trkpt>
      <trkpt lat="44.0188" lon="6.86641">
        <ele>1066</ele>
        <time>2019-04-20T10:01:41Z</time>
      </trkpt>
      <trkpt lat="44.01882" lon="6.86642">
        <ele>1066</ele>
        <time>2019-04-20T10:01:41Z</time>
      </trkpt>
      <trkpt lat="44.01884" lon="6.86641">
        <ele>1066</ele>
        <time>2019-04-20T10:01:41Z</time>
      </trkpt>
      <trkpt lat="44.01887" lon="6.86642">
        <ele>1066</ele>
        <time>2019-04-20T10:01:41Z</time>
      </trkpt>
      <trkpt lat="44.0189" lon="6.86643">
        <ele>1066</ele>
        <time>2019-04-20T10:01:41Z</time>
      </trkpt>
      <trkpt lat="44.01894" lon="6.86642">
        <ele>1066</ele>
        <time>2019-04-20T10:01:57Z</time>
      </trkpt>
      <trkpt lat="44.01897" lon="6.86642">
        <ele>1066</ele>
        <time>2019-04-20T10:01:57Z</time>
      </trkpt>
      <trkpt lat="44.01903" lon="6.86641">
        <ele>1066</ele>
        <time>2019-04-20T10:01:57Z</time>
      </trkpt>
      <trkpt lat="44.01905" lon="6.86639">
        <ele>1066</ele>
        <time>2019-04-20T10:01:57Z</time>
      </trkpt>
      <trkpt lat="44.01909" lon="6.86636">
        <ele>1066</ele>
        <time>2019-04-20T10:02:17Z</time>
      </trkpt>
      <trkpt lat="44.01912" lon="6.86635">
        <ele>1066</ele>
        <time>2019-04-20T10:02:17Z</time>
      </trkpt>
      <trkpt lat="44.01913" lon="6.86635">
        <ele>1066</ele>
        <time>2019-04-20T10:02:17Z</time>
      </trkpt>
      <trkpt lat="44.01917" lon="6.86635">
        <ele>1066</ele>
        <time>2019-04-20T10:02:17Z</time>
      </trkpt>
      <trkpt lat="44.0192" lon="6.86636">
        <ele>1066</ele>
        <time>2019-04-20T10:02:17Z</time>
      </trkpt>
      <trkpt lat="44.01924" lon="6.86635">
        <ele>1066</ele>
        <time>2019-04-20T10:02:37Z</time>
      </trkpt>
      <trkpt lat="44.01928" lon="6.86633">
        <ele>1066</ele>
        <time>2019-04-20T10:02:37Z</time>
      </trkpt>
      <trkpt lat="44.0193" lon="6.8663">
        <ele>1066</ele>
        <time>2019-04-20T10:02:37Z</time>
      </trkpt>
      <trkpt lat="44.01929" lon="6.86628">
        <ele>1066</ele>
        <time>2019-04-20T10:02:37Z</time>
      </trkpt>
      <trkpt lat="44.0193" lon="6.86625">
        <ele>1066</ele>
        <time>2019-04-20T10:02:37Z</time>
      </trkpt>
      <trkpt lat="44.01929" lon="6.8662">
        <ele>1089</ele>
        <time>2019-04-20T10:03:01Z</time>
      </trkpt>
      <trkpt lat="44.0193" lon="6.86619">
        <ele>1089</ele>
        <time>2019-04-20T10:03:01Z</time>
      </trkpt>
      <trkpt lat="44.01932" lon="6.86618">
        <ele>1089</ele>
        <time>2019-04-20T10:03:01Z</time>
      </trkpt>
      <trkpt lat="44.01934" lon="6.86615">
        <ele>1089</ele>
        <time>2019-04-20T10:03:01Z</time>
      </trkpt>
      <trkpt lat="44.01936" lon="6.86613">
        <ele>1089</ele>
        <time>2019-04-20T10:03:01Z</time>
      </trkpt>
      <trkpt lat="44.01939" lon="6.86612">
        <ele>1089</ele>
        <time>2019-04-20T10:03:21Z</time>
      </trkpt>
      <trkpt lat="44.01941" lon="6.86611">
        <ele>1089</ele>
        <time>2019-04-20T10:03:21Z</time>
      </trkpt>
      <trkpt lat="44.01944" lon="6.8661">
        <ele>1089</ele>
        <time>2019-04-20T10:03:21Z</time>
      </trkpt>
      <trkpt lat="44.01947" lon="6.86606">
        <ele>1089</ele>
        <time>2019-04-20T10:03:21Z</time>
      </trkpt>
      <trkpt lat="44.01946" lon="6.86603">
        <ele>1089</ele>
        <time>2019-04-20T10:03:21Z</time>
      </trkpt>
      <trkpt lat="44.0195" lon="6.866">
        <ele>1089</ele>
        <time>2019-04-20T10:03:45Z</time>
      </trkpt>
      <trkpt lat="44.01951" lon="6.86597">
        <ele>1089</ele>
        <time>2019-04-20T10:03:45Z</time>
      </trkpt>
      <trkpt lat="44.01953" lon="6.86598">
        <ele>1089</ele>
        <time>2019-04-20T10:03:45Z</time>
      </trkpt>
      <trkpt lat="44.01955" lon="6.86596">
        <ele>1089</ele>
        <time>2019-04-20T10:03:45Z</time>
      </trkpt>
      <trkpt lat="44.01958" lon="6.86595">
        <ele>1089</ele>
        <time>2019-04-20T10:03:45Z</time>
      </trkpt>
      <trkpt lat="44.01963" lon="6.86593">
        <ele>1098</ele>
        <time>2019-04-20T10:04:01Z</time>
      </trkpt>
      <trkpt lat="44.01968" lon="6.8659">
        <ele>1098</ele>
        <time>2019-04-20T10:04:01Z</time>
      </trkpt>
      <trkpt lat="44.0197" lon="6.8659">
        <ele>1098</ele>
        <time>2019-04-20T10:04:01Z</time>
      </trkpt>
      <trkpt lat="44.01972" lon="6.8659">
        <ele>1098</ele>
        <time>2019-04-20T10:04:01Z</time>
      </trkpt>
      <trkpt lat="44.01974" lon="6.86587">
        <ele>1098</ele>
        <time>2019-04-20T10:04:25Z</time>
      </trkpt>
      <trkpt lat="44.01976" lon="6.86585">
        <ele>1098</ele>
        <time>2019-04-20T10:04:25Z</time>
      </trkpt>
      <trkpt lat="44.01977" lon="6.86586">
        <ele>1098</ele>
        <time>2019-04-20T10:04:25Z</time>
      </trkpt>
      <trkpt lat="44.01978" lon="6.86586">
        <ele>1098</ele>
        <time>2019-04-20T10:04:25Z</time>
      </trkpt>
      <trkpt lat="44.01981" lon="6.86584">
        <ele>1098</ele>
        <time>2019-04-20T10:04:25Z</time>
      </trkpt>
      <trkpt lat="44.01983" lon="6.86581">
        <ele>1098</ele>
        <time>2019-04-20T10:04:41Z</time>
      </trkpt>
      <trkpt lat="44.01986" lon="6.86578">
        <ele>1098</ele>
        <time>2019-04-20T10:04:41Z</time>
      </trkpt>
      <trkpt lat="44.01988" lon="6.86573">
        <ele>1098</ele>
        <time>2019-04-20T10:04:41Z</time>
      </trkpt>
      <trkpt lat="44.01991" lon="6.86571">
        <ele>1098</ele>
        <time>2019-04-20T10:04:41Z</time>
      </trkpt>
      <trkpt lat="44.01996" lon="6.8657">
        <ele>1098</ele>
        <time>2019-04-20T10:05:05Z</time>
      </trkpt>
      <trkpt lat="44.01998" lon="6.86569">
        <ele>1098</ele>
        <time>2019-04-20T10:05:05Z</time>
      </trkpt>
      <trkpt lat="44.01999" lon="6.86569">
        <ele>1098</ele>
        <time>2019-04-20T10:05:05Z</time>
      </trkpt>
      <trkpt lat="44.02" lon="6.86564">
        <ele>1098</ele>
        <time>2019-04-20T10:05:05Z</time>
      </trkpt>
      <trkpt lat="44.02002" lon="6.86564">
        <ele>1098</ele>
        <time>2019-04-20T10:05:05Z</time>
      </trkpt>
      <trkpt lat="44.02004" lon="6.86565">
        <ele>1098</ele>
        <time>2019-04-20T10:05:25Z</time>
      </trkpt>
      <trkpt lat="44.02006" lon="6.86562">
        <ele>1098</ele>
        <time>2019-04-20T10:05:25Z</time>
      </trkpt>
      <trkpt lat="44.0201" lon="6.86562">
        <ele>1098</ele>
        <time>2019-04-20T10:05:25Z</time>
      </trkpt>
      <trkpt lat="44.02013" lon="6.86562">
        <ele>1098</ele>
        <time>2019-04-20T10:05:25Z</time>
      </trkpt>
      <trkpt lat="44.02016" lon="6.86559">
        <ele>1098</ele>
        <time>2019-04-20T10:05:25Z</time>
      </trkpt>
      <trkpt lat="44.02018" lon="6.86559">
        <ele>1098</ele>
        <time>2019-04-20T10:05:41Z</time>
      </trkpt>
      <trkpt lat="44.02023" lon="6.86561">
        <ele>1098</ele>
        <time>2019-04-20T10:05:41Z</time>
      </trkpt>
      <trkpt lat="44.02026" lon="6.86564">
        <ele>1098</ele>
        <time>2019-04-20T10:05:41Z</time>
      </trkpt>
      <trkpt lat="44.02027" lon="6.86568">
        <ele>1098</ele>
        <time>2019-04-20T10:05:41Z</time>
      </trkpt>
      <trkpt lat="44.02025" lon="6.86577">
        <ele>1098</ele>
        <time>2019-04-20T10:06:05Z</time>
      </trkpt>
      <trkpt lat="44.02026" lon="6.86577">
        <ele>1098</ele>
        <time>2019-04-20T10:06:05Z</time>
      </trkpt>
      <trkpt lat="44.02024" lon="6.86579">
        <ele>1098</ele>
        <time>2019-04-20T10:06:05Z</time>
      </trkpt>
      <trkpt lat="44.02025" lon="6.86581">
        <ele>1098</ele>
        <time>2019-04-20T10:06:05Z</time>
      </trkpt>
      <trkpt lat="44.02025" lon="6.86585">
        <ele>1098</ele>
        <time>2019-04-20T10:06:05Z</time>
      </trkpt>
      <trkpt lat="44.02024" lon="6.86592">
        <ele>1098</ele>
        <time>2019-04-20T10:06:29Z</time>
      </trkpt>
      <trkpt lat="44.02024" lon="6.86595">
        <ele>1098</ele>
        <time>2019-04-20T10:06:29Z</time>
      </trkpt>
      <trkpt lat="44.02025" lon="6.86597">
        <ele>1098</ele>
        <time>2019-04-20T10:06:29Z</time>
      </trkpt>
      <trkpt lat="44.02025" lon="6.866">
        <ele>1098</ele>
        <time>2019-04-20T10:06:29Z</time>
      </trkpt>
      <trkpt lat="44.02027" lon="6.86603">
        <ele>1098</ele>
        <time>2019-04-20T10:06:29Z</time>
      </trkpt>
      <trkpt lat="44.02029" lon="6.86605">
        <ele>1098</ele>
        <time>2019-04-20T10:06:49Z</time>
      </trkpt>
      <trkpt lat="44.02032" lon="6.86603">
        <ele>1098</ele>
        <time>2019-04-20T10:06:49Z</time>
      </trkpt>
      <trkpt lat="44.02034" lon="6.86602">
        <ele>1098</ele>
        <time>2019-04-20T10:06:49Z</time>
      </trkpt>
      <trkpt lat="44.02035" lon="6.86601">
        <ele>1098</ele>
        <time>2019-04-20T10:06:49Z</time>
      </trkpt>
      <trkpt lat="44.02036" lon="6.86597">
        <ele>1098</ele>
        <time>2019-04-20T10:06:49Z</time>
      </trkpt>
      <trkpt lat="44.02038" lon="6.86592">
        <ele>1098</ele>
        <time>2019-04-20T10:07:13Z</time>
      </trkpt>
      <trkpt lat="44.0204" lon="6.8659">
        <ele>1098</ele>
        <time>2019-04-20T10:07:13Z</time>
      </trkpt>
      <trkpt lat="44.02041" lon="6.86587">
        <ele>1098</ele>
        <time>2019-04-20T10:07:13Z</time>
      </trkpt>
      <trkpt lat="44.02042" lon="6.86584">
        <ele>1121</ele>
        <time>2019-04-20T10:07:13Z</time>
      </trkpt>
      <trkpt lat="44.02043" lon="6.86582">
        <ele>1121</ele>
        <time>2019-04-20T10:07:13Z</time>
      </trkpt>
      <trkpt lat="44.02046" lon="6.86581">
        <ele>1121</ele>
        <time>2019-04-20T10:07:33Z</time>
      </trkpt>
      <trkpt lat="44.02049" lon="6.86585">
        <ele>1121</ele>
        <time>2019-04-20T10:07:33Z</time>
      </trkpt>
      <trkpt lat="44.02049" lon="6.86588">
        <ele>1121</ele>
        <time>2019-04-20T10:07:33Z</time>
      </trkpt>
      <trkpt lat="44.02048" lon="6.86592">
        <ele>1121</ele>
        <time>2019-04-20T10:07:33Z</time>
      </trkpt>
      <trkpt lat="44.02048" lon="6.86596">
        <ele>1121</ele>
        <time>2019-04-20T10:07:33Z</time>
      </trkpt>
      <trkpt lat="44.0205" lon="6.86607">
        <ele>1121</ele>
        <time>2019-04-20T10:08:05Z</time>
      </trkpt>
      <trkpt lat="44.02052" lon="6.86607">
        <ele>1121</ele>
        <time>2019-04-20T10:08:05Z</time>
      </trkpt>
      <trkpt lat="44.02057" lon="6.8661">
        <ele>1121</ele>
        <time>2019-04-20T10:08:05Z</time>
      </trkpt>
      <trkpt lat="44.02062" lon="6.86611">
        <ele>1121</ele>
        <time>2019-04-20T10:08:05Z</time>
      </trkpt>
      <trkpt lat="44.02068" lon="6.86611">
        <ele>1121</ele>
        <time>2019-04-20T10:08:05Z</time>
      </trkpt>
      <trkpt lat="44.02077" lon="6.86612">
        <ele>1121</ele>
        <time>2019-04-20T10:08:49Z</time>
      </trkpt>
      <trkpt lat="44.02078" lon="6.86609">
        <ele>1121</ele>
        <time>2019-04-20T10:08:49Z</time>
      </trkpt>
      <trkpt lat="44.02078" lon="6.86605">
        <ele>1121</ele>
        <time>2019-04-20T10:08:49Z</time>
      </trkpt>
      <trkpt lat="44.02077" lon="6.86602">
        <ele>1121</ele>
        <time>2019-04-20T10:08:49Z</time>
      </trkpt>
      <trkpt lat="44.02078" lon="6.86597">
        <ele>1121</ele>
        <time>2019-04-20T10:08:49Z</time>
      </trkpt>
      <trkpt lat="44.02081" lon="6.86598">
        <ele>1121</ele>
        <time>2019-04-20T10:09:13Z</time>
      </trkpt>
      <trkpt lat="44.02083" lon="6.86599">
        <ele>1121</ele>
        <time>2019-04-20T10:09:13Z</time>
      </trkpt>
      <trkpt lat="44.02085" lon="6.86598">
        <ele>1121</ele>
        <time>2019-04-20T10:09:13Z</time>
      </trkpt>
      <trkpt lat="44.02086" lon="6.86595">
        <ele>1121</ele>
        <time>2019-04-20T10:09:13Z</time>
      </trkpt>
      <trkpt lat="44.02088" lon="6.86591">
        <ele>1121</ele>
        <time>2019-04-20T10:09:13Z</time>
      </trkpt>
      <trkpt lat="44.02089" lon="6.86588">
        <ele>1121</ele>
        <time>2019-04-20T10:09:37Z</time>
      </trkpt>
      <trkpt lat="44.0209" lon="6.86585">
        <ele>1121</ele>
        <time>2019-04-20T10:09:37Z</time>
      </trkpt>
      <trkpt lat="44.02091" lon="6.86583">
        <ele>1121</ele>
        <time>2019-04-20T10:09:37Z</time>
      </trkpt>
      <trkpt lat="44.02093" lon="6.86582">
        <ele>1121</ele>
        <time>2019-04-20T10:09:37Z</time>
      </trkpt>
      <trkpt lat="44.02096" lon="6.86578">
        <ele>1121</ele>
        <time>2019-04-20T10:09:37Z</time>
      </trkpt>
      <trkpt lat="44.021" lon="6.86573">
        <ele>1121</ele>
        <time>2019-04-20T10:09:57Z</time>
      </trkpt>
      <trkpt lat="44.02102" lon="6.86572">
        <ele>1121</ele>
        <time>2019-04-20T10:09:57Z</time>
      </trkpt>
      <trkpt lat="44.02104" lon="6.86569">
        <ele>1121</ele>
        <time>2019-04-20T10:09:57Z</time>
      </trkpt>
      <trkpt lat="44.02107" lon="6.86569">
        <ele>1121</ele>
        <time>2019-04-20T10:09:57Z</time>
      </trkpt>
      <trkpt lat="44.02109" lon="6.86569">
        <ele>1121</ele>
        <time>2019-04-20T10:09:57Z</time>
      </trkpt>
      <trkpt lat="44.02112" lon="6.86565">
        <ele>1121</ele>
        <time>2019-04-20T10:10:21Z</time>
      </trkpt>
      <trkpt lat="44.02115" lon="6.86563">
        <ele>1121</ele>
        <time>2019-04-20T10:10:21Z</time>
      </trkpt>
      <trkpt lat="44.02118" lon="6.86564">
        <ele>1121</ele>
        <time>2019-04-20T10:10:21Z</time>
      </trkpt>
      <trkpt lat="44.0212" lon="6.86563">
        <ele>1121</ele>
        <time>2019-04-20T10:10:21Z</time>
      </trkpt>
      <trkpt lat="44.02123" lon="6.86563">
        <ele>1121</ele>
        <time>2019-04-20T10:10:21Z</time>
      </trkpt>
      <trkpt lat="44.02125" lon="6.86562">
        <ele>1151</ele>
        <time>2019-04-20T10:10:41Z</time>
      </trkpt>
      <trkpt lat="44.02127" lon="6.8656">
        <ele>1151</ele>
        <time>2019-04-20T10:10:41Z</time>
      </trkpt>
      <trkpt lat="44.02128" lon="6.86557">
        <ele>1151</ele>
        <time>2019-04-20T10:10:41Z</time>
      </trkpt>
      <trkpt lat="44.02131" lon="6.86553">
        <ele>1151</ele>
        <time>2019-04-20T10:10:41Z</time>
      </trkpt>
      <trkpt lat="44.02134" lon="6.8655">
        <ele>1151</ele>
        <time>2019-04-20T10:10:41Z</time>
      </trkpt>
      <trkpt lat="44.02135" lon="6.86547">
        <ele>1151</ele>
        <time>2019-04-20T10:11:05Z</time>
      </trkpt>
      <trkpt lat="44.02137" lon="6.86545">
        <ele>1151</ele>
        <time>2019-04-20T10:11:05Z</time>
      </trkpt>
      <trkpt lat="44.02137" lon="6.86541">
        <ele>1149</ele>
        <time>2019-04-20T10:11:05Z</time>
      </trkpt>
      <trkpt lat="44.0214" lon="6.8654">
        <ele>1149</ele>
        <time>2019-04-20T10:11:05Z</time>
      </trkpt>
      <trkpt lat="44.02143" lon="6.86535">
        <ele>1149</ele>
        <time>2019-04-20T10:11:05Z</time>
      </trkpt>
      <trkpt lat="44.02144" lon="6.86532">
        <ele>1149</ele>
        <time>2019-04-20T10:11:21Z</time>
      </trkpt>
      <trkpt lat="44.02148" lon="6.8653">
        <ele>1149</ele>
        <time>2019-04-20T10:11:21Z</time>
      </trkpt>
      <trkpt lat="44.02152" lon="6.8653">
        <ele>1149</ele>
        <time>2019-04-20T10:11:21Z</time>
      </trkpt>
      <trkpt lat="44.02155" lon="6.86527">
        <ele>1149</ele>
        <time>2019-04-20T10:11:21Z</time>
      </trkpt>
      <trkpt lat="44.02156" lon="6.86525">
        <ele>1149</ele>
        <time>2019-04-20T10:11:41Z</time>
      </trkpt>
      <trkpt lat="44.02157" lon="6.86524">
        <ele>1149</ele>
        <time>2019-04-20T10:11:41Z</time>
      </trkpt>
      <trkpt lat="44.02158" lon="6.86521">
        <ele>1149</ele>
        <time>2019-04-20T10:11:41Z</time>
      </trkpt>
      <trkpt lat="44.0216" lon="6.86517">
        <ele>1149</ele>
        <time>2019-04-20T10:11:41Z</time>
      </trkpt>
      <trkpt lat="44.02162" lon="6.86514">
        <ele>1149</ele>
        <time>2019-04-20T10:11:41Z</time>
      </trkpt>
      <trkpt lat="44.02166" lon="6.8652">
        <ele>1149</ele>
        <time>2019-04-20T10:12:33Z</time>
      </trkpt>
      <trkpt lat="44.02168" lon="6.86523">
        <ele>1149</ele>
        <time>2019-04-20T10:12:33Z</time>
      </trkpt>
      <trkpt lat="44.02169" lon="6.86526">
        <ele>1149</ele>
        <time>2019-04-20T10:12:33Z</time>
      </trkpt>
      <trkpt lat="44.0217" lon="6.86529">
        <ele>1149</ele>
        <time>2019-04-20T10:12:33Z</time>
      </trkpt>
      <trkpt lat="44.02169" lon="6.86532">
        <ele>1149</ele>
        <time>2019-04-20T10:12:33Z</time>
      </trkpt>
      <trkpt lat="44.0217" lon="6.86535">
        <ele>1149</ele>
        <time>2019-04-20T10:12:53Z</time>
      </trkpt>
      <trkpt lat="44.02171" lon="6.86538">
        <ele>1149</ele>
        <time>2019-04-20T10:12:53Z</time>
      </trkpt>
      <trkpt lat="44.02171" lon="6.86541">
        <ele>1149</ele>
        <time>2019-04-20T10:12:53Z</time>
      </trkpt>
      <trkpt lat="44.02171" lon="6.86545">
        <ele>1151</ele>
        <time>2019-04-20T10:12:53Z</time>
      </trkpt>
      <trkpt lat="44.02169" lon="6.86549">
        <ele>1151</ele>
        <time>2019-04-20T10:12:53Z</time>
      </trkpt>
      <trkpt lat="44.02167" lon="6.86553">
        <ele>1151</ele>
        <time>2019-04-20T10:13:09Z</time>
      </trkpt>
      <trkpt lat="44.02166" lon="6.86556">
        <ele>1151</ele>
        <time>2019-04-20T10:13:09Z</time>
      </trkpt>
      <trkpt lat="44.02164" lon="6.8656">
        <ele>1151</ele>
        <time>2019-04-20T10:13:09Z</time>
      </trkpt>
      <trkpt lat="44.02164" lon="6.86565">
        <ele>1151</ele>
        <time>2019-04-20T10:13:09Z</time>
      </trkpt>
      <trkpt lat="44.02164" lon="6.8657">
        <ele>1151</ele>
        <time>2019-04-20T10:13:53Z</time>
      </trkpt>
      <trkpt lat="44.02167" lon="6.86569">
        <ele>1151</ele>
        <time>2019-04-20T10:13:53Z</time>
      </trkpt>
      <trkpt lat="44.0217" lon="6.86567">
        <ele>1151</ele>
        <time>2019-04-20T10:13:53Z</time>
      </trkpt>
      <trkpt lat="44.02173" lon="6.86565">
        <ele>1151</ele>
        <time>2019-04-20T10:13:53Z</time>
      </trkpt>
      <trkpt lat="44.02174" lon="6.86563">
        <ele>1151</ele>
        <time>2019-04-20T10:13:53Z</time>
      </trkpt>
      <trkpt lat="44.02178" lon="6.86562">
        <ele>1151</ele>
        <time>2019-04-20T10:14:09Z</time>
      </trkpt>
      <trkpt lat="44.0218" lon="6.8656">
        <ele>1151</ele>
        <time>2019-04-20T10:14:09Z</time>
      </trkpt>
      <trkpt lat="44.02182" lon="6.86558">
        <ele>1151</ele>
        <time>2019-04-20T10:14:09Z</time>
      </trkpt>
      <trkpt lat="44.02186" lon="6.86556">
        <ele>1151</ele>
        <time>2019-04-20T10:14:09Z</time>
      </trkpt>
      <trkpt lat="44.02188" lon="6.86553">
        <ele>1151</ele>
        <time>2019-04-20T10:14:29Z</time>
      </trkpt>
      <trkpt lat="44.02187" lon="6.86552">
        <ele>1151</ele>
        <time>2019-04-20T10:14:29Z</time>
      </trkpt>
      <trkpt lat="44.02188" lon="6.86548">
        <ele>1151</ele>
        <time>2019-04-20T10:14:29Z</time>
      </trkpt>
      <trkpt lat="44.0219" lon="6.86546">
        <ele>1151</ele>
        <time>2019-04-20T10:14:29Z</time>
      </trkpt>
      <trkpt lat="44.02193" lon="6.86543">
        <ele>1151</ele>
        <time>2019-04-20T10:14:29Z</time>
      </trkpt>
      <trkpt lat="44.02197" lon="6.8654">
        <ele>1149</ele>
        <time>2019-04-20T10:14:49Z</time>
      </trkpt>
      <trkpt lat="44.02201" lon="6.86538">
        <ele>1149</ele>
        <time>2019-04-20T10:14:49Z</time>
      </trkpt>
      <trkpt lat="44.02203" lon="6.86535">
        <ele>1149</ele>
        <time>2019-04-20T10:14:49Z</time>
      </trkpt>
      <trkpt lat="44.02204" lon="6.86534">
        <ele>1149</ele>
        <time>2019-04-20T10:14:49Z</time>
      </trkpt>
      <trkpt lat="44.02205" lon="6.8653">
        <ele>1149</ele>
        <time>2019-04-20T10:14:49Z</time>
      </trkpt>
      <trkpt lat="44.02205" lon="6.86527">
        <ele>1149</ele>
        <time>2019-04-20T10:15:25Z</time>
      </trkpt>
      <trkpt lat="44.02206" lon="6.86528">
        <ele>1149</ele>
        <time>2019-04-20T10:15:25Z</time>
      </trkpt>
      <trkpt lat="44.02208" lon="6.86533">
        <ele>1191</ele>
        <time>2019-04-20T10:15:25Z</time>
      </trkpt>
      <trkpt lat="44.02211" lon="6.86537">
        <ele>1191</ele>
        <time>2019-04-20T10:15:25Z</time>
      </trkpt>
      <trkpt lat="44.02214" lon="6.86542">
        <ele>1191</ele>
        <time>2019-04-20T10:15:25Z</time>
      </trkpt>
      <trkpt lat="44.02216" lon="6.86547">
        <ele>1174</ele>
        <time>2019-04-20T10:15:49Z</time>
      </trkpt>
      <trkpt lat="44.02216" lon="6.86548">
        <ele>1174</ele>
        <time>2019-04-20T10:15:49Z</time>
      </trkpt>
      <trkpt lat="44.02217" lon="6.8655">
        <ele>1174</ele>
        <time>2019-04-20T10:15:49Z</time>
      </trkpt>
      <trkpt lat="44.02218" lon="6.86553">
        <ele>1174</ele>
        <time>2019-04-20T10:15:49Z</time>
      </trkpt>
      <trkpt lat="44.02221" lon="6.86556">
        <ele>1174</ele>
        <time>2019-04-20T10:15:49Z</time>
      </trkpt>
      <trkpt lat="44.02222" lon="6.86558">
        <ele>1174</ele>
        <time>2019-04-20T10:16:05Z</time>
      </trkpt>
      <trkpt lat="44.02225" lon="6.8656">
        <ele>1174</ele>
        <time>2019-04-20T10:16:05Z</time>
      </trkpt>
      <trkpt lat="44.02229" lon="6.8656">
        <ele>1174</ele>
        <time>2019-04-20T10:16:05Z</time>
      </trkpt>
      <trkpt lat="44.02233" lon="6.86556">
        <ele>1174</ele>
        <time>2019-04-20T10:16:05Z</time>
      </trkpt>
      <trkpt lat="44.02236" lon="6.86553">
        <ele>1174</ele>
        <time>2019-04-20T10:16:25Z</time>
      </trkpt>
      <trkpt lat="44.02236" lon="6.86549">
        <ele>1174</ele>
        <time>2019-04-20T10:16:25Z</time>
      </trkpt>
      <trkpt lat="44.02235" lon="6.86546">
        <ele>1174</ele>
        <time>2019-04-20T10:16:25Z</time>
      </trkpt>
      <trkpt lat="44.02236" lon="6.86543">
        <ele>1174</ele>
        <time>2019-04-20T10:16:25Z</time>
      </trkpt>
      <trkpt lat="44.02239" lon="6.86538">
        <ele>1191</ele>
        <time>2019-04-20T10:16:25Z</time>
      </trkpt>
      <trkpt lat="44.0224" lon="6.86535">
        <ele>1191</ele>
        <time>2019-04-20T10:16:41Z</time>
      </trkpt>
      <trkpt lat="44.02243" lon="6.86535">
        <ele>1191</ele>
        <time>2019-04-20T10:16:41Z</time>
      </trkpt>
      <trkpt lat="44.02246" lon="6.86537">
        <ele>1191</ele>
        <time>2019-04-20T10:16:41Z</time>
      </trkpt>
      <trkpt lat="44.02249" lon="6.86539">
        <ele>1191</ele>
        <time>2019-04-20T10:16:41Z</time>
      </trkpt>
      <trkpt lat="44.02253" lon="6.86541">
        <ele>1191</ele>
        <time>2019-04-20T10:17:01Z</time>
      </trkpt>
      <trkpt lat="44.02254" lon="6.86544">
        <ele>1174</ele>
        <time>2019-04-20T10:17:01Z</time>
      </trkpt>
      <trkpt lat="44.02256" lon="6.86546">
        <ele>1174</ele>
        <time>2019-04-20T10:17:01Z</time>
      </trkpt>
      <trkpt lat="44.0226" lon="6.86549">
        <ele>1174</ele>
        <time>2019-04-20T10:17:01Z</time>
      </trkpt>
      <trkpt lat="44.02263" lon="6.86549">
        <ele>1174</ele>
        <time>2019-04-20T10:17:01Z</time>
      </trkpt>
      <trkpt lat="44.02264" lon="6.86546">
        <ele>1174</ele>
        <time>2019-04-20T10:17:25Z</time>
      </trkpt>
      <trkpt lat="44.02265" lon="6.86544">
        <ele>1174</ele>
        <time>2019-04-20T10:17:25Z</time>
      </trkpt>
      <trkpt lat="44.02268" lon="6.86541">
        <ele>1191</ele>
        <time>2019-04-20T10:17:25Z</time>
      </trkpt>
      <trkpt lat="44.02267" lon="6.86538">
        <ele>1191</ele>
        <time>2019-04-20T10:17:25Z</time>
      </trkpt>
      <trkpt lat="44.02269" lon="6.86537">
        <ele>1191</ele>
        <time>2019-04-20T10:17:25Z</time>
      </trkpt>
      <trkpt lat="44.02271" lon="6.86536">
        <ele>1191</ele>
        <time>2019-04-20T10:17:45Z</time>
      </trkpt>
      <trkpt lat="44.02271" lon="6.86537">
        <ele>1191</ele>
        <time>2019-04-20T10:17:45Z</time>
      </trkpt>
      <trkpt lat="44.02274" lon="6.86537">
        <ele>1191</ele>
        <time>2019-04-20T10:17:45Z</time>
      </trkpt>
      <trkpt lat="44.02278" lon="6.86536">
        <ele>1191</ele>
        <time>2019-04-20T10:17:45Z</time>
      </trkpt>
      <trkpt lat="44.02282" lon="6.86536">
        <ele>1191</ele>
        <time>2019-04-20T10:17:45Z</time>
      </trkpt>
      <trkpt lat="44.02285" lon="6.86537">
        <ele>1191</ele>
        <time>2019-04-20T10:18:05Z</time>
      </trkpt>
      <trkpt lat="44.02287" lon="6.86539">
        <ele>1191</ele>
        <time>2019-04-20T10:18:05Z</time>
      </trkpt>
      <trkpt lat="44.02289" lon="6.86539">
        <ele>1191</ele>
        <time>2019-04-20T10:18:05Z</time>
      </trkpt>
      <trkpt lat="44.02292" lon="6.86542">
        <ele>1203</ele>
        <time>2019-04-20T10:18:05Z</time>
      </trkpt>
      <trkpt lat="44.02293" lon="6.86544">
        <ele>1203</ele>
        <time>2019-04-20T10:18:05Z</time>
      </trkpt>
      <trkpt lat="44.02294" lon="6.8655">
        <ele>1203</ele>
        <time>2019-04-20T10:18:29Z</time>
      </trkpt>
      <trkpt lat="44.02293" lon="6.86553">
        <ele>1203</ele>
        <time>2019-04-20T10:18:29Z</time>
      </trkpt>
      <trkpt lat="44.02296" lon="6.86554">
        <ele>1203</ele>
        <time>2019-04-20T10:18:29Z</time>
      </trkpt>
      <trkpt lat="44.02298" lon="6.86555">
        <ele>1203</ele>
        <time>2019-04-20T10:18:29Z</time>
      </trkpt>
      <trkpt lat="44.02301" lon="6.86556">
        <ele>1203</ele>
        <time>2019-04-20T10:18:29Z</time>
      </trkpt>
      <trkpt lat="44.02307" lon="6.86557">
        <ele>1203</ele>
        <time>2019-04-20T10:18:57Z</time>
      </trkpt>
      <trkpt lat="44.02307" lon="6.86561">
        <ele>1203</ele>
        <time>2019-04-20T10:18:57Z</time>
      </trkpt>
      <trkpt lat="44.02307" lon="6.86563">
        <ele>1203</ele>
        <time>2019-04-20T10:18:57Z</time>
      </trkpt>
      <trkpt lat="44.02308" lon="6.86565">
        <ele>1203</ele>
        <time>2019-04-20T10:18:57Z</time>
      </trkpt>
      <trkpt lat="44.02311" lon="6.86566">
        <ele>1203</ele>
        <time>2019-04-20T10:18:57Z</time>
      </trkpt>
      <trkpt lat="44.02316" lon="6.86566">
        <ele>1203</ele>
        <time>2019-04-20T10:19:17Z</time>
      </trkpt>
      <trkpt lat="44.02318" lon="6.86566">
        <ele>1203</ele>
        <time>2019-04-20T10:19:17Z</time>
      </trkpt>
      <trkpt lat="44.0232" lon="6.86566">
        <ele>1203</ele>
        <time>2019-04-20T10:19:17Z</time>
      </trkpt>
      <trkpt lat="44.02323" lon="6.86568">
        <ele>1203</ele>
        <time>2019-04-20T10:19:17Z</time>
      </trkpt>
      <trkpt lat="44.02325" lon="6.86567">
        <ele>1203</ele>
        <time>2019-04-20T10:19:17Z</time>
      </trkpt>
      <trkpt lat="44.02327" lon="6.86567">
        <ele>1203</ele>
        <time>2019-04-20T10:19:33Z</time>
      </trkpt>
      <trkpt lat="44.0233" lon="6.86565">
        <ele>1203</ele>
        <time>2019-04-20T10:19:33Z</time>
      </trkpt>
      <trkpt lat="44.02335" lon="6.86561">
        <ele>1203</ele>
        <time>2019-04-20T10:19:33Z</time>
      </trkpt>
      <trkpt lat="44.02338" lon="6.8656">
        <ele>1203</ele>
        <time>2019-04-20T10:19:33Z</time>
      </trkpt>
      <trkpt lat="44.02343" lon="6.86555">
        <ele>1203</ele>
        <time>2019-04-20T10:20:01Z</time>
      </trkpt>
      <trkpt lat="44.02345" lon="6.86554">
        <ele>1203</ele>
        <time>2019-04-20T10:20:01Z</time>
      </trkpt>
      <trkpt lat="44.02346" lon="6.86552">
        <ele>1203</ele>
        <time>2019-04-20T10:20:01Z</time>
      </trkpt>
      <trkpt lat="44.02348" lon="6.86552">
        <ele>1203</ele>
        <time>2019-04-20T10:20:01Z</time>
      </trkpt>
      <trkpt lat="44.02352" lon="6.86551">
        <ele>1203</ele>
        <time>2019-04-20T10:20:01Z</time>
      </trkpt>
      <trkpt lat="44.02356" lon="6.8655">
        <ele>1203</ele>
        <time>2019-04-20T10:20:45Z</time>
      </trkpt>
      <trkpt lat="44.02358" lon="6.8655">
        <ele>1203</ele>
        <time>2019-04-20T10:20:45Z</time>
      </trkpt>
      <trkpt lat="44.02359" lon="6.86547">
        <ele>1203</ele>
        <time>2019-04-20T10:20:45Z</time>
      </trkpt>
      <trkpt lat="44.02359" lon="6.86542">
        <ele>1203</ele>
        <time>2019-04-20T10:20:45Z</time>
      </trkpt>
      <trkpt lat="44.0236" lon="6.86539">
        <ele>1232</ele>
        <time>2019-04-20T10:20:45Z</time>
      </trkpt>
      <trkpt lat="44.02362" lon="6.8654">
        <ele>1232</ele>
        <time>2019-04-20T10:21:05Z</time>
      </trkpt>
      <trkpt lat="44.02363" lon="6.8654">
        <ele>1232</ele>
        <time>2019-04-20T10:21:05Z</time>
      </trkpt>
      <trkpt lat="44.02364" lon="6.86539">
        <ele>1232</ele>
        <time>2019-04-20T10:21:05Z</time>
      </trkpt>
      <trkpt lat="44.02369" lon="6.86536">
        <ele>1232</ele>
        <time>2019-04-20T10:21:05Z</time>
      </trkpt>
      <trkpt lat="44.02372" lon="6.86539">
        <ele>1232</ele>
        <time>2019-04-20T10:21:05Z</time>
      </trkpt>
      <trkpt lat="44.02372" lon="6.8654">
        <ele>1232</ele>
        <time>2019-04-20T10:21:25Z</time>
      </trkpt>
      <trkpt lat="44.02372" lon="6.86541">
        <ele>1232</ele>
        <time>2019-04-20T10:21:25Z</time>
      </trkpt>
      <trkpt lat="44.02373" lon="6.86542">
        <ele>1203</ele>
        <time>2019-04-20T10:21:25Z</time>
      </trkpt>
      <trkpt lat="44.02375" lon="6.86548">
        <ele>1203</ele>
        <time>2019-04-20T10:21:25Z</time>
      </trkpt>
      <trkpt lat="44.02375" lon="6.86557">
        <ele>1203</ele>
        <time>2019-04-20T10:21:25Z</time>
      </trkpt>
      <trkpt lat="44.02375" lon="6.86565">
        <ele>1237</ele>
        <time>2019-04-20T10:21:49Z</time>
      </trkpt>
      <trkpt lat="44.02375" lon="6.86569">
        <ele>1237</ele>
        <time>2019-04-20T10:21:49Z</time>
      </trkpt>
      <trkpt lat="44.02374" lon="6.86572">
        <ele>1203</ele>
        <time>2019-04-20T10:21:49Z</time>
      </trkpt>
      <trkpt lat="44.02374" lon="6.86575">
        <ele>1203</ele>
        <time>2019-04-20T10:21:49Z</time>
      </trkpt>
      <trkpt lat="44.02374" lon="6.86578">
        <ele>1203</ele>
        <time>2019-04-20T10:21:49Z</time>
      </trkpt>
      <trkpt lat="44.02378" lon="6.86582">
        <ele>1237</ele>
        <time>2019-04-20T10:22:21Z</time>
      </trkpt>
      <trkpt lat="44.0238" lon="6.8658">
        <ele>1237</ele>
        <time>2019-04-20T10:22:21Z</time>
      </trkpt>
      <trkpt lat="44.02383" lon="6.86578">
        <ele>1237</ele>
        <time>2019-04-20T10:22:21Z</time>
      </trkpt>
      <trkpt lat="44.02386" lon="6.86576">
        <ele>1237</ele>
        <time>2019-04-20T10:22:21Z</time>
      </trkpt>
      <trkpt lat="44.02388" lon="6.86573">
        <ele>1237</ele>
        <time>2019-04-20T10:22:21Z</time>
      </trkpt>
      <trkpt lat="44.02392" lon="6.86568">
        <ele>1237</ele>
        <time>2019-04-20T10:22:49Z</time>
      </trkpt>
      <trkpt lat="44.02393" lon="6.86574">
        <ele>1237</ele>
        <time>2019-04-20T10:22:49Z</time>
      </trkpt>
      <trkpt lat="44.02392" lon="6.86578">
        <ele>1237</ele>
        <time>2019-04-20T10:22:49Z</time>
      </trkpt>
      <trkpt lat="44.02391" lon="6.86581">
        <ele>1237</ele>
        <time>2019-04-20T10:22:49Z</time>
      </trkpt>
      <trkpt lat="44.0239" lon="6.86586">
        <ele>1237</ele>
        <time>2019-04-20T10:22:49Z</time>
      </trkpt>
      <trkpt lat="44.02388" lon="6.8659">
        <ele>1237</ele>
        <time>2019-04-20T10:23:09Z</time>
      </trkpt>
      <trkpt lat="44.02388" lon="6.86593">
        <ele>1237</ele>
        <time>2019-04-20T10:23:09Z</time>
      </trkpt>
      <trkpt lat="44.02387" lon="6.86597">
        <ele>1237</ele>
        <time>2019-04-20T10:23:09Z</time>
      </trkpt>
      <trkpt lat="44.02386" lon="6.86601">
        <ele>1237</ele>
        <time>2019-04-20T10:23:09Z</time>
      </trkpt>
      <trkpt lat="44.02384" lon="6.86604">
        <ele>1237</ele>
        <time>2019-04-20T10:23:09Z</time>
      </trkpt>
      <trkpt lat="44.02387" lon="6.86615">
        <ele>1237</ele>
        <time>2019-04-20T10:23:45Z</time>
      </trkpt>
      <trkpt lat="44.0239" lon="6.86612">
        <ele>1237</ele>
        <time>2019-04-20T10:23:45Z</time>
      </trkpt>
      <trkpt lat="44.02393" lon="6.86609">
        <ele>1237</ele>
        <time>2019-04-20T10:23:45Z</time>
      </trkpt>
      <trkpt lat="44.02395" lon="6.86608">
        <ele>1237</ele>
        <time>2019-04-20T10:23:45Z</time>
      </trkpt>
      <trkpt lat="44.02399" lon="6.86607">
        <ele>1237</ele>
        <time>2019-04-20T10:23:45Z</time>
      </trkpt>
      <trkpt lat="44.02399" lon="6.86608">
        <ele>1237</ele>
        <time>2019-04-20T10:24:09Z</time>
      </trkpt>
      <trkpt lat="44.024" lon="6.86612">
        <ele>1237</ele>
        <time>2019-04-20T10:24:09Z</time>
      </trkpt>
      <trkpt lat="44.02399" lon="6.86615">
        <ele>1237</ele>
        <time>2019-04-20T10:24:09Z</time>
      </trkpt>
      <trkpt lat="44.024" lon="6.86617">
        <ele>1237</ele>
        <time>2019-04-20T10:24:09Z</time>
      </trkpt>
      <trkpt lat="44.02402" lon="6.86618">
        <ele>1237</ele>
        <time>2019-04-20T10:24:09Z</time>
      </trkpt>
      <trkpt lat="44.02404" lon="6.86617">
        <ele>1237</ele>
        <time>2019-04-20T10:24:29Z</time>
      </trkpt>
      <trkpt lat="44.02405" lon="6.86614">
        <ele>1237</ele>
        <time>2019-04-20T10:24:29Z</time>
      </trkpt>
      <trkpt lat="44.02406" lon="6.86612">
        <ele>1237</ele>
        <time>2019-04-20T10:24:29Z</time>
      </trkpt>
      <trkpt lat="44.02409" lon="6.86611">
        <ele>1237</ele>
        <time>2019-04-20T10:24:29Z</time>
      </trkpt>
      <trkpt lat="44.02413" lon="6.86611">
        <ele>1237</ele>
        <time>2019-04-20T10:24:29Z</time>
      </trkpt>
      <trkpt lat="44.02414" lon="6.86606">
        <ele>1237</ele>
        <time>2019-04-20T10:24:57Z</time>
      </trkpt>
      <trkpt lat="44.02415" lon="6.86605">
        <ele>1237</ele>
        <time>2019-04-20T10:24:57Z</time>
      </trkpt>
      <trkpt lat="44.02417" lon="6.86604">
        <ele>1237</ele>
        <time>2019-04-20T10:24:57Z</time>
      </trkpt>
      <trkpt lat="44.02422" lon="6.86604">
        <ele>1237</ele>
        <time>2019-04-20T10:24:57Z</time>
      </trkpt>
      <trkpt lat="44.02425" lon="6.86605">
        <ele>1237</ele>
        <time>2019-04-20T10:24:57Z</time>
      </trkpt>
      <trkpt lat="44.02427" lon="6.86605">
        <ele>1237</ele>
        <time>2019-04-20T10:25:17Z</time>
      </trkpt>
      <trkpt lat="44.02428" lon="6.86606">
        <ele>1237</ele>
        <time>2019-04-20T10:25:17Z</time>
      </trkpt>
      <trkpt lat="44.02429" lon="6.86607">
        <ele>1237</ele>
        <time>2019-04-20T10:25:17Z</time>
      </trkpt>
      <trkpt lat="44.02431" lon="6.86604">
        <ele>1237</ele>
        <time>2019-04-20T10:25:17Z</time>
      </trkpt>
      <trkpt lat="44.02436" lon="6.86603">
        <ele>1237</ele>
        <time>2019-04-20T10:25:17Z</time>
      </trkpt>
      <trkpt lat="44.02438" lon="6.86604">
        <ele>1237</ele>
        <time>2019-04-20T10:25:33Z</time>
      </trkpt>
      <trkpt lat="44.02439" lon="6.86604">
        <ele>1237</ele>
        <time>2019-04-20T10:25:33Z</time>
      </trkpt>
      <trkpt lat="44.02444" lon="6.86602">
        <ele>1237</ele>
        <time>2019-04-20T10:25:33Z</time>
      </trkpt>
      <trkpt lat="44.02447" lon="6.86602">
        <ele>1237</ele>
        <time>2019-04-20T10:25:33Z</time>
      </trkpt>
      <trkpt lat="44.02451" lon="6.86596">
        <ele>1237</ele>
        <time>2019-04-20T10:26:17Z</time>
      </trkpt>
      <trkpt lat="44.02447" lon="6.86595">
        <ele>1237</ele>
        <time>2019-04-20T10:26:17Z</time>
      </trkpt>
      <trkpt lat="44.02448" lon="6.86589">
        <ele>1237</ele>
        <time>2019-04-20T10:26:17Z</time>
      </trkpt>
      <trkpt lat="44.0245" lon="6.86585">
        <ele>1237</ele>
        <time>2019-04-20T10:26:17Z</time>
      </trkpt>
      <trkpt lat="44.02452" lon="6.86583">
        <ele>1237</ele>
        <time>2019-04-20T10:26:17Z</time>
      </trkpt>
      <trkpt lat="44.02455" lon="6.86579">
        <ele>1237</ele>
        <time>2019-04-20T10:26:33Z</time>
      </trkpt>
      <trkpt lat="44.02457" lon="6.86576">
        <ele>1237</ele>
        <time>2019-04-20T10:26:33Z</time>
      </trkpt>
      <trkpt lat="44.02461" lon="6.86576">
        <ele>1264</ele>
        <time>2019-04-20T10:26:33Z</time>
      </trkpt>
      <trkpt lat="44.02464" lon="6.86576">
        <ele>1264</ele>
        <time>2019-04-20T10:26:33Z</time>
      </trkpt>
      <trkpt lat="44.0247" lon="6.86578">
        <ele>1264</ele>
        <time>2019-04-20T10:27:01Z</time>
      </trkpt>
      <trkpt lat="44.02472" lon="6.86577">
        <ele>1264</ele>
        <time>2019-04-20T10:27:01Z</time>
      </trkpt>
      <trkpt lat="44.02475" lon="6.86576">
        <ele>1264</ele>
        <time>2019-04-20T10:27:01Z</time>
      </trkpt>
      <trkpt lat="44.02475" lon="6.86575">
        <ele>1264</ele>
        <time>2019-04-20T10:27:01Z</time>
      </trkpt>
      <trkpt lat="44.02474" lon="6.86572">
        <ele>1264</ele>
        <time>2019-04-20T10:27:01Z</time>
      </trkpt>
      <trkpt lat="44.02474" lon="6.8657">
        <ele>1264</ele>
        <time>2019-04-20T10:27:21Z</time>
      </trkpt>
      <trkpt lat="44.02474" lon="6.86566">
        <ele>1264</ele>
        <time>2019-04-20T10:27:21Z</time>
      </trkpt>
      <trkpt lat="44.02475" lon="6.86561">
        <ele>1264</ele>
        <time>2019-04-20T10:27:21Z</time>
      </trkpt>
      <trkpt lat="44.02475" lon="6.86558">
        <ele>1264</ele>
        <time>2019-04-20T10:27:21Z</time>
      </trkpt>
      <trkpt lat="44.02474" lon="6.86554">
        <ele>1264</ele>
        <time>2019-04-20T10:27:21Z</time>
      </trkpt>
      <trkpt lat="44.02474" lon="6.8655">
        <ele>1264</ele>
        <time>2019-04-20T10:27:41Z</time>
      </trkpt>
      <trkpt lat="44.02473" lon="6.86547">
        <ele>1264</ele>
        <time>2019-04-20T10:27:41Z</time>
      </trkpt>
      <trkpt lat="44.02474" lon="6.86542">
        <ele>1264</ele>
        <time>2019-04-20T10:27:41Z</time>
      </trkpt>
      <trkpt lat="44.02473" lon="6.86539">
        <ele>1283</ele>
        <time>2019-04-20T10:27:41Z</time>
      </trkpt>
      <trkpt lat="44.02473" lon="6.86535">
        <ele>1283</ele>
        <time>2019-04-20T10:27:41Z</time>
      </trkpt>
      <trkpt lat="44.02474" lon="6.86532">
        <ele>1283</ele>
        <time>2019-04-20T10:28:01Z</time>
      </trkpt>
      <trkpt lat="44.02474" lon="6.86529">
        <ele>1283</ele>
        <time>2019-04-20T10:28:01Z</time>
      </trkpt>
      <trkpt lat="44.02475" lon="6.86525">
        <ele>1283</ele>
        <time>2019-04-20T10:28:01Z</time>
      </trkpt>
      <trkpt lat="44.02475" lon="6.86522">
        <ele>1283</ele>
        <time>2019-04-20T10:28:01Z</time>
      </trkpt>
      <trkpt lat="44.02476" lon="6.86519">
        <ele>1283</ele>
        <time>2019-04-20T10:28:01Z</time>
      </trkpt>
      <trkpt lat="44.02481" lon="6.86516">
        <ele>1283</ele>
        <time>2019-04-20T10:28:25Z</time>
      </trkpt>
      <trkpt lat="44.02483" lon="6.86516">
        <ele>1283</ele>
        <time>2019-04-20T10:28:25Z</time>
      </trkpt>
      <trkpt lat="44.02486" lon="6.86519">
        <ele>1283</ele>
        <time>2019-04-20T10:28:25Z</time>
      </trkpt>
      <trkpt lat="44.02487" lon="6.86521">
        <ele>1283</ele>
        <time>2019-04-20T10:28:25Z</time>
      </trkpt>
      <trkpt lat="44.02489" lon="6.86522">
        <ele>1283</ele>
        <time>2019-04-20T10:28:25Z</time>
      </trkpt>
      <trkpt lat="44.0249" lon="6.86524">
        <ele>1283</ele>
        <time>2019-04-20T10:28:45Z</time>
      </trkpt>
      <trkpt lat="44.02493" lon="6.86525">
        <ele>1283</ele>
        <time>2019-04-20T10:28:45Z</time>
      </trkpt>
      <trkpt lat="44.02495" lon="6.86526">
        <ele>1283</ele>
        <time>2019-04-20T10:28:45Z</time>
      </trkpt>
      <trkpt lat="44.02497" lon="6.86527">
        <ele>1283</ele>
        <time>2019-04-20T10:28:45Z</time>
      </trkpt>
      <trkpt lat="44.025" lon="6.86528">
        <ele>1283</ele>
        <time>2019-04-20T10:28:45Z</time>
      </trkpt>
      <trkpt lat="44.025" lon="6.86531">
        <ele>1283</ele>
        <time>2019-04-20T10:29:01Z</time>
      </trkpt>
      <trkpt lat="44.02503" lon="6.86533">
        <ele>1283</ele>
        <time>2019-04-20T10:29:01Z</time>
      </trkpt>
      <trkpt lat="44.02507" lon="6.86534">
        <ele>1283</ele>
        <time>2019-04-20T10:29:01Z</time>
      </trkpt>
      <trkpt lat="44.0251" lon="6.86537">
        <ele>1283</ele>
        <time>2019-04-20T10:29:02Z</time>
      </trkpt>
      <trkpt lat="44.02512" lon="6.8654">
        <ele>1283</ele>
        <time>2019-04-20T10:29:17Z</time>
      </trkpt>
      <trkpt lat="44.02515" lon="6.86542">
        <ele>1264</ele>
        <time>2019-04-20T10:29:17Z</time>
      </trkpt>
      <trkpt lat="44.02518" lon="6.86545">
        <ele>1264</ele>
        <time>2019-04-20T10:29:17Z</time>
      </trkpt>
      <trkpt lat="44.02518" lon="6.86551">
        <ele>1264</ele>
        <time>2019-04-20T10:29:17Z</time>
      </trkpt>
      <trkpt lat="44.02517" lon="6.86556">
        <ele>1264</ele>
        <time>2019-04-20T10:29:37Z</time>
      </trkpt>
      <trkpt lat="44.02517" lon="6.8656">
        <ele>1264</ele>
        <time>2019-04-20T10:29:37Z</time>
      </trkpt>
      <trkpt lat="44.02518" lon="6.86564">
        <ele>1264</ele>
        <time>2019-04-20T10:29:37Z</time>
      </trkpt>
      <trkpt lat="44.02519" lon="6.86567">
        <ele>1264</ele>
        <time>2019-04-20T10:29:37Z</time>
      </trkpt>
      <trkpt lat="44.02522" lon="6.86567">
        <ele>1264</ele>
        <time>2019-04-20T10:29:37Z</time>
      </trkpt>
      <trkpt lat="44.02524" lon="6.86567">
        <ele>1264</ele>
        <time>2019-04-20T10:29:57Z</time>
      </trkpt>
      <trkpt lat="44.02527" lon="6.86565">
        <ele>1264</ele>
        <time>2019-04-20T10:29:57Z</time>
      </trkpt>
      <trkpt lat="44.0253" lon="6.86563">
        <ele>1264</ele>
        <time>2019-04-20T10:29:57Z</time>
      </trkpt>
      <trkpt lat="44.02531" lon="6.86561">
        <ele>1264</ele>
        <time>2019-04-20T10:29:57Z</time>
      </trkpt>
      <trkpt lat="44.02532" lon="6.86557">
        <ele>1264</ele>
        <time>2019-04-20T10:29:57Z</time>
      </trkpt>
      <trkpt lat="44.02533" lon="6.86553">
        <ele>1264</ele>
        <time>2019-04-20T10:30:17Z</time>
      </trkpt>
      <trkpt lat="44.02533" lon="6.86551">
        <ele>1264</ele>
        <time>2019-04-20T10:30:17Z</time>
      </trkpt>
      <trkpt lat="44.02534" lon="6.86548">
        <ele>1264</ele>
        <time>2019-04-20T10:30:17Z</time>
      </trkpt>
      <trkpt lat="44.02535" lon="6.86545">
        <ele>1264</ele>
        <time>2019-04-20T10:30:17Z</time>
      </trkpt>
      <trkpt lat="44.02536" lon="6.86541">
        <ele>1283</ele>
        <time>2019-04-20T10:30:17Z</time>
      </trkpt>
      <trkpt lat="44.02536" lon="6.86537">
        <ele>1283</ele>
        <time>2019-04-20T10:30:37Z</time>
      </trkpt>
      <trkpt lat="44.02535" lon="6.86533">
        <ele>1283</ele>
        <time>2019-04-20T10:30:37Z</time>
      </trkpt>
      <trkpt lat="44.02536" lon="6.86531">
        <ele>1283</ele>
        <time>2019-04-20T10:30:37Z</time>
      </trkpt>
      <trkpt lat="44.02538" lon="6.86526">
        <ele>1283</ele>
        <time>2019-04-20T10:30:37Z</time>
      </trkpt>
      <trkpt lat="44.02538" lon="6.86522">
        <ele>1283</ele>
        <time>2019-04-20T10:30:37Z</time>
      </trkpt>
      <trkpt lat="44.02539" lon="6.86518">
        <ele>1283</ele>
        <time>2019-04-20T10:30:57Z</time>
      </trkpt>
      <trkpt lat="44.02541" lon="6.86518">
        <ele>1283</ele>
        <time>2019-04-20T10:30:57Z</time>
      </trkpt>
      <trkpt lat="44.02543" lon="6.86523">
        <ele>1283</ele>
        <time>2019-04-20T10:30:57Z</time>
      </trkpt>
      <trkpt lat="44.02543" lon="6.86528">
        <ele>1283</ele>
        <time>2019-04-20T10:30:57Z</time>
      </trkpt>
      <trkpt lat="44.02544" lon="6.86531">
        <ele>1283</ele>
        <time>2019-04-20T10:30:57Z</time>
      </trkpt>
      <trkpt lat="44.02549" lon="6.86537">
        <ele>1283</ele>
        <time>2019-04-20T10:31:33Z</time>
      </trkpt>
      <trkpt lat="44.02551" lon="6.86532">
        <ele>1283</ele>
        <time>2019-04-20T10:31:33Z</time>
      </trkpt>
      <trkpt lat="44.02554" lon="6.86531">
        <ele>1283</ele>
        <time>2019-04-20T10:31:33Z</time>
      </trkpt>
      <trkpt lat="44.02556" lon="6.86528">
        <ele>1283</ele>
        <time>2019-04-20T10:31:33Z</time>
      </trkpt>
      <trkpt lat="44.02557" lon="6.86525">
        <ele>1283</ele>
        <time>2019-04-20T10:31:33Z</time>
      </trkpt>
      <trkpt lat="44.0256" lon="6.86522">
        <ele>1283</ele>
        <time>2019-04-20T10:31:57Z</time>
      </trkpt>
      <trkpt lat="44.02561" lon="6.86521">
        <ele>1283</ele>
        <time>2019-04-20T10:31:57Z</time>
      </trkpt>
      <trkpt lat="44.02563" lon="6.86519">
        <ele>1283</ele>
        <time>2019-04-20T10:31:57Z</time>
      </trkpt>
      <trkpt lat="44.02564" lon="6.86516">
        <ele>1283</ele>
        <time>2019-04-20T10:31:57Z</time>
      </trkpt>
      <trkpt lat="44.02564" lon="6.86515">
        <ele>1283</ele>
        <time>2019-04-20T10:31:57Z</time>
      </trkpt>
      <trkpt lat="44.02564" lon="6.86514">
        <ele>1283</ele>
        <time>2019-04-20T10:33:17Z</time>
      </trkpt>
      <trkpt lat="44.02566" lon="6.86511">
        <ele>1283</ele>
        <time>2019-04-20T10:33:17Z</time>
      </trkpt>
      <trkpt lat="44.02562" lon="6.8651">
        <ele>1283</ele>
        <time>2019-04-20T10:33:17Z</time>
      </trkpt>
      <trkpt lat="44.02558" lon="6.86508">
        <ele>1283</ele>
        <time>2019-04-20T10:33:17Z</time>
      </trkpt>
      <trkpt lat="44.02554" lon="6.86507">
        <ele>1283</ele>
        <time>2019-04-20T10:33:17Z</time>
      </trkpt>
      <trkpt lat="44.0255" lon="6.86505">
        <ele>1283</ele>
        <time>2019-04-20T10:33:37Z</time>
      </trkpt>
      <trkpt lat="44.02547" lon="6.86504">
        <ele>1283</ele>
        <time>2019-04-20T10:33:37Z</time>
      </trkpt>
      <trkpt lat="44.02546" lon="6.86503">
        <ele>1283</ele>
        <time>2019-04-20T10:33:37Z</time>
      </trkpt>
      <trkpt lat="44.02542" lon="6.86503">
        <ele>1283</ele>
        <time>2019-04-20T10:33:37Z</time>
      </trkpt>
      <trkpt lat="44.02538" lon="6.86504">
        <ele>1283</ele>
        <time>2019-04-20T10:33:37Z</time>
      </trkpt>
      <trkpt lat="44.02534" lon="6.86508">
        <ele>1283</ele>
        <time>2019-04-20T10:33:53Z</time>
      </trkpt>
      <trkpt lat="44.02531" lon="6.86505">
        <ele>1283</ele>
        <time>2019-04-20T10:33:53Z</time>
      </trkpt>
      <trkpt lat="44.02527" lon="6.86504">
        <ele>1283</ele>
        <time>2019-04-20T10:33:53Z</time>
      </trkpt>
      <trkpt lat="44.02524" lon="6.86502">
        <ele>1283</ele>
        <time>2019-04-20T10:33:53Z</time>
      </trkpt>
      <trkpt lat="44.02518" lon="6.86503">
        <ele>1283</ele>
        <time>2019-04-20T10:34:09Z</time>
      </trkpt>
      <trkpt lat="44.02513" lon="6.86501">
        <ele>1283</ele>
        <time>2019-04-20T10:34:09Z</time>
      </trkpt>
      <trkpt lat="44.02509" lon="6.86498">
        <ele>1283</ele>
        <time>2019-04-20T10:34:09Z</time>
      </trkpt>
      <trkpt lat="44.02505" lon="6.86497">
        <ele>1283</ele>
        <time>2019-04-20T10:34:09Z</time>
      </trkpt>
      <trkpt lat="44.02499" lon="6.86495">
        <ele>1283</ele>
        <time>2019-04-20T10:35:09Z</time>
      </trkpt>
      <trkpt lat="44.02499" lon="6.86493">
        <ele>1283</ele>
        <time>2019-04-20T10:35:09Z</time>
      </trkpt>
      <trkpt lat="44.02498" lon="6.86492">
        <ele>1283</ele>
        <time>2019-04-20T10:35:09Z</time>
      </trkpt>
      <trkpt lat="44.02494" lon="6.86491">
        <ele>1283</ele>
        <time>2019-04-20T10:35:09Z</time>
      </trkpt>
      <trkpt lat="44.0249" lon="6.86492">
        <ele>1283</ele>
        <time>2019-04-20T10:35:09Z</time>
      </trkpt>
      <trkpt lat="44.02486" lon="6.86491">
        <ele>1283</ele>
        <time>2019-04-20T10:35:29Z</time>
      </trkpt>
      <trkpt lat="44.02484" lon="6.8649">
        <ele>1283</ele>
        <time>2019-04-20T10:35:29Z</time>
      </trkpt>
      <trkpt lat="44.02481" lon="6.86489">
        <ele>1283</ele>
        <time>2019-04-20T10:35:29Z</time>
      </trkpt>
      <trkpt lat="44.02478" lon="6.86487">
        <ele>1283</ele>
        <time>2019-04-20T10:35:29Z</time>
      </trkpt>
      <trkpt lat="44.02475" lon="6.86485">
        <ele>1283</ele>
        <time>2019-04-20T10:35:29Z</time>
      </trkpt>
      <trkpt lat="44.02472" lon="6.86483">
        <ele>1283</ele>
        <time>2019-04-20T10:35:45Z</time>
      </trkpt>
      <trkpt lat="44.02468" lon="6.86483">
        <ele>1283</ele>
        <time>2019-04-20T10:35:45Z</time>
      </trkpt>
      <trkpt lat="44.02465" lon="6.86484">
        <ele>1283</ele>
        <time>2019-04-20T10:35:45Z</time>
      </trkpt>
      <trkpt lat="44.02462" lon="6.86485">
        <ele>1283</ele>
        <time>2019-04-20T10:35:45Z</time>
      </trkpt>
      <trkpt lat="44.02459" lon="6.86485">
        <ele>1283</ele>
        <time>2019-04-20T10:36:01Z</time>
      </trkpt>
      <trkpt lat="44.02456" lon="6.86488">
        <ele>1261</ele>
        <time>2019-04-20T10:36:01Z</time>
      </trkpt>
      <trkpt lat="44.02453" lon="6.86489">
        <ele>1261</ele>
        <time>2019-04-20T10:36:01Z</time>
      </trkpt>
      <trkpt lat="44.02449" lon="6.86488">
        <ele>1261</ele>
        <time>2019-04-20T10:36:01Z</time>
      </trkpt>
      <trkpt lat="44.02448" lon="6.86486">
        <ele>1261</ele>
        <time>2019-04-20T10:36:17Z</time>
      </trkpt>
      <trkpt lat="44.02445" lon="6.86485">
        <ele>1261</ele>
        <time>2019-04-20T10:36:17Z</time>
      </trkpt>
      <trkpt lat="44.02438" lon="6.86488">
        <ele>1261</ele>
        <time>2019-04-20T10:36:17Z</time>
      </trkpt>
      <trkpt lat="44.02434" lon="6.86488">
        <ele>1261</ele>
        <time>2019-04-20T10:36:17Z</time>
      </trkpt>
      <trkpt lat="44.0243" lon="6.86487">
        <ele>1261</ele>
        <time>2019-04-20T10:36:33Z</time>
      </trkpt>
      <trkpt lat="44.02426" lon="6.86487">
        <ele>1261</ele>
        <time>2019-04-20T10:36:33Z</time>
      </trkpt>
      <trkpt lat="44.02422" lon="6.86488">
        <ele>1261</ele>
        <time>2019-04-20T10:36:33Z</time>
      </trkpt>
      <trkpt lat="44.02419" lon="6.86488">
        <ele>1261</ele>
        <time>2019-04-20T10:36:33Z</time>
      </trkpt>
      <trkpt lat="44.02415" lon="6.86488">
        <ele>1261</ele>
        <time>2019-04-20T10:36:49Z</time>
      </trkpt>
      <trkpt lat="44.0241" lon="6.86487">
        <ele>1261</ele>
        <time>2019-04-20T10:36:49Z</time>
      </trkpt>
      <trkpt lat="44.02406" lon="6.86488">
        <ele>1261</ele>
        <time>2019-04-20T10:36:49Z</time>
      </trkpt>
      <trkpt lat="44.02402" lon="6.86489">
        <ele>1261</ele>
        <time>2019-04-20T10:36:49Z</time>
      </trkpt>
      <trkpt lat="44.02399" lon="6.86487">
        <ele>1261</ele>
        <time>2019-04-20T10:37:05Z</time>
      </trkpt>
      <trkpt lat="44.02396" lon="6.86486">
        <ele>1261</ele>
        <time>2019-04-20T10:37:05Z</time>
      </trkpt>
      <trkpt lat="44.02391" lon="6.86487">
        <ele>1261</ele>
        <time>2019-04-20T10:37:05Z</time>
      </trkpt>
      <trkpt lat="44.02387" lon="6.86486">
        <ele>1261</ele>
        <time>2019-04-20T10:37:05Z</time>
      </trkpt>
      <trkpt lat="44.02383" lon="6.86486">
        <ele>1261</ele>
        <time>2019-04-20T10:37:21Z</time>
      </trkpt>
      <trkpt lat="44.02379" lon="6.86485">
        <ele>1261</ele>
        <time>2019-04-20T10:37:21Z</time>
      </trkpt>
      <trkpt lat="44.02375" lon="6.86481">
        <ele>1261</ele>
        <time>2019-04-20T10:37:21Z</time>
      </trkpt>
      <trkpt lat="44.02371" lon="6.86478">
        <ele>1232</ele>
        <time>2019-04-20T10:37:21Z</time>
      </trkpt>
      <trkpt lat="44.02366" lon="6.86475">
        <ele>1232</ele>
        <time>2019-04-20T10:37:37Z</time>
      </trkpt>
      <trkpt lat="44.02363" lon="6.86474">
        <ele>1232</ele>
        <time>2019-04-20T10:37:37Z</time>
      </trkpt>
      <trkpt lat="44.0236" lon="6.86471">
        <ele>1232</ele>
        <time>2019-04-20T10:37:37Z</time>
      </trkpt>
      <trkpt lat="44.02357" lon="6.86469">
        <ele>1232</ele>
        <time>2019-04-20T10:37:37Z</time>
      </trkpt>
      <trkpt lat="44.02353" lon="6.86466">
        <ele>1232</ele>
        <time>2019-04-20T10:37:53Z</time>
      </trkpt>
      <trkpt lat="44.02349" lon="6.86464">
        <ele>1232</ele>
        <time>2019-04-20T10:37:53Z</time>
      </trkpt>
      <trkpt lat="44.02346" lon="6.86462">
        <ele>1232</ele>
        <time>2019-04-20T10:37:53Z</time>
      </trkpt>
      <trkpt lat="44.02344" lon="6.86457">
        <ele>1257</ele>
        <time>2019-04-20T10:37:53Z</time>
      </trkpt>
      <trkpt lat="44.0234" lon="6.86453">
        <ele>1257</ele>
        <time>2019-04-20T10:38:09Z</time>
      </trkpt>
      <trkpt lat="44.02338" lon="6.86448">
        <ele>1257</ele>
        <time>2019-04-20T10:38:09Z</time>
      </trkpt>
      <trkpt lat="44.02336" lon="6.86444">
        <ele>1257</ele>
        <time>2019-04-20T10:38:09Z</time>
      </trkpt>
      <trkpt lat="44.02333" lon="6.86439">
        <ele>1257</ele>
        <time>2019-04-20T10:38:09Z</time>
      </trkpt>
      <trkpt lat="44.02332" lon="6.86433">
        <ele>1257</ele>
        <time>2019-04-20T10:38:25Z</time>
      </trkpt>
      <trkpt lat="44.0233" lon="6.86428">
        <ele>1257</ele>
        <time>2019-04-20T10:38:25Z</time>
      </trkpt>
      <trkpt lat="44.02326" lon="6.86425">
        <ele>1257</ele>
        <time>2019-04-20T10:38:25Z</time>
      </trkpt>
      <trkpt lat="44.02323" lon="6.8642">
        <ele>1257</ele>
        <time>2019-04-20T10:38:25Z</time>
      </trkpt>
      <trkpt lat="44.02321" lon="6.86411">
        <ele>1257</ele>
        <time>2019-04-20T10:38:41Z</time>
      </trkpt>
      <trkpt lat="44.02318" lon="6.86408">
        <ele>1257</ele>
        <time>2019-04-20T10:38:41Z</time>
      </trkpt>
      <trkpt lat="44.02316" lon="6.86403">
        <ele>1257</ele>
        <time>2019-04-20T10:38:41Z</time>
      </trkpt>
      <trkpt lat="44.02315" lon="6.86398">
        <ele>1257</ele>
        <time>2019-04-20T10:38:41Z</time>
      </trkpt>
      <trkpt lat="44.02313" lon="6.86396">
        <ele>1257</ele>
        <time>2019-04-20T10:38:57Z</time>
      </trkpt>
      <trkpt lat="44.02313" lon="6.86391">
        <ele>1257</ele>
        <time>2019-04-20T10:38:57Z</time>
      </trkpt>
      <trkpt lat="44.02313" lon="6.86387">
        <ele>1257</ele>
        <time>2019-04-20T10:38:57Z</time>
      </trkpt>
      <trkpt lat="44.02314" lon="6.8638">
        <ele>1257</ele>
        <time>2019-04-20T10:38:57Z</time>
      </trkpt>
      <trkpt lat="44.0231" lon="6.86375">
        <ele>1257</ele>
        <time>2019-04-20T10:39:13Z</time>
      </trkpt>
      <trkpt lat="44.02307" lon="6.86367">
        <ele>1276</ele>
        <time>2019-04-20T10:39:13Z</time>
      </trkpt>
      <trkpt lat="44.02307" lon="6.86358">
        <ele>1276</ele>
        <time>2019-04-20T10:39:13Z</time>
      </trkpt>
      <trkpt lat="44.02308" lon="6.86352">
        <ele>1276</ele>
        <time>2019-04-20T10:39:13Z</time>
      </trkpt>
      <trkpt lat="44.0231" lon="6.86348">
        <ele>1276</ele>
        <time>2019-04-20T10:39:29Z</time>
      </trkpt>
      <trkpt lat="44.0231" lon="6.86343">
        <ele>1276</ele>
        <time>2019-04-20T10:39:29Z</time>
      </trkpt>
      <trkpt lat="44.02312" lon="6.86336">
        <ele>1276</ele>
        <time>2019-04-20T10:39:29Z</time>
      </trkpt>
      <trkpt lat="44.02311" lon="6.86333">
        <ele>1276</ele>
        <time>2019-04-20T10:39:29Z</time>
      </trkpt>
      <trkpt lat="44.02312" lon="6.86326">
        <ele>1276</ele>
        <time>2019-04-20T10:39:49Z</time>
      </trkpt>
      <trkpt lat="44.02313" lon="6.86323">
        <ele>1276</ele>
        <time>2019-04-20T10:39:49Z</time>
      </trkpt>
      <trkpt lat="44.0231" lon="6.8632">
        <ele>1276</ele>
        <time>2019-04-20T10:39:49Z</time>
      </trkpt>
      <trkpt lat="44.02308" lon="6.86318">
        <ele>1276</ele>
        <time>2019-04-20T10:39:49Z</time>
      </trkpt>
      <trkpt lat="44.02305" lon="6.86318">
        <ele>1276</ele>
        <time>2019-04-20T10:39:49Z</time>
      </trkpt>
      <trkpt lat="44.02302" lon="6.86318">
        <ele>1276</ele>
        <time>2019-04-20T10:40:05Z</time>
      </trkpt>
      <trkpt lat="44.02298" lon="6.86315">
        <ele>1276</ele>
        <time>2019-04-20T10:40:05Z</time>
      </trkpt>
      <trkpt lat="44.02293" lon="6.86314">
        <ele>1276</ele>
        <time>2019-04-20T10:40:05Z</time>
      </trkpt>
      <trkpt lat="44.02288" lon="6.86313">
        <ele>1225</ele>
        <time>2019-04-20T10:40:05Z</time>
      </trkpt>
      <trkpt lat="44.02284" lon="6.86311">
        <ele>1225</ele>
        <time>2019-04-20T10:40:21Z</time>
      </trkpt>
      <trkpt lat="44.02282" lon="6.86308">
        <ele>1225</ele>
        <time>2019-04-20T10:40:21Z</time>
      </trkpt>
      <trkpt lat="44.02279" lon="6.86305">
        <ele>1225</ele>
        <time>2019-04-20T10:40:21Z</time>
      </trkpt>
      <trkpt lat="44.02275" lon="6.86304">
        <ele>1225</ele>
        <time>2019-04-20T10:40:21Z</time>
      </trkpt>
      <trkpt lat="44.02272" lon="6.86304">
        <ele>1225</ele>
        <time>2019-04-20T10:40:37Z</time>
      </trkpt>
      <trkpt lat="44.02268" lon="6.86302">
        <ele>1225</ele>
        <time>2019-04-20T10:40:37Z</time>
      </trkpt>
      <trkpt lat="44.02265" lon="6.86298">
        <ele>1225</ele>
        <time>2019-04-20T10:40:37Z</time>
      </trkpt>
      <trkpt lat="44.02262" lon="6.86298">
        <ele>1225</ele>
        <time>2019-04-20T10:40:37Z</time>
      </trkpt>
      <trkpt lat="44.0226" lon="6.86296">
        <ele>1225</ele>
        <time>2019-04-20T10:40:53Z</time>
      </trkpt>
      <trkpt lat="44.02259" lon="6.86291">
        <ele>1255</ele>
        <time>2019-04-20T10:40:53Z</time>
      </trkpt>
      <trkpt lat="44.02258" lon="6.86286">
        <ele>1255</ele>
        <time>2019-04-20T10:40:53Z</time>
      </trkpt>
      <trkpt lat="44.02254" lon="6.86284">
        <ele>1255</ele>
        <time>2019-04-20T10:40:53Z</time>
      </trkpt>
      <trkpt lat="44.02251" lon="6.86281">
        <ele>1255</ele>
        <time>2019-04-20T10:41:09Z</time>
      </trkpt>
      <trkpt lat="44.02246" lon="6.86276">
        <ele>1255</ele>
        <time>2019-04-20T10:41:09Z</time>
      </trkpt>
      <trkpt lat="44.02244" lon="6.86273">
        <ele>1255</ele>
        <time>2019-04-20T10:41:09Z</time>
      </trkpt>
      <trkpt lat="44.0224" lon="6.86268">
        <ele>1255</ele>
        <time>2019-04-20T10:41:09Z</time>
      </trkpt>
      <trkpt lat="44.02239" lon="6.86261">
        <ele>1255</ele>
        <time>2019-04-20T10:41:25Z</time>
      </trkpt>
      <trkpt lat="44.02236" lon="6.86259">
        <ele>1255</ele>
        <time>2019-04-20T10:41:25Z</time>
      </trkpt>
      <trkpt lat="44.02233" lon="6.86259">
        <ele>1255</ele>
        <time>2019-04-20T10:41:25Z</time>
      </trkpt>
      <trkpt lat="44.02229" lon="6.86258">
        <ele>1255</ele>
        <time>2019-04-20T10:41:25Z</time>
      </trkpt>
      <trkpt lat="44.02224" lon="6.86259">
        <ele>1255</ele>
        <time>2019-04-20T10:41:41Z</time>
      </trkpt>
      <trkpt lat="44.0222" lon="6.86259">
        <ele>1255</ele>
        <time>2019-04-20T10:41:41Z</time>
      </trkpt>
      <trkpt lat="44.02216" lon="6.86257">
        <ele>1255</ele>
        <time>2019-04-20T10:41:41Z</time>
      </trkpt>
      <trkpt lat="44.02211" lon="6.86258">
        <ele>1255</ele>
        <time>2019-04-20T10:41:41Z</time>
      </trkpt>
      <trkpt lat="44.02209" lon="6.86264">
        <ele>1255</ele>
        <time>2019-04-20T10:41:57Z</time>
      </trkpt>
      <trkpt lat="44.02205" lon="6.86266">
        <ele>1245</ele>
        <time>2019-04-20T10:41:57Z</time>
      </trkpt>
      <trkpt lat="44.02199" lon="6.86265">
        <ele>1245</ele>
        <time>2019-04-20T10:41:57Z</time>
      </trkpt>
      <trkpt lat="44.02196" lon="6.86265">
        <ele>1245</ele>
        <time>2019-04-20T10:41:57Z</time>
      </trkpt>
      <trkpt lat="44.02194" lon="6.86262">
        <ele>1245</ele>
        <time>2019-04-20T10:43:01Z</time>
      </trkpt>
      <trkpt lat="44.02192" lon="6.86263">
        <ele>1245</ele>
        <time>2019-04-20T10:43:01Z</time>
      </trkpt>
      <trkpt lat="44.02188" lon="6.86263">
        <ele>1245</ele>
        <time>2019-04-20T10:43:01Z</time>
      </trkpt>
      <trkpt lat="44.02184" lon="6.86264">
        <ele>1245</ele>
        <time>2019-04-20T10:43:01Z</time>
      </trkpt>
      <trkpt lat="44.0218" lon="6.86264">
        <ele>1245</ele>
        <time>2019-04-20T10:43:01Z</time>
      </trkpt>
      <trkpt lat="44.02177" lon="6.86263">
        <ele>1245</ele>
        <time>2019-04-20T10:43:17Z</time>
      </trkpt>
      <trkpt lat="44.02174" lon="6.86261">
        <ele>1245</ele>
        <time>2019-04-20T10:43:17Z</time>
      </trkpt>
      <trkpt lat="44.02169" lon="6.86261">
        <ele>1245</ele>
        <time>2019-04-20T10:43:17Z</time>
      </trkpt>
      <trkpt lat="44.02166" lon="6.86261">
        <ele>1245</ele>
        <time>2019-04-20T10:43:17Z</time>
      </trkpt>
      <trkpt lat="44.02164" lon="6.86257">
        <ele>1245</ele>
        <time>2019-04-20T10:43:37Z</time>
      </trkpt>
      <trkpt lat="44.0216" lon="6.86255">
        <ele>1245</ele>
        <time>2019-04-20T10:43:37Z</time>
      </trkpt>
      <trkpt lat="44.02159" lon="6.86256">
        <ele>1245</ele>
        <time>2019-04-20T10:43:37Z</time>
      </trkpt>
      <trkpt lat="44.02158" lon="6.86259">
        <ele>1245</ele>
        <time>2019-04-20T10:43:37Z</time>
      </trkpt>
      <trkpt lat="44.02155" lon="6.86259">
        <ele>1245</ele>
        <time>2019-04-20T10:43:37Z</time>
      </trkpt>
      <trkpt lat="44.0215" lon="6.86255">
        <ele>1245</ele>
        <time>2019-04-20T10:43:53Z</time>
      </trkpt>
      <trkpt lat="44.02144" lon="6.86257">
        <ele>1245</ele>
        <time>2019-04-20T10:43:53Z</time>
      </trkpt>
      <trkpt lat="44.02142" lon="6.86253">
        <ele>1245</ele>
        <time>2019-04-20T10:43:53Z</time>
      </trkpt>
      <trkpt lat="44.02138" lon="6.86251">
        <ele>1245</ele>
        <time>2019-04-20T10:43:53Z</time>
      </trkpt>
      <trkpt lat="44.02134" lon="6.86251">
        <ele>1245</ele>
        <time>2019-04-20T10:44:13Z</time>
      </trkpt>
      <trkpt lat="44.02132" lon="6.86253">
        <ele>1245</ele>
        <time>2019-04-20T10:44:13Z</time>
      </trkpt>
      <trkpt lat="44.02129" lon="6.86252">
        <ele>1245</ele>
        <time>2019-04-20T10:44:13Z</time>
      </trkpt>
      <trkpt lat="44.02126" lon="6.86251">
        <ele>1245</ele>
        <time>2019-04-20T10:44:13Z</time>
      </trkpt>
      <trkpt lat="44.0212" lon="6.86255">
        <ele>1237</ele>
        <time>2019-04-20T10:44:13Z</time>
      </trkpt>
      <trkpt lat="44.02118" lon="6.86255">
        <ele>1237</ele>
        <time>2019-04-20T10:44:29Z</time>
      </trkpt>
      <trkpt lat="44.02115" lon="6.86249">
        <ele>1237</ele>
        <time>2019-04-20T10:44:29Z</time>
      </trkpt>
      <trkpt lat="44.02111" lon="6.86249">
        <ele>1237</ele>
        <time>2019-04-20T10:44:29Z</time>
      </trkpt>
      <trkpt lat="44.02108" lon="6.86249">
        <ele>1237</ele>
        <time>2019-04-20T10:44:29Z</time>
      </trkpt>
      <trkpt lat="44.02106" lon="6.86249">
        <ele>1237</ele>
        <time>2019-04-20T10:44:45Z</time>
      </trkpt>
      <trkpt lat="44.02102" lon="6.86249">
        <ele>1237</ele>
        <time>2019-04-20T10:44:45Z</time>
      </trkpt>
      <trkpt lat="44.02098" lon="6.86249">
        <ele>1237</ele>
        <time>2019-04-20T10:44:45Z</time>
      </trkpt>
      <trkpt lat="44.02094" lon="6.86248">
        <ele>1237</ele>
        <time>2019-04-20T10:44:45Z</time>
      </trkpt>
      <trkpt lat="44.02089" lon="6.86246">
        <ele>1237</ele>
        <time>2019-04-20T10:45:01Z</time>
      </trkpt>
      <trkpt lat="44.02087" lon="6.86243">
        <ele>1237</ele>
        <time>2019-04-20T10:45:01Z</time>
      </trkpt>
      <trkpt lat="44.02085" lon="6.86241">
        <ele>1237</ele>
        <time>2019-04-20T10:45:01Z</time>
      </trkpt>
      <trkpt lat="44.02082" lon="6.86237">
        <ele>1237</ele>
        <time>2019-04-20T10:45:01Z</time>
      </trkpt>
      <trkpt lat="44.02079" lon="6.86236">
        <ele>1237</ele>
        <time>2019-04-20T10:45:17Z</time>
      </trkpt>
      <trkpt lat="44.02076" lon="6.86234">
        <ele>1237</ele>
        <time>2019-04-20T10:45:17Z</time>
      </trkpt>
      <trkpt lat="44.02074" lon="6.86232">
        <ele>1237</ele>
        <time>2019-04-20T10:45:17Z</time>
      </trkpt>
      <trkpt lat="44.02071" lon="6.86229">
        <ele>1237</ele>
        <time>2019-04-20T10:45:17Z</time>
      </trkpt>
      <trkpt lat="44.02069" lon="6.86228">
        <ele>1237</ele>
        <time>2019-04-20T10:45:37Z</time>
      </trkpt>
      <trkpt lat="44.02068" lon="6.86223">
        <ele>1237</ele>
        <time>2019-04-20T10:45:37Z</time>
      </trkpt>
      <trkpt lat="44.02066" lon="6.8622">
        <ele>1237</ele>
        <time>2019-04-20T10:45:37Z</time>
      </trkpt>
      <trkpt lat="44.02064" lon="6.86219">
        <ele>1237</ele>
        <time>2019-04-20T10:45:37Z</time>
      </trkpt>
      <trkpt lat="44.02059" lon="6.86215">
        <ele>1237</ele>
        <time>2019-04-20T10:45:37Z</time>
      </trkpt>
      <trkpt lat="44.02053" lon="6.86212">
        <ele>1237</ele>
        <time>2019-04-20T10:45:57Z</time>
      </trkpt>
      <trkpt lat="44.02051" lon="6.86213">
        <ele>1237</ele>
        <time>2019-04-20T10:45:57Z</time>
      </trkpt>
      <trkpt lat="44.02049" lon="6.86213">
        <ele>1237</ele>
        <time>2019-04-20T10:45:57Z</time>
      </trkpt>
      <trkpt lat="44.02045" lon="6.86211">
        <ele>1237</ele>
        <time>2019-04-20T10:45:57Z</time>
      </trkpt>
      <trkpt lat="44.02041" lon="6.8621">
        <ele>1224</ele>
        <time>2019-04-20T10:45:57Z</time>
      </trkpt>
      <trkpt lat="44.02037" lon="6.86211">
        <ele>1224</ele>
        <time>2019-04-20T10:46:13Z</time>
      </trkpt>
      <trkpt lat="44.02032" lon="6.86211">
        <ele>1224</ele>
        <time>2019-04-20T10:46:13Z</time>
      </trkpt>
      <trkpt lat="44.02029" lon="6.86209">
        <ele>1224</ele>
        <time>2019-04-20T10:46:13Z</time>
      </trkpt>
      <trkpt lat="44.02026" lon="6.86209">
        <ele>1224</ele>
        <time>2019-04-20T10:46:13Z</time>
      </trkpt>
      <trkpt lat="44.02022" lon="6.8621">
        <ele>1224</ele>
        <time>2019-04-20T10:46:29Z</time>
      </trkpt>
      <trkpt lat="44.02019" lon="6.86209">
        <ele>1224</ele>
        <time>2019-04-20T10:46:29Z</time>
      </trkpt>
      <trkpt lat="44.02017" lon="6.86209">
        <ele>1224</ele>
        <time>2019-04-20T10:46:29Z</time>
      </trkpt>
      <trkpt lat="44.02013" lon="6.86208">
        <ele>1224</ele>
        <time>2019-04-20T10:46:29Z</time>
      </trkpt>
      <trkpt lat="44.02009" lon="6.86208">
        <ele>1269</ele>
        <time>2019-04-20T10:46:45Z</time>
      </trkpt>
      <trkpt lat="44.02006" lon="6.86207">
        <ele>1269</ele>
        <time>2019-04-20T10:46:45Z</time>
      </trkpt>
      <trkpt lat="44.02003" lon="6.86204">
        <ele>1269</ele>
        <time>2019-04-20T10:46:45Z</time>
      </trkpt>
      <trkpt lat="44.02" lon="6.86202">
        <ele>1269</ele>
        <time>2019-04-20T10:46:45Z</time>
      </trkpt>
      <trkpt lat="44.01996" lon="6.86199">
        <ele>1269</ele>
        <time>2019-04-20T10:47:01Z</time>
      </trkpt>
      <trkpt lat="44.01993" lon="6.86199">
        <ele>1269</ele>
        <time>2019-04-20T10:47:01Z</time>
      </trkpt>
      <trkpt lat="44.0199" lon="6.86199">
        <ele>1269</ele>
        <time>2019-04-20T10:47:01Z</time>
      </trkpt>
      <trkpt lat="44.01986" lon="6.86199">
        <ele>1269</ele>
        <time>2019-04-20T10:47:01Z</time>
      </trkpt>
      <trkpt lat="44.01982" lon="6.86195">
        <ele>1269</ele>
        <time>2019-04-20T10:47:17Z</time>
      </trkpt>
      <trkpt lat="44.01978" lon="6.86192">
        <ele>1269</ele>
        <time>2019-04-20T10:47:17Z</time>
      </trkpt>
      <trkpt lat="44.01976" lon="6.86187">
        <ele>1269</ele>
        <time>2019-04-20T10:47:17Z</time>
      </trkpt>
      <trkpt lat="44.01975" lon="6.86183">
        <ele>1269</ele>
        <time>2019-04-20T10:47:17Z</time>
      </trkpt>
      <trkpt lat="44.01973" lon="6.8618">
        <ele>1269</ele>
        <time>2019-04-20T10:47:33Z</time>
      </trkpt>
      <trkpt lat="44.01972" lon="6.86172">
        <ele>1269</ele>
        <time>2019-04-20T10:47:33Z</time>
      </trkpt>
      <trkpt lat="44.01973" lon="6.86164">
        <ele>1269</ele>
        <time>2019-04-20T10:47:33Z</time>
      </trkpt>
      <trkpt lat="44.01971" lon="6.86157">
        <ele>1269</ele>
        <time>2019-04-20T10:47:33Z</time>
      </trkpt>
      <trkpt lat="44.01966" lon="6.86159">
        <ele>1269</ele>
        <time>2019-04-20T10:47:49Z</time>
      </trkpt>
      <trkpt lat="44.01964" lon="6.8616">
        <ele>1269</ele>
        <time>2019-04-20T10:47:49Z</time>
      </trkpt>
      <trkpt lat="44.01961" lon="6.86158">
        <ele>1269</ele>
        <time>2019-04-20T10:47:49Z</time>
      </trkpt>
      <trkpt lat="44.01957" lon="6.86157">
        <ele>1255</ele>
        <time>2019-04-20T10:47:49Z</time>
      </trkpt>
      <trkpt lat="44.01954" lon="6.86155">
        <ele>1255</ele>
        <time>2019-04-20T10:48:05Z</time>
      </trkpt>
      <trkpt lat="44.01951" lon="6.86153">
        <ele>1255</ele>
        <time>2019-04-20T10:48:05Z</time>
      </trkpt>
      <trkpt lat="44.01948" lon="6.86151">
        <ele>1255</ele>
        <time>2019-04-20T10:48:05Z</time>
      </trkpt>
      <trkpt lat="44.01944" lon="6.86149">
        <ele>1255</ele>
        <time>2019-04-20T10:48:05Z</time>
      </trkpt>
      <trkpt lat="44.01944" lon="6.86149">
        <ele>1255</ele>
        <time>2019-04-20T10:48:25Z</time>
      </trkpt>
      <trkpt lat="44.01942" lon="6.86149">
        <ele>1255</ele>
        <time>2019-04-20T10:48:25Z</time>
      </trkpt>
      <trkpt lat="44.0194" lon="6.86149">
        <ele>1255</ele>
        <time>2019-04-20T10:48:25Z</time>
      </trkpt>
      <trkpt lat="44.01937" lon="6.86152">
        <ele>1255</ele>
        <time>2019-04-20T10:48:25Z</time>
      </trkpt>
      <trkpt lat="44.01932" lon="6.86151">
        <ele>1255</ele>
        <time>2019-04-20T10:48:25Z</time>
      </trkpt>
      <trkpt lat="44.01928" lon="6.8615">
        <ele>1255</ele>
        <time>2019-04-20T10:48:49Z</time>
      </trkpt>
      <trkpt lat="44.01925" lon="6.86151">
        <ele>1255</ele>
        <time>2019-04-20T10:48:49Z</time>
      </trkpt>
      <trkpt lat="44.01922" lon="6.86149">
        <ele>1255</ele>
        <time>2019-04-20T10:48:49Z</time>
      </trkpt>
      <trkpt lat="44.0192" lon="6.86149">
        <ele>1255</ele>
        <time>2019-04-20T10:48:49Z</time>
      </trkpt>
      <trkpt lat="44.0192" lon="6.86147">
        <ele>1255</ele>
        <time>2019-04-20T10:48:49Z</time>
      </trkpt>
      <trkpt lat="44.01917" lon="6.86148">
        <ele>1255</ele>
        <time>2019-04-20T10:49:13Z</time>
      </trkpt>
      <trkpt lat="44.01917" lon="6.86148">
        <ele>1255</ele>
        <time>2019-04-20T10:49:13Z</time>
      </trkpt>
      <trkpt lat="44.01915" lon="6.86149">
        <ele>1255</ele>
        <time>2019-04-20T10:49:13Z</time>
      </trkpt>
      <trkpt lat="44.01912" lon="6.86149">
        <ele>1255</ele>
        <time>2019-04-20T10:49:13Z</time>
      </trkpt>
      <trkpt lat="44.01909" lon="6.86152">
        <ele>1255</ele>
        <time>2019-04-20T10:49:13Z</time>
      </trkpt>
      <trkpt lat="44.01906" lon="6.86153">
        <ele>1255</ele>
        <time>2019-04-20T10:49:29Z</time>
      </trkpt>
      <trkpt lat="44.01902" lon="6.86153">
        <ele>1255</ele>
        <time>2019-04-20T10:49:29Z</time>
      </trkpt>
      <trkpt lat="44.01899" lon="6.86153">
        <ele>1255</ele>
        <time>2019-04-20T10:49:29Z</time>
      </trkpt>
      <trkpt lat="44.01896" lon="6.86155">
        <ele>1255</ele>
        <time>2019-04-20T10:49:30Z</time>
      </trkpt>
      <trkpt lat="44.01894" lon="6.86156">
        <ele>1255</ele>
        <time>2019-04-20T10:49:45Z</time>
      </trkpt>
      <trkpt lat="44.01891" lon="6.86158">
        <ele>1255</ele>
        <time>2019-04-20T10:49:45Z</time>
      </trkpt>
      <trkpt lat="44.01888" lon="6.86159">
        <ele>1255</ele>
        <time>2019-04-20T10:49:45Z</time>
      </trkpt>
      <trkpt lat="44.01883" lon="6.8616">
        <ele>1255</ele>
        <time>2019-04-20T10:49:45Z</time>
      </trkpt>
      <trkpt lat="44.01881" lon="6.8616">
        <ele>1255</ele>
        <time>2019-04-20T10:50:01Z</time>
      </trkpt>
      <trkpt lat="44.01878" lon="6.86157">
        <ele>1255</ele>
        <time>2019-04-20T10:50:01Z</time>
      </trkpt>
      <trkpt lat="44.01874" lon="6.86156">
        <ele>1265</ele>
        <time>2019-04-20T10:50:01Z</time>
      </trkpt>
      <trkpt lat="44.01872" lon="6.86156">
        <ele>1265</ele>
        <time>2019-04-20T10:50:01Z</time>
      </trkpt>
      <trkpt lat="44.01869" lon="6.86155">
        <ele>1265</ele>
        <time>2019-04-20T10:50:17Z</time>
      </trkpt>
      <trkpt lat="44.01865" lon="6.86156">
        <ele>1265</ele>
        <time>2019-04-20T10:50:17Z</time>
      </trkpt>
      <trkpt lat="44.0186" lon="6.86154">
        <ele>1265</ele>
        <time>2019-04-20T10:50:17Z</time>
      </trkpt>
      <trkpt lat="44.01857" lon="6.86154">
        <ele>1265</ele>
        <time>2019-04-20T10:50:17Z</time>
      </trkpt>
      <trkpt lat="44.01854" lon="6.86156">
        <ele>1265</ele>
        <time>2019-04-20T10:50:33Z</time>
      </trkpt>
      <trkpt lat="44.01851" lon="6.86156">
        <ele>1265</ele>
        <time>2019-04-20T10:50:33Z</time>
      </trkpt>
      <trkpt lat="44.01847" lon="6.86155">
        <ele>1265</ele>
        <time>2019-04-20T10:50:33Z</time>
      </trkpt>
      <trkpt lat="44.01842" lon="6.86154">
        <ele>1265</ele>
        <time>2019-04-20T10:50:33Z</time>
      </trkpt>
      <trkpt lat="44.01836" lon="6.86153">
        <ele>1265</ele>
        <time>2019-04-20T10:51:01Z</time>
      </trkpt>
      <trkpt lat="44.01834" lon="6.86151">
        <ele>1265</ele>
        <time>2019-04-20T10:51:01Z</time>
      </trkpt>
      <trkpt lat="44.01833" lon="6.86151">
        <ele>1265</ele>
        <time>2019-04-20T10:51:01Z</time>
      </trkpt>
      <trkpt lat="44.01831" lon="6.86151">
        <ele>1265</ele>
        <time>2019-04-20T10:51:01Z</time>
      </trkpt>
      <trkpt lat="44.01828" lon="6.8615">
        <ele>1265</ele>
        <time>2019-04-20T10:51:01Z</time>
      </trkpt>
      <trkpt lat="44.01823" lon="6.8615">
        <ele>1265</ele>
        <time>2019-04-20T10:51:25Z</time>
      </trkpt>
      <trkpt lat="44.01821" lon="6.86149">
        <ele>1265</ele>
        <time>2019-04-20T10:51:25Z</time>
      </trkpt>
      <trkpt lat="44.0182" lon="6.86148">
        <ele>1265</ele>
        <time>2019-04-20T10:51:25Z</time>
      </trkpt>
      <trkpt lat="44.01818" lon="6.86148">
        <ele>1265</ele>
        <time>2019-04-20T10:51:25Z</time>
      </trkpt>
      <trkpt lat="44.01816" lon="6.86148">
        <ele>1265</ele>
        <time>2019-04-20T10:51:25Z</time>
      </trkpt>
      <trkpt lat="44.01814" lon="6.8615">
        <ele>1265</ele>
        <time>2019-04-20T10:51:45Z</time>
      </trkpt>
      <trkpt lat="44.01812" lon="6.86152">
        <ele>1265</ele>
        <time>2019-04-20T10:51:45Z</time>
      </trkpt>
      <trkpt lat="44.01809" lon="6.86155">
        <ele>1265</ele>
        <time>2019-04-20T10:51:45Z</time>
      </trkpt>
      <trkpt lat="44.01807" lon="6.86156">
        <ele>1265</ele>
        <time>2019-04-20T10:51:45Z</time>
      </trkpt>
      <trkpt lat="44.01804" lon="6.86157">
        <ele>1265</ele>
        <time>2019-04-20T10:51:45Z</time>
      </trkpt>
      <trkpt lat="44.018" lon="6.86157">
        <ele>1265</ele>
        <time>2019-04-20T10:52:09Z</time>
      </trkpt>
      <trkpt lat="44.01799" lon="6.86157">
        <ele>1265</ele>
        <time>2019-04-20T10:52:09Z</time>
      </trkpt>
      <trkpt lat="44.01797" lon="6.86157">
        <ele>1265</ele>
        <time>2019-04-20T10:52:09Z</time>
      </trkpt>
      <trkpt lat="44.01794" lon="6.86157">
        <ele>1265</ele>
        <time>2019-04-20T10:52:09Z</time>
      </trkpt>
      <trkpt lat="44.01791" lon="6.86155">
        <ele>1274</ele>
        <time>2019-04-20T10:52:09Z</time>
      </trkpt>
      <trkpt lat="44.01788" lon="6.86156">
        <ele>1274</ele>
        <time>2019-04-20T10:52:33Z</time>
      </trkpt>
      <trkpt lat="44.01787" lon="6.86157">
        <ele>1274</ele>
        <time>2019-04-20T10:52:33Z</time>
      </trkpt>
      <trkpt lat="44.01784" lon="6.86157">
        <ele>1274</ele>
        <time>2019-04-20T10:52:33Z</time>
      </trkpt>
      <trkpt lat="44.01781" lon="6.86157">
        <ele>1274</ele>
        <time>2019-04-20T10:52:33Z</time>
      </trkpt>
      <trkpt lat="44.01779" lon="6.86158">
        <ele>1274</ele>
        <time>2019-04-20T10:52:33Z</time>
      </trkpt>
      <trkpt lat="44.01777" lon="6.86157">
        <ele>1274</ele>
        <time>2019-04-20T10:52:49Z</time>
      </trkpt>
      <trkpt lat="44.01775" lon="6.86158">
        <ele>1274</ele>
        <time>2019-04-20T10:52:49Z</time>
      </trkpt>
      <trkpt lat="44.01771" lon="6.86156">
        <ele>1274</ele>
        <time>2019-04-20T10:52:49Z</time>
      </trkpt>
      <trkpt lat="44.01768" lon="6.86154">
        <ele>1274</ele>
        <time>2019-04-20T10:52:49Z</time>
      </trkpt>
      <trkpt lat="44.01765" lon="6.86151">
        <ele>1274</ele>
        <time>2019-04-20T10:53:13Z</time>
      </trkpt>
      <trkpt lat="44.01763" lon="6.8615">
        <ele>1274</ele>
        <time>2019-04-20T10:53:13Z</time>
      </trkpt>
      <trkpt lat="44.01762" lon="6.8615">
        <ele>1274</ele>
        <time>2019-04-20T10:53:13Z</time>
      </trkpt>
      <trkpt lat="44.01762" lon="6.86147">
        <ele>1274</ele>
        <time>2019-04-20T10:53:13Z</time>
      </trkpt>
      <trkpt lat="44.01759" lon="6.86143">
        <ele>1274</ele>
        <time>2019-04-20T10:53:13Z</time>
      </trkpt>
      <trkpt lat="44.01758" lon="6.86141">
        <ele>1274</ele>
        <time>2019-04-20T10:53:29Z</time>
      </trkpt>
      <trkpt lat="44.01755" lon="6.86139">
        <ele>1274</ele>
        <time>2019-04-20T10:53:29Z</time>
      </trkpt>
      <trkpt lat="44.01753" lon="6.86135">
        <ele>1274</ele>
        <time>2019-04-20T10:53:29Z</time>
      </trkpt>
      <trkpt lat="44.01752" lon="6.8613">
        <ele>1274</ele>
        <time>2019-04-20T10:53:29Z</time>
      </trkpt>
      <trkpt lat="44.01752" lon="6.86125">
        <ele>1274</ele>
        <time>2019-04-20T10:53:45Z</time>
      </trkpt>
      <trkpt lat="44.01752" lon="6.86119">
        <ele>1293</ele>
        <time>2019-04-20T10:53:45Z</time>
      </trkpt>
      <trkpt lat="44.01754" lon="6.86112">
        <ele>1293</ele>
        <time>2019-04-20T10:53:45Z</time>
      </trkpt>
      <trkpt lat="44.01755" lon="6.86105">
        <ele>1293</ele>
        <time>2019-04-20T10:53:45Z</time>
      </trkpt>
      <trkpt lat="44.01754" lon="6.861">
        <ele>1293</ele>
        <time>2019-04-20T10:54:01Z</time>
      </trkpt>
      <trkpt lat="44.01751" lon="6.86096">
        <ele>1293</ele>
        <time>2019-04-20T10:54:01Z</time>
      </trkpt>
      <trkpt lat="44.01748" lon="6.86092">
        <ele>1293</ele>
        <time>2019-04-20T10:54:01Z</time>
      </trkpt>
      <trkpt lat="44.01747" lon="6.86089">
        <ele>1293</ele>
        <time>2019-04-20T10:54:01Z</time>
      </trkpt>
      <trkpt lat="44.01748" lon="6.86083">
        <ele>1293</ele>
        <time>2019-04-20T10:54:17Z</time>
      </trkpt>
      <trkpt lat="44.01747" lon="6.86079">
        <ele>1293</ele>
        <time>2019-04-20T10:54:17Z</time>
      </trkpt>
      <trkpt lat="44.01745" lon="6.86074">
        <ele>1293</ele>
        <time>2019-04-20T10:54:17Z</time>
      </trkpt>
      <trkpt lat="44.01744" lon="6.8607">
        <ele>1293</ele>
        <time>2019-04-20T10:54:17Z</time>
      </trkpt>
      <trkpt lat="44.01744" lon="6.86068">
        <ele>1293</ele>
        <time>2019-04-20T10:54:37Z</time>
      </trkpt>
      <trkpt lat="44.01744" lon="6.86066">
        <ele>1293</ele>
        <time>2019-04-20T10:54:37Z</time>
      </trkpt>
      <trkpt lat="44.01746" lon="6.86064">
        <ele>1293</ele>
        <time>2019-04-20T10:54:37Z</time>
      </trkpt>
      <trkpt lat="44.01747" lon="6.86059">
        <ele>1293</ele>
        <time>2019-04-20T10:54:37Z</time>
      </trkpt>
      <trkpt lat="44.01746" lon="6.86055">
        <ele>1293</ele>
        <time>2019-04-20T10:54:37Z</time>
      </trkpt>
      <trkpt lat="44.01745" lon="6.86051">
        <ele>1293</ele>
        <time>2019-04-20T10:54:53Z</time>
      </trkpt>
      <trkpt lat="44.01741" lon="6.86051">
        <ele>1293</ele>
        <time>2019-04-20T10:54:53Z</time>
      </trkpt>
      <trkpt lat="44.01737" lon="6.8605">
        <ele>1293</ele>
        <time>2019-04-20T10:54:53Z</time>
      </trkpt>
      <trkpt lat="44.01734" lon="6.86049">
        <ele>1293</ele>
        <time>2019-04-20T10:54:53Z</time>
      </trkpt>
      <trkpt lat="44.01733" lon="6.86047">
        <ele>1293</ele>
        <time>2019-04-20T10:55:13Z</time>
      </trkpt>
      <trkpt lat="44.01731" lon="6.86043">
        <ele>1293</ele>
        <time>2019-04-20T10:55:13Z</time>
      </trkpt>
      <trkpt lat="44.0173" lon="6.86041">
        <ele>1316</ele>
        <time>2019-04-20T10:55:13Z</time>
      </trkpt>
      <trkpt lat="44.01729" lon="6.86037">
        <ele>1316</ele>
        <time>2019-04-20T10:55:13Z</time>
      </trkpt>
      <trkpt lat="44.01726" lon="6.86036">
        <ele>1316</ele>
        <time>2019-04-20T10:55:13Z</time>
      </trkpt>
      <trkpt lat="44.01725" lon="6.86035">
        <ele>1316</ele>
        <time>2019-04-20T10:55:33Z</time>
      </trkpt>
      <trkpt lat="44.01723" lon="6.86033">
        <ele>1316</ele>
        <time>2019-04-20T10:55:33Z</time>
      </trkpt>
      <trkpt lat="44.0172" lon="6.86032">
        <ele>1316</ele>
        <time>2019-04-20T10:55:33Z</time>
      </trkpt>
      <trkpt lat="44.01717" lon="6.86032">
        <ele>1316</ele>
        <time>2019-04-20T10:55:33Z</time>
      </trkpt>
      <trkpt lat="44.01715" lon="6.86031">
        <ele>1316</ele>
        <time>2019-04-20T10:55:33Z</time>
      </trkpt>
      <trkpt lat="44.01711" lon="6.8603">
        <ele>1316</ele>
        <time>2019-04-20T10:55:53Z</time>
      </trkpt>
      <trkpt lat="44.01709" lon="6.86028">
        <ele>1316</ele>
        <time>2019-04-20T10:55:53Z</time>
      </trkpt>
      <trkpt lat="44.01707" lon="6.86027">
        <ele>1310</ele>
        <time>2019-04-20T10:55:53Z</time>
      </trkpt>
      <trkpt lat="44.01705" lon="6.86025">
        <ele>1310</ele>
        <time>2019-04-20T10:55:53Z</time>
      </trkpt>
      <trkpt lat="44.01701" lon="6.86024">
        <ele>1310</ele>
        <time>2019-04-20T10:55:53Z</time>
      </trkpt>
      <trkpt lat="44.017" lon="6.86025">
        <ele>1310</ele>
        <time>2019-04-20T10:56:13Z</time>
      </trkpt>
      <trkpt lat="44.01698" lon="6.86024">
        <ele>1310</ele>
        <time>2019-04-20T10:56:13Z</time>
      </trkpt>
      <trkpt lat="44.01696" lon="6.86022">
        <ele>1310</ele>
        <time>2019-04-20T10:56:13Z</time>
      </trkpt>
      <trkpt lat="44.01693" lon="6.86021">
        <ele>1310</ele>
        <time>2019-04-20T10:56:13Z</time>
      </trkpt>
      <trkpt lat="44.0169" lon="6.86021">
        <ele>1310</ele>
        <time>2019-04-20T10:56:13Z</time>
      </trkpt>
      <trkpt lat="44.01687" lon="6.8602">
        <ele>1310</ele>
        <time>2019-04-20T10:56:29Z</time>
      </trkpt>
      <trkpt lat="44.01686" lon="6.8602">
        <ele>1310</ele>
        <time>2019-04-20T10:56:29Z</time>
      </trkpt>
      <trkpt lat="44.01682" lon="6.86019">
        <ele>1310</ele>
        <time>2019-04-20T10:56:29Z</time>
      </trkpt>
      <trkpt lat="44.01678" lon="6.86017">
        <ele>1310</ele>
        <time>2019-04-20T10:56:29Z</time>
      </trkpt>
      <trkpt lat="44.01673" lon="6.86013">
        <ele>1310</ele>
        <time>2019-04-20T10:56:53Z</time>
      </trkpt>
      <trkpt lat="44.01671" lon="6.86012">
        <ele>1310</ele>
        <time>2019-04-20T10:56:53Z</time>
      </trkpt>
      <trkpt lat="44.01669" lon="6.86011">
        <ele>1310</ele>
        <time>2019-04-20T10:56:53Z</time>
      </trkpt>
      <trkpt lat="44.01667" lon="6.86011">
        <ele>1310</ele>
        <time>2019-04-20T10:56:53Z</time>
      </trkpt>
      <trkpt lat="44.01664" lon="6.8601">
        <ele>1310</ele>
        <time>2019-04-20T10:56:53Z</time>
      </trkpt>
      <trkpt lat="44.01669" lon="6.85999">
        <ele>1310</ele>
        <time>2019-04-20T10:57:29Z</time>
      </trkpt>
      <trkpt lat="44.01667" lon="6.85997">
        <ele>1310</ele>
        <time>2019-04-20T10:57:29Z</time>
      </trkpt>
      <trkpt lat="44.01666" lon="6.85996">
        <ele>1310</ele>
        <time>2019-04-20T10:57:29Z</time>
      </trkpt>
      <trkpt lat="44.01663" lon="6.85994">
        <ele>1310</ele>
        <time>2019-04-20T10:57:29Z</time>
      </trkpt>
      <trkpt lat="44.0166" lon="6.85992">
        <ele>1310</ele>
        <time>2019-04-20T10:57:29Z</time>
      </trkpt>
      <trkpt lat="44.01661" lon="6.85988">
        <ele>1310</ele>
        <time>2019-04-20T10:58:05Z</time>
      </trkpt>
      <trkpt lat="44.01661" lon="6.85987">
        <ele>1310</ele>
        <time>2019-04-20T10:58:05Z</time>
      </trkpt>
      <trkpt lat="44.0166" lon="6.85985">
        <ele>1310</ele>
        <time>2019-04-20T10:58:05Z</time>
      </trkpt>
      <trkpt lat="44.01656" lon="6.85983">
        <ele>1310</ele>
        <time>2019-04-20T10:58:05Z</time>
      </trkpt>
      <trkpt lat="44.01651" lon="6.85984">
        <ele>1310</ele>
        <time>2019-04-20T10:58:05Z</time>
      </trkpt>
      <trkpt lat="44.01647" lon="6.8599">
        <ele>1310</ele>
        <time>2019-04-20T10:58:21Z</time>
      </trkpt>
      <trkpt lat="44.01643" lon="6.85992">
        <ele>1310</ele>
        <time>2019-04-20T10:58:21Z</time>
      </trkpt>
      <trkpt lat="44.01639" lon="6.85993">
        <ele>1310</ele>
        <time>2019-04-20T10:58:21Z</time>
      </trkpt>
      <trkpt lat="44.01635" lon="6.85995">
        <ele>1310</ele>
        <time>2019-04-20T10:58:21Z</time>
      </trkpt>
      <trkpt lat="44.01629" lon="6.85999">
        <ele>1310</ele>
        <time>2019-04-20T10:58:37Z</time>
      </trkpt>
      <trkpt lat="44.01626" lon="6.86001">
        <ele>1310</ele>
        <time>2019-04-20T10:58:37Z</time>
      </trkpt>
      <trkpt lat="44.01622" lon="6.86003">
        <ele>1313</ele>
        <time>2019-04-20T10:58:37Z</time>
      </trkpt>
      <trkpt lat="44.01618" lon="6.86005">
        <ele>1313</ele>
        <time>2019-04-20T10:58:37Z</time>
      </trkpt>
      <trkpt lat="44.01615" lon="6.86006">
        <ele>1313</ele>
        <time>2019-04-20T10:58:53Z</time>
      </trkpt>
      <trkpt lat="44.01611" lon="6.86005">
        <ele>1313</ele>
        <time>2019-04-20T10:58:53Z</time>
      </trkpt>
      <trkpt lat="44.01607" lon="6.86004">
        <ele>1313</ele>
        <time>2019-04-20T10:58:53Z</time>
      </trkpt>
      <trkpt lat="44.01603" lon="6.86002">
        <ele>1313</ele>
        <time>2019-04-20T10:58:53Z</time>
      </trkpt>
      <trkpt lat="44.016" lon="6.86001">
        <ele>1313</ele>
        <time>2019-04-20T10:59:09Z</time>
      </trkpt>
      <trkpt lat="44.01597" lon="6.85998">
        <ele>1313</ele>
        <time>2019-04-20T10:59:09Z</time>
      </trkpt>
      <trkpt lat="44.01594" lon="6.85993">
        <ele>1313</ele>
        <time>2019-04-20T10:59:09Z</time>
      </trkpt>
      <trkpt lat="44.01591" lon="6.85991">
        <ele>1313</ele>
        <time>2019-04-20T10:59:09Z</time>
      </trkpt>
      <trkpt lat="44.01588" lon="6.85989">
        <ele>1313</ele>
        <time>2019-04-20T10:59:25Z</time>
      </trkpt>
      <trkpt lat="44.01584" lon="6.85988">
        <ele>1313</ele>
        <time>2019-04-20T10:59:25Z</time>
      </trkpt>
      <trkpt lat="44.01581" lon="6.85987">
        <ele>1313</ele>
        <time>2019-04-20T10:59:25Z</time>
      </trkpt>
      <trkpt lat="44.01576" lon="6.85989">
        <ele>1313</ele>
        <time>2019-04-20T10:59:25Z</time>
      </trkpt>
      <trkpt lat="44.01572" lon="6.85991">
        <ele>1313</ele>
        <time>2019-04-20T10:59:41Z</time>
      </trkpt>
      <trkpt lat="44.01569" lon="6.85993">
        <ele>1313</ele>
        <time>2019-04-20T10:59:41Z</time>
      </trkpt>
      <trkpt lat="44.01564" lon="6.85994">
        <ele>1313</ele>
        <time>2019-04-20T10:59:41Z</time>
      </trkpt>
      <trkpt lat="44.0156" lon="6.85997">
        <ele>1313</ele>
        <time>2019-04-20T10:59:41Z</time>
      </trkpt>
      <trkpt lat="44.01556" lon="6.85997">
        <ele>1313</ele>
        <time>2019-04-20T10:59:57Z</time>
      </trkpt>
      <trkpt lat="44.01551" lon="6.86001">
        <ele>1313</ele>
        <time>2019-04-20T10:59:57Z</time>
      </trkpt>
      <trkpt lat="44.01547" lon="6.86004">
        <ele>1313</ele>
        <time>2019-04-20T10:59:57Z</time>
      </trkpt>
      <trkpt lat="44.01541" lon="6.86008">
        <ele>1326</ele>
        <time>2019-04-20T10:59:57Z</time>
      </trkpt>
      <trkpt lat="44.01537" lon="6.86011">
        <ele>1326</ele>
        <time>2019-04-20T11:00:13Z</time>
      </trkpt>
      <trkpt lat="44.01534" lon="6.86013">
        <ele>1326</ele>
        <time>2019-04-20T11:00:13Z</time>
      </trkpt>
      <trkpt lat="44.01531" lon="6.86013">
        <ele>1326</ele>
        <time>2019-04-20T11:00:13Z</time>
      </trkpt>
      <trkpt lat="44.01529" lon="6.86015">
        <ele>1326</ele>
        <time>2019-04-20T11:00:13Z</time>
      </trkpt>
      <trkpt lat="44.0152" lon="6.86011">
        <ele>1326</ele>
        <time>2019-04-20T11:01:17Z</time>
      </trkpt>
      <trkpt lat="44.01519" lon="6.86011">
        <ele>1326</ele>
        <time>2019-04-20T11:01:17Z</time>
      </trkpt>
      <trkpt lat="44.0152" lon="6.8601">
        <ele>1326</ele>
        <time>2019-04-20T11:01:17Z</time>
      </trkpt>
      <trkpt lat="44.01521" lon="6.86008">
        <ele>1326</ele>
        <time>2019-04-20T11:01:17Z</time>
      </trkpt>
      <trkpt lat="44.01524" lon="6.86003">
        <ele>1326</ele>
        <time>2019-04-20T11:01:17Z</time>
      </trkpt>
      <trkpt lat="44.01527" lon="6.85998">
        <ele>1326</ele>
        <time>2019-04-20T11:01:33Z</time>
      </trkpt>
      <trkpt lat="44.01531" lon="6.85993">
        <ele>1326</ele>
        <time>2019-04-20T11:01:33Z</time>
      </trkpt>
      <trkpt lat="44.01535" lon="6.85989">
        <ele>1326</ele>
        <time>2019-04-20T11:01:33Z</time>
      </trkpt>
      <trkpt lat="44.01539" lon="6.85984">
        <ele>1326</ele>
        <time>2019-04-20T11:01:33Z</time>
      </trkpt>
      <trkpt lat="44.01543" lon="6.85982">
        <ele>1313</ele>
        <time>2019-04-20T11:01:49Z</time>
      </trkpt>
      <trkpt lat="44.01548" lon="6.85978">
        <ele>1313</ele>
        <time>2019-04-20T11:01:49Z</time>
      </trkpt>
      <trkpt lat="44.01552" lon="6.85975">
        <ele>1313</ele>
        <time>2019-04-20T11:01:49Z</time>
      </trkpt>
      <trkpt lat="44.01557" lon="6.85972">
        <ele>1313</ele>
        <time>2019-04-20T11:01:49Z</time>
      </trkpt>
      <trkpt lat="44.01561" lon="6.85969">
        <ele>1313</ele>
        <time>2019-04-20T11:02:05Z</time>
      </trkpt>
      <trkpt lat="44.01565" lon="6.85967">
        <ele>1313</ele>
        <time>2019-04-20T11:02:05Z</time>
      </trkpt>
      <trkpt lat="44.01568" lon="6.85965">
        <ele>1313</ele>
        <time>2019-04-20T11:02:05Z</time>
      </trkpt>
      <trkpt lat="44.01572" lon="6.8596">
        <ele>1313</ele>
        <time>2019-04-20T11:02:05Z</time>
      </trkpt>
      <trkpt lat="44.01576" lon="6.85955">
        <ele>1327</ele>
        <time>2019-04-20T11:02:21Z</time>
      </trkpt>
      <trkpt lat="44.0158" lon="6.85951">
        <ele>1327</ele>
        <time>2019-04-20T11:02:21Z</time>
      </trkpt>
      <trkpt lat="44.01584" lon="6.85948">
        <ele>1327</ele>
        <time>2019-04-20T11:02:21Z</time>
      </trkpt>
      <trkpt lat="44.01588" lon="6.85946">
        <ele>1327</ele>
        <time>2019-04-20T11:02:21Z</time>
      </trkpt>
      <trkpt lat="44.01591" lon="6.85944">
        <ele>1327</ele>
        <time>2019-04-20T11:02:37Z</time>
      </trkpt>
      <trkpt lat="44.01594" lon="6.85941">
        <ele>1327</ele>
        <time>2019-04-20T11:02:37Z</time>
      </trkpt>
      <trkpt lat="44.01599" lon="6.8594">
        <ele>1327</ele>
        <time>2019-04-20T11:02:37Z</time>
      </trkpt>
      <trkpt lat="44.01602" lon="6.85937">
        <ele>1327</ele>
        <time>2019-04-20T11:02:37Z</time>
      </trkpt>
      <trkpt lat="44.01607" lon="6.85934">
        <ele>1327</ele>
        <time>2019-04-20T11:02:53Z</time>
      </trkpt>
      <trkpt lat="44.0161" lon="6.85932">
        <ele>1327</ele>
        <time>2019-04-20T11:02:53Z</time>
      </trkpt>
      <trkpt lat="44.01612" lon="6.85927">
        <ele>1327</ele>
        <time>2019-04-20T11:02:53Z</time>
      </trkpt>
      <trkpt lat="44.01613" lon="6.85922">
        <ele>1327</ele>
        <time>2019-04-20T11:02:53Z</time>
      </trkpt>
      <trkpt lat="44.01614" lon="6.85918">
        <ele>1327</ele>
        <time>2019-04-20T11:03:13Z</time>
      </trkpt>
      <trkpt lat="44.01615" lon="6.85915">
        <ele>1327</ele>
        <time>2019-04-20T11:03:13Z</time>
      </trkpt>
      <trkpt lat="44.01616" lon="6.85912">
        <ele>1327</ele>
        <time>2019-04-20T11:03:13Z</time>
      </trkpt>
      <trkpt lat="44.01616" lon="6.85909">
        <ele>1327</ele>
        <time>2019-04-20T11:03:13Z</time>
      </trkpt>
      <trkpt lat="44.01617" lon="6.85905">
        <ele>1327</ele>
        <time>2019-04-20T11:03:13Z</time>
      </trkpt>
      <trkpt lat="44.01616" lon="6.85901">
        <ele>1327</ele>
        <time>2019-04-20T11:03:37Z</time>
      </trkpt>
      <trkpt lat="44.01616" lon="6.85897">
        <ele>1327</ele>
        <time>2019-04-20T11:03:37Z</time>
      </trkpt>
      <trkpt lat="44.01615" lon="6.85894">
        <ele>1327</ele>
        <time>2019-04-20T11:03:37Z</time>
      </trkpt>
      <trkpt lat="44.01614" lon="6.85891">
        <ele>1327</ele>
        <time>2019-04-20T11:03:37Z</time>
      </trkpt>
      <trkpt lat="44.01613" lon="6.85888">
        <ele>1327</ele>
        <time>2019-04-20T11:03:37Z</time>
      </trkpt>
      <trkpt lat="44.01612" lon="6.85884">
        <ele>1327</ele>
        <time>2019-04-20T11:03:57Z</time>
      </trkpt>
      <trkpt lat="44.01612" lon="6.8588">
        <ele>1327</ele>
        <time>2019-04-20T11:03:57Z</time>
      </trkpt>
      <trkpt lat="44.01612" lon="6.85875">
        <ele>1337</ele>
        <time>2019-04-20T11:03:57Z</time>
      </trkpt>
      <trkpt lat="44.01613" lon="6.85871">
        <ele>1337</ele>
        <time>2019-04-20T11:03:57Z</time>
      </trkpt>
      <trkpt lat="44.01613" lon="6.85868">
        <ele>1337</ele>
        <time>2019-04-20T11:03:57Z</time>
      </trkpt>
      <trkpt lat="44.01614" lon="6.85863">
        <ele>1337</ele>
        <time>2019-04-20T11:04:13Z</time>
      </trkpt>
      <trkpt lat="44.01614" lon="6.85859">
        <ele>1337</ele>
        <time>2019-04-20T11:04:13Z</time>
      </trkpt>
      <trkpt lat="44.01616" lon="6.85855">
        <ele>1337</ele>
        <time>2019-04-20T11:04:13Z</time>
      </trkpt>
      <trkpt lat="44.01618" lon="6.85851">
        <ele>1337</ele>
        <time>2019-04-20T11:04:13Z</time>
      </trkpt>
      <trkpt lat="44.01619" lon="6.85847">
        <ele>1337</ele>
        <time>2019-04-20T11:04:29Z</time>
      </trkpt>
      <trkpt lat="44.0162" lon="6.85844">
        <ele>1337</ele>
        <time>2019-04-20T11:04:29Z</time>
      </trkpt>
      <trkpt lat="44.0162" lon="6.85839">
        <ele>1337</ele>
        <time>2019-04-20T11:04:29Z</time>
      </trkpt>
      <trkpt lat="44.01622" lon="6.85835">
        <ele>1337</ele>
        <time>2019-04-20T11:04:29Z</time>
      </trkpt>
      <trkpt lat="44.01624" lon="6.85832">
        <ele>1337</ele>
        <time>2019-04-20T11:04:45Z</time>
      </trkpt>
      <trkpt lat="44.01625" lon="6.8583">
        <ele>1337</ele>
        <time>2019-04-20T11:04:45Z</time>
      </trkpt>
      <trkpt lat="44.01627" lon="6.85827">
        <ele>1340</ele>
        <time>2019-04-20T11:04:45Z</time>
      </trkpt>
      <trkpt lat="44.01629" lon="6.85821">
        <ele>1340</ele>
        <time>2019-04-20T11:04:45Z</time>
      </trkpt>
      <trkpt lat="44.01631" lon="6.85818">
        <ele>1340</ele>
        <time>2019-04-20T11:05:01Z</time>
      </trkpt>
      <trkpt lat="44.01634" lon="6.85815">
        <ele>1340</ele>
        <time>2019-04-20T11:05:01Z</time>
      </trkpt>
      <trkpt lat="44.01636" lon="6.85812">
        <ele>1340</ele>
        <time>2019-04-20T11:05:01Z</time>
      </trkpt>
      <trkpt lat="44.01639" lon="6.85808">
        <ele>1340</ele>
        <time>2019-04-20T11:05:01Z</time>
      </trkpt>
      <trkpt lat="44.01642" lon="6.85804">
        <ele>1340</ele>
        <time>2019-04-20T11:05:17Z</time>
      </trkpt>
      <trkpt lat="44.01644" lon="6.85801">
        <ele>1340</ele>
        <time>2019-04-20T11:05:17Z</time>
      </trkpt>
      <trkpt lat="44.01648" lon="6.85797">
        <ele>1340</ele>
        <time>2019-04-20T11:05:17Z</time>
      </trkpt>
      <trkpt lat="44.01651" lon="6.85793">
        <ele>1340</ele>
        <time>2019-04-20T11:05:17Z</time>
      </trkpt>
      <trkpt lat="44.01656" lon="6.85783">
        <ele>1340</ele>
        <time>2019-04-20T11:05:49Z</time>
      </trkpt>
      <trkpt lat="44.01656" lon="6.85783">
        <ele>1340</ele>
        <time>2019-04-20T11:05:49Z</time>
      </trkpt>
      <trkpt lat="44.01656" lon="6.85783">
        <ele>1340</ele>
        <time>2019-04-20T11:05:49Z</time>
      </trkpt>
      <trkpt lat="44.01658" lon="6.8578">
        <ele>1340</ele>
        <time>2019-04-20T11:05:49Z</time>
      </trkpt>
      <trkpt lat="44.01658" lon="6.85777">
        <ele>1340</ele>
        <time>2019-04-20T11:05:49Z</time>
      </trkpt>
      <trkpt lat="44.01658" lon="6.85772">
        <ele>1340</ele>
        <time>2019-04-20T11:08:13Z</time>
      </trkpt>
      <trkpt lat="44.01658" lon="6.85771">
        <ele>1340</ele>
        <time>2019-04-20T11:08:13Z</time>
      </trkpt>
      <trkpt lat="44.01656" lon="6.85768">
        <ele>1340</ele>
        <time>2019-04-20T11:08:13Z</time>
      </trkpt>
      <trkpt lat="44.01653" lon="6.85764">
        <ele>1340</ele>
        <time>2019-04-20T11:08:13Z</time>
      </trkpt>
      <trkpt lat="44.01651" lon="6.85761">
        <ele>1340</ele>
        <time>2019-04-20T11:08:13Z</time>
      </trkpt>
      <trkpt lat="44.01649" lon="6.85756">
        <ele>1340</ele>
        <time>2019-04-20T11:08:29Z</time>
      </trkpt>
      <trkpt lat="44.01647" lon="6.85751">
        <ele>1340</ele>
        <time>2019-04-20T11:08:29Z</time>
      </trkpt>
      <trkpt lat="44.01646" lon="6.85746">
        <ele>1340</ele>
        <time>2019-04-20T11:08:29Z</time>
      </trkpt>
      <trkpt lat="44.01645" lon="6.85739">
        <ele>1340</ele>
        <time>2019-04-20T11:08:29Z</time>
      </trkpt>
      <trkpt lat="44.01643" lon="6.85734">
        <ele>1340</ele>
        <time>2019-04-20T11:08:45Z</time>
      </trkpt>
      <trkpt lat="44.01641" lon="6.8573">
        <ele>1340</ele>
        <time>2019-04-20T11:08:45Z</time>
      </trkpt>
      <trkpt lat="44.01639" lon="6.85724">
        <ele>1340</ele>
        <time>2019-04-20T11:08:45Z</time>
      </trkpt>
      <trkpt lat="44.01636" lon="6.85722">
        <ele>1340</ele>
        <time>2019-04-20T11:08:45Z</time>
      </trkpt>
      <trkpt lat="44.01635" lon="6.85717">
        <ele>1340</ele>
        <time>2019-04-20T11:09:01Z</time>
      </trkpt>
      <trkpt lat="44.01635" lon="6.85712">
        <ele>1340</ele>
        <time>2019-04-20T11:09:01Z</time>
      </trkpt>
      <trkpt lat="44.01634" lon="6.85707">
        <ele>1339</ele>
        <time>2019-04-20T11:09:01Z</time>
      </trkpt>
      <trkpt lat="44.01632" lon="6.85703">
        <ele>1339</ele>
        <time>2019-04-20T11:09:01Z</time>
      </trkpt>
      <trkpt lat="44.01629" lon="6.85698">
        <ele>1339</ele>
        <time>2019-04-20T11:09:17Z</time>
      </trkpt>
      <trkpt lat="44.01628" lon="6.85694">
        <ele>1339</ele>
        <time>2019-04-20T11:09:17Z</time>
      </trkpt>
      <trkpt lat="44.01626" lon="6.85689">
        <ele>1339</ele>
        <time>2019-04-20T11:09:17Z</time>
      </trkpt>
      <trkpt lat="44.01624" lon="6.85686">
        <ele>1345</ele>
        <time>2019-04-20T11:09:17Z</time>
      </trkpt>
      <trkpt lat="44.01625" lon="6.85682">
        <ele>1345</ele>
        <time>2019-04-20T11:09:33Z</time>
      </trkpt>
      <trkpt lat="44.01629" lon="6.85678">
        <ele>1339</ele>
        <time>2019-04-20T11:09:33Z</time>
      </trkpt>
      <trkpt lat="44.01631" lon="6.85673">
        <ele>1339</ele>
        <time>2019-04-20T11:09:33Z</time>
      </trkpt>
      <trkpt lat="44.01631" lon="6.85665">
        <ele>1339</ele>
        <time>2019-04-20T11:09:33Z</time>
      </trkpt>
      <trkpt lat="44.0163" lon="6.85659">
        <ele>1339</ele>
        <time>2019-04-20T11:09:49Z</time>
      </trkpt>
      <trkpt lat="44.0163" lon="6.85653">
        <ele>1339</ele>
        <time>2019-04-20T11:09:49Z</time>
      </trkpt>
      <trkpt lat="44.01629" lon="6.85649">
        <ele>1339</ele>
        <time>2019-04-20T11:09:49Z</time>
      </trkpt>
      <trkpt lat="44.01628" lon="6.85644">
        <ele>1339</ele>
        <time>2019-04-20T11:09:49Z</time>
      </trkpt>
      <trkpt lat="44.01627" lon="6.8564">
        <ele>1339</ele>
        <time>2019-04-20T11:10:05Z</time>
      </trkpt>
      <trkpt lat="44.01624" lon="6.85637">
        <ele>1345</ele>
        <time>2019-04-20T11:10:05Z</time>
      </trkpt>
      <trkpt lat="44.01621" lon="6.85636">
        <ele>1345</ele>
        <time>2019-04-20T11:10:05Z</time>
      </trkpt>
      <trkpt lat="44.01617" lon="6.85633">
        <ele>1345</ele>
        <time>2019-04-20T11:10:05Z</time>
      </trkpt>
      <trkpt lat="44.01613" lon="6.85628">
        <ele>1345</ele>
        <time>2019-04-20T11:10:41Z</time>
      </trkpt>
      <trkpt lat="44.0161" lon="6.85626">
        <ele>1345</ele>
        <time>2019-04-20T11:10:41Z</time>
      </trkpt>
      <trkpt lat="44.01606" lon="6.85624">
        <ele>1348</ele>
        <time>2019-04-20T11:10:41Z</time>
      </trkpt>
      <trkpt lat="44.01601" lon="6.85625">
        <ele>1348</ele>
        <time>2019-04-20T11:10:42Z</time>
      </trkpt>
      <trkpt lat="44.01596" lon="6.85623">
        <ele>1348</ele>
        <time>2019-04-20T11:10:42Z</time>
      </trkpt>
      <trkpt lat="44.01593" lon="6.85623">
        <ele>1348</ele>
        <time>2019-04-20T11:10:57Z</time>
      </trkpt>
      <trkpt lat="44.01588" lon="6.85624">
        <ele>1348</ele>
        <time>2019-04-20T11:10:57Z</time>
      </trkpt>
      <trkpt lat="44.01585" lon="6.85625">
        <ele>1348</ele>
        <time>2019-04-20T11:10:57Z</time>
      </trkpt>
      <trkpt lat="44.01583" lon="6.85626">
        <ele>1345</ele>
        <time>2019-04-20T11:10:57Z</time>
      </trkpt>
      <trkpt lat="44.01581" lon="6.85627">
        <ele>1345</ele>
        <time>2019-04-20T11:11:13Z</time>
      </trkpt>
      <trkpt lat="44.01579" lon="6.85628">
        <ele>1345</ele>
        <time>2019-04-20T11:11:13Z</time>
      </trkpt>
      <trkpt lat="44.01576" lon="6.85629">
        <ele>1345</ele>
        <time>2019-04-20T11:11:13Z</time>
      </trkpt>
      <trkpt lat="44.01573" lon="6.85631">
        <ele>1345</ele>
        <time>2019-04-20T11:11:13Z</time>
      </trkpt>
      <trkpt lat="44.0157" lon="6.85632">
        <ele>1345</ele>
        <time>2019-04-20T11:11:29Z</time>
      </trkpt>
      <trkpt lat="44.01566" lon="6.85634">
        <ele>1345</ele>
        <time>2019-04-20T11:11:29Z</time>
      </trkpt>
      <trkpt lat="44.01563" lon="6.85633">
        <ele>1345</ele>
        <time>2019-04-20T11:11:29Z</time>
      </trkpt>
      <trkpt lat="44.01561" lon="6.85632">
        <ele>1345</ele>
        <time>2019-04-20T11:11:29Z</time>
      </trkpt>
      <trkpt lat="44.01558" lon="6.8563">
        <ele>1345</ele>
        <time>2019-04-20T11:11:49Z</time>
      </trkpt>
      <trkpt lat="44.01555" lon="6.8563">
        <ele>1345</ele>
        <time>2019-04-20T11:11:49Z</time>
      </trkpt>
      <trkpt lat="44.01552" lon="6.8563">
        <ele>1345</ele>
        <time>2019-04-20T11:11:49Z</time>
      </trkpt>
      <trkpt lat="44.0155" lon="6.8563">
        <ele>1345</ele>
        <time>2019-04-20T11:11:49Z</time>
      </trkpt>
      <trkpt lat="44.01548" lon="6.85631">
        <ele>1345</ele>
        <time>2019-04-20T11:11:49Z</time>
      </trkpt>
      <trkpt lat="44.01546" lon="6.85631">
        <ele>1345</ele>
        <time>2019-04-20T11:12:09Z</time>
      </trkpt>
      <trkpt lat="44.01545" lon="6.85633">
        <ele>1345</ele>
        <time>2019-04-20T11:12:09Z</time>
      </trkpt>
      <trkpt lat="44.01542" lon="6.85632">
        <ele>1345</ele>
        <time>2019-04-20T11:12:09Z</time>
      </trkpt>
      <trkpt lat="44.0154" lon="6.85637">
        <ele>1365</ele>
        <time>2019-04-20T11:12:09Z</time>
      </trkpt>
      <trkpt lat="44.01539" lon="6.85641">
        <ele>1365</ele>
        <time>2019-04-20T11:12:09Z</time>
      </trkpt>
      <trkpt lat="44.01533" lon="6.85646">
        <ele>1365</ele>
        <time>2019-04-20T11:12:33Z</time>
      </trkpt>
      <trkpt lat="44.01531" lon="6.85647">
        <ele>1365</ele>
        <time>2019-04-20T11:12:33Z</time>
      </trkpt>
      <trkpt lat="44.01529" lon="6.85649">
        <ele>1365</ele>
        <time>2019-04-20T11:12:33Z</time>
      </trkpt>
      <trkpt lat="44.01527" lon="6.85648">
        <ele>1365</ele>
        <time>2019-04-20T11:12:33Z</time>
      </trkpt>
      <trkpt lat="44.01525" lon="6.85647">
        <ele>1365</ele>
        <time>2019-04-20T11:12:33Z</time>
      </trkpt>
      <trkpt lat="44.01514" lon="6.85646">
        <ele>1365</ele>
        <time>2019-04-20T11:13:29Z</time>
      </trkpt>
      <trkpt lat="44.01514" lon="6.85646">
        <ele>1365</ele>
        <time>2019-04-20T11:13:29Z</time>
      </trkpt>
      <trkpt lat="44.01513" lon="6.85648">
        <ele>1365</ele>
        <time>2019-04-20T11:13:29Z</time>
      </trkpt>
      <trkpt lat="44.01513" lon="6.85649">
        <ele>1365</ele>
        <time>2019-04-20T11:13:29Z</time>
      </trkpt>
      <trkpt lat="44.01512" lon="6.85649">
        <ele>1365</ele>
        <time>2019-04-20T11:13:29Z</time>
      </trkpt>
      <trkpt lat="44.01512" lon="6.8565">
        <ele>1365</ele>
        <time>2019-04-20T11:13:57Z</time>
      </trkpt>
      <trkpt lat="44.01512" lon="6.85651">
        <ele>1365</ele>
        <time>2019-04-20T11:13:57Z</time>
      </trkpt>
      <trkpt lat="44.0151" lon="6.85654">
        <ele>1365</ele>
        <time>2019-04-20T11:13:57Z</time>
      </trkpt>
      <trkpt lat="44.01506" lon="6.85655">
        <ele>1365</ele>
        <time>2019-04-20T11:13:57Z</time>
      </trkpt>
      <trkpt lat="44.01504" lon="6.85656">
        <ele>1365</ele>
        <time>2019-04-20T11:13:57Z</time>
      </trkpt>
      <trkpt lat="44.015" lon="6.85656">
        <ele>1365</ele>
        <time>2019-04-20T11:14:17Z</time>
      </trkpt>
      <trkpt lat="44.01497" lon="6.85655">
        <ele>1365</ele>
        <time>2019-04-20T11:14:17Z</time>
      </trkpt>
      <trkpt lat="44.01494" lon="6.85654">
        <ele>1365</ele>
        <time>2019-04-20T11:14:17Z</time>
      </trkpt>
      <trkpt lat="44.01491" lon="6.85651">
        <ele>1365</ele>
        <time>2019-04-20T11:14:17Z</time>
      </trkpt>
      <trkpt lat="44.0149" lon="6.85652">
        <ele>1365</ele>
        <time>2019-04-20T11:14:17Z</time>
      </trkpt>
      <trkpt lat="44.01485" lon="6.8565">
        <ele>1365</ele>
        <time>2019-04-20T11:14:53Z</time>
      </trkpt>
      <trkpt lat="44.01484" lon="6.85649">
        <ele>1365</ele>
        <time>2019-04-20T11:14:53Z</time>
      </trkpt>
      <trkpt lat="44.01483" lon="6.85647">
        <ele>1365</ele>
        <time>2019-04-20T11:14:53Z</time>
      </trkpt>
      <trkpt lat="44.01482" lon="6.85644">
        <ele>1365</ele>
        <time>2019-04-20T11:14:53Z</time>
      </trkpt>
      <trkpt lat="44.0148" lon="6.85641">
        <ele>1365</ele>
        <time>2019-04-20T11:14:53Z</time>
      </trkpt>
      <trkpt lat="44.01478" lon="6.85638">
        <ele>1365</ele>
        <time>2019-04-20T11:15:09Z</time>
      </trkpt>
      <trkpt lat="44.01476" lon="6.85633">
        <ele>1365</ele>
        <time>2019-04-20T11:15:09Z</time>
      </trkpt>
      <trkpt lat="44.01473" lon="6.85631">
        <ele>1365</ele>
        <time>2019-04-20T11:15:09Z</time>
      </trkpt>
      <trkpt lat="44.01471" lon="6.85628">
        <ele>1365</ele>
        <time>2019-04-20T11:15:09Z</time>
      </trkpt>
      <trkpt lat="44.01465" lon="6.85631">
        <ele>1365</ele>
        <time>2019-04-20T11:15:45Z</time>
      </trkpt>
      <trkpt lat="44.01462" lon="6.85631">
        <ele>1365</ele>
        <time>2019-04-20T11:15:45Z</time>
      </trkpt>
      <trkpt lat="44.01462" lon="6.8563">
        <ele>1365</ele>
        <time>2019-04-20T11:15:45Z</time>
      </trkpt>
      <trkpt lat="44.01461" lon="6.8563">
        <ele>1365</ele>
        <time>2019-04-20T11:15:45Z</time>
      </trkpt>
      <trkpt lat="44.0146" lon="6.8563">
        <ele>1365</ele>
        <time>2019-04-20T11:15:45Z</time>
      </trkpt>
      <trkpt lat="44.0146" lon="6.8563">
        <ele>1365</ele>
        <time>2019-04-20T11:16:01Z</time>
      </trkpt>
      <trkpt lat="44.01459" lon="6.8563">
        <ele>1365</ele>
        <time>2019-04-20T11:16:01Z</time>
      </trkpt>
      <trkpt lat="44.01453" lon="6.85629">
        <ele>1385</ele>
        <time>2019-04-20T11:16:01Z</time>
      </trkpt>
      <trkpt lat="44.01448" lon="6.85629">
        <ele>1385</ele>
        <time>2019-04-20T11:16:01Z</time>
      </trkpt>
      <trkpt lat="44.01446" lon="6.85627">
        <ele>1385</ele>
        <time>2019-04-20T11:16:21Z</time>
      </trkpt>
      <trkpt lat="44.01444" lon="6.85623">
        <ele>1395</ele>
        <time>2019-04-20T11:16:21Z</time>
      </trkpt>
      <trkpt lat="44.01442" lon="6.85621">
        <ele>1395</ele>
        <time>2019-04-20T11:16:21Z</time>
      </trkpt>
      <trkpt lat="44.0144" lon="6.85619">
        <ele>1395</ele>
        <time>2019-04-20T11:16:21Z</time>
      </trkpt>
      <trkpt lat="44.0144" lon="6.85617">
        <ele>1395</ele>
        <time>2019-04-20T11:16:21Z</time>
      </trkpt>
      <trkpt lat="44.01438" lon="6.85616">
        <ele>1395</ele>
        <time>2019-04-20T11:16:45Z</time>
      </trkpt>
      <trkpt lat="44.01436" lon="6.85615">
        <ele>1395</ele>
        <time>2019-04-20T11:16:45Z</time>
      </trkpt>
      <trkpt lat="44.01433" lon="6.85613">
        <ele>1395</ele>
        <time>2019-04-20T11:16:45Z</time>
      </trkpt>
      <trkpt lat="44.01431" lon="6.85613">
        <ele>1395</ele>
        <time>2019-04-20T11:16:45Z</time>
      </trkpt>
      <trkpt lat="44.01429" lon="6.8561">
        <ele>1395</ele>
        <time>2019-04-20T11:16:45Z</time>
      </trkpt>
      <trkpt lat="44.01425" lon="6.85602">
        <ele>1395</ele>
        <time>2019-04-20T11:17:17Z</time>
      </trkpt>
      <trkpt lat="44.01424" lon="6.85601">
        <ele>1395</ele>
        <time>2019-04-20T11:17:17Z</time>
      </trkpt>
      <trkpt lat="44.01424" lon="6.85599">
        <ele>1395</ele>
        <time>2019-04-20T11:17:17Z</time>
      </trkpt>
      <trkpt lat="44.01423" lon="6.85598">
        <ele>1395</ele>
        <time>2019-04-20T11:17:17Z</time>
      </trkpt>
      <trkpt lat="44.0142" lon="6.85598">
        <ele>1395</ele>
        <time>2019-04-20T11:17:17Z</time>
      </trkpt>
      <trkpt lat="44.01418" lon="6.85595">
        <ele>1395</ele>
        <time>2019-04-20T11:17:41Z</time>
      </trkpt>
      <trkpt lat="44.01415" lon="6.85593">
        <ele>1395</ele>
        <time>2019-04-20T11:17:41Z</time>
      </trkpt>
      <trkpt lat="44.01414" lon="6.85592">
        <ele>1395</ele>
        <time>2019-04-20T11:17:41Z</time>
      </trkpt>
      <trkpt lat="44.01413" lon="6.85587">
        <ele>1395</ele>
        <time>2019-04-20T11:17:41Z</time>
      </trkpt>
      <trkpt lat="44.0141" lon="6.85584">
        <ele>1395</ele>
        <time>2019-04-20T11:17:42Z</time>
      </trkpt>
      <trkpt lat="44.01402" lon="6.85581">
        <ele>1395</ele>
        <time>2019-04-20T11:18:25Z</time>
      </trkpt>
      <trkpt lat="44.01401" lon="6.85582">
        <ele>1395</ele>
        <time>2019-04-20T11:18:25Z</time>
      </trkpt>
      <trkpt lat="44.01397" lon="6.85581">
        <ele>1395</ele>
        <time>2019-04-20T11:18:25Z</time>
      </trkpt>
      <trkpt lat="44.01394" lon="6.85582">
        <ele>1395</ele>
        <time>2019-04-20T11:18:25Z</time>
      </trkpt>
      <trkpt lat="44.01392" lon="6.85582">
        <ele>1395</ele>
        <time>2019-04-20T11:18:25Z</time>
      </trkpt>
      <trkpt lat="44.01387" lon="6.85576">
        <ele>1395</ele>
        <time>2019-04-20T11:18:53Z</time>
      </trkpt>
      <trkpt lat="44.01385" lon="6.85576">
        <ele>1395</ele>
        <time>2019-04-20T11:18:53Z</time>
      </trkpt>
      <trkpt lat="44.01384" lon="6.85573">
        <ele>1395</ele>
        <time>2019-04-20T11:18:53Z</time>
      </trkpt>
      <trkpt lat="44.01385" lon="6.85571">
        <ele>1395</ele>
        <time>2019-04-20T11:18:53Z</time>
      </trkpt>
      <trkpt lat="44.01385" lon="6.85569">
        <ele>1395</ele>
        <time>2019-04-20T11:18:53Z</time>
      </trkpt>
      <trkpt lat="44.01384" lon="6.85566">
        <ele>1395</ele>
        <time>2019-04-20T11:19:29Z</time>
      </trkpt>
      <trkpt lat="44.01384" lon="6.85563">
        <ele>1395</ele>
        <time>2019-04-20T11:19:29Z</time>
      </trkpt>
      <trkpt lat="44.01386" lon="6.85558">
        <ele>1395</ele>
        <time>2019-04-20T11:19:29Z</time>
      </trkpt>
      <trkpt lat="44.01384" lon="6.85555">
        <ele>1395</ele>
        <time>2019-04-20T11:19:29Z</time>
      </trkpt>
      <trkpt lat="44.01384" lon="6.85554">
        <ele>1395</ele>
        <time>2019-04-20T11:19:29Z</time>
      </trkpt>
      <trkpt lat="44.01385" lon="6.85551">
        <ele>1395</ele>
        <time>2019-04-20T11:19:49Z</time>
      </trkpt>
      <trkpt lat="44.01386" lon="6.85548">
        <ele>1395</ele>
        <time>2019-04-20T11:19:49Z</time>
      </trkpt>
      <trkpt lat="44.01385" lon="6.85543">
        <ele>1395</ele>
        <time>2019-04-20T11:19:49Z</time>
      </trkpt>
      <trkpt lat="44.01384" lon="6.85539">
        <ele>1402</ele>
        <time>2019-04-20T11:19:49Z</time>
      </trkpt>
      <trkpt lat="44.01383" lon="6.85537">
        <ele>1402</ele>
        <time>2019-04-20T11:19:49Z</time>
      </trkpt>
      <trkpt lat="44.01383" lon="6.85532">
        <ele>1402</ele>
        <time>2019-04-20T11:20:21Z</time>
      </trkpt>
      <trkpt lat="44.01382" lon="6.85531">
        <ele>1402</ele>
        <time>2019-04-20T11:20:21Z</time>
      </trkpt>
      <trkpt lat="44.01381" lon="6.8553">
        <ele>1402</ele>
        <time>2019-04-20T11:20:21Z</time>
      </trkpt>
      <trkpt lat="44.01379" lon="6.85529">
        <ele>1402</ele>
        <time>2019-04-20T11:20:21Z</time>
      </trkpt>
      <trkpt lat="44.01377" lon="6.85526">
        <ele>1402</ele>
        <time>2019-04-20T11:20:21Z</time>
      </trkpt>
      <trkpt lat="44.01376" lon="6.85519">
        <ele>1402</ele>
        <time>2019-04-20T11:20:45Z</time>
      </trkpt>
      <trkpt lat="44.01376" lon="6.85516">
        <ele>1402</ele>
        <time>2019-04-20T11:20:45Z</time>
      </trkpt>
      <trkpt lat="44.01375" lon="6.85514">
        <ele>1402</ele>
        <time>2019-04-20T11:20:45Z</time>
      </trkpt>
      <trkpt lat="44.01376" lon="6.85511">
        <ele>1402</ele>
        <time>2019-04-20T11:20:45Z</time>
      </trkpt>
      <trkpt lat="44.01375" lon="6.85509">
        <ele>1402</ele>
        <time>2019-04-20T11:20:45Z</time>
      </trkpt>
      <trkpt lat="44.01375" lon="6.85507">
        <ele>1402</ele>
        <time>2019-04-20T11:21:05Z</time>
      </trkpt>
      <trkpt lat="44.01374" lon="6.85505">
        <ele>1423</ele>
        <time>2019-04-20T11:21:05Z</time>
      </trkpt>
      <trkpt lat="44.01371" lon="6.85505">
        <ele>1423</ele>
        <time>2019-04-20T11:21:05Z</time>
      </trkpt>
      <trkpt lat="44.01369" lon="6.85501">
        <ele>1423</ele>
        <time>2019-04-20T11:21:05Z</time>
      </trkpt>
      <trkpt lat="44.01366" lon="6.855">
        <ele>1423</ele>
        <time>2019-04-20T11:21:05Z</time>
      </trkpt>
      <trkpt lat="44.01364" lon="6.85498">
        <ele>1423</ele>
        <time>2019-04-20T11:21:29Z</time>
      </trkpt>
      <trkpt lat="44.01362" lon="6.85496">
        <ele>1423</ele>
        <time>2019-04-20T11:21:29Z</time>
      </trkpt>
      <trkpt lat="44.01361" lon="6.85494">
        <ele>1423</ele>
        <time>2019-04-20T11:21:29Z</time>
      </trkpt>
      <trkpt lat="44.01357" lon="6.85492">
        <ele>1423</ele>
        <time>2019-04-20T11:21:29Z</time>
      </trkpt>
      <trkpt lat="44.01356" lon="6.85491">
        <ele>1423</ele>
        <time>2019-04-20T11:21:29Z</time>
      </trkpt>
      <trkpt lat="44.01355" lon="6.85488">
        <ele>1423</ele>
        <time>2019-04-20T11:21:49Z</time>
      </trkpt>
      <trkpt lat="44.01354" lon="6.85484">
        <ele>1423</ele>
        <time>2019-04-20T11:21:49Z</time>
      </trkpt>
      <trkpt lat="44.01354" lon="6.8548">
        <ele>1423</ele>
        <time>2019-04-20T11:21:49Z</time>
      </trkpt>
      <trkpt lat="44.01353" lon="6.85477">
        <ele>1423</ele>
        <time>2019-04-20T11:21:49Z</time>
      </trkpt>
      <trkpt lat="44.01352" lon="6.85476">
        <ele>1423</ele>
        <time>2019-04-20T11:21:49Z</time>
      </trkpt>
      <trkpt lat="44.0135" lon="6.85469">
        <ele>1423</ele>
        <time>2019-04-20T11:22:13Z</time>
      </trkpt>
      <trkpt lat="44.01351" lon="6.85467">
        <ele>1423</ele>
        <time>2019-04-20T11:22:13Z</time>
      </trkpt>
      <trkpt lat="44.01351" lon="6.85466">
        <ele>1423</ele>
        <time>2019-04-20T11:22:13Z</time>
      </trkpt>
      <trkpt lat="44.0135" lon="6.85464">
        <ele>1423</ele>
        <time>2019-04-20T11:22:13Z</time>
      </trkpt>
      <trkpt lat="44.01351" lon="6.8546">
        <ele>1423</ele>
        <time>2019-04-20T11:22:13Z</time>
      </trkpt>
      <trkpt lat="44.01348" lon="6.8545">
        <ele>1435</ele>
        <time>2019-04-20T11:22:37Z</time>
      </trkpt>
      <trkpt lat="44.01347" lon="6.85448">
        <ele>1435</ele>
        <time>2019-04-20T11:22:37Z</time>
      </trkpt>
      <trkpt lat="44.01346" lon="6.85447">
        <ele>1435</ele>
        <time>2019-04-20T11:22:37Z</time>
      </trkpt>
      <trkpt lat="44.01345" lon="6.85444">
        <ele>1435</ele>
        <time>2019-04-20T11:22:37Z</time>
      </trkpt>
      <trkpt lat="44.01344" lon="6.85441">
        <ele>1435</ele>
        <time>2019-04-20T11:22:37Z</time>
      </trkpt>
      <trkpt lat="44.01343" lon="6.85437">
        <ele>1435</ele>
        <time>2019-04-20T11:23:01Z</time>
      </trkpt>
      <trkpt lat="44.01341" lon="6.85434">
        <ele>1435</ele>
        <time>2019-04-20T11:23:01Z</time>
      </trkpt>
      <trkpt lat="44.01339" lon="6.85432">
        <ele>1435</ele>
        <time>2019-04-20T11:23:01Z</time>
      </trkpt>
      <trkpt lat="44.01338" lon="6.8543">
        <ele>1435</ele>
        <time>2019-04-20T11:23:01Z</time>
      </trkpt>
      <trkpt lat="44.01338" lon="6.85428">
        <ele>1435</ele>
        <time>2019-04-20T11:23:01Z</time>
      </trkpt>
      <trkpt lat="44.01337" lon="6.85424">
        <ele>1435</ele>
        <time>2019-04-20T11:23:21Z</time>
      </trkpt>
      <trkpt lat="44.01336" lon="6.85421">
        <ele>1435</ele>
        <time>2019-04-20T11:23:21Z</time>
      </trkpt>
      <trkpt lat="44.01334" lon="6.85418">
        <ele>1435</ele>
        <time>2019-04-20T11:23:21Z</time>
      </trkpt>
      <trkpt lat="44.01332" lon="6.85415">
        <ele>1435</ele>
        <time>2019-04-20T11:23:21Z</time>
      </trkpt>
      <trkpt lat="44.01331" lon="6.85412">
        <ele>1435</ele>
        <time>2019-04-20T11:23:21Z</time>
      </trkpt>
      <trkpt lat="44.01327" lon="6.85409">
        <ele>1435</ele>
        <time>2019-04-20T11:23:45Z</time>
      </trkpt>
      <trkpt lat="44.01325" lon="6.85408">
        <ele>1435</ele>
        <time>2019-04-20T11:23:45Z</time>
      </trkpt>
      <trkpt lat="44.01325" lon="6.85404">
        <ele>1435</ele>
        <time>2019-04-20T11:23:45Z</time>
      </trkpt>
      <trkpt lat="44.01324" lon="6.854">
        <ele>1435</ele>
        <time>2019-04-20T11:23:45Z</time>
      </trkpt>
      <trkpt lat="44.01323" lon="6.85397">
        <ele>1435</ele>
        <time>2019-04-20T11:23:45Z</time>
      </trkpt>
      <trkpt lat="44.01321" lon="6.8539">
        <ele>1435</ele>
        <time>2019-04-20T11:24:09Z</time>
      </trkpt>
      <trkpt lat="44.01319" lon="6.85389">
        <ele>1435</ele>
        <time>2019-04-20T11:24:09Z</time>
      </trkpt>
      <trkpt lat="44.01318" lon="6.85386">
        <ele>1435</ele>
        <time>2019-04-20T11:24:09Z</time>
      </trkpt>
      <trkpt lat="44.01316" lon="6.85383">
        <ele>1435</ele>
        <time>2019-04-20T11:24:09Z</time>
      </trkpt>
      <trkpt lat="44.01315" lon="6.85381">
        <ele>1435</ele>
        <time>2019-04-20T11:24:09Z</time>
      </trkpt>
      <trkpt lat="44.0131" lon="6.8537">
        <ele>1436</ele>
        <time>2019-04-20T11:24:53Z</time>
      </trkpt>
      <trkpt lat="44.0131" lon="6.8537">
        <ele>1436</ele>
        <time>2019-04-20T11:24:53Z</time>
      </trkpt>
      <trkpt lat="44.0131" lon="6.8537">
        <ele>1436</ele>
        <time>2019-04-20T11:24:53Z</time>
      </trkpt>
      <trkpt lat="44.01309" lon="6.85368">
        <ele>1436</ele>
        <time>2019-04-20T11:24:53Z</time>
      </trkpt>
      <trkpt lat="44.01307" lon="6.85367">
        <ele>1436</ele>
        <time>2019-04-20T11:24:53Z</time>
      </trkpt>
      <trkpt lat="44.01307" lon="6.85362">
        <ele>1436</ele>
        <time>2019-04-20T11:25:17Z</time>
      </trkpt>
      <trkpt lat="44.01306" lon="6.8536">
        <ele>1436</ele>
        <time>2019-04-20T11:25:17Z</time>
      </trkpt>
      <trkpt lat="44.01303" lon="6.85358">
        <ele>1436</ele>
        <time>2019-04-20T11:25:17Z</time>
      </trkpt>
      <trkpt lat="44.01302" lon="6.85356">
        <ele>1436</ele>
        <time>2019-04-20T11:25:17Z</time>
      </trkpt>
      <trkpt lat="44.013" lon="6.85356">
        <ele>1436</ele>
        <time>2019-04-20T11:25:17Z</time>
      </trkpt>
      <trkpt lat="44.01299" lon="6.85353">
        <ele>1436</ele>
        <time>2019-04-20T11:25:33Z</time>
      </trkpt>
      <trkpt lat="44.01298" lon="6.85351">
        <ele>1436</ele>
        <time>2019-04-20T11:25:33Z</time>
      </trkpt>
      <trkpt lat="44.01297" lon="6.85347">
        <ele>1436</ele>
        <time>2019-04-20T11:25:33Z</time>
      </trkpt>
      <trkpt lat="44.01293" lon="6.85342">
        <ele>1436</ele>
        <time>2019-04-20T11:25:33Z</time>
      </trkpt>
      <trkpt lat="44.01291" lon="6.85336">
        <ele>1451</ele>
        <time>2019-04-20T11:25:49Z</time>
      </trkpt>
      <trkpt lat="44.01289" lon="6.85332">
        <ele>1451</ele>
        <time>2019-04-20T11:25:49Z</time>
      </trkpt>
      <trkpt lat="44.01287" lon="6.8533">
        <ele>1451</ele>
        <time>2019-04-20T11:25:49Z</time>
      </trkpt>
      <trkpt lat="44.01285" lon="6.85325">
        <ele>1451</ele>
        <time>2019-04-20T11:25:49Z</time>
      </trkpt>
      <trkpt lat="44.01283" lon="6.85319">
        <ele>1451</ele>
        <time>2019-04-20T11:26:05Z</time>
      </trkpt>
      <trkpt lat="44.01281" lon="6.85313">
        <ele>1451</ele>
        <time>2019-04-20T11:26:05Z</time>
      </trkpt>
      <trkpt lat="44.01278" lon="6.85308">
        <ele>1451</ele>
        <time>2019-04-20T11:26:05Z</time>
      </trkpt>
      <trkpt lat="44.01275" lon="6.85306">
        <ele>1451</ele>
        <time>2019-04-20T11:26:05Z</time>
      </trkpt>
      <trkpt lat="44.01268" lon="6.85298">
        <ele>1451</ele>
        <time>2019-04-20T11:26:29Z</time>
      </trkpt>
      <trkpt lat="44.01267" lon="6.85296">
        <ele>1451</ele>
        <time>2019-04-20T11:26:29Z</time>
      </trkpt>
      <trkpt lat="44.01268" lon="6.85296">
        <ele>1451</ele>
        <time>2019-04-20T11:26:29Z</time>
      </trkpt>
      <trkpt lat="44.01268" lon="6.85293">
        <ele>1451</ele>
        <time>2019-04-20T11:26:29Z</time>
      </trkpt>
      <trkpt lat="44.01264" lon="6.85293">
        <ele>1451</ele>
        <time>2019-04-20T11:26:29Z</time>
      </trkpt>
      <trkpt lat="44.01258" lon="6.85294">
        <ele>1451</ele>
        <time>2019-04-20T11:26:45Z</time>
      </trkpt>
      <trkpt lat="44.01254" lon="6.85292">
        <ele>1453</ele>
        <time>2019-04-20T11:26:45Z</time>
      </trkpt>
      <trkpt lat="44.01252" lon="6.85289">
        <ele>1453</ele>
        <time>2019-04-20T11:26:45Z</time>
      </trkpt>
      <trkpt lat="44.01248" lon="6.85286">
        <ele>1453</ele>
        <time>2019-04-20T11:26:45Z</time>
      </trkpt>
      <trkpt lat="44.01244" lon="6.85283">
        <ele>1453</ele>
        <time>2019-04-20T11:27:05Z</time>
      </trkpt>
      <trkpt lat="44.0124" lon="6.85281">
        <ele>1453</ele>
        <time>2019-04-20T11:27:05Z</time>
      </trkpt>
      <trkpt lat="44.01238" lon="6.85279">
        <ele>1453</ele>
        <time>2019-04-20T11:27:05Z</time>
      </trkpt>
      <trkpt lat="44.01237" lon="6.85277">
        <ele>1453</ele>
        <time>2019-04-20T11:27:05Z</time>
      </trkpt>
      <trkpt lat="44.01237" lon="6.85272">
        <ele>1453</ele>
        <time>2019-04-20T11:27:05Z</time>
      </trkpt>
      <trkpt lat="44.01238" lon="6.85266">
        <ele>1453</ele>
        <time>2019-04-20T11:27:25Z</time>
      </trkpt>
      <trkpt lat="44.01236" lon="6.85262">
        <ele>1453</ele>
        <time>2019-04-20T11:27:25Z</time>
      </trkpt>
      <trkpt lat="44.01235" lon="6.85259">
        <ele>1453</ele>
        <time>2019-04-20T11:27:25Z</time>
      </trkpt>
      <trkpt lat="44.01234" lon="6.85255">
        <ele>1453</ele>
        <time>2019-04-20T11:27:25Z</time>
      </trkpt>
      <trkpt lat="44.01233" lon="6.85252">
        <ele>1453</ele>
        <time>2019-04-20T11:27:25Z</time>
      </trkpt>
      <trkpt lat="44.01233" lon="6.85251">
        <ele>1453</ele>
        <time>2019-04-20T11:27:45Z</time>
      </trkpt>
      <trkpt lat="44.01234" lon="6.8525">
        <ele>1453</ele>
        <time>2019-04-20T11:27:45Z</time>
      </trkpt>
      <trkpt lat="44.01237" lon="6.85246">
        <ele>1453</ele>
        <time>2019-04-20T11:27:45Z</time>
      </trkpt>
      <trkpt lat="44.01236" lon="6.85242">
        <ele>1453</ele>
        <time>2019-04-20T11:27:45Z</time>
      </trkpt>
      <trkpt lat="44.01235" lon="6.85239">
        <ele>1453</ele>
        <time>2019-04-20T11:27:45Z</time>
      </trkpt>
      <trkpt lat="44.01234" lon="6.85231">
        <ele>1453</ele>
        <time>2019-04-20T11:28:13Z</time>
      </trkpt>
      <trkpt lat="44.01234" lon="6.85229">
        <ele>1453</ele>
        <time>2019-04-20T11:28:13Z</time>
      </trkpt>
      <trkpt lat="44.01234" lon="6.85227">
        <ele>1453</ele>
        <time>2019-04-20T11:28:13Z</time>
      </trkpt>
      <trkpt lat="44.01234" lon="6.85225">
        <ele>1453</ele>
        <time>2019-04-20T11:28:13Z</time>
      </trkpt>
      <trkpt lat="44.01234" lon="6.85222">
        <ele>1453</ele>
        <time>2019-04-20T11:28:13Z</time>
      </trkpt>
      <trkpt lat="44.01234" lon="6.85216">
        <ele>1453</ele>
        <time>2019-04-20T11:28:41Z</time>
      </trkpt>
      <trkpt lat="44.01235" lon="6.85213">
        <ele>1453</ele>
        <time>2019-04-20T11:28:41Z</time>
      </trkpt>
      <trkpt lat="44.01235" lon="6.85211">
        <ele>1453</ele>
        <time>2019-04-20T11:28:41Z</time>
      </trkpt>
      <trkpt lat="44.01234" lon="6.85208">
        <ele>1453</ele>
        <time>2019-04-20T11:28:41Z</time>
      </trkpt>
      <trkpt lat="44.01234" lon="6.85205">
        <ele>1455</ele>
        <time>2019-04-20T11:28:41Z</time>
      </trkpt>
      <trkpt lat="44.01233" lon="6.85203">
        <ele>1455</ele>
        <time>2019-04-20T11:29:01Z</time>
      </trkpt>
      <trkpt lat="44.01231" lon="6.85201">
        <ele>1455</ele>
        <time>2019-04-20T11:29:01Z</time>
      </trkpt>
      <trkpt lat="44.0123" lon="6.852">
        <ele>1455</ele>
        <time>2019-04-20T11:29:01Z</time>
      </trkpt>
      <trkpt lat="44.01227" lon="6.85198">
        <ele>1455</ele>
        <time>2019-04-20T11:29:01Z</time>
      </trkpt>
      <trkpt lat="44.01225" lon="6.85196">
        <ele>1455</ele>
        <time>2019-04-20T11:29:01Z</time>
      </trkpt>
      <trkpt lat="44.01218" lon="6.85193">
        <ele>1455</ele>
        <time>2019-04-20T11:30:01Z</time>
      </trkpt>
      <trkpt lat="44.01218" lon="6.85193">
        <ele>1455</ele>
        <time>2019-04-20T11:30:01Z</time>
      </trkpt>
      <trkpt lat="44.01217" lon="6.8519">
        <ele>1455</ele>
        <time>2019-04-20T11:30:01Z</time>
      </trkpt>
      <trkpt lat="44.01216" lon="6.85187">
        <ele>1455</ele>
        <time>2019-04-20T11:30:01Z</time>
      </trkpt>
      <trkpt lat="44.01212" lon="6.85184">
        <ele>1455</ele>
        <time>2019-04-20T11:30:01Z</time>
      </trkpt>
      <trkpt lat="44.0121" lon="6.85179">
        <ele>1455</ele>
        <time>2019-04-20T11:30:17Z</time>
      </trkpt>
      <trkpt lat="44.01207" lon="6.85175">
        <ele>1454</ele>
        <time>2019-04-20T11:30:17Z</time>
      </trkpt>
      <trkpt lat="44.01203" lon="6.8517">
        <ele>1454</ele>
        <time>2019-04-20T11:30:17Z</time>
      </trkpt>
      <trkpt lat="44.01201" lon="6.85166">
        <ele>1454</ele>
        <time>2019-04-20T11:30:17Z</time>
      </trkpt>
      <trkpt lat="44.01199" lon="6.85162">
        <ele>1454</ele>
        <time>2019-04-20T11:30:33Z</time>
      </trkpt>
      <trkpt lat="44.01197" lon="6.85157">
        <ele>1454</ele>
        <time>2019-04-20T11:30:33Z</time>
      </trkpt>
      <trkpt lat="44.01195" lon="6.85152">
        <ele>1454</ele>
        <time>2019-04-20T11:30:33Z</time>
      </trkpt>
      <trkpt lat="44.01193" lon="6.85148">
        <ele>1454</ele>
        <time>2019-04-20T11:30:33Z</time>
      </trkpt>
      <trkpt lat="44.01193" lon="6.85142">
        <ele>1454</ele>
        <time>2019-04-20T11:30:49Z</time>
      </trkpt>
      <trkpt lat="44.01194" lon="6.85136">
        <ele>1454</ele>
        <time>2019-04-20T11:30:49Z</time>
      </trkpt>
      <trkpt lat="44.01193" lon="6.8513">
        <ele>1454</ele>
        <time>2019-04-20T11:30:49Z</time>
      </trkpt>
      <trkpt lat="44.01189" lon="6.85123">
        <ele>1456</ele>
        <time>2019-04-20T11:30:49Z</time>
      </trkpt>
      <trkpt lat="44.01186" lon="6.85117">
        <ele>1456</ele>
        <time>2019-04-20T11:31:05Z</time>
      </trkpt>
      <trkpt lat="44.01185" lon="6.85113">
        <ele>1456</ele>
        <time>2019-04-20T11:31:05Z</time>
      </trkpt>
      <trkpt lat="44.01182" lon="6.85109">
        <ele>1456</ele>
        <time>2019-04-20T11:31:05Z</time>
      </trkpt>
      <trkpt lat="44.01179" lon="6.85105">
        <ele>1456</ele>
        <time>2019-04-20T11:31:05Z</time>
      </trkpt>
      <trkpt lat="44.01177" lon="6.85101">
        <ele>1456</ele>
        <time>2019-04-20T11:31:21Z</time>
      </trkpt>
      <trkpt lat="44.01175" lon="6.85096">
        <ele>1456</ele>
        <time>2019-04-20T11:31:21Z</time>
      </trkpt>
      <trkpt lat="44.01173" lon="6.85093">
        <ele>1456</ele>
        <time>2019-04-20T11:31:21Z</time>
      </trkpt>
      <trkpt lat="44.01171" lon="6.85088">
        <ele>1456</ele>
        <time>2019-04-20T11:31:21Z</time>
      </trkpt>
      <trkpt lat="44.01169" lon="6.85083">
        <ele>1456</ele>
        <time>2019-04-20T11:31:37Z</time>
      </trkpt>
      <trkpt lat="44.01167" lon="6.85074">
        <ele>1456</ele>
        <time>2019-04-20T11:31:37Z</time>
      </trkpt>
      <trkpt lat="44.01167" lon="6.85067">
        <ele>1456</ele>
        <time>2019-04-20T11:31:37Z</time>
      </trkpt>
      <trkpt lat="44.01166" lon="6.85063">
        <ele>1456</ele>
        <time>2019-04-20T11:31:37Z</time>
      </trkpt>
      <trkpt lat="44.01165" lon="6.85059">
        <ele>1456</ele>
        <time>2019-04-20T11:31:53Z</time>
      </trkpt>
      <trkpt lat="44.01164" lon="6.85056">
        <ele>1456</ele>
        <time>2019-04-20T11:31:53Z</time>
      </trkpt>
      <trkpt lat="44.01161" lon="6.85049">
        <ele>1456</ele>
        <time>2019-04-20T11:31:53Z</time>
      </trkpt>
      <trkpt lat="44.0116" lon="6.85044">
        <ele>1456</ele>
        <time>2019-04-20T11:31:53Z</time>
      </trkpt>
      <trkpt lat="44.01159" lon="6.85039">
        <ele>1454</ele>
        <time>2019-04-20T11:32:09Z</time>
      </trkpt>
      <trkpt lat="44.01156" lon="6.85034">
        <ele>1454</ele>
        <time>2019-04-20T11:32:09Z</time>
      </trkpt>
      <trkpt lat="44.01155" lon="6.85029">
        <ele>1454</ele>
        <time>2019-04-20T11:32:09Z</time>
      </trkpt>
      <trkpt lat="44.01154" lon="6.85022">
        <ele>1454</ele>
        <time>2019-04-20T11:32:09Z</time>
      </trkpt>
      <trkpt lat="44.01153" lon="6.85017">
        <ele>1454</ele>
        <time>2019-04-20T11:32:25Z</time>
      </trkpt>
      <trkpt lat="44.01152" lon="6.85011">
        <ele>1454</ele>
        <time>2019-04-20T11:32:25Z</time>
      </trkpt>
      <trkpt lat="44.01149" lon="6.85007">
        <ele>1454</ele>
        <time>2019-04-20T11:32:25Z</time>
      </trkpt>
      <trkpt lat="44.01146" lon="6.85003">
        <ele>1454</ele>
        <time>2019-04-20T11:32:25Z</time>
      </trkpt>
      <trkpt lat="44.01144" lon="6.85">
        <ele>1454</ele>
        <time>2019-04-20T11:32:41Z</time>
      </trkpt>
      <trkpt lat="44.0114" lon="6.84998">
        <ele>1454</ele>
        <time>2019-04-20T11:32:41Z</time>
      </trkpt>
      <trkpt lat="44.01138" lon="6.84995">
        <ele>1454</ele>
        <time>2019-04-20T11:32:41Z</time>
      </trkpt>
      <trkpt lat="44.01134" lon="6.84992">
        <ele>1454</ele>
        <time>2019-04-20T11:32:41Z</time>
      </trkpt>
      <trkpt lat="44.0113" lon="6.84988">
        <ele>1454</ele>
        <time>2019-04-20T11:33:05Z</time>
      </trkpt>
      <trkpt lat="44.01129" lon="6.84985">
        <ele>1454</ele>
        <time>2019-04-20T11:33:05Z</time>
      </trkpt>
      <trkpt lat="44.01129" lon="6.84983">
        <ele>1454</ele>
        <time>2019-04-20T11:33:05Z</time>
      </trkpt>
      <trkpt lat="44.01127" lon="6.84982">
        <ele>1454</ele>
        <time>2019-04-20T11:33:05Z</time>
      </trkpt>
      <trkpt lat="44.01124" lon="6.8498">
        <ele>1454</ele>
        <time>2019-04-20T11:33:05Z</time>
      </trkpt>
      <trkpt lat="44.01121" lon="6.84976">
        <ele>1454</ele>
        <time>2019-04-20T11:33:21Z</time>
      </trkpt>
      <trkpt lat="44.01118" lon="6.84972">
        <ele>1454</ele>
        <time>2019-04-20T11:33:21Z</time>
      </trkpt>
      <trkpt lat="44.01118" lon="6.84967">
        <ele>1454</ele>
        <time>2019-04-20T11:33:21Z</time>
      </trkpt>
      <trkpt lat="44.01117" lon="6.84962">
        <ele>1454</ele>
        <time>2019-04-20T11:33:21Z</time>
      </trkpt>
      <trkpt lat="44.01114" lon="6.84957">
        <ele>1460</ele>
        <time>2019-04-20T11:33:37Z</time>
      </trkpt>
      <trkpt lat="44.01113" lon="6.84953">
        <ele>1460</ele>
        <time>2019-04-20T11:33:37Z</time>
      </trkpt>
      <trkpt lat="44.01112" lon="6.84947">
        <ele>1460</ele>
        <time>2019-04-20T11:33:37Z</time>
      </trkpt>
      <trkpt lat="44.0111" lon="6.84939">
        <ele>1460</ele>
        <time>2019-04-20T11:33:37Z</time>
      </trkpt>
      <trkpt lat="44.01107" lon="6.84933">
        <ele>1460</ele>
        <time>2019-04-20T11:33:53Z</time>
      </trkpt>
      <trkpt lat="44.01105" lon="6.84928">
        <ele>1460</ele>
        <time>2019-04-20T11:33:53Z</time>
      </trkpt>
      <trkpt lat="44.01103" lon="6.84922">
        <ele>1460</ele>
        <time>2019-04-20T11:33:53Z</time>
      </trkpt>
      <trkpt lat="44.01101" lon="6.84919">
        <ele>1460</ele>
        <time>2019-04-20T11:33:53Z</time>
      </trkpt>
      <trkpt lat="44.011" lon="6.84917">
        <ele>1460</ele>
        <time>2019-04-20T11:34:09Z</time>
      </trkpt>
      <trkpt lat="44.01098" lon="6.84915">
        <ele>1460</ele>
        <time>2019-04-20T11:34:09Z</time>
      </trkpt>
      <trkpt lat="44.01094" lon="6.84912">
        <ele>1460</ele>
        <time>2019-04-20T11:34:09Z</time>
      </trkpt>
      <trkpt lat="44.01091" lon="6.84907">
        <ele>1460</ele>
        <time>2019-04-20T11:34:09Z</time>
      </trkpt>
      <trkpt lat="44.01089" lon="6.84904">
        <ele>1460</ele>
        <time>2019-04-20T11:34:29Z</time>
      </trkpt>
      <trkpt lat="44.01088" lon="6.84901">
        <ele>1460</ele>
        <time>2019-04-20T11:34:29Z</time>
      </trkpt>
      <trkpt lat="44.01085" lon="6.84899">
        <ele>1460</ele>
        <time>2019-04-20T11:34:29Z</time>
      </trkpt>
      <trkpt lat="44.01082" lon="6.84898">
        <ele>1460</ele>
        <time>2019-04-20T11:34:29Z</time>
      </trkpt>
      <trkpt lat="44.0108" lon="6.84897">
        <ele>1460</ele>
        <time>2019-04-20T11:34:29Z</time>
      </trkpt>
      <trkpt lat="44.01075" lon="6.84898">
        <ele>1460</ele>
        <time>2019-04-20T11:34:53Z</time>
      </trkpt>
      <trkpt lat="44.01072" lon="6.84896">
        <ele>1460</ele>
        <time>2019-04-20T11:34:53Z</time>
      </trkpt>
      <trkpt lat="44.0107" lon="6.84897">
        <ele>1460</ele>
        <time>2019-04-20T11:34:53Z</time>
      </trkpt>
      <trkpt lat="44.01069" lon="6.84897">
        <ele>1460</ele>
        <time>2019-04-20T11:34:53Z</time>
      </trkpt>
      <trkpt lat="44.01068" lon="6.84898">
        <ele>1460</ele>
        <time>2019-04-20T11:34:53Z</time>
      </trkpt>
      <trkpt lat="44.01062" lon="6.84903">
        <ele>1460</ele>
        <time>2019-04-20T11:35:21Z</time>
      </trkpt>
      <trkpt lat="44.0106" lon="6.84903">
        <ele>1460</ele>
        <time>2019-04-20T11:35:22Z</time>
      </trkpt>
      <trkpt lat="44.01057" lon="6.84902">
        <ele>1460</ele>
        <time>2019-04-20T11:35:22Z</time>
      </trkpt>
      <trkpt lat="44.01056" lon="6.84901">
        <ele>1460</ele>
        <time>2019-04-20T11:35:22Z</time>
      </trkpt>
      <trkpt lat="44.01055" lon="6.849">
        <ele>1460</ele>
        <time>2019-04-20T11:35:22Z</time>
      </trkpt>
      <trkpt lat="44.01053" lon="6.84902">
        <ele>1460</ele>
        <time>2019-04-20T11:35:49Z</time>
      </trkpt>
      <trkpt lat="44.01051" lon="6.84903">
        <ele>1460</ele>
        <time>2019-04-20T11:35:49Z</time>
      </trkpt>
      <trkpt lat="44.01049" lon="6.84905">
        <ele>1460</ele>
        <time>2019-04-20T11:35:49Z</time>
      </trkpt>
      <trkpt lat="44.01048" lon="6.84907">
        <ele>1460</ele>
        <time>2019-04-20T11:35:49Z</time>
      </trkpt>
      <trkpt lat="44.01045" lon="6.84908">
        <ele>1460</ele>
        <time>2019-04-20T11:35:49Z</time>
      </trkpt>
      <trkpt lat="44.01037" lon="6.84914">
        <ele>1474</ele>
        <time>2019-04-20T11:36:13Z</time>
      </trkpt>
      <trkpt lat="44.01035" lon="6.84914">
        <ele>1474</ele>
        <time>2019-04-20T11:36:13Z</time>
      </trkpt>
      <trkpt lat="44.01034" lon="6.84915">
        <ele>1474</ele>
        <time>2019-04-20T11:36:13Z</time>
      </trkpt>
      <trkpt lat="44.01034" lon="6.84915">
        <ele>1474</ele>
        <time>2019-04-20T11:36:13Z</time>
      </trkpt>
      <trkpt lat="44.01031" lon="6.84915">
        <ele>1474</ele>
        <time>2019-04-20T11:36:13Z</time>
      </trkpt>
      <trkpt lat="44.01027" lon="6.84918">
        <ele>1474</ele>
        <time>2019-04-20T11:36:37Z</time>
      </trkpt>
      <trkpt lat="44.01025" lon="6.84917">
        <ele>1474</ele>
        <time>2019-04-20T11:36:37Z</time>
      </trkpt>
      <trkpt lat="44.01023" lon="6.84916">
        <ele>1474</ele>
        <time>2019-04-20T11:36:37Z</time>
      </trkpt>
      <trkpt lat="44.01022" lon="6.84914">
        <ele>1474</ele>
        <time>2019-04-20T11:36:37Z</time>
      </trkpt>
      <trkpt lat="44.0102" lon="6.84912">
        <ele>1474</ele>
        <time>2019-04-20T11:36:37Z</time>
      </trkpt>
      <trkpt lat="44.01015" lon="6.84906">
        <ele>1474</ele>
        <time>2019-04-20T11:37:09Z</time>
      </trkpt>
      <trkpt lat="44.01013" lon="6.84907">
        <ele>1474</ele>
        <time>2019-04-20T11:37:09Z</time>
      </trkpt>
      <trkpt lat="44.01012" lon="6.84907">
        <ele>1474</ele>
        <time>2019-04-20T11:37:09Z</time>
      </trkpt>
      <trkpt lat="44.01012" lon="6.84906">
        <ele>1474</ele>
        <time>2019-04-20T11:37:09Z</time>
      </trkpt>
      <trkpt lat="44.0101" lon="6.84904">
        <ele>1474</ele>
        <time>2019-04-20T11:37:09Z</time>
      </trkpt>
      <trkpt lat="44.01006" lon="6.84899">
        <ele>1474</ele>
        <time>2019-04-20T11:37:37Z</time>
      </trkpt>
      <trkpt lat="44.01005" lon="6.84895">
        <ele>1474</ele>
        <time>2019-04-20T11:37:37Z</time>
      </trkpt>
      <trkpt lat="44.01004" lon="6.84893">
        <ele>1474</ele>
        <time>2019-04-20T11:37:37Z</time>
      </trkpt>
      <trkpt lat="44.01004" lon="6.84893">
        <ele>1474</ele>
        <time>2019-04-20T11:37:37Z</time>
      </trkpt>
      <trkpt lat="44.01002" lon="6.84892">
        <ele>1474</ele>
        <time>2019-04-20T11:37:37Z</time>
      </trkpt>
      <trkpt lat="44.00997" lon="6.84891">
        <ele>1474</ele>
        <time>2019-04-20T11:38:01Z</time>
      </trkpt>
      <trkpt lat="44.00996" lon="6.84888">
        <ele>1474</ele>
        <time>2019-04-20T11:38:01Z</time>
      </trkpt>
      <trkpt lat="44.00995" lon="6.84886">
        <ele>1474</ele>
        <time>2019-04-20T11:38:01Z</time>
      </trkpt>
      <trkpt lat="44.00993" lon="6.84885">
        <ele>1474</ele>
        <time>2019-04-20T11:38:01Z</time>
      </trkpt>
      <trkpt lat="44.00991" lon="6.84883">
        <ele>1474</ele>
        <time>2019-04-20T11:38:01Z</time>
      </trkpt>
      <trkpt lat="44.00988" lon="6.84878">
        <ele>1474</ele>
        <time>2019-04-20T11:38:25Z</time>
      </trkpt>
      <trkpt lat="44.00986" lon="6.84876">
        <ele>1474</ele>
        <time>2019-04-20T11:38:25Z</time>
      </trkpt>
      <trkpt lat="44.00984" lon="6.84874">
        <ele>1486</ele>
        <time>2019-04-20T11:38:25Z</time>
      </trkpt>
      <trkpt lat="44.00983" lon="6.84873">
        <ele>1486</ele>
        <time>2019-04-20T11:38:25Z</time>
      </trkpt>
      <trkpt lat="44.0098" lon="6.84871">
        <ele>1486</ele>
        <time>2019-04-20T11:38:25Z</time>
      </trkpt>
      <trkpt lat="44.0098" lon="6.84871">
        <ele>1486</ele>
        <time>2019-04-20T11:38:45Z</time>
      </trkpt>
      <trkpt lat="44.00978" lon="6.84868">
        <ele>1486</ele>
        <time>2019-04-20T11:38:45Z</time>
      </trkpt>
      <trkpt lat="44.00977" lon="6.84865">
        <ele>1486</ele>
        <time>2019-04-20T11:38:45Z</time>
      </trkpt>
      <trkpt lat="44.00977" lon="6.84862">
        <ele>1486</ele>
        <time>2019-04-20T11:38:45Z</time>
      </trkpt>
      <trkpt lat="44.00975" lon="6.8486">
        <ele>1486</ele>
        <time>2019-04-20T11:38:45Z</time>
      </trkpt>
      <trkpt lat="44.00974" lon="6.84858">
        <ele>1486</ele>
        <time>2019-04-20T11:39:05Z</time>
      </trkpt>
      <trkpt lat="44.00974" lon="6.84854">
        <ele>1486</ele>
        <time>2019-04-20T11:39:05Z</time>
      </trkpt>
      <trkpt lat="44.00974" lon="6.84851">
        <ele>1486</ele>
        <time>2019-04-20T11:39:05Z</time>
      </trkpt>
      <trkpt lat="44.00973" lon="6.84847">
        <ele>1486</ele>
        <time>2019-04-20T11:39:05Z</time>
      </trkpt>
      <trkpt lat="44.00972" lon="6.84844">
        <ele>1486</ele>
        <time>2019-04-20T11:39:05Z</time>
      </trkpt>
      <trkpt lat="44.0097" lon="6.84842">
        <ele>1486</ele>
        <time>2019-04-20T11:39:41Z</time>
      </trkpt>
      <trkpt lat="44.00969" lon="6.84841">
        <ele>1486</ele>
        <time>2019-04-20T11:39:41Z</time>
      </trkpt>
      <trkpt lat="44.00967" lon="6.8484">
        <ele>1486</ele>
        <time>2019-04-20T11:39:41Z</time>
      </trkpt>
      <trkpt lat="44.00966" lon="6.84837">
        <ele>1486</ele>
        <time>2019-04-20T11:39:41Z</time>
      </trkpt>
      <trkpt lat="44.00964" lon="6.84836">
        <ele>1486</ele>
        <time>2019-04-20T11:39:41Z</time>
      </trkpt>
      <trkpt lat="44.00964" lon="6.84832">
        <ele>1486</ele>
        <time>2019-04-20T11:40:01Z</time>
      </trkpt>
      <trkpt lat="44.00963" lon="6.84827">
        <ele>1486</ele>
        <time>2019-04-20T11:40:01Z</time>
      </trkpt>
      <trkpt lat="44.00963" lon="6.84825">
        <ele>1486</ele>
        <time>2019-04-20T11:40:01Z</time>
      </trkpt>
      <trkpt lat="44.00965" lon="6.84823">
        <ele>1486</ele>
        <time>2019-04-20T11:40:01Z</time>
      </trkpt>
      <trkpt lat="44.00965" lon="6.84817">
        <ele>1486</ele>
        <time>2019-04-20T11:40:01Z</time>
      </trkpt>
      <trkpt lat="44.00964" lon="6.84813">
        <ele>1486</ele>
        <time>2019-04-20T11:40:21Z</time>
      </trkpt>
      <trkpt lat="44.00964" lon="6.84811">
        <ele>1486</ele>
        <time>2019-04-20T11:40:21Z</time>
      </trkpt>
      <trkpt lat="44.00963" lon="6.84808">
        <ele>1486</ele>
        <time>2019-04-20T11:40:21Z</time>
      </trkpt>
      <trkpt lat="44.00964" lon="6.84804">
        <ele>1486</ele>
        <time>2019-04-20T11:40:21Z</time>
      </trkpt>
      <trkpt lat="44.00964" lon="6.84799">
        <ele>1486</ele>
        <time>2019-04-20T11:40:21Z</time>
      </trkpt>
      <trkpt lat="44.00962" lon="6.84795">
        <ele>1486</ele>
        <time>2019-04-20T11:40:41Z</time>
      </trkpt>
      <trkpt lat="44.00962" lon="6.84793">
        <ele>1486</ele>
        <time>2019-04-20T11:40:41Z</time>
      </trkpt>
      <trkpt lat="44.00962" lon="6.84792">
        <ele>1486</ele>
        <time>2019-04-20T11:40:41Z</time>
      </trkpt>
      <trkpt lat="44.00963" lon="6.84789">
        <ele>1489</ele>
        <time>2019-04-20T11:40:41Z</time>
      </trkpt>
      <trkpt lat="44.00965" lon="6.84781">
        <ele>1489</ele>
        <time>2019-04-20T11:40:41Z</time>
      </trkpt>
      <trkpt lat="44.00965" lon="6.84773">
        <ele>1489</ele>
        <time>2019-04-20T11:41:05Z</time>
      </trkpt>
      <trkpt lat="44.00964" lon="6.8477">
        <ele>1489</ele>
        <time>2019-04-20T11:41:05Z</time>
      </trkpt>
      <trkpt lat="44.00963" lon="6.84768">
        <ele>1489</ele>
        <time>2019-04-20T11:41:05Z</time>
      </trkpt>
      <trkpt lat="44.00962" lon="6.84767">
        <ele>1489</ele>
        <time>2019-04-20T11:41:05Z</time>
      </trkpt>
      <trkpt lat="44.00961" lon="6.84763">
        <ele>1489</ele>
        <time>2019-04-20T11:41:05Z</time>
      </trkpt>
      <trkpt lat="44.00957" lon="6.84758">
        <ele>1497</ele>
        <time>2019-04-20T11:41:29Z</time>
      </trkpt>
      <trkpt lat="44.00956" lon="6.84755">
        <ele>1497</ele>
        <time>2019-04-20T11:41:29Z</time>
      </trkpt>
      <trkpt lat="44.00955" lon="6.8475">
        <ele>1497</ele>
        <time>2019-04-20T11:41:29Z</time>
      </trkpt>
      <trkpt lat="44.00955" lon="6.84749">
        <ele>1497</ele>
        <time>2019-04-20T11:41:29Z</time>
      </trkpt>
      <trkpt lat="44.00954" lon="6.84747">
        <ele>1497</ele>
        <time>2019-04-20T11:41:29Z</time>
      </trkpt>
      <trkpt lat="44.00954" lon="6.84741">
        <ele>1497</ele>
        <time>2019-04-20T11:41:53Z</time>
      </trkpt>
      <trkpt lat="44.00954" lon="6.84737">
        <ele>1497</ele>
        <time>2019-04-20T11:41:53Z</time>
      </trkpt>
      <trkpt lat="44.00953" lon="6.84736">
        <ele>1497</ele>
        <time>2019-04-20T11:41:53Z</time>
      </trkpt>
      <trkpt lat="44.00954" lon="6.84734">
        <ele>1497</ele>
        <time>2019-04-20T11:41:53Z</time>
      </trkpt>
      <trkpt lat="44.00953" lon="6.84732">
        <ele>1497</ele>
        <time>2019-04-20T11:41:53Z</time>
      </trkpt>
      <trkpt lat="44.00953" lon="6.84727">
        <ele>1497</ele>
        <time>2019-04-20T11:42:17Z</time>
      </trkpt>
      <trkpt lat="44.00953" lon="6.84725">
        <ele>1497</ele>
        <time>2019-04-20T11:42:17Z</time>
      </trkpt>
      <trkpt lat="44.00952" lon="6.8472">
        <ele>1497</ele>
        <time>2019-04-20T11:42:17Z</time>
      </trkpt>
      <trkpt lat="44.00952" lon="6.84718">
        <ele>1497</ele>
        <time>2019-04-20T11:42:18Z</time>
      </trkpt>
      <trkpt lat="44.00951" lon="6.84715">
        <ele>1497</ele>
        <time>2019-04-20T11:42:18Z</time>
      </trkpt>
      <trkpt lat="44.0095" lon="6.84712">
        <ele>1497</ele>
        <time>2019-04-20T11:42:37Z</time>
      </trkpt>
      <trkpt lat="44.00949" lon="6.84708">
        <ele>1497</ele>
        <time>2019-04-20T11:42:37Z</time>
      </trkpt>
      <trkpt lat="44.00947" lon="6.84707">
        <ele>1510</ele>
        <time>2019-04-20T11:42:37Z</time>
      </trkpt>
      <trkpt lat="44.00944" lon="6.84704">
        <ele>1510</ele>
        <time>2019-04-20T11:42:37Z</time>
      </trkpt>
      <trkpt lat="44.00941" lon="6.84701">
        <ele>1510</ele>
        <time>2019-04-20T11:42:37Z</time>
      </trkpt>
      <trkpt lat="44.00938" lon="6.84696">
        <ele>1510</ele>
        <time>2019-04-20T11:42:53Z</time>
      </trkpt>
      <trkpt lat="44.00935" lon="6.84692">
        <ele>1510</ele>
        <time>2019-04-20T11:42:53Z</time>
      </trkpt>
      <trkpt lat="44.00932" lon="6.84689">
        <ele>1510</ele>
        <time>2019-04-20T11:42:53Z</time>
      </trkpt>
      <trkpt lat="44.00929" lon="6.84686">
        <ele>1510</ele>
        <time>2019-04-20T11:42:53Z</time>
      </trkpt>
      <trkpt lat="44.00926" lon="6.84684">
        <ele>1510</ele>
        <time>2019-04-20T11:43:13Z</time>
      </trkpt>
      <trkpt lat="44.00923" lon="6.84682">
        <ele>1510</ele>
        <time>2019-04-20T11:43:13Z</time>
      </trkpt>
      <trkpt lat="44.00921" lon="6.8468">
        <ele>1510</ele>
        <time>2019-04-20T11:43:13Z</time>
      </trkpt>
      <trkpt lat="44.00918" lon="6.84679">
        <ele>1510</ele>
        <time>2019-04-20T11:43:13Z</time>
      </trkpt>
      <trkpt lat="44.00914" lon="6.84677">
        <ele>1510</ele>
        <time>2019-04-20T11:43:13Z</time>
      </trkpt>
      <trkpt lat="44.00911" lon="6.84672">
        <ele>1510</ele>
        <time>2019-04-20T11:43:33Z</time>
      </trkpt>
      <trkpt lat="44.00909" lon="6.84669">
        <ele>1510</ele>
        <time>2019-04-20T11:43:33Z</time>
      </trkpt>
      <trkpt lat="44.00908" lon="6.84665">
        <ele>1510</ele>
        <time>2019-04-20T11:43:33Z</time>
      </trkpt>
      <trkpt lat="44.00906" lon="6.84663">
        <ele>1510</ele>
        <time>2019-04-20T11:43:33Z</time>
      </trkpt>
      <trkpt lat="44.00904" lon="6.84662">
        <ele>1510</ele>
        <time>2019-04-20T11:43:33Z</time>
      </trkpt>
      <trkpt lat="44.00901" lon="6.8466">
        <ele>1510</ele>
        <time>2019-04-20T11:43:49Z</time>
      </trkpt>
      <trkpt lat="44.009" lon="6.84659">
        <ele>1510</ele>
        <time>2019-04-20T11:43:49Z</time>
      </trkpt>
      <trkpt lat="44.00896" lon="6.84658">
        <ele>1510</ele>
        <time>2019-04-20T11:43:49Z</time>
      </trkpt>
      <trkpt lat="44.00892" lon="6.84657">
        <ele>1510</ele>
        <time>2019-04-20T11:43:49Z</time>
      </trkpt>
      <trkpt lat="44.0089" lon="6.84655">
        <ele>1510</ele>
        <time>2019-04-20T11:44:05Z</time>
      </trkpt>
      <trkpt lat="44.00887" lon="6.84653">
        <ele>1510</ele>
        <time>2019-04-20T11:44:05Z</time>
      </trkpt>
      <trkpt lat="44.00884" lon="6.84653">
        <ele>1510</ele>
        <time>2019-04-20T11:44:05Z</time>
      </trkpt>
      <trkpt lat="44.0088" lon="6.84651">
        <ele>1510</ele>
        <time>2019-04-20T11:44:05Z</time>
      </trkpt>
      <trkpt lat="44.00876" lon="6.8465">
        <ele>1510</ele>
        <time>2019-04-20T11:44:49Z</time>
      </trkpt>
      <trkpt lat="44.00876" lon="6.84646">
        <ele>1510</ele>
        <time>2019-04-20T11:44:49Z</time>
      </trkpt>
      <trkpt lat="44.00875" lon="6.84643">
        <ele>1510</ele>
        <time>2019-04-20T11:44:49Z</time>
      </trkpt>
      <trkpt lat="44.00875" lon="6.84639">
        <ele>1497</ele>
        <time>2019-04-20T11:44:49Z</time>
      </trkpt>
      <trkpt lat="44.00873" lon="6.84635">
        <ele>1497</ele>
        <time>2019-04-20T11:44:49Z</time>
      </trkpt>
      <trkpt lat="44.00872" lon="6.84629">
        <ele>1497</ele>
        <time>2019-04-20T11:45:17Z</time>
      </trkpt>
      <trkpt lat="44.00873" lon="6.84627">
        <ele>1497</ele>
        <time>2019-04-20T11:45:17Z</time>
      </trkpt>
      <trkpt lat="44.00873" lon="6.84625">
        <ele>1497</ele>
        <time>2019-04-20T11:45:17Z</time>
      </trkpt>
      <trkpt lat="44.00871" lon="6.84622">
        <ele>1519</ele>
        <time>2019-04-20T11:45:17Z</time>
      </trkpt>
      <trkpt lat="44.00871" lon="6.8462">
        <ele>1519</ele>
        <time>2019-04-20T11:45:17Z</time>
      </trkpt>
      <trkpt lat="44.00872" lon="6.84617">
        <ele>1519</ele>
        <time>2019-04-20T11:45:37Z</time>
      </trkpt>
      <trkpt lat="44.00873" lon="6.84616">
        <ele>1519</ele>
        <time>2019-04-20T11:45:37Z</time>
      </trkpt>
      <trkpt lat="44.00873" lon="6.84612">
        <ele>1519</ele>
        <time>2019-04-20T11:45:37Z</time>
      </trkpt>
      <trkpt lat="44.00873" lon="6.84608">
        <ele>1519</ele>
        <time>2019-04-20T11:45:37Z</time>
      </trkpt>
      <trkpt lat="44.00872" lon="6.84605">
        <ele>1519</ele>
        <time>2019-04-20T11:45:37Z</time>
      </trkpt>
      <trkpt lat="44.0087" lon="6.84597">
        <ele>1519</ele>
        <time>2019-04-20T11:46:01Z</time>
      </trkpt>
      <trkpt lat="44.00869" lon="6.84596">
        <ele>1519</ele>
        <time>2019-04-20T11:46:01Z</time>
      </trkpt>
      <trkpt lat="44.0087" lon="6.84593">
        <ele>1519</ele>
        <time>2019-04-20T11:46:01Z</time>
      </trkpt>
      <trkpt lat="44.00869" lon="6.8459">
        <ele>1519</ele>
        <time>2019-04-20T11:46:01Z</time>
      </trkpt>
      <trkpt lat="44.00869" lon="6.84586">
        <ele>1519</ele>
        <time>2019-04-20T11:46:01Z</time>
      </trkpt>
      <trkpt lat="44.00867" lon="6.8458">
        <ele>1519</ele>
        <time>2019-04-20T11:46:25Z</time>
      </trkpt>
      <trkpt lat="44.00866" lon="6.84577">
        <ele>1519</ele>
        <time>2019-04-20T11:46:25Z</time>
      </trkpt>
      <trkpt lat="44.00866" lon="6.84575">
        <ele>1519</ele>
        <time>2019-04-20T11:46:25Z</time>
      </trkpt>
      <trkpt lat="44.00866" lon="6.84571">
        <ele>1519</ele>
        <time>2019-04-20T11:46:25Z</time>
      </trkpt>
      <trkpt lat="44.00865" lon="6.84565">
        <ele>1519</ele>
        <time>2019-04-20T11:46:25Z</time>
      </trkpt>
      <trkpt lat="44.00865" lon="6.84561">
        <ele>1519</ele>
        <time>2019-04-20T11:46:45Z</time>
      </trkpt>
      <trkpt lat="44.00864" lon="6.84559">
        <ele>1519</ele>
        <time>2019-04-20T11:46:45Z</time>
      </trkpt>
      <trkpt lat="44.00865" lon="6.84555">
        <ele>1519</ele>
        <time>2019-04-20T11:46:45Z</time>
      </trkpt>
      <trkpt lat="44.00865" lon="6.84552">
        <ele>1519</ele>
        <time>2019-04-20T11:46:45Z</time>
      </trkpt>
      <trkpt lat="44.00865" lon="6.84547">
        <ele>1519</ele>
        <time>2019-04-20T11:46:45Z</time>
      </trkpt>
      <trkpt lat="44.00866" lon="6.84541">
        <ele>1541</ele>
        <time>2019-04-20T11:47:09Z</time>
      </trkpt>
      <trkpt lat="44.00865" lon="6.84538">
        <ele>1541</ele>
        <time>2019-04-20T11:47:09Z</time>
      </trkpt>
      <trkpt lat="44.00865" lon="6.84534">
        <ele>1541</ele>
        <time>2019-04-20T11:47:09Z</time>
      </trkpt>
      <trkpt lat="44.00866" lon="6.84532">
        <ele>1541</ele>
        <time>2019-04-20T11:47:09Z</time>
      </trkpt>
      <trkpt lat="44.00866" lon="6.84528">
        <ele>1541</ele>
        <time>2019-04-20T11:47:09Z</time>
      </trkpt>
      <trkpt lat="44.00868" lon="6.84524">
        <ele>1541</ele>
        <time>2019-04-20T11:47:29Z</time>
      </trkpt>
      <trkpt lat="44.00871" lon="6.84519">
        <ele>1541</ele>
        <time>2019-04-20T11:47:29Z</time>
      </trkpt>
      <trkpt lat="44.00873" lon="6.84516">
        <ele>1541</ele>
        <time>2019-04-20T11:47:29Z</time>
      </trkpt>
      <trkpt lat="44.00873" lon="6.84514">
        <ele>1541</ele>
        <time>2019-04-20T11:47:29Z</time>
      </trkpt>
      <trkpt lat="44.00872" lon="6.84511">
        <ele>1541</ele>
        <time>2019-04-20T11:47:29Z</time>
      </trkpt>
      <trkpt lat="44.00871" lon="6.84503">
        <ele>1541</ele>
        <time>2019-04-20T11:47:53Z</time>
      </trkpt>
      <trkpt lat="44.0087" lon="6.84501">
        <ele>1541</ele>
        <time>2019-04-20T11:47:53Z</time>
      </trkpt>
      <trkpt lat="44.00868" lon="6.84498">
        <ele>1541</ele>
        <time>2019-04-20T11:47:53Z</time>
      </trkpt>
      <trkpt lat="44.00868" lon="6.84493">
        <ele>1541</ele>
        <time>2019-04-20T11:47:53Z</time>
      </trkpt>
      <trkpt lat="44.00867" lon="6.84492">
        <ele>1541</ele>
        <time>2019-04-20T11:47:53Z</time>
      </trkpt>
      <trkpt lat="44.00866" lon="6.84488">
        <ele>1541</ele>
        <time>2019-04-20T11:48:13Z</time>
      </trkpt>
      <trkpt lat="44.00863" lon="6.84486">
        <ele>1541</ele>
        <time>2019-04-20T11:48:13Z</time>
      </trkpt>
      <trkpt lat="44.0086" lon="6.84484">
        <ele>1541</ele>
        <time>2019-04-20T11:48:13Z</time>
      </trkpt>
      <trkpt lat="44.00858" lon="6.84482">
        <ele>1541</ele>
        <time>2019-04-20T11:48:13Z</time>
      </trkpt>
      <trkpt lat="44.00857" lon="6.84481">
        <ele>1541</ele>
        <time>2019-04-20T11:48:13Z</time>
      </trkpt>
      <trkpt lat="44.00857" lon="6.8448">
        <ele>1541</ele>
        <time>2019-04-20T11:48:33Z</time>
      </trkpt>
      <trkpt lat="44.00857" lon="6.84477">
        <ele>1541</ele>
        <time>2019-04-20T11:48:33Z</time>
      </trkpt>
      <trkpt lat="44.00855" lon="6.84474">
        <ele>1541</ele>
        <time>2019-04-20T11:48:33Z</time>
      </trkpt>
      <trkpt lat="44.00853" lon="6.84471">
        <ele>1541</ele>
        <time>2019-04-20T11:48:33Z</time>
      </trkpt>
      <trkpt lat="44.00853" lon="6.84469">
        <ele>1541</ele>
        <time>2019-04-20T11:48:33Z</time>
      </trkpt>
      <trkpt lat="44.00854" lon="6.84461">
        <ele>1541</ele>
        <time>2019-04-20T11:49:01Z</time>
      </trkpt>
      <trkpt lat="44.00854" lon="6.8446">
        <ele>1541</ele>
        <time>2019-04-20T11:49:01Z</time>
      </trkpt>
      <trkpt lat="44.00855" lon="6.84457">
        <ele>1562</ele>
        <time>2019-04-20T11:49:01Z</time>
      </trkpt>
      <trkpt lat="44.00857" lon="6.84454">
        <ele>1562</ele>
        <time>2019-04-20T11:49:01Z</time>
      </trkpt>
      <trkpt lat="44.00858" lon="6.84453">
        <ele>1562</ele>
        <time>2019-04-20T11:49:01Z</time>
      </trkpt>
      <trkpt lat="44.00858" lon="6.84449">
        <ele>1562</ele>
        <time>2019-04-20T11:49:29Z</time>
      </trkpt>
      <trkpt lat="44.00858" lon="6.84446">
        <ele>1562</ele>
        <time>2019-04-20T11:49:29Z</time>
      </trkpt>
      <trkpt lat="44.00859" lon="6.84443">
        <ele>1562</ele>
        <time>2019-04-20T11:49:29Z</time>
      </trkpt>
      <trkpt lat="44.00859" lon="6.84441">
        <ele>1562</ele>
        <time>2019-04-20T11:49:29Z</time>
      </trkpt>
      <trkpt lat="44.00861" lon="6.84439">
        <ele>1562</ele>
        <time>2019-04-20T11:49:29Z</time>
      </trkpt>
      <trkpt lat="44.00861" lon="6.84431">
        <ele>1562</ele>
        <time>2019-04-20T11:49:53Z</time>
      </trkpt>
      <trkpt lat="44.00861" lon="6.84429">
        <ele>1562</ele>
        <time>2019-04-20T11:49:53Z</time>
      </trkpt>
      <trkpt lat="44.0086" lon="6.84425">
        <ele>1562</ele>
        <time>2019-04-20T11:49:53Z</time>
      </trkpt>
      <trkpt lat="44.0086" lon="6.84423">
        <ele>1562</ele>
        <time>2019-04-20T11:49:53Z</time>
      </trkpt>
      <trkpt lat="44.0086" lon="6.84421">
        <ele>1562</ele>
        <time>2019-04-20T11:49:53Z</time>
      </trkpt>
      <trkpt lat="44.00857" lon="6.84413">
        <ele>1562</ele>
        <time>2019-04-20T11:50:25Z</time>
      </trkpt>
      <trkpt lat="44.00857" lon="6.84412">
        <ele>1562</ele>
        <time>2019-04-20T11:50:25Z</time>
      </trkpt>
      <trkpt lat="44.00856" lon="6.84412">
        <ele>1562</ele>
        <time>2019-04-20T11:50:25Z</time>
      </trkpt>
      <trkpt lat="44.00855" lon="6.8441">
        <ele>1562</ele>
        <time>2019-04-20T11:50:25Z</time>
      </trkpt>
      <trkpt lat="44.00854" lon="6.84406">
        <ele>1562</ele>
        <time>2019-04-20T11:50:25Z</time>
      </trkpt>
      <trkpt lat="44.00852" lon="6.844">
        <ele>1562</ele>
        <time>2019-04-20T11:50:49Z</time>
      </trkpt>
      <trkpt lat="44.00852" lon="6.84397">
        <ele>1562</ele>
        <time>2019-04-20T11:50:49Z</time>
      </trkpt>
      <trkpt lat="44.00851" lon="6.84395">
        <ele>1562</ele>
        <time>2019-04-20T11:50:49Z</time>
      </trkpt>
      <trkpt lat="44.00851" lon="6.84394">
        <ele>1562</ele>
        <time>2019-04-20T11:50:49Z</time>
      </trkpt>
      <trkpt lat="44.0085" lon="6.84391">
        <ele>1562</ele>
        <time>2019-04-20T11:50:49Z</time>
      </trkpt>
      <trkpt lat="44.00847" lon="6.84384">
        <ele>1562</ele>
        <time>2019-04-20T11:51:45Z</time>
      </trkpt>
      <trkpt lat="44.00846" lon="6.84383">
        <ele>1562</ele>
        <time>2019-04-20T11:51:45Z</time>
      </trkpt>
      <trkpt lat="44.00847" lon="6.8438">
        <ele>1562</ele>
        <time>2019-04-20T11:51:45Z</time>
      </trkpt>
      <trkpt lat="44.00846" lon="6.84377">
        <ele>1562</ele>
        <time>2019-04-20T11:51:45Z</time>
      </trkpt>
      <trkpt lat="44.00844" lon="6.84374">
        <ele>1582</ele>
        <time>2019-04-20T11:51:45Z</time>
      </trkpt>
      <trkpt lat="44.00845" lon="6.84369">
        <ele>1582</ele>
        <time>2019-04-20T11:52:13Z</time>
      </trkpt>
      <trkpt lat="44.00843" lon="6.84366">
        <ele>1582</ele>
        <time>2019-04-20T11:52:13Z</time>
      </trkpt>
      <trkpt lat="44.00844" lon="6.84364">
        <ele>1582</ele>
        <time>2019-04-20T11:52:13Z</time>
      </trkpt>
      <trkpt lat="44.00842" lon="6.84363">
        <ele>1582</ele>
        <time>2019-04-20T11:52:13Z</time>
      </trkpt>
      <trkpt lat="44.00842" lon="6.84361">
        <ele>1582</ele>
        <time>2019-04-20T11:52:13Z</time>
      </trkpt>
      <trkpt lat="44.00843" lon="6.84355">
        <ele>1582</ele>
        <time>2019-04-20T11:52:41Z</time>
      </trkpt>
      <trkpt lat="44.00843" lon="6.84354">
        <ele>1582</ele>
        <time>2019-04-20T11:52:41Z</time>
      </trkpt>
      <trkpt lat="44.00842" lon="6.84351">
        <ele>1582</ele>
        <time>2019-04-20T11:52:41Z</time>
      </trkpt>
      <trkpt lat="44.00843" lon="6.84349">
        <ele>1582</ele>
        <time>2019-04-20T11:52:41Z</time>
      </trkpt>
      <trkpt lat="44.00842" lon="6.84346">
        <ele>1582</ele>
        <time>2019-04-20T11:52:41Z</time>
      </trkpt>
      <trkpt lat="44.00845" lon="6.8434">
        <ele>1582</ele>
        <time>2019-04-20T11:53:09Z</time>
      </trkpt>
      <trkpt lat="44.00843" lon="6.84338">
        <ele>1582</ele>
        <time>2019-04-20T11:53:09Z</time>
      </trkpt>
      <trkpt lat="44.00842" lon="6.84336">
        <ele>1582</ele>
        <time>2019-04-20T11:53:09Z</time>
      </trkpt>
      <trkpt lat="44.00842" lon="6.84335">
        <ele>1582</ele>
        <time>2019-04-20T11:53:09Z</time>
      </trkpt>
      <trkpt lat="44.00842" lon="6.84331">
        <ele>1582</ele>
        <time>2019-04-20T11:53:09Z</time>
      </trkpt>
      <trkpt lat="44.00842" lon="6.84325">
        <ele>1582</ele>
        <time>2019-04-20T11:53:37Z</time>
      </trkpt>
      <trkpt lat="44.00844" lon="6.84321">
        <ele>1582</ele>
        <time>2019-04-20T11:53:37Z</time>
      </trkpt>
      <trkpt lat="44.00846" lon="6.8432">
        <ele>1582</ele>
        <time>2019-04-20T11:53:37Z</time>
      </trkpt>
      <trkpt lat="44.00846" lon="6.8432">
        <ele>1582</ele>
        <time>2019-04-20T11:53:37Z</time>
      </trkpt>
      <trkpt lat="44.00846" lon="6.84315">
        <ele>1582</ele>
        <time>2019-04-20T11:53:37Z</time>
      </trkpt>
      <trkpt lat="44.00846" lon="6.84308">
        <ele>1582</ele>
        <time>2019-04-20T11:54:17Z</time>
      </trkpt>
      <trkpt lat="44.00847" lon="6.84306">
        <ele>1582</ele>
        <time>2019-04-20T11:54:17Z</time>
      </trkpt>
      <trkpt lat="44.00845" lon="6.84304">
        <ele>1582</ele>
        <time>2019-04-20T11:54:17Z</time>
      </trkpt>
      <trkpt lat="44.00844" lon="6.84302">
        <ele>1582</ele>
        <time>2019-04-20T11:54:17Z</time>
      </trkpt>
      <trkpt lat="44.00843" lon="6.843">
        <ele>1582</ele>
        <time>2019-04-20T11:54:17Z</time>
      </trkpt>
      <trkpt lat="44.00843" lon="6.84299">
        <ele>1582</ele>
        <time>2019-04-20T11:54:37Z</time>
      </trkpt>
      <trkpt lat="44.00842" lon="6.84296">
        <ele>1582</ele>
        <time>2019-04-20T11:54:37Z</time>
      </trkpt>
      <trkpt lat="44.00843" lon="6.84292">
        <ele>1598</ele>
        <time>2019-04-20T11:54:37Z</time>
      </trkpt>
      <trkpt lat="44.00845" lon="6.84288">
        <ele>1598</ele>
        <time>2019-04-20T11:54:37Z</time>
      </trkpt>
      <trkpt lat="44.00847" lon="6.84287">
        <ele>1598</ele>
        <time>2019-04-20T11:54:37Z</time>
      </trkpt>
      <trkpt lat="44.00855" lon="6.84281">
        <ele>1598</ele>
        <time>2019-04-20T11:55:13Z</time>
      </trkpt>
      <trkpt lat="44.00854" lon="6.84278">
        <ele>1598</ele>
        <time>2019-04-20T11:55:13Z</time>
      </trkpt>
      <trkpt lat="44.00854" lon="6.84277">
        <ele>1598</ele>
        <time>2019-04-20T11:55:13Z</time>
      </trkpt>
      <trkpt lat="44.00852" lon="6.84274">
        <ele>1598</ele>
        <time>2019-04-20T11:55:13Z</time>
      </trkpt>
      <trkpt lat="44.00851" lon="6.84273">
        <ele>1598</ele>
        <time>2019-04-20T11:55:13Z</time>
      </trkpt>
      <trkpt lat="44.00854" lon="6.84268">
        <ele>1598</ele>
        <time>2019-04-20T11:55:37Z</time>
      </trkpt>
      <trkpt lat="44.00856" lon="6.84266">
        <ele>1598</ele>
        <time>2019-04-20T11:55:37Z</time>
      </trkpt>
      <trkpt lat="44.00857" lon="6.84264">
        <ele>1598</ele>
        <time>2019-04-20T11:55:37Z</time>
      </trkpt>
      <trkpt lat="44.00859" lon="6.84262">
        <ele>1598</ele>
        <time>2019-04-20T11:55:37Z</time>
      </trkpt>
      <trkpt lat="44.0086" lon="6.84262">
        <ele>1598</ele>
        <time>2019-04-20T11:55:37Z</time>
      </trkpt>
      <trkpt lat="44.00866" lon="6.84253">
        <ele>1598</ele>
        <time>2019-04-20T11:56:29Z</time>
      </trkpt>
      <trkpt lat="44.00867" lon="6.84253">
        <ele>1598</ele>
        <time>2019-04-20T11:56:29Z</time>
      </trkpt>
      <trkpt lat="44.00867" lon="6.84253">
        <ele>1598</ele>
        <time>2019-04-20T11:56:29Z</time>
      </trkpt>
      <trkpt lat="44.00867" lon="6.84251">
        <ele>1598</ele>
        <time>2019-04-20T11:56:29Z</time>
      </trkpt>
      <trkpt lat="44.00868" lon="6.8425">
        <ele>1598</ele>
        <time>2019-04-20T11:56:29Z</time>
      </trkpt>
      <trkpt lat="44.00867" lon="6.84248">
        <ele>1598</ele>
        <time>2019-04-20T11:56:49Z</time>
      </trkpt>
      <trkpt lat="44.00867" lon="6.84245">
        <ele>1598</ele>
        <time>2019-04-20T11:56:49Z</time>
      </trkpt>
      <trkpt lat="44.00866" lon="6.8424">
        <ele>1598</ele>
        <time>2019-04-20T11:56:49Z</time>
      </trkpt>
      <trkpt lat="44.00865" lon="6.84237">
        <ele>1598</ele>
        <time>2019-04-20T11:56:49Z</time>
      </trkpt>
      <trkpt lat="44.00863" lon="6.84236">
        <ele>1598</ele>
        <time>2019-04-20T11:56:49Z</time>
      </trkpt>
      <trkpt lat="44.00862" lon="6.84234">
        <ele>1598</ele>
        <time>2019-04-20T11:57:09Z</time>
      </trkpt>
      <trkpt lat="44.00861" lon="6.84232">
        <ele>1598</ele>
        <time>2019-04-20T11:57:09Z</time>
      </trkpt>
      <trkpt lat="44.0086" lon="6.84228">
        <ele>1598</ele>
        <time>2019-04-20T11:57:09Z</time>
      </trkpt>
      <trkpt lat="44.0086" lon="6.84225">
        <ele>1598</ele>
        <time>2019-04-20T11:57:09Z</time>
      </trkpt>
      <trkpt lat="44.00859" lon="6.84221">
        <ele>1598</ele>
        <time>2019-04-20T11:57:09Z</time>
      </trkpt>
      <trkpt lat="44.00856" lon="6.84213">
        <ele>1598</ele>
        <time>2019-04-20T11:58:21Z</time>
      </trkpt>
      <trkpt lat="44.00856" lon="6.84212">
        <ele>1598</ele>
        <time>2019-04-20T11:58:21Z</time>
      </trkpt>
      <trkpt lat="44.00857" lon="6.84212">
        <ele>1598</ele>
        <time>2019-04-20T11:58:21Z</time>
      </trkpt>
      <trkpt lat="44.00857" lon="6.84208">
        <ele>1606</ele>
        <time>2019-04-20T11:58:21Z</time>
      </trkpt>
      <trkpt lat="44.00858" lon="6.84204">
        <ele>1606</ele>
        <time>2019-04-20T11:58:21Z</time>
      </trkpt>
      <trkpt lat="44.00859" lon="6.842">
        <ele>1606</ele>
        <time>2019-04-20T11:58:37Z</time>
      </trkpt>
      <trkpt lat="44.00862" lon="6.84199">
        <ele>1606</ele>
        <time>2019-04-20T11:58:37Z</time>
      </trkpt>
      <trkpt lat="44.00865" lon="6.84195">
        <ele>1606</ele>
        <time>2019-04-20T11:58:37Z</time>
      </trkpt>
      <trkpt lat="44.00865" lon="6.84191">
        <ele>1606</ele>
        <time>2019-04-20T11:58:37Z</time>
      </trkpt>
      <trkpt lat="44.00869" lon="6.84185">
        <ele>1606</ele>
        <time>2019-04-20T11:59:01Z</time>
      </trkpt>
      <trkpt lat="44.00869" lon="6.84182">
        <ele>1606</ele>
        <time>2019-04-20T11:59:01Z</time>
      </trkpt>
      <trkpt lat="44.00871" lon="6.8418">
        <ele>1606</ele>
        <time>2019-04-20T11:59:01Z</time>
      </trkpt>
      <trkpt lat="44.00872" lon="6.84178">
        <ele>1606</ele>
        <time>2019-04-20T11:59:01Z</time>
      </trkpt>
      <trkpt lat="44.00872" lon="6.84174">
        <ele>1606</ele>
        <time>2019-04-20T11:59:01Z</time>
      </trkpt>
      <trkpt lat="44.00873" lon="6.84171">
        <ele>1606</ele>
        <time>2019-04-20T11:59:21Z</time>
      </trkpt>
      <trkpt lat="44.00874" lon="6.84168">
        <ele>1606</ele>
        <time>2019-04-20T11:59:21Z</time>
      </trkpt>
      <trkpt lat="44.00876" lon="6.84165">
        <ele>1586</ele>
        <time>2019-04-20T11:59:21Z</time>
      </trkpt>
      <trkpt lat="44.00878" lon="6.84163">
        <ele>1586</ele>
        <time>2019-04-20T11:59:21Z</time>
      </trkpt>
      <trkpt lat="44.00879" lon="6.84159">
        <ele>1586</ele>
        <time>2019-04-20T11:59:21Z</time>
      </trkpt>
      <trkpt lat="44.00874" lon="6.84163">
        <ele>1606</ele>
        <time>2019-04-20T12:35:09Z</time>
      </trkpt>
      <trkpt lat="44.00873" lon="6.84164">
        <ele>1606</ele>
        <time>2019-04-20T12:35:09Z</time>
      </trkpt>
      <trkpt lat="44.0087" lon="6.84161">
        <ele>1606</ele>
        <time>2019-04-20T12:35:09Z</time>
      </trkpt>
      <trkpt lat="44.00866" lon="6.84162">
        <ele>1606</ele>
        <time>2019-04-20T12:35:09Z</time>
      </trkpt>
      <trkpt lat="44.00862" lon="6.84165">
        <ele>1606</ele>
        <time>2019-04-20T12:35:09Z</time>
      </trkpt>
      <trkpt lat="44.00857" lon="6.84168">
        <ele>1606</ele>
        <time>2019-04-20T12:35:25Z</time>
      </trkpt>
      <trkpt lat="44.00854" lon="6.84169">
        <ele>1606</ele>
        <time>2019-04-20T12:35:25Z</time>
      </trkpt>
      <trkpt lat="44.0085" lon="6.84173">
        <ele>1606</ele>
        <time>2019-04-20T12:35:25Z</time>
      </trkpt>
      <trkpt lat="44.00845" lon="6.84178">
        <ele>1606</ele>
        <time>2019-04-20T12:35:25Z</time>
      </trkpt>
      <trkpt lat="44.00839" lon="6.8418">
        <ele>1606</ele>
        <time>2019-04-20T12:35:41Z</time>
      </trkpt>
      <trkpt lat="44.00834" lon="6.84182">
        <ele>1606</ele>
        <time>2019-04-20T12:35:41Z</time>
      </trkpt>
      <trkpt lat="44.0083" lon="6.84186">
        <ele>1606</ele>
        <time>2019-04-20T12:35:41Z</time>
      </trkpt>
      <trkpt lat="44.00826" lon="6.84192">
        <ele>1606</ele>
        <time>2019-04-20T12:35:41Z</time>
      </trkpt>
      <trkpt lat="44.00821" lon="6.84197">
        <ele>1606</ele>
        <time>2019-04-20T12:36:01Z</time>
      </trkpt>
      <trkpt lat="44.00818" lon="6.84202">
        <ele>1606</ele>
        <time>2019-04-20T12:36:01Z</time>
      </trkpt>
      <trkpt lat="44.00816" lon="6.84204">
        <ele>1606</ele>
        <time>2019-04-20T12:36:01Z</time>
      </trkpt>
      <trkpt lat="44.00815" lon="6.84205">
        <ele>1606</ele>
        <time>2019-04-20T12:36:01Z</time>
      </trkpt>
      <trkpt lat="44.00811" lon="6.84205">
        <ele>1606</ele>
        <time>2019-04-20T12:36:01Z</time>
      </trkpt>
      <trkpt lat="44.00806" lon="6.84201">
        <ele>1606</ele>
        <time>2019-04-20T12:36:17Z</time>
      </trkpt>
      <trkpt lat="44.008" lon="6.84206">
        <ele>1606</ele>
        <time>2019-04-20T12:36:17Z</time>
      </trkpt>
      <trkpt lat="44.00795" lon="6.84208">
        <ele>1606</ele>
        <time>2019-04-20T12:36:17Z</time>
      </trkpt>
      <trkpt lat="44.00789" lon="6.84206">
        <ele>1592</ele>
        <time>2019-04-20T12:36:17Z</time>
      </trkpt>
      <trkpt lat="44.00784" lon="6.84206">
        <ele>1592</ele>
        <time>2019-04-20T12:36:33Z</time>
      </trkpt>
      <trkpt lat="44.00779" lon="6.8421">
        <ele>1592</ele>
        <time>2019-04-20T12:36:33Z</time>
      </trkpt>
      <trkpt lat="44.00773" lon="6.84218">
        <ele>1592</ele>
        <time>2019-04-20T12:36:33Z</time>
      </trkpt>
      <trkpt lat="44.00767" lon="6.84222">
        <ele>1592</ele>
        <time>2019-04-20T12:36:33Z</time>
      </trkpt>
      <trkpt lat="44.00762" lon="6.84226">
        <ele>1592</ele>
        <time>2019-04-20T12:36:49Z</time>
      </trkpt>
      <trkpt lat="44.00758" lon="6.84231">
        <ele>1592</ele>
        <time>2019-04-20T12:36:49Z</time>
      </trkpt>
      <trkpt lat="44.00755" lon="6.84235">
        <ele>1592</ele>
        <time>2019-04-20T12:36:49Z</time>
      </trkpt>
      <trkpt lat="44.00755" lon="6.84237">
        <ele>1592</ele>
        <time>2019-04-20T12:36:49Z</time>
      </trkpt>
      <trkpt lat="44.00755" lon="6.84237">
        <ele>1592</ele>
        <time>2019-04-20T12:37:37Z</time>
      </trkpt>
      <trkpt lat="44.00752" lon="6.84235">
        <ele>1592</ele>
        <time>2019-04-20T12:37:37Z</time>
      </trkpt>
      <trkpt lat="44.00749" lon="6.84234">
        <ele>1592</ele>
        <time>2019-04-20T12:37:37Z</time>
      </trkpt>
      <trkpt lat="44.00748" lon="6.84236">
        <ele>1592</ele>
        <time>2019-04-20T12:37:37Z</time>
      </trkpt>
      <trkpt lat="44.00745" lon="6.84242">
        <ele>1592</ele>
        <time>2019-04-20T12:37:37Z</time>
      </trkpt>
      <trkpt lat="44.00745" lon="6.84251">
        <ele>1592</ele>
        <time>2019-04-20T12:38:01Z</time>
      </trkpt>
      <trkpt lat="44.00743" lon="6.84254">
        <ele>1592</ele>
        <time>2019-04-20T12:38:01Z</time>
      </trkpt>
      <trkpt lat="44.00742" lon="6.84257">
        <ele>1592</ele>
        <time>2019-04-20T12:38:01Z</time>
      </trkpt>
      <trkpt lat="44.00742" lon="6.84258">
        <ele>1592</ele>
        <time>2019-04-20T12:38:01Z</time>
      </trkpt>
      <trkpt lat="44.00743" lon="6.84261">
        <ele>1592</ele>
        <time>2019-04-20T12:38:01Z</time>
      </trkpt>
      <trkpt lat="44.00744" lon="6.84266">
        <ele>1592</ele>
        <time>2019-04-20T12:38:17Z</time>
      </trkpt>
      <trkpt lat="44.0074" lon="6.84268">
        <ele>1592</ele>
        <time>2019-04-20T12:38:17Z</time>
      </trkpt>
      <trkpt lat="44.00735" lon="6.84269">
        <ele>1592</ele>
        <time>2019-04-20T12:38:17Z</time>
      </trkpt>
      <trkpt lat="44.00731" lon="6.84271">
        <ele>1592</ele>
        <time>2019-04-20T12:38:17Z</time>
      </trkpt>
      <trkpt lat="44.0073" lon="6.84275">
        <ele>1592</ele>
        <time>2019-04-20T12:38:33Z</time>
      </trkpt>
      <trkpt lat="44.00726" lon="6.8428">
        <ele>1592</ele>
        <time>2019-04-20T12:38:33Z</time>
      </trkpt>
      <trkpt lat="44.00721" lon="6.84284">
        <ele>1592</ele>
        <time>2019-04-20T12:38:33Z</time>
      </trkpt>
      <trkpt lat="44.00716" lon="6.84285">
        <ele>1592</ele>
        <time>2019-04-20T12:38:33Z</time>
      </trkpt>
      <trkpt lat="44.00713" lon="6.84289">
        <ele>1592</ele>
        <time>2019-04-20T12:38:49Z</time>
      </trkpt>
      <trkpt lat="44.00708" lon="6.8429">
        <ele>1578</ele>
        <time>2019-04-20T12:38:49Z</time>
      </trkpt>
      <trkpt lat="44.00703" lon="6.84291">
        <ele>1578</ele>
        <time>2019-04-20T12:38:49Z</time>
      </trkpt>
      <trkpt lat="44.00698" lon="6.84294">
        <ele>1580</ele>
        <time>2019-04-20T12:38:49Z</time>
      </trkpt>
      <trkpt lat="44.00694" lon="6.84295">
        <ele>1580</ele>
        <time>2019-04-20T12:39:05Z</time>
      </trkpt>
      <trkpt lat="44.00691" lon="6.84299">
        <ele>1580</ele>
        <time>2019-04-20T12:39:05Z</time>
      </trkpt>
      <trkpt lat="44.00688" lon="6.84304">
        <ele>1580</ele>
        <time>2019-04-20T12:39:05Z</time>
      </trkpt>
      <trkpt lat="44.00683" lon="6.8431">
        <ele>1580</ele>
        <time>2019-04-20T12:39:05Z</time>
      </trkpt>
      <trkpt lat="44.00679" lon="6.84315">
        <ele>1580</ele>
        <time>2019-04-20T12:39:21Z</time>
      </trkpt>
      <trkpt lat="44.00676" lon="6.8432">
        <ele>1580</ele>
        <time>2019-04-20T12:39:21Z</time>
      </trkpt>
      <trkpt lat="44.00674" lon="6.84326">
        <ele>1580</ele>
        <time>2019-04-20T12:39:21Z</time>
      </trkpt>
      <trkpt lat="44.00673" lon="6.84332">
        <ele>1580</ele>
        <time>2019-04-20T12:39:21Z</time>
      </trkpt>
      <trkpt lat="44.0067" lon="6.84338">
        <ele>1580</ele>
        <time>2019-04-20T12:39:37Z</time>
      </trkpt>
      <trkpt lat="44.00667" lon="6.84342">
        <ele>1580</ele>
        <time>2019-04-20T12:39:37Z</time>
      </trkpt>
      <trkpt lat="44.00665" lon="6.84345">
        <ele>1580</ele>
        <time>2019-04-20T12:39:37Z</time>
      </trkpt>
      <trkpt lat="44.00661" lon="6.84348">
        <ele>1580</ele>
        <time>2019-04-20T12:39:37Z</time>
      </trkpt>
      <trkpt lat="44.00658" lon="6.84352">
        <ele>1580</ele>
        <time>2019-04-20T12:39:53Z</time>
      </trkpt>
      <trkpt lat="44.00656" lon="6.84357">
        <ele>1580</ele>
        <time>2019-04-20T12:39:53Z</time>
      </trkpt>
      <trkpt lat="44.00655" lon="6.84363">
        <ele>1580</ele>
        <time>2019-04-20T12:39:53Z</time>
      </trkpt>
      <trkpt lat="44.00653" lon="6.84368">
        <ele>1580</ele>
        <time>2019-04-20T12:39:53Z</time>
      </trkpt>
      <trkpt lat="44.0065" lon="6.84371">
        <ele>1580</ele>
        <time>2019-04-20T12:40:09Z</time>
      </trkpt>
      <trkpt lat="44.00646" lon="6.84376">
        <ele>1568</ele>
        <time>2019-04-20T12:40:09Z</time>
      </trkpt>
      <trkpt lat="44.00644" lon="6.84382">
        <ele>1568</ele>
        <time>2019-04-20T12:40:09Z</time>
      </trkpt>
      <trkpt lat="44.00642" lon="6.84387">
        <ele>1568</ele>
        <time>2019-04-20T12:40:09Z</time>
      </trkpt>
      <trkpt lat="44.0064" lon="6.84392">
        <ele>1568</ele>
        <time>2019-04-20T12:40:25Z</time>
      </trkpt>
      <trkpt lat="44.00637" lon="6.84395">
        <ele>1568</ele>
        <time>2019-04-20T12:40:25Z</time>
      </trkpt>
      <trkpt lat="44.00634" lon="6.844">
        <ele>1568</ele>
        <time>2019-04-20T12:40:25Z</time>
      </trkpt>
      <trkpt lat="44.00629" lon="6.84406">
        <ele>1568</ele>
        <time>2019-04-20T12:40:25Z</time>
      </trkpt>
      <trkpt lat="44.00627" lon="6.84409">
        <ele>1568</ele>
        <time>2019-04-20T12:40:41Z</time>
      </trkpt>
      <trkpt lat="44.00623" lon="6.84414">
        <ele>1558</ele>
        <time>2019-04-20T12:40:41Z</time>
      </trkpt>
      <trkpt lat="44.00621" lon="6.84419">
        <ele>1558</ele>
        <time>2019-04-20T12:40:41Z</time>
      </trkpt>
      <trkpt lat="44.0062" lon="6.84426">
        <ele>1558</ele>
        <time>2019-04-20T12:40:41Z</time>
      </trkpt>
      <trkpt lat="44.00617" lon="6.84431">
        <ele>1558</ele>
        <time>2019-04-20T12:41:01Z</time>
      </trkpt>
      <trkpt lat="44.00614" lon="6.84434">
        <ele>1558</ele>
        <time>2019-04-20T12:41:01Z</time>
      </trkpt>
      <trkpt lat="44.00613" lon="6.84437">
        <ele>1558</ele>
        <time>2019-04-20T12:41:01Z</time>
      </trkpt>
      <trkpt lat="44.00611" lon="6.84441">
        <ele>1558</ele>
        <time>2019-04-20T12:41:01Z</time>
      </trkpt>
      <trkpt lat="44.00608" lon="6.84443">
        <ele>1558</ele>
        <time>2019-04-20T12:41:01Z</time>
      </trkpt>
      <trkpt lat="44.00607" lon="6.84448">
        <ele>1558</ele>
        <time>2019-04-20T12:41:17Z</time>
      </trkpt>
      <trkpt lat="44.00604" lon="6.84452">
        <ele>1558</ele>
        <time>2019-04-20T12:41:17Z</time>
      </trkpt>
      <trkpt lat="44.00601" lon="6.84456">
        <ele>1558</ele>
        <time>2019-04-20T12:41:17Z</time>
      </trkpt>
      <trkpt lat="44.00598" lon="6.8446">
        <ele>1545</ele>
        <time>2019-04-20T12:41:17Z</time>
      </trkpt>
      <trkpt lat="44.00595" lon="6.84463">
        <ele>1545</ele>
        <time>2019-04-20T12:41:33Z</time>
      </trkpt>
      <trkpt lat="44.00592" lon="6.84466">
        <ele>1545</ele>
        <time>2019-04-20T12:41:33Z</time>
      </trkpt>
      <trkpt lat="44.0059" lon="6.8447">
        <ele>1545</ele>
        <time>2019-04-20T12:41:33Z</time>
      </trkpt>
      <trkpt lat="44.00587" lon="6.84473">
        <ele>1545</ele>
        <time>2019-04-20T12:41:33Z</time>
      </trkpt>
      <trkpt lat="44.00586" lon="6.84477">
        <ele>1545</ele>
        <time>2019-04-20T12:41:49Z</time>
      </trkpt>
      <trkpt lat="44.00584" lon="6.84482">
        <ele>1545</ele>
        <time>2019-04-20T12:41:49Z</time>
      </trkpt>
      <trkpt lat="44.00583" lon="6.84487">
        <ele>1545</ele>
        <time>2019-04-20T12:41:49Z</time>
      </trkpt>
      <trkpt lat="44.0058" lon="6.84493">
        <ele>1545</ele>
        <time>2019-04-20T12:41:49Z</time>
      </trkpt>
      <trkpt lat="44.00579" lon="6.84498">
        <ele>1545</ele>
        <time>2019-04-20T12:42:05Z</time>
      </trkpt>
      <trkpt lat="44.00576" lon="6.84502">
        <ele>1545</ele>
        <time>2019-04-20T12:42:05Z</time>
      </trkpt>
      <trkpt lat="44.00575" lon="6.84506">
        <ele>1545</ele>
        <time>2019-04-20T12:42:05Z</time>
      </trkpt>
      <trkpt lat="44.00573" lon="6.84511">
        <ele>1545</ele>
        <time>2019-04-20T12:42:05Z</time>
      </trkpt>
      <trkpt lat="44.00569" lon="6.8451">
        <ele>1545</ele>
        <time>2019-04-20T12:42:21Z</time>
      </trkpt>
      <trkpt lat="44.00567" lon="6.84513">
        <ele>1545</ele>
        <time>2019-04-20T12:42:21Z</time>
      </trkpt>
      <trkpt lat="44.00564" lon="6.84516">
        <ele>1545</ele>
        <time>2019-04-20T12:42:21Z</time>
      </trkpt>
      <trkpt lat="44.00561" lon="6.84519">
        <ele>1545</ele>
        <time>2019-04-20T12:42:21Z</time>
      </trkpt>
      <trkpt lat="44.00558" lon="6.84523">
        <ele>1545</ele>
        <time>2019-04-20T12:42:37Z</time>
      </trkpt>
      <trkpt lat="44.00556" lon="6.84527">
        <ele>1545</ele>
        <time>2019-04-20T12:42:37Z</time>
      </trkpt>
      <trkpt lat="44.00553" lon="6.8453">
        <ele>1545</ele>
        <time>2019-04-20T12:42:37Z</time>
      </trkpt>
      <trkpt lat="44.0055" lon="6.84532">
        <ele>1545</ele>
        <time>2019-04-20T12:42:37Z</time>
      </trkpt>
      <trkpt lat="44.00548" lon="6.84535">
        <ele>1545</ele>
        <time>2019-04-20T12:42:53Z</time>
      </trkpt>
      <trkpt lat="44.00545" lon="6.84539">
        <ele>1545</ele>
        <time>2019-04-20T12:42:53Z</time>
      </trkpt>
      <trkpt lat="44.00542" lon="6.84544">
        <ele>1524</ele>
        <time>2019-04-20T12:42:53Z</time>
      </trkpt>
      <trkpt lat="44.00539" lon="6.84548">
        <ele>1518</ele>
        <time>2019-04-20T12:42:53Z</time>
      </trkpt>
      <trkpt lat="44.00536" lon="6.8455">
        <ele>1518</ele>
        <time>2019-04-20T12:43:09Z</time>
      </trkpt>
      <trkpt lat="44.00533" lon="6.84553">
        <ele>1518</ele>
        <time>2019-04-20T12:43:09Z</time>
      </trkpt>
      <trkpt lat="44.0053" lon="6.84556">
        <ele>1518</ele>
        <time>2019-04-20T12:43:09Z</time>
      </trkpt>
      <trkpt lat="44.00529" lon="6.8456">
        <ele>1518</ele>
        <time>2019-04-20T12:43:09Z</time>
      </trkpt>
      <trkpt lat="44.00527" lon="6.84564">
        <ele>1518</ele>
        <time>2019-04-20T12:43:25Z</time>
      </trkpt>
      <trkpt lat="44.00525" lon="6.84568">
        <ele>1518</ele>
        <time>2019-04-20T12:43:25Z</time>
      </trkpt>
      <trkpt lat="44.00524" lon="6.84573">
        <ele>1518</ele>
        <time>2019-04-20T12:43:25Z</time>
      </trkpt>
      <trkpt lat="44.00523" lon="6.84578">
        <ele>1518</ele>
        <time>2019-04-20T12:43:25Z</time>
      </trkpt>
      <trkpt lat="44.00522" lon="6.84584">
        <ele>1518</ele>
        <time>2019-04-20T12:43:41Z</time>
      </trkpt>
      <trkpt lat="44.00519" lon="6.84587">
        <ele>1518</ele>
        <time>2019-04-20T12:43:41Z</time>
      </trkpt>
      <trkpt lat="44.00517" lon="6.84591">
        <ele>1518</ele>
        <time>2019-04-20T12:43:41Z</time>
      </trkpt>
      <trkpt lat="44.00514" lon="6.84595">
        <ele>1518</ele>
        <time>2019-04-20T12:43:41Z</time>
      </trkpt>
      <trkpt lat="44.00508" lon="6.84608">
        <ele>1518</ele>
        <time>2019-04-20T12:44:37Z</time>
      </trkpt>
      <trkpt lat="44.00508" lon="6.84608">
        <ele>1518</ele>
        <time>2019-04-20T12:44:37Z</time>
      </trkpt>
      <trkpt lat="44.00508" lon="6.84608">
        <ele>1518</ele>
        <time>2019-04-20T12:44:37Z</time>
      </trkpt>
      <trkpt lat="44.00506" lon="6.8461">
        <ele>1518</ele>
        <time>2019-04-20T12:44:37Z</time>
      </trkpt>
      <trkpt lat="44.00505" lon="6.84615">
        <ele>1518</ele>
        <time>2019-04-20T12:44:37Z</time>
      </trkpt>
      <trkpt lat="44.00502" lon="6.84617">
        <ele>1518</ele>
        <time>2019-04-20T12:45:01Z</time>
      </trkpt>
      <trkpt lat="44.005" lon="6.84618">
        <ele>1518</ele>
        <time>2019-04-20T12:45:01Z</time>
      </trkpt>
      <trkpt lat="44.00499" lon="6.8462">
        <ele>1518</ele>
        <time>2019-04-20T12:45:01Z</time>
      </trkpt>
      <trkpt lat="44.00497" lon="6.84623">
        <ele>1518</ele>
        <time>2019-04-20T12:45:01Z</time>
      </trkpt>
      <trkpt lat="44.00494" lon="6.84624">
        <ele>1518</ele>
        <time>2019-04-20T12:45:01Z</time>
      </trkpt>
      <trkpt lat="44.00491" lon="6.84627">
        <ele>1494</ele>
        <time>2019-04-20T12:45:25Z</time>
      </trkpt>
      <trkpt lat="44.00489" lon="6.84628">
        <ele>1494</ele>
        <time>2019-04-20T12:45:25Z</time>
      </trkpt>
      <trkpt lat="44.00487" lon="6.84628">
        <ele>1494</ele>
        <time>2019-04-20T12:45:25Z</time>
      </trkpt>
      <trkpt lat="44.00485" lon="6.84629">
        <ele>1494</ele>
        <time>2019-04-20T12:45:25Z</time>
      </trkpt>
      <trkpt lat="44.00484" lon="6.84629">
        <ele>1494</ele>
        <time>2019-04-20T12:45:25Z</time>
      </trkpt>
      <trkpt lat="44.00482" lon="6.8463">
        <ele>1494</ele>
        <time>2019-04-20T12:45:45Z</time>
      </trkpt>
      <trkpt lat="44.00481" lon="6.84631">
        <ele>1494</ele>
        <time>2019-04-20T12:45:45Z</time>
      </trkpt>
      <trkpt lat="44.00479" lon="6.84633">
        <ele>1494</ele>
        <time>2019-04-20T12:45:45Z</time>
      </trkpt>
      <trkpt lat="44.00476" lon="6.84635">
        <ele>1494</ele>
        <time>2019-04-20T12:45:45Z</time>
      </trkpt>
      <trkpt lat="44.00472" lon="6.84636">
        <ele>1494</ele>
        <time>2019-04-20T12:45:45Z</time>
      </trkpt>
      <trkpt lat="44.00469" lon="6.84641">
        <ele>1494</ele>
        <time>2019-04-20T12:46:01Z</time>
      </trkpt>
      <trkpt lat="44.00467" lon="6.84646">
        <ele>1494</ele>
        <time>2019-04-20T12:46:01Z</time>
      </trkpt>
      <trkpt lat="44.00465" lon="6.8465">
        <ele>1494</ele>
        <time>2019-04-20T12:46:01Z</time>
      </trkpt>
      <trkpt lat="44.00464" lon="6.84654">
        <ele>1494</ele>
        <time>2019-04-20T12:46:01Z</time>
      </trkpt>
      <trkpt lat="44.00461" lon="6.84662">
        <ele>1494</ele>
        <time>2019-04-20T12:46:25Z</time>
      </trkpt>
      <trkpt lat="44.00459" lon="6.84662">
        <ele>1494</ele>
        <time>2019-04-20T12:46:25Z</time>
      </trkpt>
      <trkpt lat="44.00458" lon="6.84665">
        <ele>1487</ele>
        <time>2019-04-20T12:46:25Z</time>
      </trkpt>
      <trkpt lat="44.00455" lon="6.84666">
        <ele>1487</ele>
        <time>2019-04-20T12:46:25Z</time>
      </trkpt>
      <trkpt lat="44.00453" lon="6.8467">
        <ele>1487</ele>
        <time>2019-04-20T12:46:25Z</time>
      </trkpt>
      <trkpt lat="44.00451" lon="6.84678">
        <ele>1487</ele>
        <time>2019-04-20T12:46:41Z</time>
      </trkpt>
      <trkpt lat="44.00447" lon="6.84682">
        <ele>1487</ele>
        <time>2019-04-20T12:46:41Z</time>
      </trkpt>
      <trkpt lat="44.00445" lon="6.84685">
        <ele>1487</ele>
        <time>2019-04-20T12:46:41Z</time>
      </trkpt>
      <trkpt lat="44.00442" lon="6.84687">
        <ele>1487</ele>
        <time>2019-04-20T12:46:41Z</time>
      </trkpt>
      <trkpt lat="44.00438" lon="6.84689">
        <ele>1487</ele>
        <time>2019-04-20T12:46:57Z</time>
      </trkpt>
      <trkpt lat="44.00435" lon="6.84689">
        <ele>1487</ele>
        <time>2019-04-20T12:46:57Z</time>
      </trkpt>
      <trkpt lat="44.00432" lon="6.8469">
        <ele>1487</ele>
        <time>2019-04-20T12:46:57Z</time>
      </trkpt>
      <trkpt lat="44.00429" lon="6.84689">
        <ele>1487</ele>
        <time>2019-04-20T12:46:57Z</time>
      </trkpt>
      <trkpt lat="44.00427" lon="6.84692">
        <ele>1487</ele>
        <time>2019-04-20T12:47:13Z</time>
      </trkpt>
      <trkpt lat="44.00424" lon="6.84693">
        <ele>1487</ele>
        <time>2019-04-20T12:47:13Z</time>
      </trkpt>
      <trkpt lat="44.00421" lon="6.84694">
        <ele>1487</ele>
        <time>2019-04-20T12:47:13Z</time>
      </trkpt>
      <trkpt lat="44.00418" lon="6.84694">
        <ele>1487</ele>
        <time>2019-04-20T12:47:13Z</time>
      </trkpt>
      <trkpt lat="44.00412" lon="6.84697">
        <ele>1487</ele>
        <time>2019-04-20T12:47:37Z</time>
      </trkpt>
      <trkpt lat="44.00411" lon="6.84697">
        <ele>1487</ele>
        <time>2019-04-20T12:47:37Z</time>
      </trkpt>
      <trkpt lat="44.00409" lon="6.84699">
        <ele>1487</ele>
        <time>2019-04-20T12:47:37Z</time>
      </trkpt>
      <trkpt lat="44.00409" lon="6.84704">
        <ele>1487</ele>
        <time>2019-04-20T12:47:37Z</time>
      </trkpt>
      <trkpt lat="44.00407" lon="6.8471">
        <ele>1461</ele>
        <time>2019-04-20T12:47:37Z</time>
      </trkpt>
      <trkpt lat="44.00406" lon="6.84715">
        <ele>1461</ele>
        <time>2019-04-20T12:47:53Z</time>
      </trkpt>
      <trkpt lat="44.00405" lon="6.84721">
        <ele>1461</ele>
        <time>2019-04-20T12:47:53Z</time>
      </trkpt>
      <trkpt lat="44.00407" lon="6.84728">
        <ele>1461</ele>
        <time>2019-04-20T12:47:53Z</time>
      </trkpt>
      <trkpt lat="44.00407" lon="6.84732">
        <ele>1461</ele>
        <time>2019-04-20T12:47:53Z</time>
      </trkpt>
      <trkpt lat="44.00404" lon="6.84743">
        <ele>1461</ele>
        <time>2019-04-20T12:48:37Z</time>
      </trkpt>
      <trkpt lat="44.00402" lon="6.84742">
        <ele>1461</ele>
        <time>2019-04-20T12:48:37Z</time>
      </trkpt>
      <trkpt lat="44.004" lon="6.84742">
        <ele>1461</ele>
        <time>2019-04-20T12:48:37Z</time>
      </trkpt>
      <trkpt lat="44.00397" lon="6.8474">
        <ele>1461</ele>
        <time>2019-04-20T12:48:37Z</time>
      </trkpt>
      <trkpt lat="44.00394" lon="6.84738">
        <ele>1461</ele>
        <time>2019-04-20T12:48:37Z</time>
      </trkpt>
      <trkpt lat="44.0039" lon="6.8474">
        <ele>1461</ele>
        <time>2019-04-20T12:49:01Z</time>
      </trkpt>
      <trkpt lat="44.00388" lon="6.84741">
        <ele>1461</ele>
        <time>2019-04-20T12:49:01Z</time>
      </trkpt>
      <trkpt lat="44.00386" lon="6.84741">
        <ele>1461</ele>
        <time>2019-04-20T12:49:01Z</time>
      </trkpt>
      <trkpt lat="44.00383" lon="6.8474">
        <ele>1461</ele>
        <time>2019-04-20T12:49:01Z</time>
      </trkpt>
      <trkpt lat="44.0038" lon="6.84738">
        <ele>1461</ele>
        <time>2019-04-20T12:49:01Z</time>
      </trkpt>
      <trkpt lat="44.00377" lon="6.84736">
        <ele>1461</ele>
        <time>2019-04-20T12:49:21Z</time>
      </trkpt>
      <trkpt lat="44.00375" lon="6.84734">
        <ele>1461</ele>
        <time>2019-04-20T12:49:21Z</time>
      </trkpt>
      <trkpt lat="44.00372" lon="6.84735">
        <ele>1454</ele>
        <time>2019-04-20T12:49:21Z</time>
      </trkpt>
      <trkpt lat="44.00369" lon="6.84737">
        <ele>1454</ele>
        <time>2019-04-20T12:49:21Z</time>
      </trkpt>
      <trkpt lat="44.00364" lon="6.8474">
        <ele>1454</ele>
        <time>2019-04-20T12:49:21Z</time>
      </trkpt>
      <trkpt lat="44.0036" lon="6.8474">
        <ele>1454</ele>
        <time>2019-04-20T12:49:37Z</time>
      </trkpt>
      <trkpt lat="44.00357" lon="6.84741">
        <ele>1454</ele>
        <time>2019-04-20T12:49:37Z</time>
      </trkpt>
      <trkpt lat="44.00355" lon="6.84743">
        <ele>1454</ele>
        <time>2019-04-20T12:49:37Z</time>
      </trkpt>
      <trkpt lat="44.00352" lon="6.84745">
        <ele>1454</ele>
        <time>2019-04-20T12:49:37Z</time>
      </trkpt>
      <trkpt lat="44.00349" lon="6.84746">
        <ele>1454</ele>
        <time>2019-04-20T12:49:53Z</time>
      </trkpt>
      <trkpt lat="44.00346" lon="6.84745">
        <ele>1454</ele>
        <time>2019-04-20T12:49:53Z</time>
      </trkpt>
      <trkpt lat="44.00344" lon="6.84744">
        <ele>1454</ele>
        <time>2019-04-20T12:49:53Z</time>
      </trkpt>
      <trkpt lat="44.0034" lon="6.84744">
        <ele>1454</ele>
        <time>2019-04-20T12:49:53Z</time>
      </trkpt>
      <trkpt lat="44.00336" lon="6.84744">
        <ele>1454</ele>
        <time>2019-04-20T12:50:13Z</time>
      </trkpt>
      <trkpt lat="44.00334" lon="6.84744">
        <ele>1454</ele>
        <time>2019-04-20T12:50:13Z</time>
      </trkpt>
      <trkpt lat="44.00331" lon="6.84746">
        <ele>1454</ele>
        <time>2019-04-20T12:50:13Z</time>
      </trkpt>
      <trkpt lat="44.00328" lon="6.84748">
        <ele>1454</ele>
        <time>2019-04-20T12:50:13Z</time>
      </trkpt>
      <trkpt lat="44.00324" lon="6.84749">
        <ele>1454</ele>
        <time>2019-04-20T12:50:13Z</time>
      </trkpt>
      <trkpt lat="44.00319" lon="6.84748">
        <ele>1454</ele>
        <time>2019-04-20T12:50:37Z</time>
      </trkpt>
      <trkpt lat="44.00317" lon="6.84749">
        <ele>1454</ele>
        <time>2019-04-20T12:50:37Z</time>
      </trkpt>
      <trkpt lat="44.00315" lon="6.84746">
        <ele>1454</ele>
        <time>2019-04-20T12:50:37Z</time>
      </trkpt>
      <trkpt lat="44.00314" lon="6.84749">
        <ele>1454</ele>
        <time>2019-04-20T12:50:37Z</time>
      </trkpt>
      <trkpt lat="44.00312" lon="6.84752">
        <ele>1454</ele>
        <time>2019-04-20T12:50:37Z</time>
      </trkpt>
      <trkpt lat="44.00309" lon="6.84756">
        <ele>1454</ele>
        <time>2019-04-20T12:50:57Z</time>
      </trkpt>
      <trkpt lat="44.00305" lon="6.84756">
        <ele>1454</ele>
        <time>2019-04-20T12:50:57Z</time>
      </trkpt>
      <trkpt lat="44.00303" lon="6.84759">
        <ele>1454</ele>
        <time>2019-04-20T12:50:57Z</time>
      </trkpt>
      <trkpt lat="44.00301" lon="6.8476">
        <ele>1454</ele>
        <time>2019-04-20T12:50:57Z</time>
      </trkpt>
      <trkpt lat="44.00298" lon="6.84762">
        <ele>1454</ele>
        <time>2019-04-20T12:50:57Z</time>
      </trkpt>
      <trkpt lat="44.00294" lon="6.84764">
        <ele>1454</ele>
        <time>2019-04-20T12:51:17Z</time>
      </trkpt>
      <trkpt lat="44.00292" lon="6.84767">
        <ele>1454</ele>
        <time>2019-04-20T12:51:17Z</time>
      </trkpt>
      <trkpt lat="44.0029" lon="6.8477">
        <ele>1441</ele>
        <time>2019-04-20T12:51:17Z</time>
      </trkpt>
      <trkpt lat="44.00287" lon="6.8477">
        <ele>1441</ele>
        <time>2019-04-20T12:51:17Z</time>
      </trkpt>
      <trkpt lat="44.00286" lon="6.84768">
        <ele>1441</ele>
        <time>2019-04-20T12:51:17Z</time>
      </trkpt>
      <trkpt lat="44.0028" lon="6.84776">
        <ele>1441</ele>
        <time>2019-04-20T12:51:41Z</time>
      </trkpt>
      <trkpt lat="44.00279" lon="6.84777">
        <ele>1441</ele>
        <time>2019-04-20T12:51:41Z</time>
      </trkpt>
      <trkpt lat="44.00279" lon="6.84779">
        <ele>1441</ele>
        <time>2019-04-20T12:51:41Z</time>
      </trkpt>
      <trkpt lat="44.00278" lon="6.8478">
        <ele>1441</ele>
        <time>2019-04-20T12:51:41Z</time>
      </trkpt>
      <trkpt lat="44.00277" lon="6.84783">
        <ele>1441</ele>
        <time>2019-04-20T12:51:41Z</time>
      </trkpt>
      <trkpt lat="44.00276" lon="6.84788">
        <ele>1441</ele>
        <time>2019-04-20T12:52:01Z</time>
      </trkpt>
      <trkpt lat="44.00278" lon="6.84791">
        <ele>1441</ele>
        <time>2019-04-20T12:52:01Z</time>
      </trkpt>
      <trkpt lat="44.00276" lon="6.84794">
        <ele>1424</ele>
        <time>2019-04-20T12:52:01Z</time>
      </trkpt>
      <trkpt lat="44.00274" lon="6.84798">
        <ele>1424</ele>
        <time>2019-04-20T12:52:01Z</time>
      </trkpt>
      <trkpt lat="44.00272" lon="6.84802">
        <ele>1424</ele>
        <time>2019-04-20T12:52:01Z</time>
      </trkpt>
      <trkpt lat="44.00271" lon="6.84801">
        <ele>1424</ele>
        <time>2019-04-20T12:52:37Z</time>
      </trkpt>
      <trkpt lat="44.0027" lon="6.84802">
        <ele>1424</ele>
        <time>2019-04-20T12:52:37Z</time>
      </trkpt>
      <trkpt lat="44.00268" lon="6.84806">
        <ele>1424</ele>
        <time>2019-04-20T12:52:37Z</time>
      </trkpt>
      <trkpt lat="44.00264" lon="6.84808">
        <ele>1424</ele>
        <time>2019-04-20T12:52:37Z</time>
      </trkpt>
      <trkpt lat="44.00261" lon="6.8481">
        <ele>1424</ele>
        <time>2019-04-20T12:52:37Z</time>
      </trkpt>
      <trkpt lat="44.00257" lon="6.84813">
        <ele>1424</ele>
        <time>2019-04-20T12:52:53Z</time>
      </trkpt>
      <trkpt lat="44.00253" lon="6.84816">
        <ele>1424</ele>
        <time>2019-04-20T12:52:53Z</time>
      </trkpt>
      <trkpt lat="44.0025" lon="6.8482">
        <ele>1424</ele>
        <time>2019-04-20T12:52:53Z</time>
      </trkpt>
      <trkpt lat="44.00247" lon="6.84824">
        <ele>1424</ele>
        <time>2019-04-20T12:52:53Z</time>
      </trkpt>
      <trkpt lat="44.00244" lon="6.84827">
        <ele>1424</ele>
        <time>2019-04-20T12:53:09Z</time>
      </trkpt>
      <trkpt lat="44.00241" lon="6.84829">
        <ele>1424</ele>
        <time>2019-04-20T12:53:09Z</time>
      </trkpt>
      <trkpt lat="44.00238" lon="6.84831">
        <ele>1424</ele>
        <time>2019-04-20T12:53:09Z</time>
      </trkpt>
      <trkpt lat="44.00236" lon="6.84833">
        <ele>1424</ele>
        <time>2019-04-20T12:53:09Z</time>
      </trkpt>
      <trkpt lat="44.00235" lon="6.8484">
        <ele>1424</ele>
        <time>2019-04-20T12:53:25Z</time>
      </trkpt>
      <trkpt lat="44.00233" lon="6.84843">
        <ele>1424</ele>
        <time>2019-04-20T12:53:25Z</time>
      </trkpt>
      <trkpt lat="44.00231" lon="6.84847">
        <ele>1424</ele>
        <time>2019-04-20T12:53:25Z</time>
      </trkpt>
      <trkpt lat="44.00227" lon="6.84849">
        <ele>1424</ele>
        <time>2019-04-20T12:53:25Z</time>
      </trkpt>
      <trkpt lat="44.00223" lon="6.84854">
        <ele>1424</ele>
        <time>2019-04-20T12:53:41Z</time>
      </trkpt>
      <trkpt lat="44.00219" lon="6.84858">
        <ele>1424</ele>
        <time>2019-04-20T12:53:41Z</time>
      </trkpt>
      <trkpt lat="44.00215" lon="6.84862">
        <ele>1424</ele>
        <time>2019-04-20T12:53:41Z</time>
      </trkpt>
      <trkpt lat="44.00211" lon="6.84864">
        <ele>1424</ele>
        <time>2019-04-20T12:53:41Z</time>
      </trkpt>
      <trkpt lat="44.00207" lon="6.84868">
        <ele>1412</ele>
        <time>2019-04-20T12:53:57Z</time>
      </trkpt>
      <trkpt lat="44.00203" lon="6.84871">
        <ele>1412</ele>
        <time>2019-04-20T12:53:57Z</time>
      </trkpt>
      <trkpt lat="44.00199" lon="6.84874">
        <ele>1412</ele>
        <time>2019-04-20T12:53:57Z</time>
      </trkpt>
      <trkpt lat="44.00195" lon="6.84875">
        <ele>1387</ele>
        <time>2019-04-20T12:53:57Z</time>
      </trkpt>
      <trkpt lat="44.00191" lon="6.84877">
        <ele>1387</ele>
        <time>2019-04-20T12:54:13Z</time>
      </trkpt>
      <trkpt lat="44.00186" lon="6.84878">
        <ele>1387</ele>
        <time>2019-04-20T12:54:13Z</time>
      </trkpt>
      <trkpt lat="44.00183" lon="6.84878">
        <ele>1387</ele>
        <time>2019-04-20T12:54:13Z</time>
      </trkpt>
      <trkpt lat="44.00181" lon="6.8488">
        <ele>1387</ele>
        <time>2019-04-20T12:54:13Z</time>
      </trkpt>
      <trkpt lat="44.00176" lon="6.84881">
        <ele>1387</ele>
        <time>2019-04-20T12:54:33Z</time>
      </trkpt>
      <trkpt lat="44.00174" lon="6.84881">
        <ele>1387</ele>
        <time>2019-04-20T12:54:33Z</time>
      </trkpt>
      <trkpt lat="44.00171" lon="6.84881">
        <ele>1387</ele>
        <time>2019-04-20T12:54:33Z</time>
      </trkpt>
      <trkpt lat="44.00168" lon="6.84881">
        <ele>1387</ele>
        <time>2019-04-20T12:54:33Z</time>
      </trkpt>
      <trkpt lat="44.00164" lon="6.8488">
        <ele>1387</ele>
        <time>2019-04-20T12:54:33Z</time>
      </trkpt>
      <trkpt lat="44.0016" lon="6.84881">
        <ele>1387</ele>
        <time>2019-04-20T12:54:49Z</time>
      </trkpt>
      <trkpt lat="44.00157" lon="6.84881">
        <ele>1387</ele>
        <time>2019-04-20T12:54:49Z</time>
      </trkpt>
      <trkpt lat="44.00152" lon="6.84882">
        <ele>1387</ele>
        <time>2019-04-20T12:54:49Z</time>
      </trkpt>
      <trkpt lat="44.00148" lon="6.84881">
        <ele>1387</ele>
        <time>2019-04-20T12:54:49Z</time>
      </trkpt>
      <trkpt lat="44.00144" lon="6.84881">
        <ele>1387</ele>
        <time>2019-04-20T12:55:09Z</time>
      </trkpt>
      <trkpt lat="44.00139" lon="6.8488">
        <ele>1387</ele>
        <time>2019-04-20T12:55:09Z</time>
      </trkpt>
      <trkpt lat="44.00137" lon="6.84884">
        <ele>1387</ele>
        <time>2019-04-20T12:55:09Z</time>
      </trkpt>
      <trkpt lat="44.00137" lon="6.84885">
        <ele>1387</ele>
        <time>2019-04-20T12:55:09Z</time>
      </trkpt>
      <trkpt lat="44.00134" lon="6.84887">
        <ele>1387</ele>
        <time>2019-04-20T12:55:09Z</time>
      </trkpt>
      <trkpt lat="44.00132" lon="6.84887">
        <ele>1387</ele>
        <time>2019-04-20T12:55:25Z</time>
      </trkpt>
      <trkpt lat="44.00129" lon="6.84888">
        <ele>1387</ele>
        <time>2019-04-20T12:55:25Z</time>
      </trkpt>
      <trkpt lat="44.00126" lon="6.84889">
        <ele>1387</ele>
        <time>2019-04-20T12:55:25Z</time>
      </trkpt>
      <trkpt lat="44.00122" lon="6.8489">
        <ele>1375</ele>
        <time>2019-04-20T12:55:25Z</time>
      </trkpt>
      <trkpt lat="44.00119" lon="6.8489">
        <ele>1375</ele>
        <time>2019-04-20T12:55:41Z</time>
      </trkpt>
      <trkpt lat="44.00116" lon="6.84892">
        <ele>1375</ele>
        <time>2019-04-20T12:55:41Z</time>
      </trkpt>
      <trkpt lat="44.00113" lon="6.84896">
        <ele>1375</ele>
        <time>2019-04-20T12:55:41Z</time>
      </trkpt>
      <trkpt lat="44.00109" lon="6.84897">
        <ele>1375</ele>
        <time>2019-04-20T12:55:41Z</time>
      </trkpt>
      <trkpt lat="44.00105" lon="6.84898">
        <ele>1375</ele>
        <time>2019-04-20T12:55:57Z</time>
      </trkpt>
      <trkpt lat="44.00101" lon="6.84898">
        <ele>1375</ele>
        <time>2019-04-20T12:55:57Z</time>
      </trkpt>
      <trkpt lat="44.00098" lon="6.849">
        <ele>1375</ele>
        <time>2019-04-20T12:55:57Z</time>
      </trkpt>
      <trkpt lat="44.00094" lon="6.84901">
        <ele>1375</ele>
        <time>2019-04-20T12:55:57Z</time>
      </trkpt>
      <trkpt lat="44.0009" lon="6.84902">
        <ele>1375</ele>
        <time>2019-04-20T12:56:13Z</time>
      </trkpt>
      <trkpt lat="44.00086" lon="6.84903">
        <ele>1375</ele>
        <time>2019-04-20T12:56:13Z</time>
      </trkpt>
      <trkpt lat="44.00083" lon="6.84905">
        <ele>1375</ele>
        <time>2019-04-20T12:56:13Z</time>
      </trkpt>
      <trkpt lat="44.00079" lon="6.84905">
        <ele>1375</ele>
        <time>2019-04-20T12:56:13Z</time>
      </trkpt>
      <trkpt lat="44.00076" lon="6.84907">
        <ele>1375</ele>
        <time>2019-04-20T12:56:29Z</time>
      </trkpt>
      <trkpt lat="44.00072" lon="6.8491">
        <ele>1375</ele>
        <time>2019-04-20T12:56:29Z</time>
      </trkpt>
      <trkpt lat="44.0007" lon="6.84912">
        <ele>1375</ele>
        <time>2019-04-20T12:56:29Z</time>
      </trkpt>
      <trkpt lat="44.00067" lon="6.84912">
        <ele>1375</ele>
        <time>2019-04-20T12:56:29Z</time>
      </trkpt>
      <trkpt lat="44.00063" lon="6.84913">
        <ele>1375</ele>
        <time>2019-04-20T12:56:49Z</time>
      </trkpt>
      <trkpt lat="44.00062" lon="6.84916">
        <ele>1375</ele>
        <time>2019-04-20T12:56:49Z</time>
      </trkpt>
      <trkpt lat="44.00058" lon="6.84917">
        <ele>1375</ele>
        <time>2019-04-20T12:56:49Z</time>
      </trkpt>
      <trkpt lat="44.00057" lon="6.8492">
        <ele>1375</ele>
        <time>2019-04-20T12:56:49Z</time>
      </trkpt>
      <trkpt lat="44.00055" lon="6.84923">
        <ele>1375</ele>
        <time>2019-04-20T12:56:49Z</time>
      </trkpt>
      <trkpt lat="44.00053" lon="6.84924">
        <ele>1375</ele>
        <time>2019-04-20T12:57:05Z</time>
      </trkpt>
      <trkpt lat="44.00051" lon="6.84927">
        <ele>1375</ele>
        <time>2019-04-20T12:57:05Z</time>
      </trkpt>
      <trkpt lat="44.00048" lon="6.84928">
        <ele>1375</ele>
        <time>2019-04-20T12:57:05Z</time>
      </trkpt>
      <trkpt lat="44.00044" lon="6.8493">
        <ele>1375</ele>
        <time>2019-04-20T12:57:05Z</time>
      </trkpt>
      <trkpt lat="44.00041" lon="6.8493">
        <ele>1347</ele>
        <time>2019-04-20T12:57:25Z</time>
      </trkpt>
      <trkpt lat="44.0004" lon="6.84934">
        <ele>1347</ele>
        <time>2019-04-20T12:57:25Z</time>
      </trkpt>
      <trkpt lat="44.00039" lon="6.84936">
        <ele>1347</ele>
        <time>2019-04-20T12:57:25Z</time>
      </trkpt>
      <trkpt lat="44.00035" lon="6.84936">
        <ele>1347</ele>
        <time>2019-04-20T12:57:25Z</time>
      </trkpt>
      <trkpt lat="44.00033" lon="6.84938">
        <ele>1347</ele>
        <time>2019-04-20T12:57:25Z</time>
      </trkpt>
      <trkpt lat="44.0003" lon="6.84937">
        <ele>1347</ele>
        <time>2019-04-20T12:57:45Z</time>
      </trkpt>
      <trkpt lat="44.0003" lon="6.8494">
        <ele>1347</ele>
        <time>2019-04-20T12:57:45Z</time>
      </trkpt>
      <trkpt lat="44.00029" lon="6.84943">
        <ele>1347</ele>
        <time>2019-04-20T12:57:45Z</time>
      </trkpt>
      <trkpt lat="44.00027" lon="6.84945">
        <ele>1347</ele>
        <time>2019-04-20T12:57:45Z</time>
      </trkpt>
      <trkpt lat="44.00025" lon="6.84948">
        <ele>1347</ele>
        <time>2019-04-20T12:57:45Z</time>
      </trkpt>
      <trkpt lat="44.00024" lon="6.84951">
        <ele>1347</ele>
        <time>2019-04-20T12:58:05Z</time>
      </trkpt>
      <trkpt lat="44.00021" lon="6.84952">
        <ele>1347</ele>
        <time>2019-04-20T12:58:05Z</time>
      </trkpt>
      <trkpt lat="44.00019" lon="6.84954">
        <ele>1347</ele>
        <time>2019-04-20T12:58:05Z</time>
      </trkpt>
      <trkpt lat="44.00016" lon="6.84952">
        <ele>1347</ele>
        <time>2019-04-20T12:58:05Z</time>
      </trkpt>
      <trkpt lat="44.00015" lon="6.84951">
        <ele>1347</ele>
        <time>2019-04-20T12:58:05Z</time>
      </trkpt>
      <trkpt lat="44.00012" lon="6.8495">
        <ele>1347</ele>
        <time>2019-04-20T12:58:25Z</time>
      </trkpt>
      <trkpt lat="44.0001" lon="6.84948">
        <ele>1347</ele>
        <time>2019-04-20T12:58:25Z</time>
      </trkpt>
      <trkpt lat="44.00007" lon="6.84946">
        <ele>1347</ele>
        <time>2019-04-20T12:58:25Z</time>
      </trkpt>
      <trkpt lat="44.00007" lon="6.84942">
        <ele>1347</ele>
        <time>2019-04-20T12:58:25Z</time>
      </trkpt>
      <trkpt lat="44.00005" lon="6.84942">
        <ele>1347</ele>
        <time>2019-04-20T12:58:25Z</time>
      </trkpt>
      <trkpt lat="43.99999" lon="6.84947">
        <ele>1350</ele>
        <time>2019-04-20T12:58:53Z</time>
      </trkpt>
      <trkpt lat="43.99998" lon="6.84944">
        <ele>1350</ele>
        <time>2019-04-20T12:58:53Z</time>
      </trkpt>
      <trkpt lat="43.99997" lon="6.84944">
        <ele>1350</ele>
        <time>2019-04-20T12:58:53Z</time>
      </trkpt>
      <trkpt lat="43.99995" lon="6.84945">
        <ele>1350</ele>
        <time>2019-04-20T12:58:53Z</time>
      </trkpt>
      <trkpt lat="43.99992" lon="6.84948">
        <ele>1350</ele>
        <time>2019-04-20T12:58:53Z</time>
      </trkpt>
      <trkpt lat="43.99988" lon="6.84952">
        <ele>1350</ele>
        <time>2019-04-20T12:59:17Z</time>
      </trkpt>
      <trkpt lat="43.99987" lon="6.84953">
        <ele>1350</ele>
        <time>2019-04-20T12:59:17Z</time>
      </trkpt>
      <trkpt lat="43.99986" lon="6.84955">
        <ele>1350</ele>
        <time>2019-04-20T12:59:17Z</time>
      </trkpt>
      <trkpt lat="43.99984" lon="6.84959">
        <ele>1340</ele>
        <time>2019-04-20T12:59:17Z</time>
      </trkpt>
      <trkpt lat="43.99982" lon="6.84963">
        <ele>1340</ele>
        <time>2019-04-20T12:59:17Z</time>
      </trkpt>
      <trkpt lat="43.99978" lon="6.84967">
        <ele>1340</ele>
        <time>2019-04-20T12:59:33Z</time>
      </trkpt>
      <trkpt lat="43.99976" lon="6.84972">
        <ele>1340</ele>
        <time>2019-04-20T12:59:33Z</time>
      </trkpt>
      <trkpt lat="43.99974" lon="6.84976">
        <ele>1340</ele>
        <time>2019-04-20T12:59:33Z</time>
      </trkpt>
      <trkpt lat="43.99974" lon="6.84981">
        <ele>1340</ele>
        <time>2019-04-20T12:59:33Z</time>
      </trkpt>
      <trkpt lat="43.99973" lon="6.84985">
        <ele>1340</ele>
        <time>2019-04-20T12:59:49Z</time>
      </trkpt>
      <trkpt lat="43.99972" lon="6.8499">
        <ele>1340</ele>
        <time>2019-04-20T12:59:49Z</time>
      </trkpt>
      <trkpt lat="43.99971" lon="6.84995">
        <ele>1340</ele>
        <time>2019-04-20T12:59:49Z</time>
      </trkpt>
      <trkpt lat="43.9997" lon="6.84999">
        <ele>1340</ele>
        <time>2019-04-20T12:59:49Z</time>
      </trkpt>
      <trkpt lat="43.9997" lon="6.85004">
        <ele>1340</ele>
        <time>2019-04-20T13:00:09Z</time>
      </trkpt>
      <trkpt lat="43.99971" lon="6.85008">
        <ele>1340</ele>
        <time>2019-04-20T13:00:09Z</time>
      </trkpt>
      <trkpt lat="43.99968" lon="6.85009">
        <ele>1340</ele>
        <time>2019-04-20T13:00:09Z</time>
      </trkpt>
      <trkpt lat="43.99965" lon="6.85011">
        <ele>1340</ele>
        <time>2019-04-20T13:00:09Z</time>
      </trkpt>
      <trkpt lat="43.99965" lon="6.85014">
        <ele>1340</ele>
        <time>2019-04-20T13:00:09Z</time>
      </trkpt>
      <trkpt lat="43.99963" lon="6.85018">
        <ele>1340</ele>
        <time>2019-04-20T13:00:25Z</time>
      </trkpt>
      <trkpt lat="43.99961" lon="6.8502">
        <ele>1340</ele>
        <time>2019-04-20T13:00:25Z</time>
      </trkpt>
      <trkpt lat="43.99959" lon="6.85024">
        <ele>1340</ele>
        <time>2019-04-20T13:00:25Z</time>
      </trkpt>
      <trkpt lat="43.99958" lon="6.85028">
        <ele>1315</ele>
        <time>2019-04-20T13:00:25Z</time>
      </trkpt>
      <trkpt lat="43.99957" lon="6.85031">
        <ele>1315</ele>
        <time>2019-04-20T13:00:41Z</time>
      </trkpt>
      <trkpt lat="43.99956" lon="6.85035">
        <ele>1315</ele>
        <time>2019-04-20T13:00:41Z</time>
      </trkpt>
      <trkpt lat="43.99954" lon="6.85041">
        <ele>1315</ele>
        <time>2019-04-20T13:00:41Z</time>
      </trkpt>
      <trkpt lat="43.99951" lon="6.85044">
        <ele>1310</ele>
        <time>2019-04-20T13:00:41Z</time>
      </trkpt>
      <trkpt lat="43.99949" lon="6.85049">
        <ele>1310</ele>
        <time>2019-04-20T13:00:57Z</time>
      </trkpt>
      <trkpt lat="43.99947" lon="6.85053">
        <ele>1310</ele>
        <time>2019-04-20T13:00:57Z</time>
      </trkpt>
      <trkpt lat="43.99943" lon="6.85056">
        <ele>1310</ele>
        <time>2019-04-20T13:00:57Z</time>
      </trkpt>
      <trkpt lat="43.99941" lon="6.8506">
        <ele>1310</ele>
        <time>2019-04-20T13:00:57Z</time>
      </trkpt>
      <trkpt lat="43.9994" lon="6.85064">
        <ele>1310</ele>
        <time>2019-04-20T13:01:17Z</time>
      </trkpt>
      <trkpt lat="43.99938" lon="6.85066">
        <ele>1310</ele>
        <time>2019-04-20T13:01:17Z</time>
      </trkpt>
      <trkpt lat="43.99935" lon="6.85067">
        <ele>1310</ele>
        <time>2019-04-20T13:01:17Z</time>
      </trkpt>
      <trkpt lat="43.99934" lon="6.85068">
        <ele>1310</ele>
        <time>2019-04-20T13:01:17Z</time>
      </trkpt>
      <trkpt lat="43.99932" lon="6.85072">
        <ele>1310</ele>
        <time>2019-04-20T13:01:17Z</time>
      </trkpt>
      <trkpt lat="43.99927" lon="6.85079">
        <ele>1310</ele>
        <time>2019-04-20T13:01:41Z</time>
      </trkpt>
      <trkpt lat="43.99925" lon="6.85076">
        <ele>1310</ele>
        <time>2019-04-20T13:01:41Z</time>
      </trkpt>
      <trkpt lat="43.99923" lon="6.85075">
        <ele>1310</ele>
        <time>2019-04-20T13:01:41Z</time>
      </trkpt>
      <trkpt lat="43.99922" lon="6.85076">
        <ele>1310</ele>
        <time>2019-04-20T13:01:41Z</time>
      </trkpt>
      <trkpt lat="43.99921" lon="6.85081">
        <ele>1310</ele>
        <time>2019-04-20T13:01:41Z</time>
      </trkpt>
      <trkpt lat="43.9992" lon="6.85087">
        <ele>1310</ele>
        <time>2019-04-20T13:01:57Z</time>
      </trkpt>
      <trkpt lat="43.99919" lon="6.85091">
        <ele>1310</ele>
        <time>2019-04-20T13:01:57Z</time>
      </trkpt>
      <trkpt lat="43.99918" lon="6.85096">
        <ele>1310</ele>
        <time>2019-04-20T13:01:57Z</time>
      </trkpt>
      <trkpt lat="43.99916" lon="6.85099">
        <ele>1310</ele>
        <time>2019-04-20T13:01:57Z</time>
      </trkpt>
      <trkpt lat="43.99914" lon="6.85103">
        <ele>1310</ele>
        <time>2019-04-20T13:02:17Z</time>
      </trkpt>
      <trkpt lat="43.99915" lon="6.85107">
        <ele>1310</ele>
        <time>2019-04-20T13:02:17Z</time>
      </trkpt>
      <trkpt lat="43.99915" lon="6.8511">
        <ele>1310</ele>
        <time>2019-04-20T13:02:17Z</time>
      </trkpt>
      <trkpt lat="43.99914" lon="6.85115">
        <ele>1310</ele>
        <time>2019-04-20T13:02:17Z</time>
      </trkpt>
      <trkpt lat="43.99909" lon="6.85116">
        <ele>1310</ele>
        <time>2019-04-20T13:02:17Z</time>
      </trkpt>
      <trkpt lat="43.99907" lon="6.85121">
        <ele>1310</ele>
        <time>2019-04-20T13:02:33Z</time>
      </trkpt>
      <trkpt lat="43.99905" lon="6.85124">
        <ele>1310</ele>
        <time>2019-04-20T13:02:33Z</time>
      </trkpt>
      <trkpt lat="43.99903" lon="6.85127">
        <ele>1290</ele>
        <time>2019-04-20T13:02:33Z</time>
      </trkpt>
      <trkpt lat="43.99901" lon="6.85132">
        <ele>1290</ele>
        <time>2019-04-20T13:02:33Z</time>
      </trkpt>
      <trkpt lat="43.99899" lon="6.85135">
        <ele>1290</ele>
        <time>2019-04-20T13:02:53Z</time>
      </trkpt>
      <trkpt lat="43.99897" lon="6.85137">
        <ele>1290</ele>
        <time>2019-04-20T13:02:53Z</time>
      </trkpt>
      <trkpt lat="43.99896" lon="6.85142">
        <ele>1290</ele>
        <time>2019-04-20T13:02:53Z</time>
      </trkpt>
      <trkpt lat="43.99895" lon="6.85145">
        <ele>1290</ele>
        <time>2019-04-20T13:02:53Z</time>
      </trkpt>
      <trkpt lat="43.99893" lon="6.85146">
        <ele>1290</ele>
        <time>2019-04-20T13:02:53Z</time>
      </trkpt>
      <trkpt lat="43.9989" lon="6.8515">
        <ele>1290</ele>
        <time>2019-04-20T13:03:13Z</time>
      </trkpt>
      <trkpt lat="43.99888" lon="6.85152">
        <ele>1290</ele>
        <time>2019-04-20T13:03:13Z</time>
      </trkpt>
      <trkpt lat="43.99886" lon="6.85155">
        <ele>1290</ele>
        <time>2019-04-20T13:03:13Z</time>
      </trkpt>
      <trkpt lat="43.99884" lon="6.85157">
        <ele>1290</ele>
        <time>2019-04-20T13:03:13Z</time>
      </trkpt>
      <trkpt lat="43.99883" lon="6.85161">
        <ele>1290</ele>
        <time>2019-04-20T13:03:13Z</time>
      </trkpt>
      <trkpt lat="43.99881" lon="6.85165">
        <ele>1290</ele>
        <time>2019-04-20T13:03:33Z</time>
      </trkpt>
      <trkpt lat="43.99879" lon="6.85168">
        <ele>1290</ele>
        <time>2019-04-20T13:03:33Z</time>
      </trkpt>
      <trkpt lat="43.99876" lon="6.8517">
        <ele>1290</ele>
        <time>2019-04-20T13:03:33Z</time>
      </trkpt>
      <trkpt lat="43.99874" lon="6.85173">
        <ele>1277</ele>
        <time>2019-04-20T13:03:33Z</time>
      </trkpt>
      <trkpt lat="43.99872" lon="6.85175">
        <ele>1277</ele>
        <time>2019-04-20T13:03:33Z</time>
      </trkpt>
      <trkpt lat="43.9987" lon="6.85179">
        <ele>1277</ele>
        <time>2019-04-20T13:03:53Z</time>
      </trkpt>
      <trkpt lat="43.9987" lon="6.85182">
        <ele>1277</ele>
        <time>2019-04-20T13:03:53Z</time>
      </trkpt>
      <trkpt lat="43.99868" lon="6.85186">
        <ele>1277</ele>
        <time>2019-04-20T13:03:53Z</time>
      </trkpt>
      <trkpt lat="43.99865" lon="6.85188">
        <ele>1277</ele>
        <time>2019-04-20T13:03:53Z</time>
      </trkpt>
      <trkpt lat="43.99862" lon="6.85191">
        <ele>1277</ele>
        <time>2019-04-20T13:03:53Z</time>
      </trkpt>
      <trkpt lat="43.9986" lon="6.85194">
        <ele>1277</ele>
        <time>2019-04-20T13:04:09Z</time>
      </trkpt>
      <trkpt lat="43.99858" lon="6.85198">
        <ele>1277</ele>
        <time>2019-04-20T13:04:09Z</time>
      </trkpt>
      <trkpt lat="43.99855" lon="6.85202">
        <ele>1277</ele>
        <time>2019-04-20T13:04:09Z</time>
      </trkpt>
      <trkpt lat="43.99853" lon="6.85206">
        <ele>1277</ele>
        <time>2019-04-20T13:04:09Z</time>
      </trkpt>
      <trkpt lat="43.99852" lon="6.85209">
        <ele>1273</ele>
        <time>2019-04-20T13:04:37Z</time>
      </trkpt>
      <trkpt lat="43.99851" lon="6.85214">
        <ele>1273</ele>
        <time>2019-04-20T13:04:37Z</time>
      </trkpt>
      <trkpt lat="43.99849" lon="6.85218">
        <ele>1273</ele>
        <time>2019-04-20T13:04:37Z</time>
      </trkpt>
      <trkpt lat="43.99848" lon="6.85223">
        <ele>1273</ele>
        <time>2019-04-20T13:04:37Z</time>
      </trkpt>
      <trkpt lat="43.99848" lon="6.85227">
        <ele>1273</ele>
        <time>2019-04-20T13:04:37Z</time>
      </trkpt>
      <trkpt lat="43.99848" lon="6.85231">
        <ele>1273</ele>
        <time>2019-04-20T13:04:53Z</time>
      </trkpt>
      <trkpt lat="43.99846" lon="6.85235">
        <ele>1273</ele>
        <time>2019-04-20T13:04:53Z</time>
      </trkpt>
      <trkpt lat="43.99844" lon="6.85239">
        <ele>1273</ele>
        <time>2019-04-20T13:04:53Z</time>
      </trkpt>
      <trkpt lat="43.99843" lon="6.85243">
        <ele>1273</ele>
        <time>2019-04-20T13:04:53Z</time>
      </trkpt>
      <trkpt lat="43.99841" lon="6.85249">
        <ele>1273</ele>
        <time>2019-04-20T13:05:09Z</time>
      </trkpt>
      <trkpt lat="43.9984" lon="6.85253">
        <ele>1273</ele>
        <time>2019-04-20T13:05:09Z</time>
      </trkpt>
      <trkpt lat="43.99841" lon="6.85257">
        <ele>1273</ele>
        <time>2019-04-20T13:05:09Z</time>
      </trkpt>
      <trkpt lat="43.9984" lon="6.85263">
        <ele>1273</ele>
        <time>2019-04-20T13:05:09Z</time>
      </trkpt>
      <trkpt lat="43.99837" lon="6.85269">
        <ele>1273</ele>
        <time>2019-04-20T13:05:25Z</time>
      </trkpt>
      <trkpt lat="43.99835" lon="6.85274">
        <ele>1273</ele>
        <time>2019-04-20T13:05:25Z</time>
      </trkpt>
      <trkpt lat="43.99834" lon="6.85279">
        <ele>1273</ele>
        <time>2019-04-20T13:05:25Z</time>
      </trkpt>
      <trkpt lat="43.99832" lon="6.85284">
        <ele>1273</ele>
        <time>2019-04-20T13:05:25Z</time>
      </trkpt>
      <trkpt lat="43.99829" lon="6.85287">
        <ele>1273</ele>
        <time>2019-04-20T13:05:41Z</time>
      </trkpt>
      <trkpt lat="43.99827" lon="6.85292">
        <ele>1256</ele>
        <time>2019-04-20T13:05:41Z</time>
      </trkpt>
      <trkpt lat="43.99825" lon="6.85296">
        <ele>1256</ele>
        <time>2019-04-20T13:05:41Z</time>
      </trkpt>
      <trkpt lat="43.99823" lon="6.853">
        <ele>1256</ele>
        <time>2019-04-20T13:05:41Z</time>
      </trkpt>
      <trkpt lat="43.99819" lon="6.85305">
        <ele>1256</ele>
        <time>2019-04-20T13:05:57Z</time>
      </trkpt>
      <trkpt lat="43.99814" lon="6.85308">
        <ele>1256</ele>
        <time>2019-04-20T13:05:57Z</time>
      </trkpt>
      <trkpt lat="43.99811" lon="6.85311">
        <ele>1256</ele>
        <time>2019-04-20T13:05:57Z</time>
      </trkpt>
      <trkpt lat="43.99808" lon="6.85314">
        <ele>1256</ele>
        <time>2019-04-20T13:05:57Z</time>
      </trkpt>
      <trkpt lat="43.99807" lon="6.85317">
        <ele>1256</ele>
        <time>2019-04-20T13:06:13Z</time>
      </trkpt>
      <trkpt lat="43.99805" lon="6.8532">
        <ele>1256</ele>
        <time>2019-04-20T13:06:13Z</time>
      </trkpt>
      <trkpt lat="43.99802" lon="6.85324">
        <ele>1256</ele>
        <time>2019-04-20T13:06:13Z</time>
      </trkpt>
      <trkpt lat="43.998" lon="6.85329">
        <ele>1256</ele>
        <time>2019-04-20T13:06:13Z</time>
      </trkpt>
      <trkpt lat="43.99798" lon="6.85333">
        <ele>1256</ele>
        <time>2019-04-20T13:06:33Z</time>
      </trkpt>
      <trkpt lat="43.99798" lon="6.85337">
        <ele>1256</ele>
        <time>2019-04-20T13:06:33Z</time>
      </trkpt>
      <trkpt lat="43.99797" lon="6.8534">
        <ele>1256</ele>
        <time>2019-04-20T13:06:33Z</time>
      </trkpt>
      <trkpt lat="43.99794" lon="6.85344">
        <ele>1256</ele>
        <time>2019-04-20T13:06:33Z</time>
      </trkpt>
      <trkpt lat="43.99792" lon="6.85349">
        <ele>1256</ele>
        <time>2019-04-20T13:06:33Z</time>
      </trkpt>
      <trkpt lat="43.99789" lon="6.85351">
        <ele>1243</ele>
        <time>2019-04-20T13:06:53Z</time>
      </trkpt>
      <trkpt lat="43.9979" lon="6.85356">
        <ele>1243</ele>
        <time>2019-04-20T13:06:53Z</time>
      </trkpt>
      <trkpt lat="43.99789" lon="6.85359">
        <ele>1243</ele>
        <time>2019-04-20T13:06:53Z</time>
      </trkpt>
      <trkpt lat="43.99788" lon="6.85362">
        <ele>1243</ele>
        <time>2019-04-20T13:06:53Z</time>
      </trkpt>
      <trkpt lat="43.99785" lon="6.85366">
        <ele>1243</ele>
        <time>2019-04-20T13:06:53Z</time>
      </trkpt>
      <trkpt lat="43.99784" lon="6.8537">
        <ele>1243</ele>
        <time>2019-04-20T13:07:09Z</time>
      </trkpt>
      <trkpt lat="43.99782" lon="6.85375">
        <ele>1243</ele>
        <time>2019-04-20T13:07:09Z</time>
      </trkpt>
      <trkpt lat="43.99779" lon="6.85379">
        <ele>1240</ele>
        <time>2019-04-20T13:07:09Z</time>
      </trkpt>
      <trkpt lat="43.99777" lon="6.85384">
        <ele>1240</ele>
        <time>2019-04-20T13:07:09Z</time>
      </trkpt>
      <trkpt lat="43.99775" lon="6.85388">
        <ele>1240</ele>
        <time>2019-04-20T13:07:29Z</time>
      </trkpt>
      <trkpt lat="43.99775" lon="6.85393">
        <ele>1240</ele>
        <time>2019-04-20T13:07:29Z</time>
      </trkpt>
      <trkpt lat="43.99774" lon="6.85396">
        <ele>1240</ele>
        <time>2019-04-20T13:07:29Z</time>
      </trkpt>
      <trkpt lat="43.99775" lon="6.85399">
        <ele>1240</ele>
        <time>2019-04-20T13:07:29Z</time>
      </trkpt>
      <trkpt lat="43.99775" lon="6.85403">
        <ele>1240</ele>
        <time>2019-04-20T13:07:29Z</time>
      </trkpt>
      <trkpt lat="43.99774" lon="6.85407">
        <ele>1240</ele>
        <time>2019-04-20T13:07:49Z</time>
      </trkpt>
      <trkpt lat="43.99773" lon="6.8541">
        <ele>1240</ele>
        <time>2019-04-20T13:07:49Z</time>
      </trkpt>
      <trkpt lat="43.9977" lon="6.85412">
        <ele>1240</ele>
        <time>2019-04-20T13:07:49Z</time>
      </trkpt>
      <trkpt lat="43.99768" lon="6.85415">
        <ele>1240</ele>
        <time>2019-04-20T13:07:49Z</time>
      </trkpt>
      <trkpt lat="43.99768" lon="6.85418">
        <ele>1240</ele>
        <time>2019-04-20T13:07:49Z</time>
      </trkpt>
      <trkpt lat="43.99767" lon="6.85421">
        <ele>1240</ele>
        <time>2019-04-20T13:08:09Z</time>
      </trkpt>
      <trkpt lat="43.99766" lon="6.85424">
        <ele>1240</ele>
        <time>2019-04-20T13:08:09Z</time>
      </trkpt>
      <trkpt lat="43.99766" lon="6.85427">
        <ele>1240</ele>
        <time>2019-04-20T13:08:09Z</time>
      </trkpt>
      <trkpt lat="43.99765" lon="6.85431">
        <ele>1240</ele>
        <time>2019-04-20T13:08:09Z</time>
      </trkpt>
      <trkpt lat="43.99764" lon="6.85435">
        <ele>1240</ele>
        <time>2019-04-20T13:08:09Z</time>
      </trkpt>
      <trkpt lat="43.99762" lon="6.8544">
        <ele>1240</ele>
        <time>2019-04-20T13:08:25Z</time>
      </trkpt>
      <trkpt lat="43.9976" lon="6.85446">
        <ele>1240</ele>
        <time>2019-04-20T13:08:25Z</time>
      </trkpt>
      <trkpt lat="43.99758" lon="6.85449">
        <ele>1240</ele>
        <time>2019-04-20T13:08:25Z</time>
      </trkpt>
      <trkpt lat="43.99757" lon="6.85452">
        <ele>1240</ele>
        <time>2019-04-20T13:08:25Z</time>
      </trkpt>
      <trkpt lat="43.99754" lon="6.85454">
        <ele>1240</ele>
        <time>2019-04-20T13:08:45Z</time>
      </trkpt>
      <trkpt lat="43.99753" lon="6.85455">
        <ele>1240</ele>
        <time>2019-04-20T13:08:45Z</time>
      </trkpt>
      <trkpt lat="43.99753" lon="6.85457">
        <ele>1240</ele>
        <time>2019-04-20T13:08:45Z</time>
      </trkpt>
      <trkpt lat="43.99751" lon="6.8546">
        <ele>1224</ele>
        <time>2019-04-20T13:08:45Z</time>
      </trkpt>
      <trkpt lat="43.99749" lon="6.85465">
        <ele>1224</ele>
        <time>2019-04-20T13:08:45Z</time>
      </trkpt>
      <trkpt lat="43.99747" lon="6.85468">
        <ele>1224</ele>
        <time>2019-04-20T13:09:01Z</time>
      </trkpt>
      <trkpt lat="43.99746" lon="6.85472">
        <ele>1224</ele>
        <time>2019-04-20T13:09:01Z</time>
      </trkpt>
      <trkpt lat="43.99745" lon="6.85476">
        <ele>1224</ele>
        <time>2019-04-20T13:09:01Z</time>
      </trkpt>
      <trkpt lat="43.99742" lon="6.8548">
        <ele>1224</ele>
        <time>2019-04-20T13:09:01Z</time>
      </trkpt>
      <trkpt lat="43.9974" lon="6.85483">
        <ele>1224</ele>
        <time>2019-04-20T13:09:21Z</time>
      </trkpt>
      <trkpt lat="43.99739" lon="6.85486">
        <ele>1224</ele>
        <time>2019-04-20T13:09:21Z</time>
      </trkpt>
      <trkpt lat="43.99738" lon="6.85489">
        <ele>1224</ele>
        <time>2019-04-20T13:09:21Z</time>
      </trkpt>
      <trkpt lat="43.99737" lon="6.8549">
        <ele>1224</ele>
        <time>2019-04-20T13:09:21Z</time>
      </trkpt>
      <trkpt lat="43.99735" lon="6.85495">
        <ele>1224</ele>
        <time>2019-04-20T13:09:21Z</time>
      </trkpt>
      <trkpt lat="43.99736" lon="6.85498">
        <ele>1224</ele>
        <time>2019-04-20T13:09:41Z</time>
      </trkpt>
      <trkpt lat="43.99735" lon="6.85501">
        <ele>1224</ele>
        <time>2019-04-20T13:09:41Z</time>
      </trkpt>
      <trkpt lat="43.99735" lon="6.85504">
        <ele>1224</ele>
        <time>2019-04-20T13:09:41Z</time>
      </trkpt>
      <trkpt lat="43.99733" lon="6.85506">
        <ele>1224</ele>
        <time>2019-04-20T13:09:41Z</time>
      </trkpt>
      <trkpt lat="43.99731" lon="6.85509">
        <ele>1224</ele>
        <time>2019-04-20T13:09:41Z</time>
      </trkpt>
      <trkpt lat="43.99729" lon="6.85514">
        <ele>1224</ele>
        <time>2019-04-20T13:10:05Z</time>
      </trkpt>
      <trkpt lat="43.99726" lon="6.85513">
        <ele>1224</ele>
        <time>2019-04-20T13:10:05Z</time>
      </trkpt>
      <trkpt lat="43.99724" lon="6.85513">
        <ele>1224</ele>
        <time>2019-04-20T13:10:05Z</time>
      </trkpt>
      <trkpt lat="43.99723" lon="6.85517">
        <ele>1224</ele>
        <time>2019-04-20T13:10:05Z</time>
      </trkpt>
      <trkpt lat="43.99723" lon="6.85521">
        <ele>1224</ele>
        <time>2019-04-20T13:10:05Z</time>
      </trkpt>
      <trkpt lat="43.99723" lon="6.85524">
        <ele>1224</ele>
        <time>2019-04-20T13:10:25Z</time>
      </trkpt>
      <trkpt lat="43.99722" lon="6.85526">
        <ele>1224</ele>
        <time>2019-04-20T13:10:25Z</time>
      </trkpt>
      <trkpt lat="43.9972" lon="6.85527">
        <ele>1224</ele>
        <time>2019-04-20T13:10:25Z</time>
      </trkpt>
      <trkpt lat="43.99718" lon="6.85529">
        <ele>1224</ele>
        <time>2019-04-20T13:10:25Z</time>
      </trkpt>
      <trkpt lat="43.99714" lon="6.8553">
        <ele>1224</ele>
        <time>2019-04-20T13:10:25Z</time>
      </trkpt>
      <trkpt lat="43.99709" lon="6.85534">
        <ele>1224</ele>
        <time>2019-04-20T13:10:57Z</time>
      </trkpt>
      <trkpt lat="43.99707" lon="6.85537">
        <ele>1204</ele>
        <time>2019-04-20T13:10:57Z</time>
      </trkpt>
      <trkpt lat="43.99705" lon="6.8554">
        <ele>1204</ele>
        <time>2019-04-20T13:10:57Z</time>
      </trkpt>
      <trkpt lat="43.99704" lon="6.85543">
        <ele>1200</ele>
        <time>2019-04-20T13:10:57Z</time>
      </trkpt>
      <trkpt lat="43.99704" lon="6.85547">
        <ele>1200</ele>
        <time>2019-04-20T13:10:57Z</time>
      </trkpt>
      <trkpt lat="43.99704" lon="6.85549">
        <ele>1200</ele>
        <time>2019-04-20T13:11:17Z</time>
      </trkpt>
      <trkpt lat="43.99704" lon="6.85551">
        <ele>1200</ele>
        <time>2019-04-20T13:11:17Z</time>
      </trkpt>
      <trkpt lat="43.99701" lon="6.85552">
        <ele>1200</ele>
        <time>2019-04-20T13:11:17Z</time>
      </trkpt>
      <trkpt lat="43.99699" lon="6.85554">
        <ele>1200</ele>
        <time>2019-04-20T13:11:17Z</time>
      </trkpt>
      <trkpt lat="43.99696" lon="6.85557">
        <ele>1200</ele>
        <time>2019-04-20T13:11:17Z</time>
      </trkpt>
      <trkpt lat="43.99693" lon="6.85563">
        <ele>1200</ele>
        <time>2019-04-20T13:11:41Z</time>
      </trkpt>
      <trkpt lat="43.99692" lon="6.85565">
        <ele>1200</ele>
        <time>2019-04-20T13:11:41Z</time>
      </trkpt>
      <trkpt lat="43.99693" lon="6.85569">
        <ele>1200</ele>
        <time>2019-04-20T13:11:41Z</time>
      </trkpt>
      <trkpt lat="43.99693" lon="6.8557">
        <ele>1200</ele>
        <time>2019-04-20T13:11:41Z</time>
      </trkpt>
      <trkpt lat="43.9969" lon="6.85573">
        <ele>1200</ele>
        <time>2019-04-20T13:11:41Z</time>
      </trkpt>
      <trkpt lat="43.99688" lon="6.85576">
        <ele>1200</ele>
        <time>2019-04-20T13:11:57Z</time>
      </trkpt>
      <trkpt lat="43.99685" lon="6.85582">
        <ele>1200</ele>
        <time>2019-04-20T13:11:57Z</time>
      </trkpt>
      <trkpt lat="43.99683" lon="6.85585">
        <ele>1200</ele>
        <time>2019-04-20T13:11:57Z</time>
      </trkpt>
      <trkpt lat="43.99681" lon="6.85586">
        <ele>1200</ele>
        <time>2019-04-20T13:11:57Z</time>
      </trkpt>
      <trkpt lat="43.99679" lon="6.85591">
        <ele>1200</ele>
        <time>2019-04-20T13:12:21Z</time>
      </trkpt>
      <trkpt lat="43.99677" lon="6.85593">
        <ele>1200</ele>
        <time>2019-04-20T13:12:21Z</time>
      </trkpt>
      <trkpt lat="43.99676" lon="6.85598">
        <ele>1200</ele>
        <time>2019-04-20T13:12:21Z</time>
      </trkpt>
      <trkpt lat="43.99674" lon="6.85599">
        <ele>1200</ele>
        <time>2019-04-20T13:12:21Z</time>
      </trkpt>
      <trkpt lat="43.99672" lon="6.856">
        <ele>1200</ele>
        <time>2019-04-20T13:12:21Z</time>
      </trkpt>
      <trkpt lat="43.99671" lon="6.85597">
        <ele>1200</ele>
        <time>2019-04-20T13:12:41Z</time>
      </trkpt>
      <trkpt lat="43.9967" lon="6.85599">
        <ele>1200</ele>
        <time>2019-04-20T13:12:41Z</time>
      </trkpt>
      <trkpt lat="43.99669" lon="6.85602">
        <ele>1200</ele>
        <time>2019-04-20T13:12:41Z</time>
      </trkpt>
      <trkpt lat="43.99669" lon="6.85605">
        <ele>1200</ele>
        <time>2019-04-20T13:12:41Z</time>
      </trkpt>
      <trkpt lat="43.99668" lon="6.85609">
        <ele>1200</ele>
        <time>2019-04-20T13:12:41Z</time>
      </trkpt>
      <trkpt lat="43.99668" lon="6.85618">
        <ele>1200</ele>
        <time>2019-04-20T13:13:17Z</time>
      </trkpt>
      <trkpt lat="43.99667" lon="6.8562">
        <ele>1200</ele>
        <time>2019-04-20T13:13:17Z</time>
      </trkpt>
      <trkpt lat="43.99667" lon="6.85621">
        <ele>1200</ele>
        <time>2019-04-20T13:13:17Z</time>
      </trkpt>
      <trkpt lat="43.99666" lon="6.85624">
        <ele>1200</ele>
        <time>2019-04-20T13:13:17Z</time>
      </trkpt>
      <trkpt lat="43.99666" lon="6.85625">
        <ele>1200</ele>
        <time>2019-04-20T13:13:17Z</time>
      </trkpt>
      <trkpt lat="43.99666" lon="6.85632">
        <ele>1181</ele>
        <time>2019-04-20T13:13:45Z</time>
      </trkpt>
      <trkpt lat="43.99666" lon="6.85634">
        <ele>1181</ele>
        <time>2019-04-20T13:13:45Z</time>
      </trkpt>
      <trkpt lat="43.99665" lon="6.85636">
        <ele>1181</ele>
        <time>2019-04-20T13:13:45Z</time>
      </trkpt>
      <trkpt lat="43.99666" lon="6.85638">
        <ele>1181</ele>
        <time>2019-04-20T13:13:45Z</time>
      </trkpt>
      <trkpt lat="43.99665" lon="6.8564">
        <ele>1181</ele>
        <time>2019-04-20T13:13:45Z</time>
      </trkpt>
      <trkpt lat="43.99663" lon="6.85642">
        <ele>1181</ele>
        <time>2019-04-20T13:14:05Z</time>
      </trkpt>
      <trkpt lat="43.99661" lon="6.85643">
        <ele>1181</ele>
        <time>2019-04-20T13:14:05Z</time>
      </trkpt>
      <trkpt lat="43.9966" lon="6.85646">
        <ele>1181</ele>
        <time>2019-04-20T13:14:05Z</time>
      </trkpt>
      <trkpt lat="43.99658" lon="6.85648">
        <ele>1181</ele>
        <time>2019-04-20T13:14:05Z</time>
      </trkpt>
      <trkpt lat="43.99655" lon="6.8565">
        <ele>1181</ele>
        <time>2019-04-20T13:14:05Z</time>
      </trkpt>
      <trkpt lat="43.99654" lon="6.85654">
        <ele>1181</ele>
        <time>2019-04-20T13:14:37Z</time>
      </trkpt>
      <trkpt lat="43.99653" lon="6.85657">
        <ele>1181</ele>
        <time>2019-04-20T13:14:37Z</time>
      </trkpt>
      <trkpt lat="43.99652" lon="6.85659">
        <ele>1181</ele>
        <time>2019-04-20T13:14:37Z</time>
      </trkpt>
      <trkpt lat="43.99651" lon="6.85661">
        <ele>1181</ele>
        <time>2019-04-20T13:14:37Z</time>
      </trkpt>
      <trkpt lat="43.99651" lon="6.85665">
        <ele>1181</ele>
        <time>2019-04-20T13:14:37Z</time>
      </trkpt>
      <trkpt lat="43.99651" lon="6.85671">
        <ele>1181</ele>
        <time>2019-04-20T13:15:05Z</time>
      </trkpt>
      <trkpt lat="43.99649" lon="6.85671">
        <ele>1181</ele>
        <time>2019-04-20T13:15:05Z</time>
      </trkpt>
      <trkpt lat="43.99645" lon="6.85674">
        <ele>1181</ele>
        <time>2019-04-20T13:15:05Z</time>
      </trkpt>
      <trkpt lat="43.99644" lon="6.85676">
        <ele>1181</ele>
        <time>2019-04-20T13:15:05Z</time>
      </trkpt>
      <trkpt lat="43.99643" lon="6.85678">
        <ele>1181</ele>
        <time>2019-04-20T13:15:05Z</time>
      </trkpt>
      <trkpt lat="43.99639" lon="6.8568">
        <ele>1181</ele>
        <time>2019-04-20T13:15:25Z</time>
      </trkpt>
      <trkpt lat="43.99637" lon="6.85682">
        <ele>1181</ele>
        <time>2019-04-20T13:15:25Z</time>
      </trkpt>
      <trkpt lat="43.99635" lon="6.85684">
        <ele>1181</ele>
        <time>2019-04-20T13:15:25Z</time>
      </trkpt>
      <trkpt lat="43.99633" lon="6.85687">
        <ele>1181</ele>
        <time>2019-04-20T13:15:25Z</time>
      </trkpt>
      <trkpt lat="43.99633" lon="6.8569">
        <ele>1181</ele>
        <time>2019-04-20T13:15:25Z</time>
      </trkpt>
      <trkpt lat="43.99638" lon="6.85697">
        <ele>1181</ele>
        <time>2019-04-20T13:16:09Z</time>
      </trkpt>
      <trkpt lat="43.99638" lon="6.85697">
        <ele>1181</ele>
        <time>2019-04-20T13:16:09Z</time>
      </trkpt>
      <trkpt lat="43.99638" lon="6.85696">
        <ele>1181</ele>
        <time>2019-04-20T13:16:09Z</time>
      </trkpt>
      <trkpt lat="43.99638" lon="6.85696">
        <ele>1181</ele>
        <time>2019-04-20T13:16:09Z</time>
      </trkpt>
      <trkpt lat="43.99638" lon="6.85696">
        <ele>1181</ele>
        <time>2019-04-20T13:16:09Z</time>
      </trkpt>
      <trkpt lat="43.99638" lon="6.85696">
        <ele>1181</ele>
        <time>2019-04-20T13:16:45Z</time>
      </trkpt>
      <trkpt lat="43.99641" lon="6.85698">
        <ele>1181</ele>
        <time>2019-04-20T13:16:45Z</time>
      </trkpt>
      <trkpt lat="43.99642" lon="6.85695">
        <ele>1181</ele>
        <time>2019-04-20T13:16:45Z</time>
      </trkpt>
      <trkpt lat="43.99645" lon="6.85696">
        <ele>1181</ele>
        <time>2019-04-20T13:16:45Z</time>
      </trkpt>
      <trkpt lat="43.99649" lon="6.85695">
        <ele>1181</ele>
        <time>2019-04-20T13:16:45Z</time>
      </trkpt>
      <trkpt lat="43.99653" lon="6.85694">
        <ele>1181</ele>
        <time>2019-04-20T13:17:01Z</time>
      </trkpt>
      <trkpt lat="43.99656" lon="6.85691">
        <ele>1181</ele>
        <time>2019-04-20T13:17:01Z</time>
      </trkpt>
      <trkpt lat="43.9966" lon="6.85689">
        <ele>1181</ele>
        <time>2019-04-20T13:17:01Z</time>
      </trkpt>
      <trkpt lat="43.99663" lon="6.85682">
        <ele>1181</ele>
        <time>2019-04-20T13:17:01Z</time>
      </trkpt>
      <trkpt lat="43.99669" lon="6.85678">
        <ele>1181</ele>
        <time>2019-04-20T13:17:17Z</time>
      </trkpt>
      <trkpt lat="43.99673" lon="6.85678">
        <ele>1181</ele>
        <time>2019-04-20T13:17:17Z</time>
      </trkpt>
      <trkpt lat="43.99676" lon="6.85678">
        <ele>1181</ele>
        <time>2019-04-20T13:17:17Z</time>
      </trkpt>
      <trkpt lat="43.99681" lon="6.85676">
        <ele>1181</ele>
        <time>2019-04-20T13:17:17Z</time>
      </trkpt>
      <trkpt lat="43.99685" lon="6.85673">
        <ele>1181</ele>
        <time>2019-04-20T13:17:33Z</time>
      </trkpt>
      <trkpt lat="43.9969" lon="6.85672">
        <ele>1181</ele>
        <time>2019-04-20T13:17:33Z</time>
      </trkpt>
      <trkpt lat="43.99693" lon="6.85671">
        <ele>1181</ele>
        <time>2019-04-20T13:17:33Z</time>
      </trkpt>
      <trkpt lat="43.99695" lon="6.85671">
        <ele>1181</ele>
        <time>2019-04-20T13:17:33Z</time>
      </trkpt>
      <trkpt lat="43.99699" lon="6.85668">
        <ele>1181</ele>
        <time>2019-04-20T13:17:49Z</time>
      </trkpt>
      <trkpt lat="43.99702" lon="6.85664">
        <ele>1181</ele>
        <time>2019-04-20T13:17:49Z</time>
      </trkpt>
      <trkpt lat="43.99706" lon="6.85668">
        <ele>1181</ele>
        <time>2019-04-20T13:17:49Z</time>
      </trkpt>
      <trkpt lat="43.99711" lon="6.85669">
        <ele>1163</ele>
        <time>2019-04-20T13:17:49Z</time>
      </trkpt>
      <trkpt lat="43.99713" lon="6.85667">
        <ele>1163</ele>
        <time>2019-04-20T13:18:05Z</time>
      </trkpt>
      <trkpt lat="43.99717" lon="6.85663">
        <ele>1163</ele>
        <time>2019-04-20T13:18:05Z</time>
      </trkpt>
      <trkpt lat="43.99723" lon="6.85661">
        <ele>1163</ele>
        <time>2019-04-20T13:18:05Z</time>
      </trkpt>
      <trkpt lat="43.99727" lon="6.85657">
        <ele>1163</ele>
        <time>2019-04-20T13:18:05Z</time>
      </trkpt>
      <trkpt lat="43.99735" lon="6.85655">
        <ele>1163</ele>
        <time>2019-04-20T13:18:21Z</time>
      </trkpt>
      <trkpt lat="43.99739" lon="6.85655">
        <ele>1163</ele>
        <time>2019-04-20T13:18:21Z</time>
      </trkpt>
      <trkpt lat="43.99744" lon="6.85654">
        <ele>1163</ele>
        <time>2019-04-20T13:18:21Z</time>
      </trkpt>
      <trkpt lat="43.99749" lon="6.85653">
        <ele>1163</ele>
        <time>2019-04-20T13:18:21Z</time>
      </trkpt>
      <trkpt lat="43.99755" lon="6.85651">
        <ele>1163</ele>
        <time>2019-04-20T13:18:37Z</time>
      </trkpt>
      <trkpt lat="43.99759" lon="6.85646">
        <ele>1163</ele>
        <time>2019-04-20T13:18:37Z</time>
      </trkpt>
      <trkpt lat="43.99763" lon="6.85641">
        <ele>1163</ele>
        <time>2019-04-20T13:18:37Z</time>
      </trkpt>
      <trkpt lat="43.99766" lon="6.85637">
        <ele>1163</ele>
        <time>2019-04-20T13:18:37Z</time>
      </trkpt>
      <trkpt lat="43.99768" lon="6.85636">
        <ele>1163</ele>
        <time>2019-04-20T13:18:57Z</time>
      </trkpt>
      <trkpt lat="43.99771" lon="6.85632">
        <ele>1163</ele>
        <time>2019-04-20T13:18:57Z</time>
      </trkpt>
      <trkpt lat="43.99773" lon="6.85629">
        <ele>1163</ele>
        <time>2019-04-20T13:18:57Z</time>
      </trkpt>
      <trkpt lat="43.99774" lon="6.85628">
        <ele>1163</ele>
        <time>2019-04-20T13:18:57Z</time>
      </trkpt>
      <trkpt lat="43.99778" lon="6.85628">
        <ele>1163</ele>
        <time>2019-04-20T13:18:57Z</time>
      </trkpt>
      <trkpt lat="43.99781" lon="6.85626">
        <ele>1163</ele>
        <time>2019-04-20T13:19:17Z</time>
      </trkpt>
      <trkpt lat="43.99784" lon="6.85627">
        <ele>1163</ele>
        <time>2019-04-20T13:19:17Z</time>
      </trkpt>
      <trkpt lat="43.99785" lon="6.85625">
        <ele>1163</ele>
        <time>2019-04-20T13:19:17Z</time>
      </trkpt>
      <trkpt lat="43.99788" lon="6.85623">
        <ele>1196</ele>
        <time>2019-04-20T13:19:17Z</time>
      </trkpt>
      <trkpt lat="43.99791" lon="6.85625">
        <ele>1196</ele>
        <time>2019-04-20T13:19:17Z</time>
      </trkpt>
      <trkpt lat="43.99796" lon="6.85622">
        <ele>1167</ele>
        <time>2019-04-20T13:19:33Z</time>
      </trkpt>
      <trkpt lat="43.99801" lon="6.85621">
        <ele>1167</ele>
        <time>2019-04-20T13:19:33Z</time>
      </trkpt>
      <trkpt lat="43.99807" lon="6.85619">
        <ele>1167</ele>
        <time>2019-04-20T13:19:33Z</time>
      </trkpt>
      <trkpt lat="43.99814" lon="6.85617">
        <ele>1167</ele>
        <time>2019-04-20T13:19:33Z</time>
      </trkpt>
      <trkpt lat="43.99819" lon="6.85614">
        <ele>1167</ele>
        <time>2019-04-20T13:19:49Z</time>
      </trkpt>
      <trkpt lat="43.99823" lon="6.85611">
        <ele>1167</ele>
        <time>2019-04-20T13:19:49Z</time>
      </trkpt>
      <trkpt lat="43.99825" lon="6.85609">
        <ele>1167</ele>
        <time>2019-04-20T13:19:49Z</time>
      </trkpt>
      <trkpt lat="43.99828" lon="6.85608">
        <ele>1167</ele>
        <time>2019-04-20T13:19:49Z</time>
      </trkpt>
      <trkpt lat="43.99833" lon="6.85605">
        <ele>1167</ele>
        <time>2019-04-20T13:20:05Z</time>
      </trkpt>
      <trkpt lat="43.99837" lon="6.85602">
        <ele>1167</ele>
        <time>2019-04-20T13:20:05Z</time>
      </trkpt>
      <trkpt lat="43.99844" lon="6.85601">
        <ele>1167</ele>
        <time>2019-04-20T13:20:05Z</time>
      </trkpt>
      <trkpt lat="43.99849" lon="6.85599">
        <ele>1167</ele>
        <time>2019-04-20T13:20:05Z</time>
      </trkpt>
      <trkpt lat="43.99853" lon="6.85596">
        <ele>1167</ele>
        <time>2019-04-20T13:20:21Z</time>
      </trkpt>
      <trkpt lat="43.99856" lon="6.85596">
        <ele>1167</ele>
        <time>2019-04-20T13:20:21Z</time>
      </trkpt>
      <trkpt lat="43.99859" lon="6.85596">
        <ele>1167</ele>
        <time>2019-04-20T13:20:21Z</time>
      </trkpt>
      <trkpt lat="43.99862" lon="6.85594">
        <ele>1167</ele>
        <time>2019-04-20T13:20:21Z</time>
      </trkpt>
      <trkpt lat="43.99868" lon="6.8559">
        <ele>1167</ele>
        <time>2019-04-20T13:20:37Z</time>
      </trkpt>
      <trkpt lat="43.99872" lon="6.85588">
        <ele>1167</ele>
        <time>2019-04-20T13:20:37Z</time>
      </trkpt>
      <trkpt lat="43.99876" lon="6.85587">
        <ele>1143</ele>
        <time>2019-04-20T13:20:37Z</time>
      </trkpt>
      <trkpt lat="43.99879" lon="6.85583">
        <ele>1143</ele>
        <time>2019-04-20T13:20:37Z</time>
      </trkpt>
      <trkpt lat="43.99883" lon="6.85579">
        <ele>1143</ele>
        <time>2019-04-20T13:20:53Z</time>
      </trkpt>
      <trkpt lat="43.99888" lon="6.85576">
        <ele>1143</ele>
        <time>2019-04-20T13:20:53Z</time>
      </trkpt>
      <trkpt lat="43.9989" lon="6.85573">
        <ele>1143</ele>
        <time>2019-04-20T13:20:53Z</time>
      </trkpt>
      <trkpt lat="43.99896" lon="6.8557">
        <ele>1143</ele>
        <time>2019-04-20T13:20:53Z</time>
      </trkpt>
      <trkpt lat="43.99901" lon="6.85568">
        <ele>1143</ele>
        <time>2019-04-20T13:21:09Z</time>
      </trkpt>
      <trkpt lat="43.99906" lon="6.85567">
        <ele>1143</ele>
        <time>2019-04-20T13:21:09Z</time>
      </trkpt>
      <trkpt lat="43.9991" lon="6.85565">
        <ele>1143</ele>
        <time>2019-04-20T13:21:09Z</time>
      </trkpt>
      <trkpt lat="43.99914" lon="6.8556">
        <ele>1143</ele>
        <time>2019-04-20T13:21:09Z</time>
      </trkpt>
      <trkpt lat="43.99917" lon="6.85558">
        <ele>1143</ele>
        <time>2019-04-20T13:21:25Z</time>
      </trkpt>
      <trkpt lat="43.99923" lon="6.85555">
        <ele>1143</ele>
        <time>2019-04-20T13:21:25Z</time>
      </trkpt>
      <trkpt lat="43.99931" lon="6.85552">
        <ele>1143</ele>
        <time>2019-04-20T13:21:25Z</time>
      </trkpt>
      <trkpt lat="43.99935" lon="6.85552">
        <ele>1143</ele>
        <time>2019-04-20T13:21:25Z</time>
      </trkpt>
      <trkpt lat="43.99937" lon="6.85554">
        <ele>1143</ele>
        <time>2019-04-20T13:21:41Z</time>
      </trkpt>
      <trkpt lat="43.99941" lon="6.8555">
        <ele>1143</ele>
        <time>2019-04-20T13:21:41Z</time>
      </trkpt>
      <trkpt lat="43.99945" lon="6.85547">
        <ele>1143</ele>
        <time>2019-04-20T13:21:41Z</time>
      </trkpt>
      <trkpt lat="43.99947" lon="6.85542">
        <ele>1143</ele>
        <time>2019-04-20T13:21:41Z</time>
      </trkpt>
      <trkpt lat="43.99952" lon="6.8554">
        <ele>1173</ele>
        <time>2019-04-20T13:21:57Z</time>
      </trkpt>
      <trkpt lat="43.99956" lon="6.85538">
        <ele>1173</ele>
        <time>2019-04-20T13:21:57Z</time>
      </trkpt>
      <trkpt lat="43.9996" lon="6.85535">
        <ele>1154</ele>
        <time>2019-04-20T13:21:57Z</time>
      </trkpt>
      <trkpt lat="43.99964" lon="6.8553">
        <ele>1154</ele>
        <time>2019-04-20T13:21:57Z</time>
      </trkpt>
      <trkpt lat="43.99968" lon="6.85528">
        <ele>1154</ele>
        <time>2019-04-20T13:22:13Z</time>
      </trkpt>
      <trkpt lat="43.99972" lon="6.85525">
        <ele>1154</ele>
        <time>2019-04-20T13:22:13Z</time>
      </trkpt>
      <trkpt lat="43.99977" lon="6.85521">
        <ele>1154</ele>
        <time>2019-04-20T13:22:13Z</time>
      </trkpt>
      <trkpt lat="43.99982" lon="6.85517">
        <ele>1154</ele>
        <time>2019-04-20T13:22:13Z</time>
      </trkpt>
      <trkpt lat="43.99987" lon="6.85513">
        <ele>1154</ele>
        <time>2019-04-20T13:22:29Z</time>
      </trkpt>
      <trkpt lat="43.99992" lon="6.85509">
        <ele>1154</ele>
        <time>2019-04-20T13:22:29Z</time>
      </trkpt>
      <trkpt lat="43.99996" lon="6.85506">
        <ele>1154</ele>
        <time>2019-04-20T13:22:29Z</time>
      </trkpt>
      <trkpt lat="44" lon="6.85506">
        <ele>1155</ele>
        <time>2019-04-20T13:22:29Z</time>
      </trkpt>
      <trkpt lat="44.00004" lon="6.85507">
        <ele>1155</ele>
        <time>2019-04-20T13:22:45Z</time>
      </trkpt>
      <trkpt lat="44.0001" lon="6.8551">
        <ele>1155</ele>
        <time>2019-04-20T13:22:45Z</time>
      </trkpt>
      <trkpt lat="44.00012" lon="6.85512">
        <ele>1155</ele>
        <time>2019-04-20T13:22:45Z</time>
      </trkpt>
      <trkpt lat="44.00015" lon="6.85514">
        <ele>1155</ele>
        <time>2019-04-20T13:22:45Z</time>
      </trkpt>
      <trkpt lat="44.00018" lon="6.85516">
        <ele>1155</ele>
        <time>2019-04-20T13:23:01Z</time>
      </trkpt>
      <trkpt lat="44.00021" lon="6.85519">
        <ele>1155</ele>
        <time>2019-04-20T13:23:01Z</time>
      </trkpt>
      <trkpt lat="44.00025" lon="6.85518">
        <ele>1155</ele>
        <time>2019-04-20T13:23:01Z</time>
      </trkpt>
      <trkpt lat="44.00029" lon="6.85517">
        <ele>1155</ele>
        <time>2019-04-20T13:23:01Z</time>
      </trkpt>
      <trkpt lat="44.00031" lon="6.85518">
        <ele>1155</ele>
        <time>2019-04-20T13:23:17Z</time>
      </trkpt>
      <trkpt lat="44.00036" lon="6.85521">
        <ele>1155</ele>
        <time>2019-04-20T13:23:17Z</time>
      </trkpt>
      <trkpt lat="44.00038" lon="6.85522">
        <ele>1155</ele>
        <time>2019-04-20T13:23:17Z</time>
      </trkpt>
      <trkpt lat="44.00041" lon="6.85523">
        <ele>1155</ele>
        <time>2019-04-20T13:23:17Z</time>
      </trkpt>
      <trkpt lat="44.00046" lon="6.85524">
        <ele>1152</ele>
        <time>2019-04-20T13:23:33Z</time>
      </trkpt>
      <trkpt lat="44.00049" lon="6.85527">
        <ele>1152</ele>
        <time>2019-04-20T13:23:33Z</time>
      </trkpt>
      <trkpt lat="44.00051" lon="6.8553">
        <ele>1152</ele>
        <time>2019-04-20T13:23:33Z</time>
      </trkpt>
      <trkpt lat="44.00055" lon="6.85532">
        <ele>1152</ele>
        <time>2019-04-20T13:23:33Z</time>
      </trkpt>
      <trkpt lat="44.0006" lon="6.85534">
        <ele>1152</ele>
        <time>2019-04-20T13:23:49Z</time>
      </trkpt>
      <trkpt lat="44.00064" lon="6.85535">
        <ele>1152</ele>
        <time>2019-04-20T13:23:49Z</time>
      </trkpt>
      <trkpt lat="44.00068" lon="6.85538">
        <ele>1152</ele>
        <time>2019-04-20T13:23:49Z</time>
      </trkpt>
      <trkpt lat="44.00071" lon="6.85543">
        <ele>1131</ele>
        <time>2019-04-20T13:23:49Z</time>
      </trkpt>
      <trkpt lat="44.0007" lon="6.85546">
        <ele>1131</ele>
        <time>2019-04-20T13:24:09Z</time>
      </trkpt>
      <trkpt lat="44.00071" lon="6.85547">
        <ele>1131</ele>
        <time>2019-04-20T13:24:09Z</time>
      </trkpt>
      <trkpt lat="44.00069" lon="6.85549">
        <ele>1131</ele>
        <time>2019-04-20T13:24:09Z</time>
      </trkpt>
      <trkpt lat="44.00069" lon="6.85554">
        <ele>1131</ele>
        <time>2019-04-20T13:24:09Z</time>
      </trkpt>
      <trkpt lat="44.00067" lon="6.85559">
        <ele>1131</ele>
        <time>2019-04-20T13:24:09Z</time>
      </trkpt>
      <trkpt lat="44.00064" lon="6.85562">
        <ele>1131</ele>
        <time>2019-04-20T13:24:25Z</time>
      </trkpt>
      <trkpt lat="44.00063" lon="6.85567">
        <ele>1131</ele>
        <time>2019-04-20T13:24:25Z</time>
      </trkpt>
      <trkpt lat="44.00061" lon="6.8557">
        <ele>1131</ele>
        <time>2019-04-20T13:24:25Z</time>
      </trkpt>
      <trkpt lat="44.00059" lon="6.85575">
        <ele>1131</ele>
        <time>2019-04-20T13:24:25Z</time>
      </trkpt>
      <trkpt lat="44.00057" lon="6.8558">
        <ele>1131</ele>
        <time>2019-04-20T13:24:41Z</time>
      </trkpt>
      <trkpt lat="44.00053" lon="6.85586">
        <ele>1131</ele>
        <time>2019-04-20T13:24:41Z</time>
      </trkpt>
      <trkpt lat="44.00048" lon="6.85588">
        <ele>1131</ele>
        <time>2019-04-20T13:24:41Z</time>
      </trkpt>
      <trkpt lat="44.00045" lon="6.85589">
        <ele>1131</ele>
        <time>2019-04-20T13:24:41Z</time>
      </trkpt>
      <trkpt lat="44.00043" lon="6.85593">
        <ele>1131</ele>
        <time>2019-04-20T13:24:57Z</time>
      </trkpt>
      <trkpt lat="44.00042" lon="6.85599">
        <ele>1131</ele>
        <time>2019-04-20T13:24:57Z</time>
      </trkpt>
      <trkpt lat="44.00043" lon="6.85605">
        <ele>1131</ele>
        <time>2019-04-20T13:24:57Z</time>
      </trkpt>
      <trkpt lat="44.00044" lon="6.85608">
        <ele>1131</ele>
        <time>2019-04-20T13:24:57Z</time>
      </trkpt>
      <trkpt lat="44.00038" lon="6.85609">
        <ele>1130</ele>
        <time>2019-04-20T13:25:21Z</time>
      </trkpt>
      <trkpt lat="44.00037" lon="6.85612">
        <ele>1130</ele>
        <time>2019-04-20T13:25:21Z</time>
      </trkpt>
      <trkpt lat="44.00036" lon="6.85617">
        <ele>1130</ele>
        <time>2019-04-20T13:25:21Z</time>
      </trkpt>
      <trkpt lat="44.00038" lon="6.85619">
        <ele>1130</ele>
        <time>2019-04-20T13:25:21Z</time>
      </trkpt>
      <trkpt lat="44.00039" lon="6.85624">
        <ele>1130</ele>
        <time>2019-04-20T13:25:21Z</time>
      </trkpt>
      <trkpt lat="44.00037" lon="6.85627">
        <ele>1110</ele>
        <time>2019-04-20T13:25:37Z</time>
      </trkpt>
      <trkpt lat="44.00036" lon="6.85631">
        <ele>1110</ele>
        <time>2019-04-20T13:25:37Z</time>
      </trkpt>
      <trkpt lat="44.00035" lon="6.85636">
        <ele>1110</ele>
        <time>2019-04-20T13:25:37Z</time>
      </trkpt>
      <trkpt lat="44.00033" lon="6.8564">
        <ele>1110</ele>
        <time>2019-04-20T13:25:37Z</time>
      </trkpt>
      <trkpt lat="44.00031" lon="6.85644">
        <ele>1110</ele>
        <time>2019-04-20T13:25:57Z</time>
      </trkpt>
      <trkpt lat="44.00031" lon="6.85647">
        <ele>1110</ele>
        <time>2019-04-20T13:25:57Z</time>
      </trkpt>
      <trkpt lat="44.00031" lon="6.8565">
        <ele>1110</ele>
        <time>2019-04-20T13:25:57Z</time>
      </trkpt>
      <trkpt lat="44.00031" lon="6.85654">
        <ele>1110</ele>
        <time>2019-04-20T13:25:57Z</time>
      </trkpt>
      <trkpt lat="44.00029" lon="6.85658">
        <ele>1110</ele>
        <time>2019-04-20T13:25:57Z</time>
      </trkpt>
      <trkpt lat="44.00027" lon="6.85664">
        <ele>1110</ele>
        <time>2019-04-20T13:26:17Z</time>
      </trkpt>
      <trkpt lat="44.00025" lon="6.85667">
        <ele>1110</ele>
        <time>2019-04-20T13:26:17Z</time>
      </trkpt>
      <trkpt lat="44.00024" lon="6.8567">
        <ele>1110</ele>
        <time>2019-04-20T13:26:17Z</time>
      </trkpt>
      <trkpt lat="44.00021" lon="6.85673">
        <ele>1110</ele>
        <time>2019-04-20T13:26:17Z</time>
      </trkpt>
      <trkpt lat="44.0002" lon="6.85676">
        <ele>1110</ele>
        <time>2019-04-20T13:26:17Z</time>
      </trkpt>
      <trkpt lat="44.00018" lon="6.85679">
        <ele>1110</ele>
        <time>2019-04-20T13:26:37Z</time>
      </trkpt>
      <trkpt lat="44.00017" lon="6.85682">
        <ele>1110</ele>
        <time>2019-04-20T13:26:37Z</time>
      </trkpt>
      <trkpt lat="44.00015" lon="6.85686">
        <ele>1110</ele>
        <time>2019-04-20T13:26:37Z</time>
      </trkpt>
      <trkpt lat="44.00014" lon="6.85689">
        <ele>1110</ele>
        <time>2019-04-20T13:26:37Z</time>
      </trkpt>
      <trkpt lat="44.00013" lon="6.85691">
        <ele>1110</ele>
        <time>2019-04-20T13:26:37Z</time>
      </trkpt>
      <trkpt lat="44.00013" lon="6.85694">
        <ele>1110</ele>
        <time>2019-04-20T13:26:53Z</time>
      </trkpt>
      <trkpt lat="44.00013" lon="6.85699">
        <ele>1110</ele>
        <time>2019-04-20T13:26:53Z</time>
      </trkpt>
      <trkpt lat="44.00014" lon="6.85705">
        <ele>1110</ele>
        <time>2019-04-20T13:26:53Z</time>
      </trkpt>
      <trkpt lat="44.00015" lon="6.85707">
        <ele>1110</ele>
        <time>2019-04-20T13:26:53Z</time>
      </trkpt>
      <trkpt lat="44.00016" lon="6.85711">
        <ele>1092</ele>
        <time>2019-04-20T13:27:13Z</time>
      </trkpt>
      <trkpt lat="44.00018" lon="6.85716">
        <ele>1092</ele>
        <time>2019-04-20T13:27:13Z</time>
      </trkpt>
      <trkpt lat="44.00017" lon="6.85716">
        <ele>1092</ele>
        <time>2019-04-20T13:27:13Z</time>
      </trkpt>
      <trkpt lat="44.00013" lon="6.85718">
        <ele>1092</ele>
        <time>2019-04-20T13:27:13Z</time>
      </trkpt>
      <trkpt lat="44.0001" lon="6.85721">
        <ele>1092</ele>
        <time>2019-04-20T13:27:13Z</time>
      </trkpt>
      <trkpt lat="44.00007" lon="6.85725">
        <ele>1092</ele>
        <time>2019-04-20T13:27:29Z</time>
      </trkpt>
      <trkpt lat="44.00003" lon="6.85727">
        <ele>1092</ele>
        <time>2019-04-20T13:27:29Z</time>
      </trkpt>
      <trkpt lat="44.00001" lon="6.85729">
        <ele>1092</ele>
        <time>2019-04-20T13:27:29Z</time>
      </trkpt>
      <trkpt lat="43.99998" lon="6.85732">
        <ele>1091</ele>
        <time>2019-04-20T13:27:29Z</time>
      </trkpt>
      <trkpt lat="43.99995" lon="6.85734">
        <ele>1091</ele>
        <time>2019-04-20T13:27:45Z</time>
      </trkpt>
      <trkpt lat="43.99991" lon="6.85735">
        <ele>1091</ele>
        <time>2019-04-20T13:27:45Z</time>
      </trkpt>
      <trkpt lat="43.99986" lon="6.85737">
        <ele>1091</ele>
        <time>2019-04-20T13:27:45Z</time>
      </trkpt>
      <trkpt lat="43.99981" lon="6.85739">
        <ele>1091</ele>
        <time>2019-04-20T13:27:45Z</time>
      </trkpt>
      <trkpt lat="43.99976" lon="6.85743">
        <ele>1091</ele>
        <time>2019-04-20T13:28:01Z</time>
      </trkpt>
      <trkpt lat="43.99974" lon="6.85747">
        <ele>1091</ele>
        <time>2019-04-20T13:28:01Z</time>
      </trkpt>
      <trkpt lat="43.99971" lon="6.85752">
        <ele>1091</ele>
        <time>2019-04-20T13:28:01Z</time>
      </trkpt>
      <trkpt lat="43.99968" lon="6.85756">
        <ele>1091</ele>
        <time>2019-04-20T13:28:01Z</time>
      </trkpt>
      <trkpt lat="43.99965" lon="6.8576">
        <ele>1091</ele>
        <time>2019-04-20T13:28:17Z</time>
      </trkpt>
      <trkpt lat="43.99963" lon="6.85762">
        <ele>1091</ele>
        <time>2019-04-20T13:28:17Z</time>
      </trkpt>
      <trkpt lat="43.9996" lon="6.85766">
        <ele>1091</ele>
        <time>2019-04-20T13:28:17Z</time>
      </trkpt>
      <trkpt lat="43.99957" lon="6.8577">
        <ele>1102</ele>
        <time>2019-04-20T13:28:17Z</time>
      </trkpt>
      <trkpt lat="43.99954" lon="6.85773">
        <ele>1102</ele>
        <time>2019-04-20T13:28:33Z</time>
      </trkpt>
      <trkpt lat="43.99953" lon="6.85777">
        <ele>1102</ele>
        <time>2019-04-20T13:28:33Z</time>
      </trkpt>
      <trkpt lat="43.99951" lon="6.8578">
        <ele>1102</ele>
        <time>2019-04-20T13:28:33Z</time>
      </trkpt>
      <trkpt lat="43.99948" lon="6.85785">
        <ele>1102</ele>
        <time>2019-04-20T13:28:33Z</time>
      </trkpt>
      <trkpt lat="43.99944" lon="6.85788">
        <ele>1102</ele>
        <time>2019-04-20T13:28:49Z</time>
      </trkpt>
      <trkpt lat="43.99943" lon="6.85793">
        <ele>1080</ele>
        <time>2019-04-20T13:28:49Z</time>
      </trkpt>
      <trkpt lat="43.99942" lon="6.85796">
        <ele>1080</ele>
        <time>2019-04-20T13:28:49Z</time>
      </trkpt>
      <trkpt lat="43.9994" lon="6.85801">
        <ele>1080</ele>
        <time>2019-04-20T13:28:49Z</time>
      </trkpt>
      <trkpt lat="43.99936" lon="6.85806">
        <ele>1080</ele>
        <time>2019-04-20T13:29:05Z</time>
      </trkpt>
      <trkpt lat="43.99932" lon="6.8581">
        <ele>1080</ele>
        <time>2019-04-20T13:29:05Z</time>
      </trkpt>
      <trkpt lat="43.99928" lon="6.85814">
        <ele>1080</ele>
        <time>2019-04-20T13:29:05Z</time>
      </trkpt>
      <trkpt lat="43.99926" lon="6.8582">
        <ele>1080</ele>
        <time>2019-04-20T13:29:05Z</time>
      </trkpt>
      <trkpt lat="43.9992" lon="6.85821">
        <ele>1080</ele>
        <time>2019-04-20T13:30:05Z</time>
      </trkpt>
      <trkpt lat="43.99918" lon="6.85823">
        <ele>1080</ele>
        <time>2019-04-20T13:30:05Z</time>
      </trkpt>
      <trkpt lat="43.99916" lon="6.85829">
        <ele>1080</ele>
        <time>2019-04-20T13:30:05Z</time>
      </trkpt>
      <trkpt lat="43.99912" lon="6.85832">
        <ele>1080</ele>
        <time>2019-04-20T13:30:05Z</time>
      </trkpt>
      <trkpt lat="43.99908" lon="6.85836">
        <ele>1080</ele>
        <time>2019-04-20T13:30:05Z</time>
      </trkpt>
      <trkpt lat="43.99907" lon="6.85839">
        <ele>1080</ele>
        <time>2019-04-20T13:30:21Z</time>
      </trkpt>
      <trkpt lat="43.99906" lon="6.85844">
        <ele>1080</ele>
        <time>2019-04-20T13:30:21Z</time>
      </trkpt>
      <trkpt lat="43.99904" lon="6.85848">
        <ele>1080</ele>
        <time>2019-04-20T13:30:21Z</time>
      </trkpt>
      <trkpt lat="43.99902" lon="6.85853">
        <ele>1080</ele>
        <time>2019-04-20T13:30:21Z</time>
      </trkpt>
      <trkpt lat="43.99899" lon="6.85856">
        <ele>1080</ele>
        <time>2019-04-20T13:30:37Z</time>
      </trkpt>
      <trkpt lat="43.99897" lon="6.85862">
        <ele>1080</ele>
        <time>2019-04-20T13:30:37Z</time>
      </trkpt>
      <trkpt lat="43.99894" lon="6.85866">
        <ele>1080</ele>
        <time>2019-04-20T13:30:37Z</time>
      </trkpt>
      <trkpt lat="43.99891" lon="6.8587">
        <ele>1080</ele>
        <time>2019-04-20T13:30:37Z</time>
      </trkpt>
      <trkpt lat="43.99888" lon="6.85875">
        <ele>1080</ele>
        <time>2019-04-20T13:30:53Z</time>
      </trkpt>
      <trkpt lat="43.99885" lon="6.85879">
        <ele>1057</ele>
        <time>2019-04-20T13:30:53Z</time>
      </trkpt>
      <trkpt lat="43.99881" lon="6.85879">
        <ele>1057</ele>
        <time>2019-04-20T13:30:53Z</time>
      </trkpt>
      <trkpt lat="43.99878" lon="6.85884">
        <ele>1057</ele>
        <time>2019-04-20T13:30:53Z</time>
      </trkpt>
      <trkpt lat="43.99876" lon="6.85887">
        <ele>1057</ele>
        <time>2019-04-20T13:31:13Z</time>
      </trkpt>
      <trkpt lat="43.99873" lon="6.85888">
        <ele>1059</ele>
        <time>2019-04-20T13:31:13Z</time>
      </trkpt>
      <trkpt lat="43.9987" lon="6.85888">
        <ele>1059</ele>
        <time>2019-04-20T13:31:13Z</time>
      </trkpt>
      <trkpt lat="43.99868" lon="6.85891">
        <ele>1059</ele>
        <time>2019-04-20T13:31:13Z</time>
      </trkpt>
      <trkpt lat="43.99866" lon="6.85897">
        <ele>1059</ele>
        <time>2019-04-20T13:31:13Z</time>
      </trkpt>
      <trkpt lat="43.99863" lon="6.85902">
        <ele>1059</ele>
        <time>2019-04-20T13:31:29Z</time>
      </trkpt>
      <trkpt lat="43.99859" lon="6.85906">
        <ele>1059</ele>
        <time>2019-04-20T13:31:29Z</time>
      </trkpt>
      <trkpt lat="43.99856" lon="6.85908">
        <ele>1059</ele>
        <time>2019-04-20T13:31:29Z</time>
      </trkpt>
      <trkpt lat="43.99852" lon="6.85909">
        <ele>1059</ele>
        <time>2019-04-20T13:31:29Z</time>
      </trkpt>
      <trkpt lat="43.99846" lon="6.85907">
        <ele>1059</ele>
        <time>2019-04-20T13:31:49Z</time>
      </trkpt>
      <trkpt lat="43.99843" lon="6.85909">
        <ele>1059</ele>
        <time>2019-04-20T13:31:49Z</time>
      </trkpt>
      <trkpt lat="43.99841" lon="6.85909">
        <ele>1059</ele>
        <time>2019-04-20T13:31:49Z</time>
      </trkpt>
      <trkpt lat="43.99838" lon="6.85912">
        <ele>1059</ele>
        <time>2019-04-20T13:31:49Z</time>
      </trkpt>
      <trkpt lat="43.99837" lon="6.85917">
        <ele>1059</ele>
        <time>2019-04-20T13:31:49Z</time>
      </trkpt>
      <trkpt lat="43.99833" lon="6.85919">
        <ele>1059</ele>
        <time>2019-04-20T13:32:05Z</time>
      </trkpt>
      <trkpt lat="43.9983" lon="6.85923">
        <ele>1059</ele>
        <time>2019-04-20T13:32:05Z</time>
      </trkpt>
      <trkpt lat="43.99826" lon="6.85926">
        <ele>1059</ele>
        <time>2019-04-20T13:32:05Z</time>
      </trkpt>
      <trkpt lat="43.99825" lon="6.85927">
        <ele>1059</ele>
        <time>2019-04-20T13:32:05Z</time>
      </trkpt>
      <trkpt lat="43.99826" lon="6.85924">
        <ele>1059</ele>
        <time>2019-04-20T13:32:21Z</time>
      </trkpt>
      <trkpt lat="43.99829" lon="6.85921">
        <ele>1059</ele>
        <time>2019-04-20T13:32:21Z</time>
      </trkpt>
      <trkpt lat="43.99835" lon="6.85923">
        <ele>1059</ele>
        <time>2019-04-20T13:32:21Z</time>
      </trkpt>
      <trkpt lat="43.99838" lon="6.85926">
        <ele>1059</ele>
        <time>2019-04-20T13:32:21Z</time>
      </trkpt>
      <trkpt lat="43.99839" lon="6.8593">
        <ele>1059</ele>
        <time>2019-04-20T13:32:41Z</time>
      </trkpt>
      <trkpt lat="43.99839" lon="6.85932">
        <ele>1059</ele>
        <time>2019-04-20T13:32:41Z</time>
      </trkpt>
      <trkpt lat="43.99838" lon="6.85933">
        <ele>1059</ele>
        <time>2019-04-20T13:32:41Z</time>
      </trkpt>
      <trkpt lat="43.99833" lon="6.85934">
        <ele>1059</ele>
        <time>2019-04-20T13:32:41Z</time>
      </trkpt>
      <trkpt lat="43.99832" lon="6.85941">
        <ele>1059</ele>
        <time>2019-04-20T13:32:41Z</time>
      </trkpt>
      <trkpt lat="43.99831" lon="6.85946">
        <ele>1059</ele>
        <time>2019-04-20T13:33:01Z</time>
      </trkpt>
      <trkpt lat="43.99829" lon="6.85948">
        <ele>1059</ele>
        <time>2019-04-20T13:33:01Z</time>
      </trkpt>
      <trkpt lat="43.99827" lon="6.85951">
        <ele>1059</ele>
        <time>2019-04-20T13:33:01Z</time>
      </trkpt>
      <trkpt lat="43.99825" lon="6.85953">
        <ele>1059</ele>
        <time>2019-04-20T13:33:01Z</time>
      </trkpt>
      <trkpt lat="43.99822" lon="6.85956">
        <ele>1059</ele>
        <time>2019-04-20T13:33:01Z</time>
      </trkpt>
      <trkpt lat="43.9982" lon="6.85958">
        <ele>1028</ele>
        <time>2019-04-20T13:33:21Z</time>
      </trkpt>
      <trkpt lat="43.99818" lon="6.8596">
        <ele>1028</ele>
        <time>2019-04-20T13:33:21Z</time>
      </trkpt>
      <trkpt lat="43.99816" lon="6.85962">
        <ele>1028</ele>
        <time>2019-04-20T13:33:21Z</time>
      </trkpt>
      <trkpt lat="43.99814" lon="6.85963">
        <ele>1028</ele>
        <time>2019-04-20T13:33:21Z</time>
      </trkpt>
      <trkpt lat="43.99811" lon="6.85966">
        <ele>1028</ele>
        <time>2019-04-20T13:33:21Z</time>
      </trkpt>
      <trkpt lat="43.99806" lon="6.8597">
        <ele>1028</ele>
        <time>2019-04-20T13:33:41Z</time>
      </trkpt>
      <trkpt lat="43.99803" lon="6.85973">
        <ele>1028</ele>
        <time>2019-04-20T13:33:41Z</time>
      </trkpt>
      <trkpt lat="43.99801" lon="6.85975">
        <ele>1028</ele>
        <time>2019-04-20T13:33:41Z</time>
      </trkpt>
      <trkpt lat="43.998" lon="6.85979">
        <ele>1028</ele>
        <time>2019-04-20T13:33:41Z</time>
      </trkpt>
      <trkpt lat="43.99798" lon="6.85981">
        <ele>1028</ele>
        <time>2019-04-20T13:33:41Z</time>
      </trkpt>
      <trkpt lat="43.99796" lon="6.85983">
        <ele>1028</ele>
        <time>2019-04-20T13:33:57Z</time>
      </trkpt>
      <trkpt lat="43.99793" lon="6.85987">
        <ele>1028</ele>
        <time>2019-04-20T13:33:57Z</time>
      </trkpt>
      <trkpt lat="43.99792" lon="6.85992">
        <ele>1028</ele>
        <time>2019-04-20T13:33:57Z</time>
      </trkpt>
      <trkpt lat="43.9979" lon="6.85996">
        <ele>1052</ele>
        <time>2019-04-20T13:33:57Z</time>
      </trkpt>
      <trkpt lat="43.9979" lon="6.86001">
        <ele>1052</ele>
        <time>2019-04-20T13:34:17Z</time>
      </trkpt>
      <trkpt lat="43.99788" lon="6.86005">
        <ele>1052</ele>
        <time>2019-04-20T13:34:17Z</time>
      </trkpt>
      <trkpt lat="43.99785" lon="6.86006">
        <ele>1052</ele>
        <time>2019-04-20T13:34:17Z</time>
      </trkpt>
      <trkpt lat="43.99784" lon="6.86008">
        <ele>1052</ele>
        <time>2019-04-20T13:34:17Z</time>
      </trkpt>
      <trkpt lat="43.99781" lon="6.86012">
        <ele>1052</ele>
        <time>2019-04-20T13:34:17Z</time>
      </trkpt>
      <trkpt lat="43.99779" lon="6.86015">
        <ele>1052</ele>
        <time>2019-04-20T13:34:33Z</time>
      </trkpt>
      <trkpt lat="43.99776" lon="6.86019">
        <ele>1052</ele>
        <time>2019-04-20T13:34:33Z</time>
      </trkpt>
      <trkpt lat="43.99776" lon="6.86023">
        <ele>1052</ele>
        <time>2019-04-20T13:34:33Z</time>
      </trkpt>
      <trkpt lat="43.99774" lon="6.86026">
        <ele>1052</ele>
        <time>2019-04-20T13:34:33Z</time>
      </trkpt>
      <trkpt lat="43.99772" lon="6.86028">
        <ele>1052</ele>
        <time>2019-04-20T13:34:49Z</time>
      </trkpt>
      <trkpt lat="43.99772" lon="6.86032">
        <ele>1052</ele>
        <time>2019-04-20T13:34:49Z</time>
      </trkpt>
      <trkpt lat="43.99771" lon="6.8604">
        <ele>1052</ele>
        <time>2019-04-20T13:34:49Z</time>
      </trkpt>
      <trkpt lat="43.9977" lon="6.86043">
        <ele>1024</ele>
        <time>2019-04-20T13:34:49Z</time>
      </trkpt>
      <trkpt lat="43.99769" lon="6.86045">
        <ele>1024</ele>
        <time>2019-04-20T13:35:09Z</time>
      </trkpt>
      <trkpt lat="43.99768" lon="6.86049">
        <ele>1024</ele>
        <time>2019-04-20T13:35:09Z</time>
      </trkpt>
      <trkpt lat="43.99766" lon="6.86051">
        <ele>1024</ele>
        <time>2019-04-20T13:35:09Z</time>
      </trkpt>
      <trkpt lat="43.99765" lon="6.86053">
        <ele>1024</ele>
        <time>2019-04-20T13:35:09Z</time>
      </trkpt>
      <trkpt lat="43.99764" lon="6.86057">
        <ele>1024</ele>
        <time>2019-04-20T13:35:09Z</time>
      </trkpt>
      <trkpt lat="43.99761" lon="6.86063">
        <ele>1024</ele>
        <time>2019-04-20T13:35:25Z</time>
      </trkpt>
      <trkpt lat="43.9976" lon="6.86069">
        <ele>1024</ele>
        <time>2019-04-20T13:35:25Z</time>
      </trkpt>
      <trkpt lat="43.99757" lon="6.86073">
        <ele>1024</ele>
        <time>2019-04-20T13:35:25Z</time>
      </trkpt>
      <trkpt lat="43.99756" lon="6.86076">
        <ele>1024</ele>
        <time>2019-04-20T13:35:25Z</time>
      </trkpt>
      <trkpt lat="43.99751" lon="6.8608">
        <ele>1024</ele>
        <time>2019-04-20T13:35:41Z</time>
      </trkpt>
      <trkpt lat="43.99748" lon="6.86083">
        <ele>1024</ele>
        <time>2019-04-20T13:35:41Z</time>
      </trkpt>
      <trkpt lat="43.99746" lon="6.86089">
        <ele>1024</ele>
        <time>2019-04-20T13:35:41Z</time>
      </trkpt>
      <trkpt lat="43.99746" lon="6.86092">
        <ele>1024</ele>
        <time>2019-04-20T13:35:41Z</time>
      </trkpt>
      <trkpt lat="43.99744" lon="6.86095">
        <ele>1024</ele>
        <time>2019-04-20T13:35:57Z</time>
      </trkpt>
      <trkpt lat="43.99741" lon="6.86101">
        <ele>1024</ele>
        <time>2019-04-20T13:35:57Z</time>
      </trkpt>
      <trkpt lat="43.99738" lon="6.86105">
        <ele>1024</ele>
        <time>2019-04-20T13:35:57Z</time>
      </trkpt>
      <trkpt lat="43.99736" lon="6.86111">
        <ele>1024</ele>
        <time>2019-04-20T13:35:57Z</time>
      </trkpt>
      <trkpt lat="43.99733" lon="6.86112">
        <ele>1024</ele>
        <time>2019-04-20T13:36:13Z</time>
      </trkpt>
      <trkpt lat="43.9973" lon="6.86115">
        <ele>1024</ele>
        <time>2019-04-20T13:36:13Z</time>
      </trkpt>
      <trkpt lat="43.99727" lon="6.86124">
        <ele>1024</ele>
        <time>2019-04-20T13:36:13Z</time>
      </trkpt>
      <trkpt lat="43.99724" lon="6.8613">
        <ele>1003</ele>
        <time>2019-04-20T13:36:13Z</time>
      </trkpt>
      <trkpt lat="43.9972" lon="6.86134">
        <ele>1003</ele>
        <time>2019-04-20T13:36:29Z</time>
      </trkpt>
      <trkpt lat="43.99717" lon="6.86137">
        <ele>1003</ele>
        <time>2019-04-20T13:36:29Z</time>
      </trkpt>
      <trkpt lat="43.99715" lon="6.86145">
        <ele>1003</ele>
        <time>2019-04-20T13:36:29Z</time>
      </trkpt>
      <trkpt lat="43.99713" lon="6.86151">
        <ele>1003</ele>
        <time>2019-04-20T13:36:29Z</time>
      </trkpt>
      <trkpt lat="43.99709" lon="6.86154">
        <ele>1003</ele>
        <time>2019-04-20T13:37:01Z</time>
      </trkpt>
      <trkpt lat="43.99711" lon="6.86157">
        <ele>1003</ele>
        <time>2019-04-20T13:37:01Z</time>
      </trkpt>
      <trkpt lat="43.99714" lon="6.86157">
        <ele>1003</ele>
        <time>2019-04-20T13:37:01Z</time>
      </trkpt>
      <trkpt lat="43.99718" lon="6.86157">
        <ele>1003</ele>
        <time>2019-04-20T13:37:01Z</time>
      </trkpt>
      <trkpt lat="43.99718" lon="6.86162">
        <ele>1003</ele>
        <time>2019-04-20T13:37:01Z</time>
      </trkpt>
      <trkpt lat="43.99713" lon="6.86166">
        <ele>1003</ele>
        <time>2019-04-20T13:37:17Z</time>
      </trkpt>
      <trkpt lat="43.9971" lon="6.86171">
        <ele>1003</ele>
        <time>2019-04-20T13:37:17Z</time>
      </trkpt>
      <trkpt lat="43.99707" lon="6.86173">
        <ele>1015</ele>
        <time>2019-04-20T13:37:17Z</time>
      </trkpt>
      <trkpt lat="43.99706" lon="6.86174">
        <ele>1015</ele>
        <time>2019-04-20T13:37:17Z</time>
      </trkpt>
      <trkpt lat="43.99703" lon="6.86177">
        <ele>1015</ele>
        <time>2019-04-20T13:37:33Z</time>
      </trkpt>
      <trkpt lat="43.99701" lon="6.86179">
        <ele>1015</ele>
        <time>2019-04-20T13:37:33Z</time>
      </trkpt>
      <trkpt lat="43.99699" lon="6.86182">
        <ele>1015</ele>
        <time>2019-04-20T13:37:33Z</time>
      </trkpt>
      <trkpt lat="43.99694" lon="6.86184">
        <ele>1015</ele>
        <time>2019-04-20T13:37:33Z</time>
      </trkpt>
      <trkpt lat="43.99693" lon="6.86186">
        <ele>1015</ele>
        <time>2019-04-20T13:37:49Z</time>
      </trkpt>
      <trkpt lat="43.99691" lon="6.86192">
        <ele>1015</ele>
        <time>2019-04-20T13:37:49Z</time>
      </trkpt>
      <trkpt lat="43.99688" lon="6.86197">
        <ele>1015</ele>
        <time>2019-04-20T13:37:49Z</time>
      </trkpt>
      <trkpt lat="43.99684" lon="6.86198">
        <ele>1015</ele>
        <time>2019-04-20T13:37:49Z</time>
      </trkpt>
      <trkpt lat="43.99682" lon="6.86199">
        <ele>1015</ele>
        <time>2019-04-20T13:38:05Z</time>
      </trkpt>
      <trkpt lat="43.99678" lon="6.862">
        <ele>1015</ele>
        <time>2019-04-20T13:38:05Z</time>
      </trkpt>
      <trkpt lat="43.99676" lon="6.86204">
        <ele>1015</ele>
        <time>2019-04-20T13:38:05Z</time>
      </trkpt>
      <trkpt lat="43.99674" lon="6.86209">
        <ele>985</ele>
        <time>2019-04-20T13:38:05Z</time>
      </trkpt>
      <trkpt lat="43.9967" lon="6.86212">
        <ele>985</ele>
        <time>2019-04-20T13:38:25Z</time>
      </trkpt>
      <trkpt lat="43.99667" lon="6.86213">
        <ele>985</ele>
        <time>2019-04-20T13:38:25Z</time>
      </trkpt>
      <trkpt lat="43.99665" lon="6.86214">
        <ele>985</ele>
        <time>2019-04-20T13:38:25Z</time>
      </trkpt>
      <trkpt lat="43.99663" lon="6.86217">
        <ele>985</ele>
        <time>2019-04-20T13:38:25Z</time>
      </trkpt>
      <trkpt lat="43.9966" lon="6.86221">
        <ele>985</ele>
        <time>2019-04-20T13:38:25Z</time>
      </trkpt>
      <trkpt lat="43.99657" lon="6.86223">
        <ele>985</ele>
        <time>2019-04-20T13:38:45Z</time>
      </trkpt>
      <trkpt lat="43.99656" lon="6.86224">
        <ele>985</ele>
        <time>2019-04-20T13:38:45Z</time>
      </trkpt>
      <trkpt lat="43.99654" lon="6.86225">
        <ele>985</ele>
        <time>2019-04-20T13:38:45Z</time>
      </trkpt>
      <trkpt lat="43.9965" lon="6.86225">
        <ele>985</ele>
        <time>2019-04-20T13:38:45Z</time>
      </trkpt>
      <trkpt lat="43.99647" lon="6.86227">
        <ele>985</ele>
        <time>2019-04-20T13:38:45Z</time>
      </trkpt>
      <trkpt lat="43.99647" lon="6.86229">
        <ele>985</ele>
        <time>2019-04-20T13:39:05Z</time>
      </trkpt>
      <trkpt lat="43.99646" lon="6.86232">
        <ele>985</ele>
        <time>2019-04-20T13:39:05Z</time>
      </trkpt>
      <trkpt lat="43.99643" lon="6.86234">
        <ele>985</ele>
        <time>2019-04-20T13:39:05Z</time>
      </trkpt>
      <trkpt lat="43.99641" lon="6.86236">
        <ele>985</ele>
        <time>2019-04-20T13:39:05Z</time>
      </trkpt>
      <trkpt lat="43.9964" lon="6.8624">
        <ele>985</ele>
        <time>2019-04-20T13:39:05Z</time>
      </trkpt>
      <trkpt lat="43.9964" lon="6.86242">
        <ele>985</ele>
        <time>2019-04-20T13:39:21Z</time>
      </trkpt>
      <trkpt lat="43.99638" lon="6.86243">
        <ele>985</ele>
        <time>2019-04-20T13:39:21Z</time>
      </trkpt>
      <trkpt lat="43.99636" lon="6.86247">
        <ele>985</ele>
        <time>2019-04-20T13:39:21Z</time>
      </trkpt>
      <trkpt lat="43.99632" lon="6.8625">
        <ele>985</ele>
        <time>2019-04-20T13:39:21Z</time>
      </trkpt>
      <trkpt lat="43.99632" lon="6.86253">
        <ele>985</ele>
        <time>2019-04-20T13:39:37Z</time>
      </trkpt>
      <trkpt lat="43.99631" lon="6.86258">
        <ele>985</ele>
        <time>2019-04-20T13:39:37Z</time>
      </trkpt>
      <trkpt lat="43.9963" lon="6.86264">
        <ele>985</ele>
        <time>2019-04-20T13:39:37Z</time>
      </trkpt>
      <trkpt lat="43.99628" lon="6.86267">
        <ele>985</ele>
        <time>2019-04-20T13:39:37Z</time>
      </trkpt>
      <trkpt lat="43.99627" lon="6.8627">
        <ele>985</ele>
        <time>2019-04-20T13:39:53Z</time>
      </trkpt>
      <trkpt lat="43.99625" lon="6.86273">
        <ele>985</ele>
        <time>2019-04-20T13:39:53Z</time>
      </trkpt>
      <trkpt lat="43.99623" lon="6.86276">
        <ele>994</ele>
        <time>2019-04-20T13:39:53Z</time>
      </trkpt>
      <trkpt lat="43.99622" lon="6.86281">
        <ele>994</ele>
        <time>2019-04-20T13:39:53Z</time>
      </trkpt>
      <trkpt lat="43.9962" lon="6.86288">
        <ele>994</ele>
        <time>2019-04-20T13:40:09Z</time>
      </trkpt>
      <trkpt lat="43.99619" lon="6.86291">
        <ele>994</ele>
        <time>2019-04-20T13:40:09Z</time>
      </trkpt>
      <trkpt lat="43.99616" lon="6.86295">
        <ele>966</ele>
        <time>2019-04-20T13:40:09Z</time>
      </trkpt>
      <trkpt lat="43.99613" lon="6.86298">
        <ele>966</ele>
        <time>2019-04-20T13:40:09Z</time>
      </trkpt>
      <trkpt lat="43.99611" lon="6.86303">
        <ele>966</ele>
        <time>2019-04-20T13:40:25Z</time>
      </trkpt>
      <trkpt lat="43.99608" lon="6.8631">
        <ele>966</ele>
        <time>2019-04-20T13:40:25Z</time>
      </trkpt>
      <trkpt lat="43.99604" lon="6.86313">
        <ele>966</ele>
        <time>2019-04-20T13:40:25Z</time>
      </trkpt>
      <trkpt lat="43.99601" lon="6.86313">
        <ele>966</ele>
        <time>2019-04-20T13:40:25Z</time>
      </trkpt>
      <trkpt lat="43.99598" lon="6.86314">
        <ele>966</ele>
        <time>2019-04-20T13:40:41Z</time>
      </trkpt>
      <trkpt lat="43.99595" lon="6.86317">
        <ele>966</ele>
        <time>2019-04-20T13:40:41Z</time>
      </trkpt>
      <trkpt lat="43.99592" lon="6.8632">
        <ele>966</ele>
        <time>2019-04-20T13:40:41Z</time>
      </trkpt>
      <trkpt lat="43.9959" lon="6.86325">
        <ele>966</ele>
        <time>2019-04-20T13:40:41Z</time>
      </trkpt>
      <trkpt lat="43.99588" lon="6.86328">
        <ele>966</ele>
        <time>2019-04-20T13:40:57Z</time>
      </trkpt>
      <trkpt lat="43.99585" lon="6.86331">
        <ele>966</ele>
        <time>2019-04-20T13:40:57Z</time>
      </trkpt>
      <trkpt lat="43.99583" lon="6.86334">
        <ele>966</ele>
        <time>2019-04-20T13:40:57Z</time>
      </trkpt>
      <trkpt lat="43.99581" lon="6.86337">
        <ele>966</ele>
        <time>2019-04-20T13:40:57Z</time>
      </trkpt>
      <trkpt lat="43.99579" lon="6.86339">
        <ele>966</ele>
        <time>2019-04-20T13:41:13Z</time>
      </trkpt>
      <trkpt lat="43.99576" lon="6.86342">
        <ele>966</ele>
        <time>2019-04-20T13:41:13Z</time>
      </trkpt>
      <trkpt lat="43.99573" lon="6.86346">
        <ele>966</ele>
        <time>2019-04-20T13:41:13Z</time>
      </trkpt>
      <trkpt lat="43.99571" lon="6.86347">
        <ele>966</ele>
        <time>2019-04-20T13:41:13Z</time>
      </trkpt>
      <trkpt lat="43.99574" lon="6.86344">
        <ele>966</ele>
        <time>2019-04-20T13:41:29Z</time>
      </trkpt>
      <trkpt lat="43.99577" lon="6.86338">
        <ele>966</ele>
        <time>2019-04-20T13:41:29Z</time>
      </trkpt>
      <trkpt lat="43.99581" lon="6.86336">
        <ele>966</ele>
        <time>2019-04-20T13:41:29Z</time>
      </trkpt>
      <trkpt lat="43.99583" lon="6.86332">
        <ele>966</ele>
        <time>2019-04-20T13:41:29Z</time>
      </trkpt>
      <trkpt lat="43.99585" lon="6.8633">
        <ele>966</ele>
        <time>2019-04-20T13:41:49Z</time>
      </trkpt>
      <trkpt lat="43.99587" lon="6.86333">
        <ele>966</ele>
        <time>2019-04-20T13:41:49Z</time>
      </trkpt>
      <trkpt lat="43.99587" lon="6.86337">
        <ele>966</ele>
        <time>2019-04-20T13:41:49Z</time>
      </trkpt>
      <trkpt lat="43.99585" lon="6.86341">
        <ele>966</ele>
        <time>2019-04-20T13:41:49Z</time>
      </trkpt>
      <trkpt lat="43.99582" lon="6.86348">
        <ele>966</ele>
        <time>2019-04-20T13:41:49Z</time>
      </trkpt>
      <trkpt lat="43.99579" lon="6.86352">
        <ele>966</ele>
        <time>2019-04-20T13:42:05Z</time>
      </trkpt>
      <trkpt lat="43.99577" lon="6.86354">
        <ele>966</ele>
        <time>2019-04-20T13:42:05Z</time>
      </trkpt>
      <trkpt lat="43.99576" lon="6.86359">
        <ele>966</ele>
        <time>2019-04-20T13:42:05Z</time>
      </trkpt>
      <trkpt lat="43.99574" lon="6.86365">
        <ele>966</ele>
        <time>2019-04-20T13:42:05Z</time>
      </trkpt>
      <trkpt lat="43.99571" lon="6.86369">
        <ele>966</ele>
        <time>2019-04-20T13:42:29Z</time>
      </trkpt>
      <trkpt lat="43.9957" lon="6.86373">
        <ele>966</ele>
        <time>2019-04-20T13:42:29Z</time>
      </trkpt>
      <trkpt lat="43.99572" lon="6.86375">
        <ele>942</ele>
        <time>2019-04-20T13:42:29Z</time>
      </trkpt>
      <trkpt lat="43.99574" lon="6.86377">
        <ele>942</ele>
        <time>2019-04-20T13:42:29Z</time>
      </trkpt>
      <trkpt lat="43.99576" lon="6.86377">
        <ele>942</ele>
        <time>2019-04-20T13:42:29Z</time>
      </trkpt>
      <trkpt lat="43.99578" lon="6.86377">
        <ele>942</ele>
        <time>2019-04-20T13:42:49Z</time>
      </trkpt>
      <trkpt lat="43.9958" lon="6.86377">
        <ele>942</ele>
        <time>2019-04-20T13:42:49Z</time>
      </trkpt>
      <trkpt lat="43.99583" lon="6.86379">
        <ele>942</ele>
        <time>2019-04-20T13:42:49Z</time>
      </trkpt>
      <trkpt lat="43.99585" lon="6.86381">
        <ele>942</ele>
        <time>2019-04-20T13:42:49Z</time>
      </trkpt>
      <trkpt lat="43.99586" lon="6.86384">
        <ele>942</ele>
        <time>2019-04-20T13:42:49Z</time>
      </trkpt>
      <trkpt lat="43.99585" lon="6.86387">
        <ele>942</ele>
        <time>2019-04-20T13:43:09Z</time>
      </trkpt>
      <trkpt lat="43.99584" lon="6.86389">
        <ele>942</ele>
        <time>2019-04-20T13:43:09Z</time>
      </trkpt>
      <trkpt lat="43.99582" lon="6.86393">
        <ele>942</ele>
        <time>2019-04-20T13:43:09Z</time>
      </trkpt>
      <trkpt lat="43.9958" lon="6.86394">
        <ele>942</ele>
        <time>2019-04-20T13:43:09Z</time>
      </trkpt>
      <trkpt lat="43.99577" lon="6.86396">
        <ele>942</ele>
        <time>2019-04-20T13:43:09Z</time>
      </trkpt>
      <trkpt lat="43.99573" lon="6.86404">
        <ele>942</ele>
        <time>2019-04-20T13:43:37Z</time>
      </trkpt>
      <trkpt lat="43.99572" lon="6.86406">
        <ele>942</ele>
        <time>2019-04-20T13:43:37Z</time>
      </trkpt>
      <trkpt lat="43.9957" lon="6.86407">
        <ele>942</ele>
        <time>2019-04-20T13:43:37Z</time>
      </trkpt>
      <trkpt lat="43.99569" lon="6.86409">
        <ele>942</ele>
        <time>2019-04-20T13:43:37Z</time>
      </trkpt>
      <trkpt lat="43.99569" lon="6.86414">
        <ele>942</ele>
        <time>2019-04-20T13:43:37Z</time>
      </trkpt>
      <trkpt lat="43.99567" lon="6.86419">
        <ele>942</ele>
        <time>2019-04-20T13:44:29Z</time>
      </trkpt>
      <trkpt lat="43.99568" lon="6.86419">
        <ele>942</ele>
        <time>2019-04-20T13:44:29Z</time>
      </trkpt>
      <trkpt lat="43.99571" lon="6.86419">
        <ele>942</ele>
        <time>2019-04-20T13:44:29Z</time>
      </trkpt>
      <trkpt lat="43.99576" lon="6.86419">
        <ele>942</ele>
        <time>2019-04-20T13:44:29Z</time>
      </trkpt>
      <trkpt lat="43.99579" lon="6.8642">
        <ele>942</ele>
        <time>2019-04-20T13:44:29Z</time>
      </trkpt>
      <trkpt lat="43.99582" lon="6.86421">
        <ele>942</ele>
        <time>2019-04-20T13:44:45Z</time>
      </trkpt>
      <trkpt lat="43.99586" lon="6.86424">
        <ele>942</ele>
        <time>2019-04-20T13:44:45Z</time>
      </trkpt>
      <trkpt lat="43.99591" lon="6.86428">
        <ele>942</ele>
        <time>2019-04-20T13:44:45Z</time>
      </trkpt>
      <trkpt lat="43.99594" lon="6.86431">
        <ele>942</ele>
        <time>2019-04-20T13:44:45Z</time>
      </trkpt>
      <trkpt lat="43.99598" lon="6.86434">
        <ele>942</ele>
        <time>2019-04-20T13:45:01Z</time>
      </trkpt>
      <trkpt lat="43.996" lon="6.86439">
        <ele>942</ele>
        <time>2019-04-20T13:45:01Z</time>
      </trkpt>
      <trkpt lat="43.99604" lon="6.86445">
        <ele>942</ele>
        <time>2019-04-20T13:45:01Z</time>
      </trkpt>
      <trkpt lat="43.99606" lon="6.86449">
        <ele>942</ele>
        <time>2019-04-20T13:45:01Z</time>
      </trkpt>
      <trkpt lat="43.9961" lon="6.86452">
        <ele>942</ele>
        <time>2019-04-20T13:45:17Z</time>
      </trkpt>
      <trkpt lat="43.99614" lon="6.86455">
        <ele>942</ele>
        <time>2019-04-20T13:45:17Z</time>
      </trkpt>
      <trkpt lat="43.99618" lon="6.86449">
        <ele>942</ele>
        <time>2019-04-20T13:45:17Z</time>
      </trkpt>
      <trkpt lat="43.99625" lon="6.86449">
        <ele>942</ele>
        <time>2019-04-20T13:45:17Z</time>
      </trkpt>
      <trkpt lat="43.9963" lon="6.86449">
        <ele>938</ele>
        <time>2019-04-20T13:45:33Z</time>
      </trkpt>
      <trkpt lat="43.99634" lon="6.86449">
        <ele>938</ele>
        <time>2019-04-20T13:45:33Z</time>
      </trkpt>
      <trkpt lat="43.99639" lon="6.86452">
        <ele>938</ele>
        <time>2019-04-20T13:45:33Z</time>
      </trkpt>
      <trkpt lat="43.99643" lon="6.86451">
        <ele>938</ele>
        <time>2019-04-20T13:45:33Z</time>
      </trkpt>
      <trkpt lat="43.99648" lon="6.8645">
        <ele>938</ele>
        <time>2019-04-20T13:45:49Z</time>
      </trkpt>
      <trkpt lat="43.99651" lon="6.86447">
        <ele>938</ele>
        <time>2019-04-20T13:45:49Z</time>
      </trkpt>
      <trkpt lat="43.99654" lon="6.86445">
        <ele>938</ele>
        <time>2019-04-20T13:45:49Z</time>
      </trkpt>
      <trkpt lat="43.99658" lon="6.86445">
        <ele>938</ele>
        <time>2019-04-20T13:45:49Z</time>
      </trkpt>
      <trkpt lat="43.99663" lon="6.86443">
        <ele>938</ele>
        <time>2019-04-20T13:46:05Z</time>
      </trkpt>
      <trkpt lat="43.99668" lon="6.86442">
        <ele>938</ele>
        <time>2019-04-20T13:46:05Z</time>
      </trkpt>
      <trkpt lat="43.99672" lon="6.86443">
        <ele>938</ele>
        <time>2019-04-20T13:46:05Z</time>
      </trkpt>
      <trkpt lat="43.99676" lon="6.86443">
        <ele>938</ele>
        <time>2019-04-20T13:46:05Z</time>
      </trkpt>
      <trkpt lat="43.99681" lon="6.86444">
        <ele>938</ele>
        <time>2019-04-20T13:46:21Z</time>
      </trkpt>
      <trkpt lat="43.99685" lon="6.86444">
        <ele>938</ele>
        <time>2019-04-20T13:46:21Z</time>
      </trkpt>
      <trkpt lat="43.99691" lon="6.86446">
        <ele>938</ele>
        <time>2019-04-20T13:46:21Z</time>
      </trkpt>
      <trkpt lat="43.99696" lon="6.86448">
        <ele>938</ele>
        <time>2019-04-20T13:46:21Z</time>
      </trkpt>
      <trkpt lat="43.99701" lon="6.86448">
        <ele>938</ele>
        <time>2019-04-20T13:46:37Z</time>
      </trkpt>
      <trkpt lat="43.99705" lon="6.86448">
        <ele>938</ele>
        <time>2019-04-20T13:46:37Z</time>
      </trkpt>
      <trkpt lat="43.9971" lon="6.86448">
        <ele>931</ele>
        <time>2019-04-20T13:46:37Z</time>
      </trkpt>
      <trkpt lat="43.99714" lon="6.86447">
        <ele>931</ele>
        <time>2019-04-20T13:46:37Z</time>
      </trkpt>
      <trkpt lat="43.99718" lon="6.86447">
        <ele>931</ele>
        <time>2019-04-20T13:46:53Z</time>
      </trkpt>
      <trkpt lat="43.99723" lon="6.86447">
        <ele>931</ele>
        <time>2019-04-20T13:46:53Z</time>
      </trkpt>
      <trkpt lat="43.99727" lon="6.86444">
        <ele>931</ele>
        <time>2019-04-20T13:46:53Z</time>
      </trkpt>
      <trkpt lat="43.99731" lon="6.86442">
        <ele>931</ele>
        <time>2019-04-20T13:46:53Z</time>
      </trkpt>
      <trkpt lat="43.99735" lon="6.86441">
        <ele>931</ele>
        <time>2019-04-20T13:47:09Z</time>
      </trkpt>
      <trkpt lat="43.9974" lon="6.86439">
        <ele>931</ele>
        <time>2019-04-20T13:47:09Z</time>
      </trkpt>
      <trkpt lat="43.99744" lon="6.86438">
        <ele>931</ele>
        <time>2019-04-20T13:47:09Z</time>
      </trkpt>
      <trkpt lat="43.99752" lon="6.86439">
        <ele>931</ele>
        <time>2019-04-20T13:47:09Z</time>
      </trkpt>
      <trkpt lat="43.99757" lon="6.86441">
        <ele>931</ele>
        <time>2019-04-20T13:47:25Z</time>
      </trkpt>
      <trkpt lat="43.9976" lon="6.86439">
        <ele>931</ele>
        <time>2019-04-20T13:47:25Z</time>
      </trkpt>
      <trkpt lat="43.99762" lon="6.86434">
        <ele>931</ele>
        <time>2019-04-20T13:47:25Z</time>
      </trkpt>
      <trkpt lat="43.99764" lon="6.8643">
        <ele>931</ele>
        <time>2019-04-20T13:47:25Z</time>
      </trkpt>
      <trkpt lat="43.99766" lon="6.86424">
        <ele>931</ele>
        <time>2019-04-20T13:47:41Z</time>
      </trkpt>
      <trkpt lat="43.99767" lon="6.86421">
        <ele>931</ele>
        <time>2019-04-20T13:47:41Z</time>
      </trkpt>
      <trkpt lat="43.9977" lon="6.86415">
        <ele>931</ele>
        <time>2019-04-20T13:47:41Z</time>
      </trkpt>
      <trkpt lat="43.99774" lon="6.8641">
        <ele>931</ele>
        <time>2019-04-20T13:47:41Z</time>
      </trkpt>
      <trkpt lat="43.99779" lon="6.86406">
        <ele>931</ele>
        <time>2019-04-20T13:47:57Z</time>
      </trkpt>
      <trkpt lat="43.99782" lon="6.86403">
        <ele>931</ele>
        <time>2019-04-20T13:47:57Z</time>
      </trkpt>
      <trkpt lat="43.99787" lon="6.86401">
        <ele>931</ele>
        <time>2019-04-20T13:47:57Z</time>
      </trkpt>
      <trkpt lat="43.99792" lon="6.86396">
        <ele>905</ele>
        <time>2019-04-20T13:47:57Z</time>
      </trkpt>
      <trkpt lat="43.99796" lon="6.86393">
        <ele>905</ele>
        <time>2019-04-20T13:48:13Z</time>
      </trkpt>
      <trkpt lat="43.99799" lon="6.8639">
        <ele>905</ele>
        <time>2019-04-20T13:48:13Z</time>
      </trkpt>
      <trkpt lat="43.99803" lon="6.86387">
        <ele>905</ele>
        <time>2019-04-20T13:48:13Z</time>
      </trkpt>
      <trkpt lat="43.99807" lon="6.86384">
        <ele>905</ele>
        <time>2019-04-20T13:48:13Z</time>
      </trkpt>
      <trkpt lat="43.99811" lon="6.8638">
        <ele>905</ele>
        <time>2019-04-20T13:48:29Z</time>
      </trkpt>
      <trkpt lat="43.99813" lon="6.86376">
        <ele>905</ele>
        <time>2019-04-20T13:48:29Z</time>
      </trkpt>
      <trkpt lat="43.99816" lon="6.86372">
        <ele>932</ele>
        <time>2019-04-20T13:48:29Z</time>
      </trkpt>
      <trkpt lat="43.99819" lon="6.86368">
        <ele>932</ele>
        <time>2019-04-20T13:48:29Z</time>
      </trkpt>
      <trkpt lat="43.99824" lon="6.86364">
        <ele>932</ele>
        <time>2019-04-20T13:48:45Z</time>
      </trkpt>
      <trkpt lat="43.99829" lon="6.86359">
        <ele>932</ele>
        <time>2019-04-20T13:48:45Z</time>
      </trkpt>
      <trkpt lat="43.99834" lon="6.86353">
        <ele>932</ele>
        <time>2019-04-20T13:48:45Z</time>
      </trkpt>
      <trkpt lat="43.99837" lon="6.8635">
        <ele>932</ele>
        <time>2019-04-20T13:48:45Z</time>
      </trkpt>
      <trkpt lat="43.99838" lon="6.86346">
        <ele>932</ele>
        <time>2019-04-20T13:49:01Z</time>
      </trkpt>
      <trkpt lat="43.99842" lon="6.86342">
        <ele>932</ele>
        <time>2019-04-20T13:49:01Z</time>
      </trkpt>
      <trkpt lat="43.99845" lon="6.86339">
        <ele>932</ele>
        <time>2019-04-20T13:49:01Z</time>
      </trkpt>
      <trkpt lat="43.99848" lon="6.86338">
        <ele>932</ele>
        <time>2019-04-20T13:49:01Z</time>
      </trkpt>
      <trkpt lat="43.99853" lon="6.86336">
        <ele>932</ele>
        <time>2019-04-20T13:49:17Z</time>
      </trkpt>
      <trkpt lat="43.99859" lon="6.86336">
        <ele>932</ele>
        <time>2019-04-20T13:49:17Z</time>
      </trkpt>
      <trkpt lat="43.99862" lon="6.86336">
        <ele>932</ele>
        <time>2019-04-20T13:49:17Z</time>
      </trkpt>
      <trkpt lat="43.99866" lon="6.86336">
        <ele>932</ele>
        <time>2019-04-20T13:49:17Z</time>
      </trkpt>
      <trkpt lat="43.99871" lon="6.86335">
        <ele>932</ele>
        <time>2019-04-20T13:49:33Z</time>
      </trkpt>
      <trkpt lat="43.99876" lon="6.86336">
        <ele>922</ele>
        <time>2019-04-20T13:49:33Z</time>
      </trkpt>
      <trkpt lat="43.9988" lon="6.8634">
        <ele>922</ele>
        <time>2019-04-20T13:49:33Z</time>
      </trkpt>
      <trkpt lat="43.99883" lon="6.86342">
        <ele>922</ele>
        <time>2019-04-20T13:49:33Z</time>
      </trkpt>
      <trkpt lat="43.99885" lon="6.86347">
        <ele>922</ele>
        <time>2019-04-20T13:49:49Z</time>
      </trkpt>
      <trkpt lat="43.9989" lon="6.86353">
        <ele>922</ele>
        <time>2019-04-20T13:49:49Z</time>
      </trkpt>
      <trkpt lat="43.99893" lon="6.86356">
        <ele>922</ele>
        <time>2019-04-20T13:49:49Z</time>
      </trkpt>
      <trkpt lat="43.99897" lon="6.8636">
        <ele>922</ele>
        <time>2019-04-20T13:49:49Z</time>
      </trkpt>
      <trkpt lat="43.99903" lon="6.86362">
        <ele>922</ele>
        <time>2019-04-20T13:50:05Z</time>
      </trkpt>
      <trkpt lat="43.99908" lon="6.86365">
        <ele>922</ele>
        <time>2019-04-20T13:50:05Z</time>
      </trkpt>
      <trkpt lat="43.99912" lon="6.86366">
        <ele>922</ele>
        <time>2019-04-20T13:50:05Z</time>
      </trkpt>
      <trkpt lat="43.99916" lon="6.86366">
        <ele>922</ele>
        <time>2019-04-20T13:50:05Z</time>
      </trkpt>
      <trkpt lat="43.99922" lon="6.86363">
        <ele>922</ele>
        <time>2019-04-20T13:50:21Z</time>
      </trkpt>
      <trkpt lat="43.99927" lon="6.86362">
        <ele>922</ele>
        <time>2019-04-20T13:50:21Z</time>
      </trkpt>
      <trkpt lat="43.99929" lon="6.8636">
        <ele>922</ele>
        <time>2019-04-20T13:50:21Z</time>
      </trkpt>
      <trkpt lat="43.99933" lon="6.86358">
        <ele>922</ele>
        <time>2019-04-20T13:50:21Z</time>
      </trkpt>
      <trkpt lat="43.99937" lon="6.86355">
        <ele>922</ele>
        <time>2019-04-20T13:50:37Z</time>
      </trkpt>
      <trkpt lat="43.99941" lon="6.86353">
        <ele>922</ele>
        <time>2019-04-20T13:50:37Z</time>
      </trkpt>
      <trkpt lat="43.99945" lon="6.86349">
        <ele>922</ele>
        <time>2019-04-20T13:50:37Z</time>
      </trkpt>
      <trkpt lat="43.9995" lon="6.86345">
        <ele>922</ele>
        <time>2019-04-20T13:50:37Z</time>
      </trkpt>
      <trkpt lat="43.99955" lon="6.86342">
        <ele>922</ele>
        <time>2019-04-20T13:50:53Z</time>
      </trkpt>
      <trkpt lat="43.99961" lon="6.86338">
        <ele>918</ele>
        <time>2019-04-20T13:50:53Z</time>
      </trkpt>
      <trkpt lat="43.99964" lon="6.86335">
        <ele>918</ele>
        <time>2019-04-20T13:50:53Z</time>
      </trkpt>
      <trkpt lat="43.99969" lon="6.86335">
        <ele>918</ele>
        <time>2019-04-20T13:50:53Z</time>
      </trkpt>
      <trkpt lat="43.99974" lon="6.86336">
        <ele>918</ele>
        <time>2019-04-20T13:51:09Z</time>
      </trkpt>
      <trkpt lat="43.99979" lon="6.86337">
        <ele>918</ele>
        <time>2019-04-20T13:51:09Z</time>
      </trkpt>
      <trkpt lat="43.99984" lon="6.86338">
        <ele>918</ele>
        <time>2019-04-20T13:51:09Z</time>
      </trkpt>
      <trkpt lat="43.99987" lon="6.8634">
        <ele>918</ele>
        <time>2019-04-20T13:51:09Z</time>
      </trkpt>
      <trkpt lat="43.9999" lon="6.86342">
        <ele>918</ele>
        <time>2019-04-20T13:51:25Z</time>
      </trkpt>
      <trkpt lat="43.99991" lon="6.86345">
        <ele>918</ele>
        <time>2019-04-20T13:51:25Z</time>
      </trkpt>
      <trkpt lat="43.99995" lon="6.86349">
        <ele>918</ele>
        <time>2019-04-20T13:51:25Z</time>
      </trkpt>
      <trkpt lat="43.99998" lon="6.86353">
        <ele>918</ele>
        <time>2019-04-20T13:51:25Z</time>
      </trkpt>
      <trkpt lat="44.00002" lon="6.86355">
        <ele>921</ele>
        <time>2019-04-20T13:51:41Z</time>
      </trkpt>
      <trkpt lat="44.00006" lon="6.86358">
        <ele>921</ele>
        <time>2019-04-20T13:51:41Z</time>
      </trkpt>
      <trkpt lat="44.00009" lon="6.86361">
        <ele>921</ele>
        <time>2019-04-20T13:51:41Z</time>
      </trkpt>
      <trkpt lat="44.00014" lon="6.86366">
        <ele>921</ele>
        <time>2019-04-20T13:51:41Z</time>
      </trkpt>
      <trkpt lat="44.00018" lon="6.86369">
        <ele>921</ele>
        <time>2019-04-20T13:51:57Z</time>
      </trkpt>
      <trkpt lat="44.00021" lon="6.86372">
        <ele>921</ele>
        <time>2019-04-20T13:51:57Z</time>
      </trkpt>
      <trkpt lat="44.00024" lon="6.86376">
        <ele>913</ele>
        <time>2019-04-20T13:51:57Z</time>
      </trkpt>
      <trkpt lat="44.00027" lon="6.86382">
        <ele>913</ele>
        <time>2019-04-20T13:51:57Z</time>
      </trkpt>
      <trkpt lat="44.00031" lon="6.86389">
        <ele>913</ele>
        <time>2019-04-20T13:52:13Z</time>
      </trkpt>
      <trkpt lat="44.00031" lon="6.86394">
        <ele>913</ele>
        <time>2019-04-20T13:52:13Z</time>
      </trkpt>
      <trkpt lat="44.00031" lon="6.86401">
        <ele>913</ele>
        <time>2019-04-20T13:52:13Z</time>
      </trkpt>
      <trkpt lat="44.00027" lon="6.86411">
        <ele>913</ele>
        <time>2019-04-20T13:52:13Z</time>
      </trkpt>
      <trkpt lat="44.00024" lon="6.86413">
        <ele>913</ele>
        <time>2019-04-20T13:52:29Z</time>
      </trkpt>
      <trkpt lat="44.00019" lon="6.86419">
        <ele>913</ele>
        <time>2019-04-20T13:52:29Z</time>
      </trkpt>
      <trkpt lat="44.00015" lon="6.86422">
        <ele>913</ele>
        <time>2019-04-20T13:52:29Z</time>
      </trkpt>
      <trkpt lat="44.0001" lon="6.86424">
        <ele>913</ele>
        <time>2019-04-20T13:52:29Z</time>
      </trkpt>
      <trkpt lat="44.00006" lon="6.86425">
        <ele>913</ele>
        <time>2019-04-20T13:52:45Z</time>
      </trkpt>
      <trkpt lat="44.00001" lon="6.86425">
        <ele>913</ele>
        <time>2019-04-20T13:52:45Z</time>
      </trkpt>
      <trkpt lat="43.99998" lon="6.86426">
        <ele>907</ele>
        <time>2019-04-20T13:52:45Z</time>
      </trkpt>
      <trkpt lat="43.99994" lon="6.86428">
        <ele>907</ele>
        <time>2019-04-20T13:52:45Z</time>
      </trkpt>
      <trkpt lat="43.9999" lon="6.86429">
        <ele>907</ele>
        <time>2019-04-20T13:53:01Z</time>
      </trkpt>
      <trkpt lat="43.99985" lon="6.86432">
        <ele>907</ele>
        <time>2019-04-20T13:53:01Z</time>
      </trkpt>
      <trkpt lat="43.99981" lon="6.86436">
        <ele>907</ele>
        <time>2019-04-20T13:53:01Z</time>
      </trkpt>
      <trkpt lat="43.99977" lon="6.86439">
        <ele>907</ele>
        <time>2019-04-20T13:53:01Z</time>
      </trkpt>
      <trkpt lat="43.99972" lon="6.86443">
        <ele>907</ele>
        <time>2019-04-20T13:53:17Z</time>
      </trkpt>
      <trkpt lat="43.99969" lon="6.86446">
        <ele>907</ele>
        <time>2019-04-20T13:53:17Z</time>
      </trkpt>
      <trkpt lat="43.99966" lon="6.8645">
        <ele>907</ele>
        <time>2019-04-20T13:53:17Z</time>
      </trkpt>
      <trkpt lat="43.99963" lon="6.86455">
        <ele>907</ele>
        <time>2019-04-20T13:53:17Z</time>
      </trkpt>
      <trkpt lat="43.99962" lon="6.86461">
        <ele>920</ele>
        <time>2019-04-20T13:53:33Z</time>
      </trkpt>
      <trkpt lat="43.9996" lon="6.86466">
        <ele>920</ele>
        <time>2019-04-20T13:53:33Z</time>
      </trkpt>
      <trkpt lat="43.99957" lon="6.8647">
        <ele>891</ele>
        <time>2019-04-20T13:53:33Z</time>
      </trkpt>
      <trkpt lat="43.99954" lon="6.86473">
        <ele>891</ele>
        <time>2019-04-20T13:53:33Z</time>
      </trkpt>
      <trkpt lat="43.9995" lon="6.86478">
        <ele>891</ele>
        <time>2019-04-20T13:53:49Z</time>
      </trkpt>
      <trkpt lat="43.99946" lon="6.86481">
        <ele>891</ele>
        <time>2019-04-20T13:53:49Z</time>
      </trkpt>
      <trkpt lat="43.99942" lon="6.86486">
        <ele>891</ele>
        <time>2019-04-20T13:53:49Z</time>
      </trkpt>
      <trkpt lat="43.99939" lon="6.8649">
        <ele>891</ele>
        <time>2019-04-20T13:53:49Z</time>
      </trkpt>
      <trkpt lat="43.99937" lon="6.86495">
        <ele>891</ele>
        <time>2019-04-20T13:54:05Z</time>
      </trkpt>
      <trkpt lat="43.99935" lon="6.86501">
        <ele>891</ele>
        <time>2019-04-20T13:54:05Z</time>
      </trkpt>
      <trkpt lat="43.99932" lon="6.86507">
        <ele>891</ele>
        <time>2019-04-20T13:54:05Z</time>
      </trkpt>
      <trkpt lat="43.9993" lon="6.8651">
        <ele>891</ele>
        <time>2019-04-20T13:54:05Z</time>
      </trkpt>
      <trkpt lat="43.99925" lon="6.86513">
        <ele>891</ele>
        <time>2019-04-20T13:54:21Z</time>
      </trkpt>
      <trkpt lat="43.99921" lon="6.86515">
        <ele>891</ele>
        <time>2019-04-20T13:54:21Z</time>
      </trkpt>
      <trkpt lat="43.9992" lon="6.86522">
        <ele>891</ele>
        <time>2019-04-20T13:54:21Z</time>
      </trkpt>
      <trkpt lat="43.99916" lon="6.86527">
        <ele>891</ele>
        <time>2019-04-20T13:54:21Z</time>
      </trkpt>
      <trkpt lat="43.99914" lon="6.86534">
        <ele>891</ele>
        <time>2019-04-20T13:54:37Z</time>
      </trkpt>
      <trkpt lat="43.99913" lon="6.86539">
        <ele>891</ele>
        <time>2019-04-20T13:54:37Z</time>
      </trkpt>
      <trkpt lat="43.99911" lon="6.86545">
        <ele>899</ele>
        <time>2019-04-20T13:54:37Z</time>
      </trkpt>
      <trkpt lat="43.99911" lon="6.8655">
        <ele>899</ele>
        <time>2019-04-20T13:54:37Z</time>
      </trkpt>
      <trkpt lat="43.99905" lon="6.86557">
        <ele>899</ele>
        <time>2019-04-20T13:55:29Z</time>
      </trkpt>
      <trkpt lat="43.99905" lon="6.86558">
        <ele>899</ele>
        <time>2019-04-20T13:55:29Z</time>
      </trkpt>
      <trkpt lat="43.99905" lon="6.86558">
        <ele>899</ele>
        <time>2019-04-20T13:55:29Z</time>
      </trkpt>
      <trkpt lat="43.99905" lon="6.86561">
        <ele>899</ele>
        <time>2019-04-20T13:55:29Z</time>
      </trkpt>
      <trkpt lat="43.99905" lon="6.86566">
        <ele>899</ele>
        <time>2019-04-20T13:55:29Z</time>
      </trkpt>
      <trkpt lat="43.99905" lon="6.86571">
        <ele>899</ele>
        <time>2019-04-20T13:55:45Z</time>
      </trkpt>
      <trkpt lat="43.99903" lon="6.86576">
        <ele>899</ele>
        <time>2019-04-20T13:55:45Z</time>
      </trkpt>
      <trkpt lat="43.99903" lon="6.86581">
        <ele>899</ele>
        <time>2019-04-20T13:55:45Z</time>
      </trkpt>
      <trkpt lat="43.99901" lon="6.86585">
        <ele>899</ele>
        <time>2019-04-20T13:55:45Z</time>
      </trkpt>
      <trkpt lat="43.99902" lon="6.86591">
        <ele>899</ele>
        <time>2019-04-20T13:56:01Z</time>
      </trkpt>
      <trkpt lat="43.99903" lon="6.86597">
        <ele>899</ele>
        <time>2019-04-20T13:56:01Z</time>
      </trkpt>
      <trkpt lat="43.99905" lon="6.86599">
        <ele>899</ele>
        <time>2019-04-20T13:56:01Z</time>
      </trkpt>
      <trkpt lat="43.99906" lon="6.86603">
        <ele>899</ele>
        <time>2019-04-20T13:56:01Z</time>
      </trkpt>
      <trkpt lat="43.9991" lon="6.86607">
        <ele>899</ele>
        <time>2019-04-20T13:56:17Z</time>
      </trkpt>
      <trkpt lat="43.99916" lon="6.86607">
        <ele>899</ele>
        <time>2019-04-20T13:56:17Z</time>
      </trkpt>
      <trkpt lat="43.9992" lon="6.86609">
        <ele>899</ele>
        <time>2019-04-20T13:56:17Z</time>
      </trkpt>
      <trkpt lat="43.99923" lon="6.86614">
        <ele>899</ele>
        <time>2019-04-20T13:56:17Z</time>
      </trkpt>
      <trkpt lat="43.99926" lon="6.86613">
        <ele>899</ele>
        <time>2019-04-20T13:56:37Z</time>
      </trkpt>
      <trkpt lat="43.99929" lon="6.86613">
        <ele>899</ele>
        <time>2019-04-20T13:56:37Z</time>
      </trkpt>
      <trkpt lat="43.99932" lon="6.86609">
        <ele>899</ele>
        <time>2019-04-20T13:56:37Z</time>
      </trkpt>
      <trkpt lat="43.99934" lon="6.86608">
        <ele>899</ele>
        <time>2019-04-20T13:56:37Z</time>
      </trkpt>
      <trkpt lat="43.99938" lon="6.86607">
        <ele>899</ele>
        <time>2019-04-20T13:56:37Z</time>
      </trkpt>
      <trkpt lat="43.9994" lon="6.86605">
        <ele>899</ele>
        <time>2019-04-20T13:56:53Z</time>
      </trkpt>
      <trkpt lat="43.99942" lon="6.86601">
        <ele>899</ele>
        <time>2019-04-20T13:56:53Z</time>
      </trkpt>
      <trkpt lat="43.99947" lon="6.866">
        <ele>899</ele>
        <time>2019-04-20T13:56:53Z</time>
      </trkpt>
      <trkpt lat="43.99951" lon="6.86598">
        <ele>899</ele>
        <time>2019-04-20T13:56:53Z</time>
      </trkpt>
      <trkpt lat="43.99954" lon="6.86597">
        <ele>899</ele>
        <time>2019-04-20T13:57:09Z</time>
      </trkpt>
      <trkpt lat="43.99956" lon="6.86595">
        <ele>899</ele>
        <time>2019-04-20T13:57:09Z</time>
      </trkpt>
      <trkpt lat="43.9996" lon="6.86593">
        <ele>919</ele>
        <time>2019-04-20T13:57:09Z</time>
      </trkpt>
      <trkpt lat="43.99963" lon="6.86589">
        <ele>919</ele>
        <time>2019-04-20T13:57:09Z</time>
      </trkpt>
      <trkpt lat="43.99966" lon="6.86587">
        <ele>919</ele>
        <time>2019-04-20T13:57:25Z</time>
      </trkpt>
      <trkpt lat="43.9997" lon="6.86584">
        <ele>919</ele>
        <time>2019-04-20T13:57:25Z</time>
      </trkpt>
      <trkpt lat="43.99975" lon="6.86581">
        <ele>919</ele>
        <time>2019-04-20T13:57:25Z</time>
      </trkpt>
      <trkpt lat="43.9998" lon="6.8658">
        <ele>919</ele>
        <time>2019-04-20T13:57:25Z</time>
      </trkpt>
      <trkpt lat="43.99984" lon="6.86577">
        <ele>919</ele>
        <time>2019-04-20T13:57:41Z</time>
      </trkpt>
      <trkpt lat="43.99989" lon="6.86576">
        <ele>919</ele>
        <time>2019-04-20T13:57:41Z</time>
      </trkpt>
      <trkpt lat="43.99993" lon="6.86578">
        <ele>919</ele>
        <time>2019-04-20T13:57:41Z</time>
      </trkpt>
      <trkpt lat="43.99997" lon="6.86583">
        <ele>919</ele>
        <time>2019-04-20T13:57:41Z</time>
      </trkpt>
      <trkpt lat="43.99996" lon="6.8659">
        <ele>919</ele>
        <time>2019-04-20T13:57:57Z</time>
      </trkpt>
      <trkpt lat="43.99995" lon="6.86597">
        <ele>919</ele>
        <time>2019-04-20T13:57:57Z</time>
      </trkpt>
      <trkpt lat="43.99995" lon="6.86603">
        <ele>919</ele>
        <time>2019-04-20T13:57:57Z</time>
      </trkpt>
      <trkpt lat="43.99995" lon="6.8661">
        <ele>919</ele>
        <time>2019-04-20T13:57:57Z</time>
      </trkpt>
      <trkpt lat="43.99996" lon="6.86617">
        <ele>919</ele>
        <time>2019-04-20T13:58:13Z</time>
      </trkpt>
      <trkpt lat="43.99996" lon="6.86623">
        <ele>919</ele>
        <time>2019-04-20T13:58:13Z</time>
      </trkpt>
      <trkpt lat="43.99996" lon="6.8663">
        <ele>910</ele>
        <time>2019-04-20T13:58:13Z</time>
      </trkpt>
      <trkpt lat="43.99997" lon="6.86637">
        <ele>910</ele>
        <time>2019-04-20T13:58:13Z</time>
      </trkpt>
      <trkpt lat="43.99997" lon="6.86643">
        <ele>910</ele>
        <time>2019-04-20T13:58:29Z</time>
      </trkpt>
      <trkpt lat="43.99996" lon="6.86649">
        <ele>910</ele>
        <time>2019-04-20T13:58:29Z</time>
      </trkpt>
      <trkpt lat="43.99997" lon="6.86655">
        <ele>910</ele>
        <time>2019-04-20T13:58:29Z</time>
      </trkpt>
      <trkpt lat="44.00001" lon="6.86661">
        <ele>912</ele>
        <time>2019-04-20T13:58:29Z</time>
      </trkpt>
      <trkpt lat="44.00005" lon="6.86666">
        <ele>912</ele>
        <time>2019-04-20T13:58:45Z</time>
      </trkpt>
      <trkpt lat="44.00008" lon="6.86673">
        <ele>912</ele>
        <time>2019-04-20T13:58:45Z</time>
      </trkpt>
      <trkpt lat="44.00011" lon="6.86678">
        <ele>912</ele>
        <time>2019-04-20T13:58:45Z</time>
      </trkpt>
      <trkpt lat="44.00012" lon="6.86685">
        <ele>912</ele>
        <time>2019-04-20T13:58:45Z</time>
      </trkpt>
      <trkpt lat="44.00014" lon="6.8669">
        <ele>912</ele>
        <time>2019-04-20T13:59:01Z</time>
      </trkpt>
      <trkpt lat="44.00017" lon="6.86696">
        <ele>912</ele>
        <time>2019-04-20T13:59:01Z</time>
      </trkpt>
      <trkpt lat="44.0002" lon="6.86702">
        <ele>912</ele>
        <time>2019-04-20T13:59:01Z</time>
      </trkpt>
      <trkpt lat="44.00023" lon="6.86707">
        <ele>912</ele>
        <time>2019-04-20T13:59:01Z</time>
      </trkpt>
      <trkpt lat="44.00026" lon="6.86712">
        <ele>903</ele>
        <time>2019-04-20T13:59:17Z</time>
      </trkpt>
      <trkpt lat="44.00027" lon="6.86717">
        <ele>903</ele>
        <time>2019-04-20T13:59:17Z</time>
      </trkpt>
      <trkpt lat="44.00029" lon="6.86723">
        <ele>903</ele>
        <time>2019-04-20T13:59:17Z</time>
      </trkpt>
      <trkpt lat="44.00031" lon="6.86729">
        <ele>903</ele>
        <time>2019-04-20T13:59:18Z</time>
      </trkpt>
      <trkpt lat="44.00036" lon="6.86742">
        <ele>903</ele>
        <time>2019-04-20T13:59:57Z</time>
      </trkpt>
      <trkpt lat="44.00036" lon="6.86742">
        <ele>903</ele>
        <time>2019-04-20T13:59:57Z</time>
      </trkpt>
      <trkpt lat="44.00039" lon="6.86746">
        <ele>903</ele>
        <time>2019-04-20T13:59:57Z</time>
      </trkpt>
      <trkpt lat="44.00041" lon="6.86753">
        <ele>903</ele>
        <time>2019-04-20T13:59:57Z</time>
      </trkpt>
      <trkpt lat="44.00043" lon="6.8676">
        <ele>944</ele>
        <time>2019-04-20T13:59:57Z</time>
      </trkpt>
      <trkpt lat="44.00044" lon="6.86767">
        <ele>944</ele>
        <time>2019-04-20T14:00:13Z</time>
      </trkpt>
      <trkpt lat="44.00044" lon="6.86772">
        <ele>944</ele>
        <time>2019-04-20T14:00:13Z</time>
      </trkpt>
      <trkpt lat="44.00042" lon="6.86778">
        <ele>944</ele>
        <time>2019-04-20T14:00:13Z</time>
      </trkpt>
      <trkpt lat="44.0004" lon="6.86785">
        <ele>903</ele>
        <time>2019-04-20T14:00:13Z</time>
      </trkpt>
      <trkpt lat="44.00038" lon="6.86793">
        <ele>891</ele>
        <time>2019-04-20T14:00:29Z</time>
      </trkpt>
      <trkpt lat="44.00037" lon="6.86799">
        <ele>891</ele>
        <time>2019-04-20T14:00:29Z</time>
      </trkpt>
      <trkpt lat="44.00035" lon="6.86805">
        <ele>891</ele>
        <time>2019-04-20T14:00:29Z</time>
      </trkpt>
      <trkpt lat="44.00035" lon="6.86812">
        <ele>891</ele>
        <time>2019-04-20T14:00:29Z</time>
      </trkpt>
      <trkpt lat="44.00034" lon="6.8682">
        <ele>891</ele>
        <time>2019-04-20T14:00:45Z</time>
      </trkpt>
      <trkpt lat="44.00035" lon="6.86825">
        <ele>891</ele>
        <time>2019-04-20T14:00:45Z</time>
      </trkpt>
      <trkpt lat="44.00036" lon="6.86831">
        <ele>891</ele>
        <time>2019-04-20T14:00:45Z</time>
      </trkpt>
      <trkpt lat="44.00039" lon="6.86837">
        <ele>891</ele>
        <time>2019-04-20T14:00:45Z</time>
      </trkpt>
      <trkpt lat="44.00041" lon="6.86843">
        <ele>891</ele>
        <time>2019-04-20T14:01:01Z</time>
      </trkpt>
      <trkpt lat="44.00044" lon="6.86849">
        <ele>930</ele>
        <time>2019-04-20T14:01:01Z</time>
      </trkpt>
      <trkpt lat="44.00047" lon="6.86854">
        <ele>930</ele>
        <time>2019-04-20T14:01:01Z</time>
      </trkpt>
      <trkpt lat="44.00049" lon="6.86859">
        <ele>930</ele>
        <time>2019-04-20T14:01:01Z</time>
      </trkpt>
      <trkpt lat="44.00049" lon="6.86862">
        <ele>930</ele>
        <time>2019-04-20T14:01:17Z</time>
      </trkpt>
      <trkpt lat="44.00052" lon="6.86866">
        <ele>930</ele>
        <time>2019-04-20T14:01:17Z</time>
      </trkpt>
      <trkpt lat="44.00055" lon="6.86871">
        <ele>930</ele>
        <time>2019-04-20T14:01:17Z</time>
      </trkpt>
      <trkpt lat="44.00057" lon="6.86878">
        <ele>915</ele>
        <time>2019-04-20T14:01:17Z</time>
      </trkpt>
      <trkpt lat="44.00058" lon="6.86883">
        <ele>915</ele>
        <time>2019-04-20T14:01:33Z</time>
      </trkpt>
      <trkpt lat="44.0006" lon="6.86891">
        <ele>915</ele>
        <time>2019-04-20T14:01:33Z</time>
      </trkpt>
      <trkpt lat="44.00062" lon="6.86897">
        <ele>915</ele>
        <time>2019-04-20T14:01:33Z</time>
      </trkpt>
      <trkpt lat="44.00062" lon="6.86904">
        <ele>915</ele>
        <time>2019-04-20T14:01:33Z</time>
      </trkpt>
      <trkpt lat="44.00062" lon="6.86911">
        <ele>915</ele>
        <time>2019-04-20T14:01:49Z</time>
      </trkpt>
      <trkpt lat="44.00063" lon="6.86918">
        <ele>915</ele>
        <time>2019-04-20T14:01:49Z</time>
      </trkpt>
      <trkpt lat="44.00064" lon="6.86924">
        <ele>915</ele>
        <time>2019-04-20T14:01:49Z</time>
      </trkpt>
      <trkpt lat="44.00065" lon="6.86932">
        <ele>915</ele>
        <time>2019-04-20T14:01:49Z</time>
      </trkpt>
      <trkpt lat="44.00065" lon="6.86938">
        <ele>915</ele>
        <time>2019-04-20T14:02:05Z</time>
      </trkpt>
      <trkpt lat="44.00065" lon="6.86943">
        <ele>915</ele>
        <time>2019-04-20T14:02:05Z</time>
      </trkpt>
      <trkpt lat="44.00065" lon="6.86949">
        <ele>915</ele>
        <time>2019-04-20T14:02:05Z</time>
      </trkpt>
      <trkpt lat="44.00067" lon="6.86954">
        <ele>915</ele>
        <time>2019-04-20T14:02:05Z</time>
      </trkpt>
      <trkpt lat="44.00068" lon="6.8696">
        <ele>890</ele>
        <time>2019-04-20T14:02:21Z</time>
      </trkpt>
      <trkpt lat="44.00069" lon="6.86967">
        <ele>890</ele>
        <time>2019-04-20T14:02:21Z</time>
      </trkpt>
      <trkpt lat="44.00072" lon="6.86972">
        <ele>890</ele>
        <time>2019-04-20T14:02:21Z</time>
      </trkpt>
      <trkpt lat="44.00076" lon="6.86977">
        <ele>890</ele>
        <time>2019-04-20T14:02:21Z</time>
      </trkpt>
      <trkpt lat="44.00079" lon="6.86981">
        <ele>890</ele>
        <time>2019-04-20T14:02:37Z</time>
      </trkpt>
      <trkpt lat="44.0008" lon="6.86989">
        <ele>890</ele>
        <time>2019-04-20T14:02:37Z</time>
      </trkpt>
      <trkpt lat="44.00082" lon="6.86994">
        <ele>890</ele>
        <time>2019-04-20T14:02:37Z</time>
      </trkpt>
      <trkpt lat="44.00086" lon="6.86996">
        <ele>890</ele>
        <time>2019-04-20T14:02:37Z</time>
      </trkpt>
      <trkpt lat="44.00095" lon="6.86996">
        <ele>890</ele>
        <time>2019-04-20T14:03:05Z</time>
      </trkpt>
      <trkpt lat="44.00096" lon="6.86995">
        <ele>890</ele>
        <time>2019-04-20T14:03:05Z</time>
      </trkpt>
      <trkpt lat="44.00099" lon="6.86995">
        <ele>890</ele>
        <time>2019-04-20T14:03:05Z</time>
      </trkpt>
      <trkpt lat="44.00103" lon="6.86998">
        <ele>890</ele>
        <time>2019-04-20T14:03:05Z</time>
      </trkpt>
      <trkpt lat="44.00109" lon="6.86998">
        <ele>890</ele>
        <time>2019-04-20T14:03:05Z</time>
      </trkpt>
      <trkpt lat="44.00114" lon="6.86999">
        <ele>890</ele>
        <time>2019-04-20T14:03:21Z</time>
      </trkpt>
      <trkpt lat="44.0012" lon="6.86998">
        <ele>890</ele>
        <time>2019-04-20T14:03:21Z</time>
      </trkpt>
      <trkpt lat="44.00128" lon="6.86996">
        <ele>899</ele>
        <time>2019-04-20T14:03:21Z</time>
      </trkpt>
      <trkpt lat="44.00134" lon="6.86995">
        <ele>899</ele>
        <time>2019-04-20T14:03:21Z</time>
      </trkpt>
      <trkpt lat="44.00139" lon="6.86997">
        <ele>899</ele>
        <time>2019-04-20T14:03:37Z</time>
      </trkpt>
      <trkpt lat="44.00141" lon="6.86998">
        <ele>899</ele>
        <time>2019-04-20T14:03:37Z</time>
      </trkpt>
      <trkpt lat="44.00145" lon="6.86999">
        <ele>899</ele>
        <time>2019-04-20T14:03:37Z</time>
      </trkpt>
      <trkpt lat="44.00149" lon="6.86999">
        <ele>899</ele>
        <time>2019-04-20T14:03:37Z</time>
      </trkpt>
      <trkpt lat="44.00152" lon="6.87">
        <ele>899</ele>
        <time>2019-04-20T14:03:53Z</time>
      </trkpt>
      <trkpt lat="44.00155" lon="6.87001">
        <ele>899</ele>
        <time>2019-04-20T14:03:53Z</time>
      </trkpt>
      <trkpt lat="44.0016" lon="6.87002">
        <ele>899</ele>
        <time>2019-04-20T14:03:53Z</time>
      </trkpt>
      <trkpt lat="44.00163" lon="6.87002">
        <ele>899</ele>
        <time>2019-04-20T14:03:53Z</time>
      </trkpt>
      <trkpt lat="44.00167" lon="6.87003">
        <ele>899</ele>
        <time>2019-04-20T14:04:09Z</time>
      </trkpt>
      <trkpt lat="44.00172" lon="6.87003">
        <ele>899</ele>
        <time>2019-04-20T14:04:09Z</time>
      </trkpt>
      <trkpt lat="44.00178" lon="6.87003">
        <ele>899</ele>
        <time>2019-04-20T14:04:09Z</time>
      </trkpt>
      <trkpt lat="44.00182" lon="6.87003">
        <ele>899</ele>
        <time>2019-04-20T14:04:09Z</time>
      </trkpt>
      <trkpt lat="44.00186" lon="6.87001">
        <ele>899</ele>
        <time>2019-04-20T14:04:25Z</time>
      </trkpt>
      <trkpt lat="44.0019" lon="6.87">
        <ele>899</ele>
        <time>2019-04-20T14:04:25Z</time>
      </trkpt>
      <trkpt lat="44.00194" lon="6.86997">
        <ele>899</ele>
        <time>2019-04-20T14:04:25Z</time>
      </trkpt>
      <trkpt lat="44.00197" lon="6.86995">
        <ele>899</ele>
        <time>2019-04-20T14:04:25Z</time>
      </trkpt>
      <trkpt lat="44.002" lon="6.86994">
        <ele>899</ele>
        <time>2019-04-20T14:04:41Z</time>
      </trkpt>
      <trkpt lat="44.00203" lon="6.86991">
        <ele>899</ele>
        <time>2019-04-20T14:04:41Z</time>
      </trkpt>
      <trkpt lat="44.00206" lon="6.86989">
        <ele>899</ele>
        <time>2019-04-20T14:04:41Z</time>
      </trkpt>
      <trkpt lat="44.0021" lon="6.86986">
        <ele>892</ele>
        <time>2019-04-20T14:04:41Z</time>
      </trkpt>
      <trkpt lat="44.00214" lon="6.86983">
        <ele>892</ele>
        <time>2019-04-20T14:04:57Z</time>
      </trkpt>
      <trkpt lat="44.00219" lon="6.86979">
        <ele>892</ele>
        <time>2019-04-20T14:04:57Z</time>
      </trkpt>
      <trkpt lat="44.00223" lon="6.86975">
        <ele>892</ele>
        <time>2019-04-20T14:04:57Z</time>
      </trkpt>
      <trkpt lat="44.00229" lon="6.86973">
        <ele>892</ele>
        <time>2019-04-20T14:04:57Z</time>
      </trkpt>
      <trkpt lat="44.00236" lon="6.86971">
        <ele>892</ele>
        <time>2019-04-20T14:05:13Z</time>
      </trkpt>
      <trkpt lat="44.00241" lon="6.86969">
        <ele>892</ele>
        <time>2019-04-20T14:05:13Z</time>
      </trkpt>
      <trkpt lat="44.00247" lon="6.86967">
        <ele>892</ele>
        <time>2019-04-20T14:05:13Z</time>
      </trkpt>
      <trkpt lat="44.00252" lon="6.86967">
        <ele>892</ele>
        <time>2019-04-20T14:05:13Z</time>
      </trkpt>
      <trkpt lat="44.00261" lon="6.86966">
        <ele>892</ele>
        <time>2019-04-20T14:05:57Z</time>
      </trkpt>
      <trkpt lat="44.00261" lon="6.86967">
        <ele>892</ele>
        <time>2019-04-20T14:05:57Z</time>
      </trkpt>
      <trkpt lat="44.00261" lon="6.86968">
        <ele>892</ele>
        <time>2019-04-20T14:05:57Z</time>
      </trkpt>
      <trkpt lat="44.00262" lon="6.86966">
        <ele>892</ele>
        <time>2019-04-20T14:05:57Z</time>
      </trkpt>
      <trkpt lat="44.00266" lon="6.86966">
        <ele>892</ele>
        <time>2019-04-20T14:05:57Z</time>
      </trkpt>
      <trkpt lat="44.00272" lon="6.86965">
        <ele>892</ele>
        <time>2019-04-20T14:06:13Z</time>
      </trkpt>
      <trkpt lat="44.00277" lon="6.86965">
        <ele>892</ele>
        <time>2019-04-20T14:06:13Z</time>
      </trkpt>
      <trkpt lat="44.00282" lon="6.86963">
        <ele>892</ele>
        <time>2019-04-20T14:06:13Z</time>
      </trkpt>
      <trkpt lat="44.00287" lon="6.86964">
        <ele>892</ele>
        <time>2019-04-20T14:06:13Z</time>
      </trkpt>
      <trkpt lat="44.0029" lon="6.86962">
        <ele>892</ele>
        <time>2019-04-20T14:06:29Z</time>
      </trkpt>
      <trkpt lat="44.00293" lon="6.8696">
        <ele>882</ele>
        <time>2019-04-20T14:06:29Z</time>
      </trkpt>
      <trkpt lat="44.00299" lon="6.86959">
        <ele>882</ele>
        <time>2019-04-20T14:06:29Z</time>
      </trkpt>
      <trkpt lat="44.00305" lon="6.86956">
        <ele>926</ele>
        <time>2019-04-20T14:06:29Z</time>
      </trkpt>
      <trkpt lat="44.00309" lon="6.86954">
        <ele>926</ele>
        <time>2019-04-20T14:06:45Z</time>
      </trkpt>
      <trkpt lat="44.00313" lon="6.86951">
        <ele>926</ele>
        <time>2019-04-20T14:06:45Z</time>
      </trkpt>
      <trkpt lat="44.00318" lon="6.86948">
        <ele>926</ele>
        <time>2019-04-20T14:06:45Z</time>
      </trkpt>
      <trkpt lat="44.00325" lon="6.86946">
        <ele>926</ele>
        <time>2019-04-20T14:06:45Z</time>
      </trkpt>
      <trkpt lat="44.00328" lon="6.86945">
        <ele>926</ele>
        <time>2019-04-20T14:07:01Z</time>
      </trkpt>
      <trkpt lat="44.00331" lon="6.86943">
        <ele>926</ele>
        <time>2019-04-20T14:07:01Z</time>
      </trkpt>
      <trkpt lat="44.00337" lon="6.86939">
        <ele>926</ele>
        <time>2019-04-20T14:07:01Z</time>
      </trkpt>
      <trkpt lat="44.00343" lon="6.86937">
        <ele>926</ele>
        <time>2019-04-20T14:07:01Z</time>
      </trkpt>
      <trkpt lat="44.00347" lon="6.86941">
        <ele>926</ele>
        <time>2019-04-20T14:07:17Z</time>
      </trkpt>
      <trkpt lat="44.00348" lon="6.86946">
        <ele>926</ele>
        <time>2019-04-20T14:07:17Z</time>
      </trkpt>
      <trkpt lat="44.00351" lon="6.86949">
        <ele>926</ele>
        <time>2019-04-20T14:07:17Z</time>
      </trkpt>
      <trkpt lat="44.00355" lon="6.86952">
        <ele>926</ele>
        <time>2019-04-20T14:07:17Z</time>
      </trkpt>
      <trkpt lat="44.0036" lon="6.86955">
        <ele>926</ele>
        <time>2019-04-20T14:07:33Z</time>
      </trkpt>
      <trkpt lat="44.00365" lon="6.86956">
        <ele>926</ele>
        <time>2019-04-20T14:07:33Z</time>
      </trkpt>
      <trkpt lat="44.0037" lon="6.86957">
        <ele>926</ele>
        <time>2019-04-20T14:07:33Z</time>
      </trkpt>
      <trkpt lat="44.00374" lon="6.86959">
        <ele>882</ele>
        <time>2019-04-20T14:07:33Z</time>
      </trkpt>
      <trkpt lat="44.00377" lon="6.86963">
        <ele>885</ele>
        <time>2019-04-20T14:07:49Z</time>
      </trkpt>
      <trkpt lat="44.0038" lon="6.86967">
        <ele>885</ele>
        <time>2019-04-20T14:07:49Z</time>
      </trkpt>
      <trkpt lat="44.00385" lon="6.8697">
        <ele>885</ele>
        <time>2019-04-20T14:07:49Z</time>
      </trkpt>
      <trkpt lat="44.00391" lon="6.86972">
        <ele>885</ele>
        <time>2019-04-20T14:07:49Z</time>
      </trkpt>
      <trkpt lat="44.00396" lon="6.86973">
        <ele>885</ele>
        <time>2019-04-20T14:08:05Z</time>
      </trkpt>
      <trkpt lat="44.00399" lon="6.86972">
        <ele>885</ele>
        <time>2019-04-20T14:08:05Z</time>
      </trkpt>
      <trkpt lat="44.00403" lon="6.8697">
        <ele>885</ele>
        <time>2019-04-20T14:08:05Z</time>
      </trkpt>
      <trkpt lat="44.00409" lon="6.86966">
        <ele>885</ele>
        <time>2019-04-20T14:08:05Z</time>
      </trkpt>
      <trkpt lat="44.00411" lon="6.86963">
        <ele>885</ele>
        <time>2019-04-20T14:08:21Z</time>
      </trkpt>
      <trkpt lat="44.00413" lon="6.86957">
        <ele>930</ele>
        <time>2019-04-20T14:08:21Z</time>
      </trkpt>
      <trkpt lat="44.00415" lon="6.86951">
        <ele>930</ele>
        <time>2019-04-20T14:08:21Z</time>
      </trkpt>
      <trkpt lat="44.00421" lon="6.86949">
        <ele>930</ele>
        <time>2019-04-20T14:08:21Z</time>
      </trkpt>
      <trkpt lat="44.00426" lon="6.86947">
        <ele>930</ele>
        <time>2019-04-20T14:08:37Z</time>
      </trkpt>
      <trkpt lat="44.00431" lon="6.86945">
        <ele>930</ele>
        <time>2019-04-20T14:08:37Z</time>
      </trkpt>
      <trkpt lat="44.00437" lon="6.86947">
        <ele>930</ele>
        <time>2019-04-20T14:08:37Z</time>
      </trkpt>
      <trkpt lat="44.00442" lon="6.86953">
        <ele>930</ele>
        <time>2019-04-20T14:08:37Z</time>
      </trkpt>
      <trkpt lat="44.00445" lon="6.86955">
        <ele>930</ele>
        <time>2019-04-20T14:08:53Z</time>
      </trkpt>
      <trkpt lat="44.00449" lon="6.86957">
        <ele>930</ele>
        <time>2019-04-20T14:08:53Z</time>
      </trkpt>
      <trkpt lat="44.00453" lon="6.86958">
        <ele>885</ele>
        <time>2019-04-20T14:08:53Z</time>
      </trkpt>
      <trkpt lat="44.00459" lon="6.86961">
        <ele>903</ele>
        <time>2019-04-20T14:08:53Z</time>
      </trkpt>
      <trkpt lat="44.00464" lon="6.86962">
        <ele>903</ele>
        <time>2019-04-20T14:09:09Z</time>
      </trkpt>
      <trkpt lat="44.00469" lon="6.86965">
        <ele>903</ele>
        <time>2019-04-20T14:09:09Z</time>
      </trkpt>
      <trkpt lat="44.0047" lon="6.86972">
        <ele>903</ele>
        <time>2019-04-20T14:09:09Z</time>
      </trkpt>
      <trkpt lat="44.00472" lon="6.86978">
        <ele>903</ele>
        <time>2019-04-20T14:09:09Z</time>
      </trkpt>
      <trkpt lat="44.00475" lon="6.86984">
        <ele>903</ele>
        <time>2019-04-20T14:09:25Z</time>
      </trkpt>
      <trkpt lat="44.00477" lon="6.86988">
        <ele>903</ele>
        <time>2019-04-20T14:09:25Z</time>
      </trkpt>
      <trkpt lat="44.00479" lon="6.86993">
        <ele>903</ele>
        <time>2019-04-20T14:09:25Z</time>
      </trkpt>
      <trkpt lat="44.00481" lon="6.87">
        <ele>903</ele>
        <time>2019-04-20T14:09:25Z</time>
      </trkpt>
      <trkpt lat="44.00483" lon="6.87006">
        <ele>903</ele>
        <time>2019-04-20T14:09:41Z</time>
      </trkpt>
      <trkpt lat="44.00484" lon="6.87013">
        <ele>903</ele>
        <time>2019-04-20T14:09:41Z</time>
      </trkpt>
      <trkpt lat="44.00485" lon="6.87019">
        <ele>903</ele>
        <time>2019-04-20T14:09:41Z</time>
      </trkpt>
      <trkpt lat="44.00486" lon="6.87026">
        <ele>903</ele>
        <time>2019-04-20T14:09:41Z</time>
      </trkpt>
      <trkpt lat="44.00487" lon="6.87033">
        <ele>903</ele>
        <time>2019-04-20T14:09:57Z</time>
      </trkpt>
      <trkpt lat="44.00488" lon="6.87039">
        <ele>903</ele>
        <time>2019-04-20T14:09:57Z</time>
      </trkpt>
      <trkpt lat="44.0049" lon="6.87044">
        <ele>873</ele>
        <time>2019-04-20T14:09:57Z</time>
      </trkpt>
      <trkpt lat="44.00495" lon="6.87048">
        <ele>873</ele>
        <time>2019-04-20T14:09:57Z</time>
      </trkpt>
      <trkpt lat="44.00498" lon="6.87051">
        <ele>873</ele>
        <time>2019-04-20T14:10:13Z</time>
      </trkpt>
      <trkpt lat="44.00503" lon="6.87053">
        <ele>873</ele>
        <time>2019-04-20T14:10:13Z</time>
      </trkpt>
      <trkpt lat="44.00507" lon="6.87055">
        <ele>873</ele>
        <time>2019-04-20T14:10:13Z</time>
      </trkpt>
      <trkpt lat="44.00511" lon="6.87057">
        <ele>873</ele>
        <time>2019-04-20T14:10:13Z</time>
      </trkpt>
      <trkpt lat="44.00514" lon="6.87059">
        <ele>873</ele>
        <time>2019-04-20T14:10:29Z</time>
      </trkpt>
      <trkpt lat="44.00518" lon="6.87062">
        <ele>873</ele>
        <time>2019-04-20T14:10:29Z</time>
      </trkpt>
      <trkpt lat="44.00524" lon="6.87064">
        <ele>873</ele>
        <time>2019-04-20T14:10:29Z</time>
      </trkpt>
      <trkpt lat="44.00529" lon="6.87066">
        <ele>873</ele>
        <time>2019-04-20T14:10:29Z</time>
      </trkpt>
      <trkpt lat="44.00533" lon="6.87067">
        <ele>873</ele>
        <time>2019-04-20T14:10:45Z</time>
      </trkpt>
      <trkpt lat="44.00536" lon="6.8707">
        <ele>873</ele>
        <time>2019-04-20T14:10:45Z</time>
      </trkpt>
      <trkpt lat="44.00538" lon="6.87074">
        <ele>873</ele>
        <time>2019-04-20T14:10:45Z</time>
      </trkpt>
      <trkpt lat="44.00542" lon="6.87077">
        <ele>884</ele>
        <time>2019-04-20T14:10:45Z</time>
      </trkpt>
      <trkpt lat="44.00544" lon="6.87083">
        <ele>884</ele>
        <time>2019-04-20T14:11:01Z</time>
      </trkpt>
      <trkpt lat="44.00548" lon="6.87087">
        <ele>884</ele>
        <time>2019-04-20T14:11:01Z</time>
      </trkpt>
      <trkpt lat="44.00552" lon="6.8709">
        <ele>884</ele>
        <time>2019-04-20T14:11:01Z</time>
      </trkpt>
      <trkpt lat="44.00554" lon="6.87094">
        <ele>884</ele>
        <time>2019-04-20T14:11:01Z</time>
      </trkpt>
      <trkpt lat="44.00559" lon="6.87096">
        <ele>884</ele>
        <time>2019-04-20T14:11:17Z</time>
      </trkpt>
      <trkpt lat="44.00562" lon="6.87099">
        <ele>884</ele>
        <time>2019-04-20T14:11:17Z</time>
      </trkpt>
      <trkpt lat="44.00565" lon="6.87099">
        <ele>884</ele>
        <time>2019-04-20T14:11:17Z</time>
      </trkpt>
      <trkpt lat="44.00572" lon="6.87099">
        <ele>884</ele>
        <time>2019-04-20T14:11:17Z</time>
      </trkpt>
      <trkpt lat="44.00575" lon="6.87099">
        <ele>884</ele>
        <time>2019-04-20T14:11:37Z</time>
      </trkpt>
      <trkpt lat="44.00576" lon="6.87098">
        <ele>884</ele>
        <time>2019-04-20T14:11:37Z</time>
      </trkpt>
      <trkpt lat="44.00578" lon="6.87098">
        <ele>884</ele>
        <time>2019-04-20T14:11:37Z</time>
      </trkpt>
      <trkpt lat="44.00583" lon="6.87096">
        <ele>884</ele>
        <time>2019-04-20T14:11:37Z</time>
      </trkpt>
      <trkpt lat="44.00587" lon="6.87095">
        <ele>884</ele>
        <time>2019-04-20T14:11:37Z</time>
      </trkpt>
      <trkpt lat="44.00591" lon="6.87095">
        <ele>884</ele>
        <time>2019-04-20T14:11:53Z</time>
      </trkpt>
      <trkpt lat="44.00596" lon="6.87091">
        <ele>884</ele>
        <time>2019-04-20T14:11:53Z</time>
      </trkpt>
      <trkpt lat="44.006" lon="6.87091">
        <ele>884</ele>
        <time>2019-04-20T14:11:53Z</time>
      </trkpt>
      <trkpt lat="44.00603" lon="6.87092">
        <ele>884</ele>
        <time>2019-04-20T14:11:53Z</time>
      </trkpt>
      <trkpt lat="44.00607" lon="6.87093">
        <ele>884</ele>
        <time>2019-04-20T14:12:09Z</time>
      </trkpt>
      <trkpt lat="44.00612" lon="6.87093">
        <ele>884</ele>
        <time>2019-04-20T14:12:09Z</time>
      </trkpt>
      <trkpt lat="44.00619" lon="6.87094">
        <ele>884</ele>
        <time>2019-04-20T14:12:09Z</time>
      </trkpt>
      <trkpt lat="44.00626" lon="6.87093">
        <ele>889</ele>
        <time>2019-04-20T14:12:09Z</time>
      </trkpt>
      <trkpt lat="44.0063" lon="6.87092">
        <ele>889</ele>
        <time>2019-04-20T14:12:25Z</time>
      </trkpt>
      <trkpt lat="44.00635" lon="6.87095">
        <ele>889</ele>
        <time>2019-04-20T14:12:25Z</time>
      </trkpt>
      <trkpt lat="44.00638" lon="6.87097">
        <ele>889</ele>
        <time>2019-04-20T14:12:25Z</time>
      </trkpt>
      <trkpt lat="44.00642" lon="6.87098">
        <ele>889</ele>
        <time>2019-04-20T14:12:25Z</time>
      </trkpt>
      <trkpt lat="44.00645" lon="6.871">
        <ele>889</ele>
        <time>2019-04-20T14:12:41Z</time>
      </trkpt>
      <trkpt lat="44.00648" lon="6.87099">
        <ele>889</ele>
        <time>2019-04-20T14:12:41Z</time>
      </trkpt>
      <trkpt lat="44.00653" lon="6.87099">
        <ele>889</ele>
        <time>2019-04-20T14:12:41Z</time>
      </trkpt>
      <trkpt lat="44.00657" lon="6.87099">
        <ele>889</ele>
        <time>2019-04-20T14:12:41Z</time>
      </trkpt>
      <trkpt lat="44.0066" lon="6.87094">
        <ele>889</ele>
        <time>2019-04-20T14:12:57Z</time>
      </trkpt>
      <trkpt lat="44.00662" lon="6.87092">
        <ele>889</ele>
        <time>2019-04-20T14:12:57Z</time>
      </trkpt>
      <trkpt lat="44.00666" lon="6.87091">
        <ele>889</ele>
        <time>2019-04-20T14:12:57Z</time>
      </trkpt>
      <trkpt lat="44.00669" lon="6.8709">
        <ele>889</ele>
        <time>2019-04-20T14:12:57Z</time>
      </trkpt>
      <trkpt lat="44.00673" lon="6.87089">
        <ele>889</ele>
        <time>2019-04-20T14:13:13Z</time>
      </trkpt>
      <trkpt lat="44.00677" lon="6.87086">
        <ele>889</ele>
        <time>2019-04-20T14:13:13Z</time>
      </trkpt>
      <trkpt lat="44.00681" lon="6.87084">
        <ele>889</ele>
        <time>2019-04-20T14:13:13Z</time>
      </trkpt>
      <trkpt lat="44.00684" lon="6.87083">
        <ele>889</ele>
        <time>2019-04-20T14:13:13Z</time>
      </trkpt>
      <trkpt lat="44.00688" lon="6.87083">
        <ele>889</ele>
        <time>2019-04-20T14:13:29Z</time>
      </trkpt>
      <trkpt lat="44.00691" lon="6.87083">
        <ele>889</ele>
        <time>2019-04-20T14:13:29Z</time>
      </trkpt>
      <trkpt lat="44.00695" lon="6.87083">
        <ele>889</ele>
        <time>2019-04-20T14:13:29Z</time>
      </trkpt>
      <trkpt lat="44.007" lon="6.87083">
        <ele>889</ele>
        <time>2019-04-20T14:13:29Z</time>
      </trkpt>
      <trkpt lat="44.00704" lon="6.87084">
        <ele>889</ele>
        <time>2019-04-20T14:13:45Z</time>
      </trkpt>
      <trkpt lat="44.00707" lon="6.87088">
        <ele>889</ele>
        <time>2019-04-20T14:13:45Z</time>
      </trkpt>
      <trkpt lat="44.0071" lon="6.8709">
        <ele>898</ele>
        <time>2019-04-20T14:13:45Z</time>
      </trkpt>
      <trkpt lat="44.00713" lon="6.87094">
        <ele>898</ele>
        <time>2019-04-20T14:13:45Z</time>
      </trkpt>
      <trkpt lat="44.00715" lon="6.87097">
        <ele>898</ele>
        <time>2019-04-20T14:14:01Z</time>
      </trkpt>
      <trkpt lat="44.00717" lon="6.87101">
        <ele>898</ele>
        <time>2019-04-20T14:14:01Z</time>
      </trkpt>
      <trkpt lat="44.00719" lon="6.87104">
        <ele>898</ele>
        <time>2019-04-20T14:14:01Z</time>
      </trkpt>
      <trkpt lat="44.00721" lon="6.87108">
        <ele>898</ele>
        <time>2019-04-20T14:14:01Z</time>
      </trkpt>
      <trkpt lat="44.00723" lon="6.87109">
        <ele>898</ele>
        <time>2019-04-20T14:14:17Z</time>
      </trkpt>
      <trkpt lat="44.00727" lon="6.8711">
        <ele>898</ele>
        <time>2019-04-20T14:14:17Z</time>
      </trkpt>
      <trkpt lat="44.00731" lon="6.87112">
        <ele>898</ele>
        <time>2019-04-20T14:14:17Z</time>
      </trkpt>
      <trkpt lat="44.00735" lon="6.87112">
        <ele>898</ele>
        <time>2019-04-20T14:14:17Z</time>
      </trkpt>
      <trkpt lat="44.00739" lon="6.87113">
        <ele>898</ele>
        <time>2019-04-20T14:14:33Z</time>
      </trkpt>
      <trkpt lat="44.00742" lon="6.87113">
        <ele>898</ele>
        <time>2019-04-20T14:14:33Z</time>
      </trkpt>
      <trkpt lat="44.00745" lon="6.87114">
        <ele>898</ele>
        <time>2019-04-20T14:14:33Z</time>
      </trkpt>
      <trkpt lat="44.00749" lon="6.87112">
        <ele>898</ele>
        <time>2019-04-20T14:14:33Z</time>
      </trkpt>
      <trkpt lat="44.00753" lon="6.87112">
        <ele>898</ele>
        <time>2019-04-20T14:14:49Z</time>
      </trkpt>
      <trkpt lat="44.00756" lon="6.87111">
        <ele>898</ele>
        <time>2019-04-20T14:14:49Z</time>
      </trkpt>
      <trkpt lat="44.00758" lon="6.87108">
        <ele>898</ele>
        <time>2019-04-20T14:14:49Z</time>
      </trkpt>
      <trkpt lat="44.00761" lon="6.87106">
        <ele>898</ele>
        <time>2019-04-20T14:14:49Z</time>
      </trkpt>
      <trkpt lat="44.00764" lon="6.87103">
        <ele>898</ele>
        <time>2019-04-20T14:15:05Z</time>
      </trkpt>
      <trkpt lat="44.00766" lon="6.87099">
        <ele>898</ele>
        <time>2019-04-20T14:15:05Z</time>
      </trkpt>
      <trkpt lat="44.00768" lon="6.87095">
        <ele>898</ele>
        <time>2019-04-20T14:15:05Z</time>
      </trkpt>
      <trkpt lat="44.00772" lon="6.87091">
        <ele>898</ele>
        <time>2019-04-20T14:15:05Z</time>
      </trkpt>
      <trkpt lat="44.00776" lon="6.87089">
        <ele>898</ele>
        <time>2019-04-20T14:15:21Z</time>
      </trkpt>
      <trkpt lat="44.00779" lon="6.87088">
        <ele>898</ele>
        <time>2019-04-20T14:15:21Z</time>
      </trkpt>
      <trkpt lat="44.00782" lon="6.87086">
        <ele>898</ele>
        <time>2019-04-20T14:15:21Z</time>
      </trkpt>
      <trkpt lat="44.00784" lon="6.87084">
        <ele>898</ele>
        <time>2019-04-20T14:15:21Z</time>
      </trkpt>
    </trkseg>
  </trk>
</gpx>